# Wetter Temperatur Luftdruck Luftfeuchtigkeit Sichtweite Windgeschwindigkeit Windrichtung Zeit
1 Clear -2 1023 40 10000 3 280 12:44 22.04.2021
2 Clear -1 1023 37 10000 4 290 12:20 22.04.2021
3 Clear -1 1023 40 10000 2 310 11:45 22.04.2021
4 Clear -1 1023 37 10000 3 300 11:23 22.04.2021
5 Clear -1 1023 37 10000 3 300 11:23 22.04.2021
6 Clear -1 1022 34 10000 4 330 10:45 22.04.2021
7 Clear 0 1022 32 10000 4 340 10:22 22.04.2021
8 Clouds 0 1022 34 10000 4 360 09:44 22.04.2021
9 Clouds 0 1022 34 10000 4 340 09:20 22.04.2021
10 Clear 0 1022 32 10000 4 330 08:39 22.04.2021
11 Snow 0 1022 32 10000 4 330 08:19 22.04.2021
12 Snow 0 1022 32 10000 5 320 07:44 22.04.2021
13 Snow 0 1022 32 10000 4 330 07:20 22.04.2021
14 Snow -1 1022 40 10000 2 40 06:27 22.04.2021
15 Snow -1 1022 40 10000 2 40 06:27 22.04.2021
16 Clear -2 1022 40 10000 3 20 05:26 22.04.2021
17 Clear -3 1022 50 10000 2 70 04:30 22.04.2021
18 Clear -10 1022 57 10000 2 320 00:57 22.04.2021
19 Clear -13 1021 66 10000 1 320 23:48 21.04.2021
20 Clear -14 1021 66 10000 1 320 23:28 21.04.2021
21 Clear -15 1021 72 10000 2 320 22:44 21.04.2021
22 Clear -15 1021 72 10000 2 320 22:24 21.04.2021
23 Clear -15 1020 66 10000 1 320 21:49 21.04.2021
24 Clear -15 1020 72 10000 2 300 21:24 21.04.2021
25 Clear -15 1020 72 10000 2 340 20:59 21.04.2021
26 Clear -15 1020 72 10000 2 310 20:21 21.04.2021
27 Clear -14 1020 66 10000 2 310 19:43 21.04.2021
28 Clear -14 1020 72 10000 3 300 19:25 21.04.2021
29 Clear -14 1020 72 10000 3 340 18:46 21.04.2021
30 Clear -13 1020 66 10000 2 300 18:28 21.04.2021
31 Clear -12 1020 61 10000 3 290 17:49 21.04.2021
32 Clear -12 1019 61 10000 3 290 17:25 21.04.2021
33 Clear -12 1019 61 10000 3 290 17:25 21.04.2021
34 Clear -12 1019 61 10000 3 290 17:25 21.04.2021
35 Clear -12 1019 61 10000 3 290 17:25 21.04.2021
36 Clear -11 1019 62 10000 1 300 16:55 21.04.2021
37 Clear -10 1019 62 10000 3 290 16:23 21.04.2021
38 Clear -9 1019 67 10000 3 310 15:42 21.04.2021
39 Clear -9 1019 67 10000 3 310 15:18 21.04.2021
40 Clear -10 1018 62 10000 1.07 314 14:42 21.04.2021
41 Clear -10 1018 62 10000 0.95 315 14:22 21.04.2021
42 Clear -7 1018 53 10000 0.95 315 13:44 21.04.2021
43 Clear -6 1018 49 10000 0.29 335 13:21 21.04.2021
44 Clear -2 1018 37 10000 1 70 12:32 21.04.2021
45 Clear -2 1018 37 10000 2 60 11:50 21.04.2021
46 Clear -2 1018 37 10000 2 30 11:32 21.04.2021
47 Clear -1 1018 34 10000 1 60 10:57 21.04.2021
48 Clear -1 1017 37 10000 2 60 10:36 21.04.2021
49 Clear -1 1017 37 10000 2 80 09:56 21.04.2021
50 Clear -1 1017 37 10000 2 60 09:20 21.04.2021
51 Clear -2 1018 46 10000 2 60 08:41 21.04.2021
52 Clear -2 1018 46 10000 2 60 08:22 21.04.2021
53 Clear -2 1017 40 10000 2 120 07:32 21.04.2021
54 Clear -3 1017 46 10000 3 140 06:59 21.04.2021
55 Clear -4 1018 46 10000 4 140 05:45 21.04.2021
56 Clear -9 1017 53 10000 1 160 01:34 21.04.2021
57 Clear -15 1017 72 10000 1 280 23:59 20.04.2021
58 Clear -16 1016 72 10000 2 280 23:38 20.04.2021
59 Clear -17 1016 78 10000 1 270 22:45 20.04.2021
60 Clear -18 1016 78 10000 1 270 22:23 20.04.2021
61 Clear -15 1015 72 10000 3 280 21:48 20.04.2021
62 Clear -15 1015 72 10000 4 280 21:28 20.04.2021
63 Clear -14 1015 66 10000 4 280 20:58 20.04.2021
64 Clear -13 1015 66 10000 4 290 20:38 20.04.2021
65 Clear -13 1015 66 10000 4 290 20:18 20.04.2021
66 Clear -13 1015 66 10000 4 290 19:44 20.04.2021
67 Clear -12 1014 67 10000 4 300 19:26 20.04.2021
68 Clear -12 1014 67 10000 4 300 18:41 20.04.2021
69 Clear -12 1014 67 10000 4 300 18:21 20.04.2021
70 Clear -11 1014 62 10000 4 290 17:39 20.04.2021
71 Clear -10 1014 57 10000 4 290 16:50 20.04.2021
72 Clear -9 1013 57 10000 2 290 15:53 20.04.2021
73 Clear -9 1013 57 10000 3 270 15:30 20.04.2021
74 Clear -11 1013 62 10000 2 250 14:59 20.04.2021
75 Clear -8 1013 53 10000 3 260 14:35 20.04.2021
76 Clear -6 1013 49 10000 3 260 13:54 20.04.2021
77 Clear -5 1013 46 10000 3 270 13:26 20.04.2021
78 Clear -3 1012 39 10000 3 270 12:51 20.04.2021
79 Clear -3 1012 43 10000 4 270 12:23 20.04.2021
80 Clear -2 1012 37 10000 5 260 11:46 20.04.2021
81 Clear -2 1012 40 10000 4 270 11:25 20.04.2021
82 Clear -2 1011 40 10000 4 290 10:47 20.04.2021
83 Clear -2 1011 40 10000 4 260 10:24 20.04.2021
84 Clear -2 1011 40 10000 5 260 09:45 20.04.2021
85 Clear -2 1011 40 10000 5 260 08:57 20.04.2021
86 Clear -2 1011 40 10000 4 280 08:33 20.04.2021
87 Clear -3 1011 43 10000 4 260 07:50 20.04.2021
88 Clear -3 1011 43 10000 3 270 07:21 20.04.2021
89 Clear -6 1011 53 10000 5 280 05:41 20.04.2021
90 Clear -7 1011 58 10000 6 280 04:42 20.04.2021
91 Clear -8 1011 57 10000 5 290 02:47 20.04.2021
92 Clear -8 1012 57 10000 6 290 00:49 20.04.2021
93 Clear -9 1012 62 10000 5 300 23:47 19.04.2021
94 Clear -9 1012 62 10000 5 300 23:27 19.04.2021
95 Clear -10 1013 62 10000 6 300 22:36 19.04.2021
96 Clear -9 1013 57 10000 6 300 21:59 19.04.2021
97 Clear -9 1013 57 10000 5 290 21:37 19.04.2021
98 Clear -9 1013 57 10000 5 290 21:19 19.04.2021
99 Clear -9 1013 57 10000 5 300 20:40 19.04.2021
100 Clear -9 1013 57 10000 5 300 20:20 19.04.2021
101 Clear -8 1014 53 10000 5 310 19:43 19.04.2021
102 Clear -8 1014 53 10000 5 310 19:24 19.04.2021
103 Clear -8 1014 57 10000 5 300 18:47 19.04.2021
104 Clear -8 1014 57 10000 5 300 18:47 19.04.2021
105 Clear -7 1014 53 10000 5 310 18:23 19.04.2021
106 Clear -7 1014 53 10000 5 310 17:55 19.04.2021
107 Clear -7 1014 58 10000 5 310 17:30 19.04.2021
108 Clear -7 1014 58 10000 5 310 16:58 19.04.2021
109 Clear -6 1014 53 10000 5 310 16:39 19.04.2021
110 Clear -6 1014 53 10000 5 310 16:20 19.04.2021
111 Clear -6 1014 58 10000 4 310 15:40 19.04.2021
112 Clear -6 1014 58 10000 4 310 15:20 19.04.2021
113 Clouds -5 1015 54 10000 4 310 14:37 19.04.2021
114 Clouds -5 1015 54 10000 4 310 14:19 19.04.2021
115 Clouds -4 1015 50 10000 5 310 13:36 19.04.2021
116 Clouds -4 1015 50 10000 5 310 13:18 19.04.2021
117 Clouds -4 1015 50 10000 5 310 12:42 19.04.2021
118 Clouds -4 1015 50 10000 5 310 12:22 19.04.2021
119 Clouds -4 1014 50 10000 6 320 11:53 19.04.2021
120 Clouds -4 1014 50 10000 4 320 11:21 19.04.2021
121 Clear -4 1014 50 10000 6 320 10:45 19.04.2021
122 Clear -4 1014 50 10000 5 320 10:21 19.04.2021
123 Clear -4 1014 50 10000 5 320 09:49 19.04.2021
124 Clear -4 1014 50 10000 5 310 09:27 19.04.2021
125 Clouds -4 1014 50 10000 4 330 08:58 19.04.2021
126 Clouds -4 1014 50 10000 4 330 08:25 19.04.2021
127 Snow -4 1014 46 10000 4 320 07:48 19.04.2021
128 Clouds -5 1014 50 10000 5 330 07:19 19.04.2021
129 Snow -5 1014 46 10000 5 350 05:44 19.04.2021
130 Clear -6 1014 49 10000 4 340 02:35 19.04.2021
131 Snow -7 1014 53 10000 4 330 00:47 19.04.2021
132 Snow -7 1014 53 10000 4 330 23:49 18.04.2021
133 Clear -7 1014 49 10000 5 330 23:18 18.04.2021
134 Clear -7 1014 53 10000 4 330 22:46 18.04.2021
135 Clear -7 1014 53 10000 4 330 22:24 18.04.2021
136 Clear -6 1014 49 10000 4 330 21:29 18.04.2021
137 Clear -6 1014 49 10000 4 330 20:57 18.04.2021
138 Clear -6 1014 49 10000 4 330 20:38 18.04.2021
139 Clear -6 1014 49 10000 4 330 20:38 18.04.2021
140 Clear -6 1014 49 10000 4 330 20:20 18.04.2021
141 Clear -6 1014 49 10000 4 330 19:44 18.04.2021
142 Clear -6 1014 49 10000 3 320 19:23 18.04.2021
143 Clear -5 1014 46 10000 4 320 18:50 18.04.2021
144 Clear -5 1015 46 10000 4 320 18:30 18.04.2021
145 Clear -5 1014 46 10000 3 310 17:50 18.04.2021
146 Clear -5 1014 46 10000 3 320 17:30 18.04.2021
147 Clear -5 1014 46 10000 3 330 16:54 18.04.2021
148 Clear -5 1014 46 10000 3 340 16:35 18.04.2021
149 Clear -5 1014 50 10000 3 350 15:51 18.04.2021
150 Clear -4 1014 46 10000 3 350 15:32 18.04.2021
151 Clear -4 1014 46 10000 3 350 14:58 18.04.2021
152 Clear -3 1014 43 10000 3 340 14:40 18.04.2021
153 Clear -3 1014 43 10000 3 340 14:18 18.04.2021
154 Clear -3 1013 39 10000 2 320 13:44 18.04.2021
155 Clear -2 1013 37 10000 2 290 13:26 18.04.2021
156 Clear -1 1012 31 10000 2 290 12:36 18.04.2021
157 Clear -1 1012 34 10000 2 280 11:52 18.04.2021
158 Clear -1 1011 31 10000 4 260 11:27 18.04.2021
159 Clear 0 1011 29 10000 5 260 10:58 18.04.2021
160 Clear 0 1011 32 10000 5 250 10:40 18.04.2021
161 Clear 0 1010 32 10000 4 240 09:58 18.04.2021
162 Clear 0 1010 32 10000 3 230 09:39 18.04.2021
163 Clear 0 1010 32 10000 3 230 09:19 18.04.2021
164 Clear 0 1010 32 10000 5 250 08:44 18.04.2021
165 Clear 0 1010 34 10000 5 250 08:24 18.04.2021
166 Clear 0 1009 34 10000 6 250 07:40 18.04.2021
167 Clear -1 1008 34 10000 8 230 05:56 18.04.2021
168 Clouds -2 1008 40 10000 9 230 05:26 18.04.2021
169 Clouds -1 1008 43 10000 7 220 04:31 18.04.2021
170 Clouds -2 1006 43 10000 6 250 02:23 18.04.2021
171 Clear -3 1005 50 10000 4 260 00:56 18.04.2021
172 Clouds -5 1004 68 10000 3 200 23:52 17.04.2021
173 Clouds -6 1003 68 10000 2 200 23:22 17.04.2021
174 Clouds -7 1003 73 10000 3 280 22:43 17.04.2021
175 Clouds -5 1003 74 10000 4 290 22:21 17.04.2021
176 Clear -6 1001 79 10000 2 220 21:41 17.04.2021
177 Clear -6 1001 79 10000 2 220 21:21 17.04.2021
178 Clear -5 1000 86 10000 4 250 20:29 17.04.2021
179 Clear -4 999 80 10000 5 250 19:46 17.04.2021
180 Clear -4 999 80 10000 5 250 19:46 17.04.2021
181 Clear -4 999 80 10000 3 270 19:23 17.04.2021
182 Clear -4 998 86 10000 4 260 18:59 17.04.2021
183 Clear -3 998 80 10000 6 240 18:40 17.04.2021
184 Clear -3 998 80 10000 6 240 18:20 17.04.2021
185 Clear -5 997 93 10000 5 210 17:41 17.04.2021
186 Clear -5 996 86 10000 5 210 16:56 17.04.2021
187 Clouds -4 996 86 10000 5 210 16:34 17.04.2021
188 Clouds -4 995 86 10000 5 210 15:58 17.04.2021
189 Clouds -2 995 86 10000 5 200 14:51 17.04.2021
190 Clouds -1 994 86 10000 5 200 14:33 17.04.2021
191 Clouds -1 994 86 10000 5 200 13:59 17.04.2021
192 Clouds -1 993 86 10000 5 200 13:40 17.04.2021
193 Snow -1 993 86 10000 6 200 12:42 17.04.2021
194 Snow -1 993 86 10000 6 200 12:22 17.04.2021
195 Snow -1 992 86 10000 6 200 11:50 17.04.2021
196 Snow -1 992 93 10000 5 190 11:31 17.04.2021
197 Snow -1 992 93 10000 5 190 10:47 17.04.2021
198 Snow -1 991 93 1800 5 190 10:29 17.04.2021
199 Snow -1 991 86 3200 5 200 09:44 17.04.2021
200 Snow 0 991 93 900 3 200 08:41 17.04.2021
201 Snow 0 991 93 900 3 200 08:22 17.04.2021
202 Snow 0 990 80 5000 5 260 07:20 17.04.2021
203 Snow 0 988 93 2100 3 290 03:57 17.04.2021
204 Snow 0 988 86 900 6 310 03:38 17.04.2021
205 Snow 0 988 86 5000 7 170 00:49 17.04.2021
206 Clouds 0 988 86 10000 7 180 00:29 17.04.2021
207 Snow 0 988 80 3200 8 190 23:48 16.04.2021
208 Snow 1 988 64 5000 9 190 23:25 16.04.2021
209 Snow 1 989 60 10000 6 170 22:50 16.04.2021
210 Snow 1 989 60 10000 6 170 22:22 16.04.2021
211 Snow 1 989 60 10000 6 170 22:22 16.04.2021
212 Snow 0 990 69 10000 6 170 21:51 16.04.2021
213 Snow 1 991 60 10000 6 180 21:30 16.04.2021
214 Snow 1 991 55 10000 8 180 20:50 16.04.2021
215 Snow 2 991 48 10000 8 190 20:27 16.04.2021
216 Snow 2 992 44 10000 6 180 19:55 16.04.2021
217 Snow 2 992 44 10000 6 170 19:30 16.04.2021
218 Snow 1 993 51 10000 4 170 18:43 16.04.2021
219 Clouds 1 994 51 10000 5 170 18:20 16.04.2021
220 Clouds 1 994 51 10000 6 160 17:43 16.04.2021
221 Clouds 1 995 55 10000 5 150 17:19 16.04.2021
222 Clouds 1 996 55 10000 4 150 16:42 16.04.2021
223 Clouds 1 996 55 10000 4 150 16:23 16.04.2021
224 Clouds 1 997 60 10000 4 160 15:45 16.04.2021
225 Clouds 1 998 60 10000 4 160 15:20 16.04.2021
226 Clouds 0 999 74 10000 2 170 14:42 16.04.2021
227 Clouds 0 999 74 10000 2 170 14:19 16.04.2021
228 Clouds 0 999 86 10000 3 150 13:46 16.04.2021
229 Clouds 1 999 69 10000 3 180 13:20 16.04.2021
230 Clouds 1 1000 80 10000 7 160 12:47 16.04.2021
231 Clouds 2 1000 60 10000 4 190 12:27 16.04.2021
232 Clouds 3 1000 52 10000 6 190 11:52 16.04.2021
233 Clouds 3 1001 52 10000 5 180 11:26 16.04.2021
234 Clouds 3 1001 52 10000 5 190 10:53 16.04.2021
235 Clouds 4 1001 45 10000 6 180 10:34 16.04.2021
236 Clouds 4 1001 45 10000 6 180 10:34 16.04.2021
237 Clouds 4 1002 38 10000 4 190 09:53 16.04.2021
238 Clouds 4 1002 35 10000 4 170 09:24 16.04.2021
239 Clouds 4 1002 38 10000 4 160 08:47 16.04.2021
240 Clouds 4 1003 41 10000 4 180 08:28 16.04.2021
241 Clouds 4 1003 41 10000 5 160 07:53 16.04.2021
242 Clear 4 1003 45 10000 5 170 07:35 16.04.2021
243 Clear 3 1004 48 10000 5 160 06:56 16.04.2021
244 Clear 2 1005 55 10000 4 170 05:34 16.04.2021
245 Clear 1 1005 47 10000 4 160 04:20 16.04.2021
246 Clear -8 1006 67 10000 1.5 237 00:55 16.04.2021
247 Clear -10 1005 73 10000 1 70 00:37 16.04.2021
248 Clear -10 1005 73 10000 1 70 00:18 16.04.2021
249 Clear -13 1005 78 10000 1.45 252 23:37 15.04.2021
250 Clear -13 1005 78 10000 2 290 22:54 15.04.2021
251 Clear -14 1005 85 10000 2 280 22:35 15.04.2021
252 Clear -14 1005 85 10000 1 280 21:59 15.04.2021
253 Clear -13 1005 85 10000 1 280 21:41 15.04.2021
254 Clear -13 1005 85 10000 1 280 21:20 15.04.2021
255 Clear -11 1004 79 10000 2 280 20:42 15.04.2021
256 Clear -11 1004 79 10000 2 280 20:21 15.04.2021
257 Clear -9 1004 73 10000 2 280 19:44 15.04.2021
258 Clear -9 1004 73 10000 3 270 19:24 15.04.2021
259 Clear -7 1004 68 10000 3 270 18:42 15.04.2021
260 Clear -7 1004 68 10000 3 270 18:21 15.04.2021
261 Clear -5 1004 63 10000 3 280 17:55 15.04.2021
262 Clear -5 1004 63 10000 3 280 17:55 15.04.2021
263 Clear -5 1004 63 10000 4 270 17:36 15.04.2021
264 Clear -5 1004 63 10000 4 270 17:36 15.04.2021
265 Clear -7 1004 63 10000 3 270 16:58 15.04.2021
266 Clear -9 1003 67 10000 2 240 16:40 15.04.2021
267 Clear -9 1003 67 10000 2 240 16:21 15.04.2021
268 Clear -7 1003 63 10000 1 250 15:44 15.04.2021
269 Snow -7 1003 63 10000 2 210 15:25 15.04.2021
270 Snow -4 1003 50 10000 3 200 14:41 15.04.2021
271 Clear -4 1003 50 10000 3 200 14:22 15.04.2021
272 Clear -4 1003 46 10000 2 210 13:42 15.04.2021
273 Snow -4 1003 46 10000 2 210 13:18 15.04.2021
274 Snow -1 1003 40 10000 2 180 12:41 15.04.2021
275 Snow -1 1003 40 10000 2 180 12:21 15.04.2021
276 Snow 0 1003 40 10000 2 160 11:45 15.04.2021
277 Snow 1 1003 34 10000 2 160 11:23 15.04.2021
278 Snow 1 1003 34 10000 3 140 10:55 15.04.2021
279 Clear 0 1003 40 10000 3 150 10:28 15.04.2021
280 Clear 1 1002 37 10000 3 140 09:49 15.04.2021
281 Clear 0 1002 37 10000 3 140 09:25 15.04.2021
282 Clear 0 1002 37 10000 3 120 08:49 15.04.2021
283 Clear 0 1002 40 10000 3 140 08:21 15.04.2021
284 Clear 0 1002 40 10000 2 130 07:25 15.04.2021
285 Clear 0 1002 40 10000 3 140 06:49 15.04.2021
286 Clear -1 1002 43 10000 2 170 06:30 15.04.2021
287 Clear -3 1003 50 10000 1 130 04:52 15.04.2021
288 Clear -11 1003 62 10000 1 130 02:51 15.04.2021
289 Clear -18 1003 78 10000 1 270 23:44 14.04.2021
290 Clear -19 1004 78 10000 2 290 23:25 14.04.2021
291 Clear -21 1004 84 10000 1 290 22:47 14.04.2021
292 Clear -19 1004 78 10000 1 270 22:27 14.04.2021
293 Clear -19 1004 84 10000 2 290 21:53 14.04.2021
294 Clear -18 1004 78 10000 2 290 21:32 14.04.2021
295 Clear -18 1004 78 10000 2 290 20:58 14.04.2021
296 Clear -18 1004 78 10000 2 290 20:35 14.04.2021
297 Clear -17 1004 78 10000 2 270 19:55 14.04.2021
298 Clear -17 1004 78 10000 2 270 19:55 14.04.2021
299 Clear -15 1005 72 10000 2 310 19:37 14.04.2021
300 Clear -15 1005 72 10000 2 310 19:18 14.04.2021
301 Clear -15 1005 78 10000 2 300 18:47 14.04.2021
302 Clear -15 1005 78 10000 3 290 18:18 14.04.2021
303 Clear -13 1005 72 10000 3 300 17:46 14.04.2021
304 Clear -13 1005 72 10000 3 300 17:23 14.04.2021
305 Clear -12 1006 72 10000 2 280 16:42 14.04.2021
306 Clear -12 1006 72 10000 2 280 16:21 14.04.2021
307 Clear -12 1006 79 10000 2 300 15:39 14.04.2021
308 Clear -12 1006 79 10000 2 300 15:18 14.04.2021
309 Clear -9 1006 67 10000 2 340 14:41 14.04.2021
310 Clear -9 1006 67 10000 2 340 14:21 14.04.2021
311 Clear -7 1006 63 10000 2 340 13:46 14.04.2021
312 Clear -4 1006 50 10000 3 30 12:45 14.04.2021
313 Clear -4 1007 50 10000 2 10 12:24 14.04.2021
314 Clear -2 1007 46 10000 2 60 11:42 14.04.2021
315 Clear -2 1007 46 10000 2 60 11:23 14.04.2021
316 Clear -2 1007 46 10000 2 30 10:34 14.04.2021
317 Clear -2 1007 50 10000 2 50 09:43 14.04.2021
318 Clear -1 1007 43 10000 2 60 09:25 14.04.2021
319 Clear -2 1007 46 10000 2 40 08:56 14.04.2021
320 Clear -2 1007 46 10000 2 20 08:30 14.04.2021
321 Clear -2 1008 40 10000 1 10 07:42 14.04.2021
322 Clear -3 1008 54 10000 0.36 315 06:35 14.04.2021
323 Clear -5 1008 63 10000 1 360 05:50 14.04.2021
324 Clear -13 1010 72 10000 1 10 02:40 14.04.2021
325 Clear -16 1011 78 10000 1 340 00:57 14.04.2021
326 Clear -17 1011 71 10000 1 350 00:32 14.04.2021
327 Clear -20 1011 77 10000 2 310 23:34 13.04.2021
328 Clear -21 1011 77 10000 2 310 22:45 13.04.2021
329 Clear -20 1011 77 10000 2 330 22:22 13.04.2021
330 Clear -20 1011 77 10000 2 320 21:50 13.04.2021
331 Clear -19 1011 78 10000 2 340 21:32 13.04.2021
332 Clear -19 1011 84 10000 2 320 20:55 13.04.2021
333 Clear -18 1011 78 10000 3 320 20:37 13.04.2021
334 Clear -18 1011 78 10000 3 320 20:19 13.04.2021
335 Clear -17 1012 78 10000 2 320 19:26 13.04.2021
336 Clear -17 1012 78 10000 2 310 18:58 13.04.2021
337 Clear -16 1012 78 10000 2 300 18:32 13.04.2021
338 Clear -16 1012 78 10000 3 300 17:44 13.04.2021
339 Clear -15 1012 78 10000 2 310 17:22 13.04.2021
340 Clear -15 1012 78 10000 3 300 16:55 13.04.2021
341 Clear -14 1012 72 10000 2 310 16:37 13.04.2021
342 Clear -14 1012 72 10000 2 310 16:18 13.04.2021
343 Clear -13 1013 78 10000 1 320 15:39 13.04.2021
344 Clear -11 1013 73 10000 1 340 14:58 13.04.2021
345 Clear -13 1013 72 10000 1 90 14:37 13.04.2021
346 Clear -13 1013 72 10000 1 90 14:18 13.04.2021
347 Clear -8 1013 62 10000 1 30 13:40 13.04.2021
348 Clear -8 1013 62 10000 1 30 13:20 13.04.2021
349 Clear -6 1013 58 10000 1 110 12:49 13.04.2021
350 Clear -6 1013 58 10000 1 90 12:23 13.04.2021
351 Clear -2 1013 40 10000 1 220 11:38 13.04.2021
352 Clear -2 1013 43 10000 0.58 352 10:58 13.04.2021
353 Clear 0 1014 32 10000 0.58 352 10:40 13.04.2021
354 Clear 0 1014 32 10000 0.65 47 10:19 13.04.2021
355 Clear -1 1014 37 10000 0.65 47 09:51 13.04.2021
356 Clear -1 1014 37 10000 0.84 45 09:26 13.04.2021
357 Clear -2 1014 40 10000 1 130 08:44 13.04.2021
358 Clear -2 1014 43 10000 2 60 08:22 13.04.2021
359 Clear -3 1015 39 10000 1 360 07:48 13.04.2021
360 Clear -3 1015 39 10000 1 30 07:26 13.04.2021
361 Clear -3 1016 54 10000 1 20 06:24 13.04.2021
362 Clear -9 1017 67 10000 1 20 03:44 13.04.2021
363 Clear -11 1018 79 10000 0.28 54 01:32 13.04.2021
364 Clear -17 1018 78 10000 1 220 23:52 12.04.2021
365 Clear -16 1018 85 10000 2 300 23:32 12.04.2021
366 Clear -16 1018 85 10000 0.89 296 22:52 12.04.2021
367 Clear -17 1018 85 10000 2 260 22:33 12.04.2021
368 Clear -17 1018 85 10000 2 260 22:33 12.04.2021
369 Clear -18 1018 85 10000 1 310 21:48 12.04.2021
370 Clear -17 1018 92 10000 2 270 21:25 12.04.2021
371 Clear -15 1018 92 10000 1 20 20:59 12.04.2021
372 Clear -14 1018 85 10000 1 240 20:36 12.04.2021
373 Clear -14 1018 85 10000 1 240 20:18 12.04.2021
374 Clear -11 1018 85 10000 2 240 19:40 12.04.2021
375 Clear -11 1018 85 10000 2 240 19:21 12.04.2021
376 Clear -11 1018 79 10000 1 260 18:51 12.04.2021
377 Clear -12 1018 85 10000 1 250 18:33 12.04.2021
378 Clear -12 1018 85 10000 1 260 17:59 12.04.2021
379 Clouds -11 1018 85 10000 1 280 17:40 12.04.2021
380 Clouds -11 1018 85 10000 1 280 17:19 12.04.2021
381 Clouds -9 1019 86 10000 1 290 16:38 12.04.2021
382 Clouds -9 1019 86 10000 1 290 16:19 12.04.2021
383 Clouds -9 1019 86 10000 2 250 15:39 12.04.2021
384 Clouds -9 1019 86 10000 2 220 14:57 12.04.2021
385 Clouds -10 1019 85 10000 1 200 14:39 12.04.2021
386 Clouds -10 1019 85 10000 1 200 14:19 12.04.2021
387 Clouds -9 1019 86 10000 1 250 13:40 12.04.2021
388 Clouds -9 1019 86 10000 1 250 13:19 12.04.2021
389 Clouds -7 1019 73 10000 2 240 12:43 12.04.2021
390 Clouds -8 1018 73 10000 2 240 12:22 12.04.2021
391 Clouds -5 1018 68 10000 2 250 11:41 12.04.2021
392 Clouds -5 1018 68 10000 2 290 10:51 12.04.2021
393 Snow -4 1018 63 10000 1 290 10:28 12.04.2021
394 Snow -4 1018 63 10000 1 10 09:53 12.04.2021
395 Snow -3 1018 54 10000 1.74 27 09:31 12.04.2021
396 Clouds -4 1018 58 10000 1 110 08:58 12.04.2021
397 Clouds -3 1018 54 10000 1 100 08:22 12.04.2021
398 Snow -4 1018 58 10000 3 70 07:30 12.04.2021
399 Clouds -4 1018 58 10000 2 70 06:47 12.04.2021
400 Clouds -5 1019 68 10000 2 80 05:48 12.04.2021
401 Clouds -8 1019 73 10000 2 360 03:33 12.04.2021
402 Snow -10 1018 79 10000 3 320 00:43 12.04.2021
403 Snow -10 1018 79 10000 3 320 00:22 12.04.2021
404 Snow -10 1018 79 10000 3 320 23:44 11.04.2021
405 Snow -10 1018 85 5000 3 330 23:22 11.04.2021
406 Snow -10 1018 85 3200 5 320 22:39 11.04.2021
407 Snow -10 1018 85 3200 5 320 22:39 11.04.2021
408 Snow -10 1018 85 3200 5 320 22:19 11.04.2021
409 Snow -9 1018 79 5000 5 330 21:44 11.04.2021
410 Snow -9 1018 73 10000 4 320 21:24 11.04.2021
411 Snow -9 1018 73 10000 4 320 21:24 11.04.2021
412 Snow -9 1018 79 10000 5 320 20:49 11.04.2021
413 Snow -9 1018 79 10000 5 320 20:25 11.04.2021
414 Snow -9 1018 79 10000 5 320 19:44 11.04.2021
415 Snow -8 1018 73 10000 5 330 19:21 11.04.2021
416 Snow -8 1018 73 10000 5 320 18:58 11.04.2021
417 Snow -8 1018 73 10000 6 320 18:40 11.04.2021
418 Snow -8 1018 73 10000 6 320 18:22 11.04.2021
419 Snow -7 1018 73 5000 5 320 17:43 11.04.2021
420 Snow -7 1018 73 5000 5 320 17:24 11.04.2021
421 Snow -7 1018 79 2400 5 310 16:46 11.04.2021
422 Snow -7 1018 79 2400 5 310 16:22 11.04.2021
423 Snow -7 1018 86 2400 5 310 15:47 11.04.2021
424 Snow -7 1017 86 1500 4 300 15:26 11.04.2021
425 Snow -7 1017 86 700 5 300 14:52 11.04.2021
426 Snow -7 1017 86 700 5 300 14:30 11.04.2021
427 Snow -6 1017 86 1100 4 310 13:47 11.04.2021
428 Snow -6 1017 79 1100 6 330 13:28 11.04.2021
429 Snow -6 1017 86 1100 4 340 12:48 11.04.2021
430 Snow -6 1016 86 1100 4 320 12:21 11.04.2021
431 Snow -5 1016 80 5000 5 300 11:49 11.04.2021
432 Snow -5 1016 80 1200 5 310 11:22 11.04.2021
433 Snow -5 1015 74 3200 6 330 10:47 11.04.2021
434 Snow -5 1015 68 10000 6 340 10:27 11.04.2021
435 Snow -5 1015 74 10000 5 320 09:53 11.04.2021
436 Snow -5 1014 74 5000 7 310 09:32 11.04.2021
437 Snow -5 1014 68 10000 7 320 08:42 11.04.2021
438 Snow -5 1014 68 10000 7 330 07:59 11.04.2021
439 Snow -5 1014 63 10000 7 330 07:21 11.04.2021
440 Snow -5 1013 63 10000 7 320 06:26 11.04.2021
441 Snow -5 1013 63 10000 7 330 05:37 11.04.2021
442 Snow -5 1013 63 10000 7 330 05:18 11.04.2021
443 Snow -6 1013 68 10000 6 300 04:33 11.04.2021
444 Snow -8 1013 73 2400 6 320 01:40 11.04.2021
445 Snow -9 1014 86 900 5 320 00:33 11.04.2021
446 Snow -9 1014 86 900 4 330 23:47 10.04.2021
447 Snow -9 1014 86 1100 4 330 22:59 10.04.2021
448 Snow -9 1014 86 900 4 330 22:31 10.04.2021
449 Snow -9 1014 86 1200 5 330 21:57 10.04.2021
450 Snow -9 1014 86 1200 5 330 21:57 10.04.2021
451 Snow -9 1014 86 1200 5 330 21:37 10.04.2021
452 Snow -9 1014 86 1200 5 330 21:19 10.04.2021
453 Snow -9 1014 86 1200 5 340 20:41 10.04.2021
454 Snow -9 1014 86 1200 5 340 20:22 10.04.2021
455 Snow -9 1014 86 1300 5 340 19:43 10.04.2021
456 Snow -9 1014 92 1300 5 340 19:25 10.04.2021
457 Snow -8 1015 86 2100 5 340 18:44 10.04.2021
458 Snow -8 1015 86 2100 5 340 18:25 10.04.2021
459 Snow -8 1015 86 2100 6 340 17:37 10.04.2021
460 Snow -8 1015 93 2100 6 350 16:57 10.04.2021
461 Snow -7 1015 86 2100 6 340 16:26 10.04.2021
462 Snow -7 1015 86 2100 6 340 15:53 10.04.2021
463 Snow -6 1015 86 2100 7 340 15:19 10.04.2021
464 Snow -6 1015 86 2100 5 340 14:41 10.04.2021
465 Snow -6 1015 86 2100 5 340 14:18 10.04.2021
466 Snow -5 1015 86 3200 6 340 13:41 10.04.2021
467 Snow -5 1015 86 3200 7 340 12:53 10.04.2021
468 Snow -5 1015 86 3200 7 330 12:28 10.04.2021
469 Snow -5 1014 86 3200 6 330 11:47 10.04.2021
470 Snow -4 1014 80 3200 7 340 11:25 10.04.2021
471 Snow -4 1014 80 3200 7 340 11:25 10.04.2021
472 Snow -4 1014 80 2400 6 330 10:52 10.04.2021
473 Snow -4 1014 86 900 6 330 10:31 10.04.2021
474 Snow -4 1014 86 1200 5 330 09:48 10.04.2021
475 Snow -4 1014 86 1500 5 330 09:20 10.04.2021
476 Snow -4 1014 80 1400 5 330 08:48 10.04.2021
477 Snow -5 1014 86 1700 5 320 08:29 10.04.2021
478 Snow -5 1014 86 1300 5 340 07:38 10.04.2021
479 Snow -5 1014 86 1300 5 340 07:19 10.04.2021
480 Snow -5 1014 80 1400 6 350 06:24 10.04.2021
481 Snow -5 1015 80 3200 5 360 03:49 10.04.2021
482 Snow -5 1015 74 5000 5 360 02:51 10.04.2021
483 Snow -5 1015 74 5000 5 10 02:21 10.04.2021
484 Snow -5 1015 86 10000 2 340 00:43 10.04.2021
485 Snow -5 1015 86 10000 3 330 00:21 10.04.2021
486 Snow -5 1015 80 10000 3 330 23:40 09.04.2021
487 Clouds -5 1015 80 10000 3 330 22:58 09.04.2021
488 Clouds -5 1015 74 10000 2 330 22:38 09.04.2021
489 Clouds -5 1015 80 10000 2 340 21:56 09.04.2021
490 Clouds -4 1015 74 10000 2 340 21:37 09.04.2021
491 Clouds -4 1015 74 10000 2 340 21:18 09.04.2021
492 Clouds -4 1015 74 10000 2 350 20:41 09.04.2021
493 Clouds -4 1015 74 10000 2 350 20:22 09.04.2021
494 Clouds -4 1015 74 10000 2 350 20:22 09.04.2021
495 Clouds -4 1015 80 10000 2 340 19:44 09.04.2021
496 Clouds -4 1015 80 10000 3 350 19:23 09.04.2021
497 Clouds -4 1015 80 10000 2 340 18:51 09.04.2021
498 Clouds -3 1015 74 10000 3 340 18:31 09.04.2021
499 Clouds -3 1014 74 10000 4 360 17:54 09.04.2021
500 Clouds -3 1014 80 10000 3 350 17:34 09.04.2021
501 Clouds -3 1014 80 10000 3 350 16:55 09.04.2021
502 Clouds -3 1014 80 10000 3 360 16:32 09.04.2021
503 Clouds -3 1014 80 10000 3 340 15:50 09.04.2021
504 Clouds -3 1014 80 10000 3 350 15:26 09.04.2021
505 Clouds -2 1014 74 10000 2 350 14:51 09.04.2021
506 Clouds -2 1014 80 10000 2 330 14:30 09.04.2021
507 Clouds -2 1014 80 10000 2 10 13:51 09.04.2021
508 Clouds -2 1013 80 10000 3 20 13:23 09.04.2021
509 Clouds -2 1013 80 10000 3 20 12:49 09.04.2021
510 Clouds -2 1013 80 10000 4 20 12:30 09.04.2021
511 Clouds -1 1013 74 10000 3 20 11:44 09.04.2021
512 Snow 0 1012 74 10000 2 40 11:21 09.04.2021
513 Snow 0 1012 74 10000 3 10 10:45 09.04.2021
514 Snow 0 1012 74 10000 3 10 10:18 09.04.2021
515 Clouds 0 1011 74 10000 3 20 09:29 09.04.2021
516 Clouds 0 1011 74 10000 3 20 08:56 09.04.2021
517 Clouds 1 1011 69 10000 3 20 08:37 09.04.2021
518 Clear 1 1010 69 10000 3 20 07:35 09.04.2021
519 Clouds 1 1010 69 10000 3 360 06:34 09.04.2021
520 Clouds 0 1010 74 10000 3 10 05:47 09.04.2021
521 Snow -1 1009 80 10000 2 330 03:50 09.04.2021
522 Snow -3 1009 86 10000 2 110 01:27 09.04.2021
523 Snow -4 1009 86 1000 3 140 00:36 09.04.2021
524 Snow -4 1009 86 1000 3 140 00:18 09.04.2021
525 Snow -3 1010 63 10000 2 140 22:59 08.04.2021
526 Snow -4 1011 74 10000 2 90 22:40 08.04.2021
527 Snow -4 1011 74 10000 2 90 22:40 08.04.2021
528 Snow -4 1011 74 10000 2 90 22:20 08.04.2021
529 Snow -4 1012 74 10000 1 80 21:54 08.04.2021
530 Snow -4 1012 68 10000 3 110 21:36 08.04.2021
531 Snow -4 1012 68 10000 3 110 21:18 08.04.2021
532 Snow -4 1013 68 10000 3 110 20:45 08.04.2021
533 Snow -3 1013 63 10000 2 110 20:25 08.04.2021
534 Snow -4 1014 68 10000 2 100 19:42 08.04.2021
535 Snow -4 1014 68 10000 2 100 19:19 08.04.2021
536 Snow -4 1014 68 10000 2 100 19:19 08.04.2021
537 Snow -4 1015 68 10000 3 120 18:45 08.04.2021
538 Snow -3 1015 63 10000 4 130 18:20 08.04.2021
539 Snow -4 1016 68 2100 5 140 17:48 08.04.2021
540 Snow -3 1016 46 10000 4 140 17:24 08.04.2021
541 Snow -3 1017 46 10000 3 120 16:46 08.04.2021
542 Snow -3 1017 46 10000 5 110 16:25 08.04.2021
543 Snow -3 1017 46 10000 3 130 15:47 08.04.2021
544 Snow -3 1018 46 10000 3 130 15:28 08.04.2021
545 Snow -3 1018 46 10000 4 110 14:45 08.04.2021
546 Clear -3 1019 46 10000 4 110 14:25 08.04.2021
547 Clear -4 1019 50 10000 4 110 13:56 08.04.2021
548 Clear -3 1019 46 10000 4 110 13:38 08.04.2021
549 Clear -3 1019 46 10000 4 110 13:19 08.04.2021
550 Clear -3 1019 46 10000 4 110 13:19 08.04.2021
551 Clear -3 1020 46 10000 4 110 12:38 08.04.2021
552 Clear -3 1020 46 10000 4 110 12:38 08.04.2021
553 Clear -3 1020 46 10000 4 110 12:18 08.04.2021
554 Clear -2 1021 43 10000 4 110 11:42 08.04.2021
555 Clear -2 1021 43 10000 4 100 10:58 08.04.2021
556 Clear -2 1021 43 10000 5 100 10:28 08.04.2021
557 Clear -2 1022 43 10000 4 100 09:59 08.04.2021
558 Clear -2 1022 40 10000 4 100 09:40 08.04.2021
559 Clear -2 1022 40 10000 4 110 08:45 08.04.2021
560 Clear -3 1023 39 10000 4 100 08:27 08.04.2021
561 Clear -3 1023 39 10000 4 100 07:57 08.04.2021
562 Clear -3 1023 36 10000 4 110 07:27 08.04.2021
563 Clear -13 1026 56 10000 3 360 03:48 08.04.2021
564 Clear -20 1027 59 10000 1 320 00:54 08.04.2021
565 Clear -24 1027 70 10000 2 340 23:59 07.04.2021
566 Clear -24 1027 70 10000 2 330 23:39 07.04.2021
567 Clear -24 1027 70 10000 2 330 23:21 07.04.2021
568 Clear -25 1027 70 10000 2 320 22:47 07.04.2021
569 Clear -24 1027 70 10000 2 330 22:29 07.04.2021
570 Clear -24 1027 70 10000 3 320 21:44 07.04.2021
571 Clear -24 1027 70 10000 3 310 21:24 07.04.2021
572 Clear -24 1027 77 10000 3 320 20:43 07.04.2021
573 Clear -23 1027 70 10000 2 330 20:21 07.04.2021
574 Clear -23 1027 70 10000 2 320 19:44 07.04.2021
575 Clear -22 1027 71 10000 2 330 19:26 07.04.2021
576 Clear -22 1027 71 10000 2 320 18:47 07.04.2021
577 Clear -21 1027 65 10000 2 320 18:20 07.04.2021
578 Clear -20 1027 65 10000 2 340 17:55 07.04.2021
579 Clear -20 1027 65 10000 2 330 17:36 07.04.2021
580 Clear -18 1027 60 10000 2 340 16:49 07.04.2021
581 Clear -18 1027 60 10000 2 360 16:24 07.04.2021
582 Clear -17 1027 55 10000 2 360 15:59 07.04.2021
583 Clear -17 1027 55 10000 2 350 15:38 07.04.2021
584 Clear -17 1027 55 10000 2 350 15:38 07.04.2021
585 Clear -16 1027 55 10000 3 350 14:57 07.04.2021
586 Clear -15 1027 51 10000 2 350 14:31 07.04.2021
587 Clear -14 1027 51 10000 2 350 13:52 07.04.2021
588 Clear -14 1028 51 10000 2 350 13:24 07.04.2021
589 Clear -13 1028 52 10000 2 350 12:53 07.04.2021
590 Clear -12 1028 48 10000 2 30 12:25 07.04.2021
591 Clear -11 1028 44 10000 3 20 11:55 07.04.2021
592 Clear -11 1028 48 10000 2 20 11:26 07.04.2021
593 Clear -10 1028 44 10000 2 20 10:52 07.04.2021
594 Clear -10 1028 41 10000 2 30 10:20 07.04.2021
595 Clear -10 1028 41 10000 1 20 09:42 07.04.2021
596 Clear -10 1028 41 10000 1 20 09:23 07.04.2021
597 Clear -9 1029 32 10000 1 140 08:41 07.04.2021
598 Clear -9 1029 32 10000 1 140 08:18 07.04.2021
599 Clear -10 1030 41 10000 1 40 07:42 07.04.2021
600 Clear -10 1030 41 10000 1 40 07:21 07.04.2021
601 Clear -12 1030 48 10000 1 10 06:27 07.04.2021
602 Clear -16 1031 55 10000 1 340 04:23 07.04.2021
603 Clear -27 1032 69 10000 0.8 168 00:21 07.04.2021
604 Clear -28 1032 69 10000 1 300 23:46 06.04.2021
605 Clear -30 1032 76 10000 0.66 215 23:21 06.04.2021
606 Clear -28 1032 69 10000 1 310 22:40 06.04.2021
607 Clear -28 1032 69 10000 1 310 22:19 06.04.2021
608 Clear -28 1031 76 10000 1 300 21:41 06.04.2021
609 Clear -28 1031 76 10000 1 300 21:22 06.04.2021
610 Clear -28 1031 76 10000 1 260 20:54 06.04.2021
611 Clear -28 1031 76 10000 1 250 20:24 06.04.2021
612 Clear -27 1031 69 10000 1 300 19:56 06.04.2021
613 Clear -26 1031 70 10000 1 290 19:34 06.04.2021
614 Clear -25 1031 70 10000 3 290 18:57 06.04.2021
615 Clear -24 1031 70 10000 3 310 18:38 06.04.2021
616 Clear -24 1031 70 10000 3 310 18:18 06.04.2021
617 Clear -23 1031 64 10000 1 310 17:40 06.04.2021
618 Clear -23 1031 64 10000 1 310 17:18 06.04.2021
619 Clear -22 1030 71 10000 3 300 16:42 06.04.2021
620 Clear -22 1030 71 10000 2 310 15:53 06.04.2021
621 Clear -21 1030 77 10000 0.89 289 15:25 06.04.2021
622 Clear -20 1030 71 10000 0.89 289 14:43 06.04.2021
623 Clear -19 1030 65 10000 1 200 14:24 06.04.2021
624 Clear -20 1030 65 10000 1 170 13:46 06.04.2021
625 Clear -16 1030 55 10000 1 170 13:25 06.04.2021
626 Clear -15 1030 51 10000 2 160 12:45 06.04.2021
627 Clear -14 1030 47 10000 1 150 12:26 06.04.2021
628 Clear -13 1030 43 10000 2 140 11:55 06.04.2021
629 Clear -13 1030 43 10000 2 140 11:36 06.04.2021
630 Clear -13 1030 43 10000 2 140 11:18 06.04.2021
631 Clear -12 1029 40 10000 2 130 10:39 06.04.2021
632 Clear -12 1029 40 10000 2 130 10:19 06.04.2021
633 Clear -12 1029 40 10000 2 110 09:43 06.04.2021
634 Clear -13 1029 47 10000 2 150 08:57 06.04.2021
635 Clear -13 1029 47 10000 2 150 08:19 06.04.2021
636 Clear -13 1029 47 10000 3 140 07:22 06.04.2021
637 Clear -13 1029 47 10000 3 130 06:47 06.04.2021
638 Clear -17 1029 55 10000 3 140 03:54 06.04.2021
639 Clear -23 1029 59 10000 1 100 00:49 06.04.2021
640 Clear -24 1028 70 10000 1 130 00:22 06.04.2021
641 Clear -26 1028 70 10000 1 160 23:50 05.04.2021
642 Clear -25 1028 70 10000 1 290 23:28 05.04.2021
643 Clear -27 1028 76 10000 1.37 263 22:58 05.04.2021
644 Clear -24 1028 64 10000 1 290 22:38 05.04.2021
645 Clear -23 1027 70 10000 1 270 21:50 05.04.2021
646 Clear -23 1027 64 10000 1 260 21:27 05.04.2021
647 Clear -22 1027 64 10000 2 300 20:49 05.04.2021
648 Clear -22 1026 64 10000 3 290 20:31 05.04.2021
649 Clear -22 1026 64 10000 2 280 19:55 05.04.2021
650 Clear -21 1026 59 10000 2 280 19:36 05.04.2021
651 Clear -21 1026 59 10000 2 280 19:18 05.04.2021
652 Clear -20 1026 59 10000 3 290 18:40 05.04.2021
653 Clear -20 1026 59 10000 3 290 18:19 05.04.2021
654 Clear -19 1025 55 10000 4 300 17:47 05.04.2021
655 Clear -19 1025 60 10000 4 300 17:21 05.04.2021
656 Clear -18 1025 55 10000 4 290 16:45 05.04.2021
657 Clear -18 1025 55 10000 4 290 16:45 05.04.2021
658 Clear -17 1025 51 10000 4 310 16:22 05.04.2021
659 Clear -18 1025 55 10000 3 310 15:56 05.04.2021
660 Clear -17 1024 55 10000 4 280 15:32 05.04.2021
661 Clear -16 1024 51 10000 3 280 14:58 05.04.2021
662 Clear -16 1024 55 10000 3 280 14:36 05.04.2021
663 Clear -15 1024 51 10000 3 280 13:46 05.04.2021
664 Clear -14 1024 47 10000 3 290 13:26 05.04.2021
665 Clear -14 1023 51 10000 2 330 12:46 05.04.2021
666 Clear -13 1023 47 10000 3 310 12:24 05.04.2021
667 Clear -12 1022 44 10000 4 330 11:46 05.04.2021
668 Clear -12 1022 48 10000 3 350 11:28 05.04.2021
669 Clear -12 1022 52 10000 3 20 10:55 05.04.2021
670 Clear -11 1021 44 10000 2 330 10:29 05.04.2021
671 Clear -11 1021 48 10000 3 340 09:48 05.04.2021
672 Clear -10 1021 41 10000 2 290 09:26 05.04.2021
673 Clear -11 1021 48 10000 4 340 08:46 05.04.2021
674 Clear -11 1020 48 10000 3 340 08:26 05.04.2021
675 Clear -12 1020 52 10000 3 40 07:38 05.04.2021
676 Clear -12 1020 52 10000 3 40 07:18 05.04.2021
677 Clear -20 1020 59 10000 1 70 03:42 05.04.2021
678 Clear -24 1019 64 10000 3 290 00:54 05.04.2021
679 Clear -27 1019 69 10000 2 270 23:53 04.04.2021
680 Clear -28 1018 76 10000 2 290 23:30 04.04.2021
681 Clear -28 1018 76 10000 2 280 22:56 04.04.2021
682 Clear -28 1018 76 10000 2 300 22:33 04.04.2021
683 Clear -27 1018 69 10000 3 290 21:48 04.04.2021
684 Clear -27 1018 76 10000 3 300 21:21 04.04.2021
685 Clear -26 1018 70 10000 2 290 20:42 04.04.2021
686 Clear -26 1018 70 10000 2 290 20:20 04.04.2021
687 Clear -26 1018 76 10000 2 290 19:40 04.04.2021
688 Clear -26 1018 76 10000 2 290 19:19 04.04.2021
689 Clear -25 1018 70 10000 3 300 18:49 04.04.2021
690 Clear -25 1017 70 10000 3 290 18:24 04.04.2021
691 Clear -24 1017 70 10000 3 300 17:57 04.04.2021
692 Clear -24 1018 70 10000 2 290 17:25 04.04.2021
693 Clear -23 1018 70 10000 2 310 16:54 04.04.2021
694 Clear -22 1017 71 10000 2 310 16:33 04.04.2021
695 Clear -22 1017 71 10000 2 310 15:46 04.04.2021
696 Clear -20 1017 65 10000 2 310 15:28 04.04.2021
697 Clear -19 1017 60 10000 2 310 14:38 04.04.2021
698 Clear -19 1017 60 10000 2 310 14:19 04.04.2021
699 Clear -16 1017 55 10000 2 350 13:26 04.04.2021
700 Clear -16 1017 55 10000 2 330 12:51 04.04.2021
701 Clear -14 1017 47 10000 2 330 12:27 04.04.2021
702 Clouds -18 1020 94 1954 1.38 58 11:49 04.04.2021
703 Clear -13 1017 43 10000 1 40 11:30 04.04.2021
704 Clear -13 1017 43 10000 1 60 10:46 04.04.2021
705 Clear -13 1017 43 10000 1 70 10:20 04.04.2021
706 Clear -13 1017 47 10000 3 70 09:37 04.04.2021
707 Clear -13 1017 47 10000 3 70 09:18 04.04.2021
708 Clear -13 1017 43 10000 2 40 08:42 04.04.2021
709 Clear -13 1017 43 10000 2 40 08:24 04.04.2021
710 Clear -15 1017 56 10000 3 60 06:39 04.04.2021
711 Clear -15 1018 51 10000 3 80 05:43 04.04.2021
712 Clear -18 1018 60 10000 1 360 02:20 04.04.2021
713 Clear -23 1018 70 10000 3 300 00:47 04.04.2021
714 Clear -25 1018 77 10000 3 290 00:18 04.04.2021
715 Clear -26 1018 76 10000 4 290 23:39 03.04.2021
716 Clear -26 1018 76 10000 3 300 22:56 03.04.2021
717 Clear -25 1018 77 10000 3 300 22:25 03.04.2021
718 Clear -24 1017 77 10000 2 310 21:59 03.04.2021
719 Clear -24 1017 77 10000 3 300 21:39 03.04.2021
720 Clear -24 1017 77 10000 3 300 21:20 03.04.2021
721 Clear -24 1017 70 10000 4 300 20:38 03.04.2021
722 Clear -24 1017 70 10000 4 300 20:18 03.04.2021
723 Clear -24 1018 70 10000 3 300 19:43 03.04.2021
724 Clear -24 1018 70 10000 3 290 19:18 03.04.2021
725 Clear -23 1018 64 10000 2 300 18:44 03.04.2021
726 Clear -23 1018 70 10000 1 310 18:18 03.04.2021
727 Clear -21 1018 59 10000 3 300 17:39 03.04.2021
728 Clear -21 1018 59 10000 3 300 17:20 03.04.2021
729 Clear -21 1017 65 10000 2 300 16:43 03.04.2021
730 Clear -21 1017 65 10000 2 300 16:21 03.04.2021
731 Clear -19 1017 60 10000 3 310 15:42 03.04.2021
732 Clear -19 1017 60 10000 3 310 15:19 03.04.2021
733 Clear -18 1017 60 10000 2 320 14:42 03.04.2021
734 Clear -18 1017 60 10000 2 320 14:20 03.04.2021
735 Clear -17 1017 55 10000 2 360 13:46 03.04.2021
736 Clear -15 1017 51 10000 2 10 13:21 03.04.2021
737 Clear -15 1017 51 10000 2 10 12:49 03.04.2021
738 Clear -14 1017 47 10000 2 30 12:21 03.04.2021
739 Clear -12 1017 44 10000 3 30 11:38 03.04.2021
740 Clear -11 1017 40 10000 3 30 10:51 03.04.2021
741 Clear -11 1017 48 10000 2 40 10:31 03.04.2021
742 Clear -10 1017 34 10000 3 300 09:54 03.04.2021
743 Clear -10 1017 34 10000 3 310 09:28 03.04.2021
744 Clear -10 1017 34 10000 3 310 08:47 03.04.2021
745 Clear -10 1017 34 10000 2 270 08:28 03.04.2021
746 Clear -11 1017 40 10000 3 150 07:28 03.04.2021
747 Clear -12 1017 44 10000 4 140 05:50 03.04.2021
748 Clouds -15 1020 72 10000 3.73 275 03:50 03.04.2021
749 Clear -17 1019 55 10000 1 120 02:49 03.04.2021
750 Clear -19 1019 55 10000 2 130 02:23 03.04.2021
751 Clear -22 1020 59 10000 1.83 257 00:20 03.04.2021
752 Clear -23 1020 64 10000 1.83 257 23:48 02.04.2021
753 Clear -24 1020 64 10000 3 260 23:24 02.04.2021
754 Clear -24 1020 64 10000 2 240 22:52 02.04.2021
755 Clear -23 1020 64 10000 2 260 22:33 02.04.2021
756 Clear -23 1020 64 10000 2 250 21:46 02.04.2021
757 Clear -22 1020 59 10000 2 260 21:23 02.04.2021
758 Clear -21 1020 59 10000 3 250 20:48 02.04.2021
759 Clear -21 1020 59 10000 3 240 20:28 02.04.2021
760 Clear -19 1020 55 10000 2 280 19:57 02.04.2021
761 Clear -19 1020 55 10000 1 300 19:38 02.04.2021
762 Clear -19 1020 55 10000 1 300 19:20 02.04.2021
763 Clear -17 1021 51 10000 4 310 18:38 02.04.2021
764 Clear -16 1021 55 10000 4 300 18:20 02.04.2021
765 Clear -16 1020 55 10000 5 310 17:37 02.04.2021
766 Clear -14 1020 51 10000 6 300 16:48 02.04.2021
767 Clear -13 1019 56 10000 4 300 16:22 02.04.2021
768 Clear -12 1019 61 10000 3 300 15:33 02.04.2021
769 Clear -11 1018 57 10000 4 310 14:55 02.04.2021
770 Clear -10 1018 57 10000 4 310 14:29 02.04.2021
771 Clear -8 1017 62 10000 5 330 13:42 02.04.2021
772 Clear -8 1017 62 10000 5 330 13:20 02.04.2021
773 Clear -5 1016 42 10000 4 280 12:41 02.04.2021
774 Clear -5 1016 42 10000 4 280 12:20 02.04.2021
775 Clouds -4 1016 46 10000 5 290 11:56 02.04.2021
776 Clouds -3 1016 39 10000 4 290 11:21 02.04.2021
777 Clouds -3 1016 39 10000 4 290 11:21 02.04.2021
778 Clouds -3 1016 46 10000 4 280 10:50 02.04.2021
779 Clear -3 1016 46 10000 4 270 10:29 02.04.2021
780 Clear -3 1016 50 10000 4 260 09:53 02.04.2021
781 Clear -3 1016 46 10000 5 300 09:27 02.04.2021
782 Clear -3 1016 46 10000 6 260 08:54 02.04.2021
783 Clear -3 1016 46 10000 4 290 08:30 02.04.2021
784 Snow -3 1015 54 10000 4 310 07:31 02.04.2021
785 Clear -2 1015 54 10000 6 300 06:52 02.04.2021
786 Clear -2 1015 54 10000 7 290 05:57 02.04.2021
787 Snow -10 1013 92 10000 1 220 02:45 02.04.2021
788 Clear -15 1014 85 10000 1 20 00:52 02.04.2021
789 Clear -15 1014 85 10000 1.41 175 00:22 02.04.2021
790 Clear -16 1015 85 10000 1.41 175 23:40 01.04.2021
791 Clear -15 1015 78 10000 1 310 22:59 01.04.2021
792 Clear -16 1015 85 10000 1 290 22:20 01.04.2021
793 Clear -16 1015 85 10000 1 300 21:50 01.04.2021
794 Clear -15 1015 85 10000 1 280 21:28 01.04.2021
795 Clear -14 1015 85 10000 1 70 20:49 01.04.2021
796 Clear -14 1016 78 10000 1 300 20:26 01.04.2021
797 Clear -15 1016 85 10000 1 310 19:56 01.04.2021
798 Clear -15 1016 85 10000 1 330 19:35 01.04.2021
799 Clear -15 1016 85 10000 1 340 18:46 01.04.2021
800 Clear -14 1016 92 10000 1 320 18:19 01.04.2021
801 Clear -14 1016 85 10000 1.8 127 17:53 01.04.2021
802 Clear -12 1017 92 10000 1.8 127 17:33 01.04.2021
803 Clear -12 1017 85 10000 1 290 16:53 01.04.2021
804 Clear -11 1017 85 10000 2 290 16:31 01.04.2021
805 Clear -10 1017 85 10000 3 300 15:48 01.04.2021
806 Clear -10 1017 92 10000 1 290 15:20 01.04.2021
807 Clear -9 1017 86 10000 1.22 165 14:46 01.04.2021
808 Clear -9 1017 92 10000 1 167 14:26 01.04.2021
809 Clear -6 1018 86 10000 1 120 13:56 01.04.2021
810 Clear -4 1017 80 10000 1 70 13:31 01.04.2021
811 Clear -2 1018 74 10000 2 360 12:54 01.04.2021
812 Clouds -1 1017 69 10000 2 360 12:33 01.04.2021
813 Clouds 0 1017 64 10000 3 350 11:55 01.04.2021
814 Clouds 1 1017 55 10000 4 290 11:37 01.04.2021
815 Clouds 1 1017 55 10000 4 290 11:18 01.04.2021
816 Clouds 1 1017 55 10000 4 290 11:18 01.04.2021
817 Clouds 1 1017 44 10000 3 190 10:42 01.04.2021
818 Clouds 1 1017 44 10000 3 190 10:22 01.04.2021
819 Clouds 1 1017 47 10000 2 150 09:31 01.04.2021
820 Clouds 1 1017 51 10000 2 130 08:42 01.04.2021
821 Clouds 1 1017 51 10000 2 130 08:24 01.04.2021
822 Clear 1 1017 55 10000 3 150 07:21 01.04.2021
823 Clear 1 1017 55 10000 3 150 06:54 01.04.2021
824 Clear 0 1018 64 10000 2 130 05:32 01.04.2021
825 Clouds -1 1017 69 10000 3.82 301 02:58 01.04.2021
826 Snow -8 1015 79 2100 1 230 23:52 31.03.2021
827 Snow -8 1015 73 10000 1 310 23:34 31.03.2021
828 Snow -11 1015 79 10000 1 310 22:43 31.03.2021
829 Snow -11 1014 73 10000 2 300 22:22 31.03.2021
830 Snow -11 1014 73 10000 2 310 21:54 31.03.2021
831 Snow -12 1014 79 10000 1 320 21:36 31.03.2021
832 Snow -12 1014 79 10000 1 320 21:18 31.03.2021
833 Snow -10 1013 73 10000 2 320 20:40 31.03.2021
834 Snow -10 1013 73 10000 2 320 20:20 31.03.2021
835 Snow -10 1013 73 10000 2.45 188 19:42 31.03.2021
836 Snow -10 1013 73 10000 2.42 175 19:20 31.03.2021
837 Snow -10 1013 79 10000 2.42 175 18:54 31.03.2021
838 Snow -9 1013 73 10000 1 140 18:35 31.03.2021
839 Snow -9 1013 73 10000 1 50 17:41 31.03.2021
840 Clear -9 1013 73 10000 1 50 17:19 31.03.2021
841 Clear -8 1013 67 10000 1 30 16:53 31.03.2021
842 Clear -8 1013 73 10000 1 260 16:34 31.03.2021
843 Clear -8 1013 73 10000 1 290 15:53 31.03.2021
844 Clear -9 1013 73 10000 1 10 15:22 31.03.2021
845 Clear -9 1013 73 10000 1.53 142 14:50 31.03.2021
846 Clear -9 1013 67 10000 1 10 14:26 31.03.2021
847 Clear -8 1013 73 10000 1 350 13:57 31.03.2021
848 Clear -6 1013 63 10000 2 340 13:24 31.03.2021
849 Clear -3 1012 50 10000 1.52 129 12:41 31.03.2021
850 Clear -3 1012 50 10000 1.37 126 12:18 31.03.2021
851 Clear 0 1012 40 10000 2 140 11:23 31.03.2021
852 Clear 1 1012 37 10000 2 140 10:51 31.03.2021
853 Clear 2 1012 35 10000 2 150 10:28 31.03.2021
854 Clear 2 1012 38 10000 2 140 09:57 31.03.2021
855 Clear 2 1012 41 10000 3 140 09:33 31.03.2021
856 Clear 2 1012 41 10000 3 140 09:33 31.03.2021
857 Clear 1 1012 40 10000 3 150 08:48 31.03.2021
858 Clear 1 1012 40 10000 3 150 08:48 31.03.2021
859 Clear 1 1012 37 10000 3 150 08:30 31.03.2021
860 Clear 0 1012 47 10000 2 140 07:41 31.03.2021
861 Clear -2 1013 46 10000 2 160 05:52 31.03.2021
862 Clear -13 1013 66 10000 1 130 02:42 31.03.2021
863 Clear -17 1013 85 10000 1 160 00:54 31.03.2021
864 Clear -18 1013 78 10000 1 220 00:26 31.03.2021
865 Clear -21 1013 84 10000 1 190 23:57 30.03.2021
866 Clear -20 1013 77 10000 1 280 23:25 30.03.2021
867 Clear -20 1013 84 10000 2 280 22:50 30.03.2021
868 Clear -19 1012 78 10000 1 270 22:31 30.03.2021
869 Clear -20 1012 77 10000 1 250 21:59 30.03.2021
870 Clear -19 1012 78 10000 1.14 241 21:38 30.03.2021
871 Clear -19 1012 78 10000 1.21 244 21:18 30.03.2021
872 Clear -19 1012 84 10000 1 270 20:45 30.03.2021
873 Clear -19 1012 84 10000 1 270 20:26 30.03.2021
874 Clear -18 1012 85 10000 1.1 252 19:43 30.03.2021
875 Clear -16 1012 85 10000 1 270 19:18 30.03.2021
876 Clear -16 1012 78 10000 1 290 18:33 30.03.2021
877 Clear -14 1012 78 10000 1.27 265 17:49 30.03.2021
878 Clear -13 1012 72 10000 2 280 17:31 30.03.2021
879 Clear -13 1012 72 10000 2 280 16:47 30.03.2021
880 Clear -13 1012 72 10000 2 270 16:28 30.03.2021
881 Clear -9 1012 67 10000 4 290 15:39 30.03.2021
882 Clear -9 1012 67 10000 4 290 15:19 30.03.2021
883 Clear -9 1011 67 10000 4 290 14:45 30.03.2021
884 Clear -12 1011 79 10000 3 290 14:21 30.03.2021
885 Clear -10 1011 67 10000 2 320 13:51 30.03.2021
886 Clear -9 1011 67 10000 2 310 13:29 30.03.2021
887 Clear -6 1011 58 10000 2 340 12:42 30.03.2021
888 Clear -6 1011 58 10000 2 340 12:22 30.03.2021
889 Clear -4 1011 54 10000 2 350 11:48 30.03.2021
890 Clear -3 1011 50 10000 2 360 11:20 30.03.2021
891 Clear -2 1010 46 10000 3 20 10:43 30.03.2021
892 Clear -2 1010 46 10000 3 30 10:19 30.03.2021
893 Clear -2 1010 50 10000 2 20 09:43 30.03.2021
894 Clear -2 1010 50 10000 2 20 09:43 30.03.2021
895 Clear -1 1010 43 10000 3 30 09:24 30.03.2021
896 Clear -2 1010 50 10000 2 20 08:51 30.03.2021
897 Clear -2 1010 50 10000 3 10 08:31 30.03.2021
898 Clear -2 1010 50 10000 3 360 07:45 30.03.2021
899 Clear -2 1011 50 10000 3 10 06:56 30.03.2021
900 Clear -4 1011 58 10000 3 350 05:25 30.03.2021
901 Clear -8 1011 73 10000 3 360 02:32 30.03.2021
902 Clear -8 1012 73 10000 3 340 00:22 30.03.2021
903 Clear -9 1011 73 10000 3 350 23:28 29.03.2021
904 Clear -9 1011 73 10000 3 340 22:43 29.03.2021
905 Clear -8 1011 73 10000 3 340 21:59 29.03.2021
906 Clear -8 1011 73 10000 4 330 21:37 29.03.2021
907 Clear -7 1011 68 10000 3 330 20:59 29.03.2021
908 Clear -8 1011 73 10000 3 330 20:37 29.03.2021
909 Clear -8 1011 73 10000 2 340 19:57 29.03.2021
910 Clear -7 1011 68 10000 3 340 19:32 29.03.2021
911 Clear -7 1011 68 10000 3 340 18:57 29.03.2021
912 Clear -7 1011 68 10000 3 340 18:39 29.03.2021
913 Clear -7 1011 68 10000 3 340 18:20 29.03.2021
914 Clear -7 1011 68 10000 3 340 18:20 29.03.2021
915 Clear -7 1011 68 10000 3 340 18:20 29.03.2021
916 Clear -7 1011 68 10000 3 350 17:38 29.03.2021
917 Clear -7 1011 68 10000 3 360 16:59 29.03.2021
918 Clear -7 1011 68 10000 3 350 16:35 29.03.2021
919 Clear -7 1012 73 10000 2 360 15:49 29.03.2021
920 Clear -7 1012 73 10000 2 350 15:31 29.03.2021
921 Clear -7 1012 73 10000 3 350 14:54 29.03.2021
922 Clear -7 1012 73 10000 3 350 14:31 29.03.2021
923 Clear -7 1012 73 10000 2 360 13:47 29.03.2021
924 Clear -7 1012 73 10000 2 360 13:24 29.03.2021
925 Clear -6 1012 68 10000 2 360 12:50 29.03.2021
926 Clear -6 1011 68 10000 2 350 11:49 29.03.2021
927 Clear -6 1011 68 10000 2 350 11:30 29.03.2021
928 Clear -5 1011 68 10000 2 350 10:55 29.03.2021
929 Clear -5 1011 68 10000 2 350 10:34 29.03.2021
930 Clear -5 1011 68 10000 2 360 09:42 29.03.2021
931 Clear -6 1011 73 10000 3 360 08:52 29.03.2021
932 Clear -6 1011 73 10000 2 360 08:28 29.03.2021
933 Clear -8 1012 73 10000 2 10 07:28 29.03.2021
934 Clear -10 1012 79 10000 2 20 06:27 29.03.2021
935 Clear -14 1013 85 10000 1 20 03:51 29.03.2021
936 Clouds -17 1013 85 10000 1 350 01:43 29.03.2021
937 Clouds -19 1013 78 10000 1 330 00:22 29.03.2021
938 Clouds -20 1013 84 10000 2 300 23:42 28.03.2021
939 Clouds -20 1013 84 10000 2 300 23:19 28.03.2021
940 Clear -20 1012 77 10000 1 320 22:39 28.03.2021
941 Clear -20 1012 77 10000 1 320 22:20 28.03.2021
942 Clear -21 1012 84 10000 1 340 21:41 28.03.2021
943 Clear -21 1012 84 10000 1 340 21:22 28.03.2021
944 Clear -20 1012 84 10000 1 300 20:48 28.03.2021
945 Clear -19 1012 84 10000 1 270 20:29 28.03.2021
946 Clear -20 1012 84 10000 1.45 210 19:44 28.03.2021
947 Clear -19 1012 84 10000 1 330 19:23 28.03.2021
948 Clear -19 1012 84 10000 1 310 18:58 28.03.2021
949 Clear -17 1012 85 10000 1 330 18:27 28.03.2021
950 Clear -17 1011 85 10000 2 290 17:47 28.03.2021
951 Clear -17 1011 85 10000 1 310 17:27 28.03.2021
952 Clear -15 1011 85 10000 1 310 16:46 28.03.2021
953 Mist -13 1011 85 5000 2 300 16:23 28.03.2021
954 Fog -14 1011 85 100 1 310 15:27 28.03.2021
955 Fog -13 1011 85 200 1 350 14:57 28.03.2021
956 Clear -12 1011 92 10000 1 350 14:31 28.03.2021
957 Clear -12 1011 92 10000 1.52 251 13:46 28.03.2021
958 Clear -11 1011 92 10000 1 270 13:22 28.03.2021
959 Clear -7 1011 86 10000 2 140 12:50 28.03.2021
960 Clear -6 1011 86 10000 2 130 12:32 28.03.2021
961 Clouds -4 1010 74 10000 2 120 11:45 28.03.2021
962 Clouds -3 1010 74 10000 1 140 11:25 28.03.2021
963 Clouds -4 1010 80 10000 2 90 10:44 28.03.2021
964 Clouds -3 1010 80 10000 2 90 10:25 28.03.2021
965 Clouds -2 1009 74 10000 1 140 09:47 28.03.2021
966 Snow -2 1009 74 5000 2 160 09:24 28.03.2021
967 Clouds -2 1009 69 10000 2 130 08:46 28.03.2021
968 Snow -2 1009 74 10000 3 180 07:50 28.03.2021
969 Snow -4 1009 80 10000 4 170 06:40 28.03.2021
970 Clouds -5 1010 74 10000 2 140 04:18 28.03.2021
971 Clouds -8 1009 73 10000 2.18 282 01:22 28.03.2021
972 Clouds -9 1009 79 10000 1.79 278 00:20 28.03.2021
973 Clouds -11 1008 85 10000 2 300 23:43 27.03.2021
974 Snow -11 1008 85 10000 2 300 22:58 27.03.2021
975 Snow -11 1008 85 10000 3 290 22:36 27.03.2021
976 Snow -11 1008 92 10000 3 300 21:58 27.03.2021
977 Snow -10 1008 92 10000 2 290 21:37 27.03.2021
978 Snow -10 1008 92 10000 2 290 21:19 27.03.2021
979 Snow -9 1007 86 5000 1 300 20:38 27.03.2021
980 Snow -9 1007 86 5000 1 300 20:20 27.03.2021
981 Snow -9 1007 86 10000 1 310 19:42 27.03.2021
982 Snow -9 1007 86 10000 1 310 19:23 27.03.2021
983 Snow -9 1007 86 10000 2 310 18:49 27.03.2021
984 Snow -9 1007 86 10000 2 310 18:28 27.03.2021
985 Snow -8 1007 86 10000 2 330 17:54 27.03.2021
986 Snow -7 1007 79 10000 2 330 17:24 27.03.2021
987 Snow -7 1007 79 5000 2 330 16:49 27.03.2021
988 Snow -7 1007 79 10000 2 330 16:29 27.03.2021
989 Snow -7 1007 79 5000 3 320 15:50 27.03.2021
990 Snow -7 1007 73 10000 4 330 15:24 27.03.2021
991 Snow -7 1007 68 10000 3 340 14:49 27.03.2021
992 Snow -8 1007 67 10000 2 350 13:56 27.03.2021
993 Clear -8 1007 67 10000 3 340 13:26 27.03.2021
994 Clear -9 1007 73 10000 2 350 12:55 27.03.2021
995 Clear -8 1007 67 10000 2 360 12:27 27.03.2021
996 Clear -8 1007 67 10000 2 360 11:46 27.03.2021
997 Clear -8 1007 67 10000 2 10 11:25 27.03.2021
998 Clear -7 1007 63 10000 2 10 10:45 27.03.2021
999 Clear -6 1007 63 10000 2 10 10:23 27.03.2021
1000 Clear -5 1007 58 10000 2 350 09:28 27.03.2021
1001 Clear -5 1007 58 10000 3 350 08:43 27.03.2021
1002 Clear -5 1006 54 10000 3 350 08:21 27.03.2021
1003 Clear -5 1006 50 10000 4 350 07:34 27.03.2021
1004 Clear -6 1007 53 10000 3 340 06:47 27.03.2021
1005 Clear -7 1007 58 10000 4 350 06:28 27.03.2021
1006 Clear -9 1007 57 10000 3 340 04:40 27.03.2021
1007 Clouds -13 1008 72 10000 3 360 00:54 27.03.2021
1008 Snow -13 1008 78 10000 3 360 00:30 27.03.2021
1009 Snow -13 1008 72 10000 3 360 23:54 26.03.2021
1010 Snow -14 1008 72 10000 3 360 23:21 26.03.2021
1011 Clouds -14 1008 66 10000 3 360 22:35 26.03.2021
1012 Snow -14 1008 61 10000 3 20 21:37 26.03.2021
1013 Snow -14 1008 61 10000 3 20 21:18 26.03.2021
1014 Snow -13 1008 61 10000 3 20 20:39 26.03.2021
1015 Snow -13 1008 61 10000 3 20 20:20 26.03.2021
1016 Snow -12 1008 61 10000 3 10 19:48 26.03.2021
1017 Snow -12 1009 61 10000 3 10 19:29 26.03.2021
1018 Snow -12 1008 61 10000 3 10 18:44 26.03.2021
1019 Snow -11 1009 57 10000 2 30 18:26 26.03.2021
1020 Snow -11 1009 57 10000 2 30 18:26 26.03.2021
1021 Snow -11 1009 57 10000 2 30 17:47 26.03.2021
1022 Snow -10 1009 52 10000 3 50 16:57 26.03.2021
1023 Snow -9 1009 48 10000 2 70 16:33 26.03.2021
1024 Snow -9 1009 45 10000 2 90 15:57 26.03.2021
1025 Snow -9 1009 45 10000 2 70 15:23 26.03.2021
1026 Snow -9 1010 45 10000 2 80 14:33 26.03.2021
1027 Clear -9 1010 45 10000 2 80 13:41 26.03.2021
1028 Clear -8 1010 41 10000 3 100 12:58 26.03.2021
1029 Clear -8 1010 38 10000 3 100 12:33 26.03.2021
1030 Clear -7 1011 38 10000 4 100 11:38 26.03.2021
1031 Clear -7 1011 38 10000 4 100 11:18 26.03.2021
1032 Clear -6 1011 35 10000 4 110 10:41 26.03.2021
1033 Clear -6 1011 38 10000 4 100 09:56 26.03.2021
1034 Clear -6 1011 38 10000 4 110 09:36 26.03.2021
1035 Clear -5 1011 36 10000 4 100 08:45 26.03.2021
1036 Clear -5 1011 36 10000 5 100 08:24 26.03.2021
1037 Clear -5 1012 36 10000 5 100 07:42 26.03.2021
1038 Clear -5 1012 36 10000 5 100 07:20 26.03.2021
1039 Clear -8 1012 49 10000 2 330 06:54 26.03.2021
1040 Clear -12 1013 48 10000 3 360 05:31 26.03.2021
1041 Clear -20 1016 59 10000 2 320 02:31 26.03.2021
1042 Clear -26 1018 76 10000 2 360 00:32 26.03.2021
1043 Clear -28 1019 76 10000 2 350 23:46 25.03.2021
1044 Clear -30 1019 76 10000 2 330 23:21 25.03.2021
1045 Clear -31 1019 76 10000 2 340 22:37 25.03.2021
1046 Clear -30 1019 76 10000 1 320 21:53 25.03.2021
1047 Clear -30 1020 76 10000 2 310 21:35 25.03.2021
1048 Clear -30 1019 76 10000 2 320 20:47 25.03.2021
1049 Clear -30 1020 76 10000 2 310 20:27 25.03.2021
1050 Clear -29 1020 76 10000 1 320 19:50 25.03.2021
1051 Clear -28 1020 76 10000 2 300 19:32 25.03.2021
1052 Clear -28 1020 69 10000 2 330 18:58 25.03.2021
1053 Clear -28 1020 76 10000 2 330 18:39 25.03.2021
1054 Clear -28 1020 76 10000 2 330 18:21 25.03.2021
1055 Clear -27 1020 76 10000 2 300 17:37 25.03.2021
1056 Clear -26 1020 76 10000 2 300 16:57 25.03.2021
1057 Clear -26 1020 76 10000 2 290 16:34 25.03.2021
1058 Clear -26 1020 70 10000 3 290 15:49 25.03.2021
1059 Clear -26 1020 76 10000 1 320 15:26 25.03.2021
1060 Clear -24 1020 70 10000 2 300 14:50 25.03.2021
1061 Clear -24 1020 77 10000 2 300 14:30 25.03.2021
1062 Clear -23 1020 70 10000 2 320 13:28 25.03.2021
1063 Clear -20 1020 65 10000 2 330 12:46 25.03.2021
1064 Clear -19 1020 60 10000 2 340 12:22 25.03.2021
1065 Clear -20 1020 65 10000 2 350 11:58 25.03.2021
1066 Clear -19 1020 60 10000 2 340 11:40 25.03.2021
1067 Clear -19 1020 60 10000 2 340 11:21 25.03.2021
1068 Clear -15 1020 47 10000 1 40 10:48 25.03.2021
1069 Clear -13 1020 43 10000 0.9 319 10:21 25.03.2021
1070 Clear -13 1020 43 10000 1 80 09:47 25.03.2021
1071 Clear -13 1020 43 10000 1 70 09:29 25.03.2021
1072 Clear -13 1019 43 10000 2 70 08:36 25.03.2021
1073 Clear -14 1019 47 10000 2 50 07:50 25.03.2021
1074 Clear -15 1019 43 10000 2 160 06:48 25.03.2021
1075 Clear -15 1019 43 10000 2 160 06:24 25.03.2021
1076 Clear -9 1019 57 10000 1 130 05:21 25.03.2021
1077 Clear -24 1018 64 10000 2 140 02:28 25.03.2021
1078 Clear -28 1018 76 10000 1 100 00:20 25.03.2021
1079 Clear -30 1017 76 10000 1 210 23:42 24.03.2021
1080 Clear -30 1017 76 10000 1 210 23:23 24.03.2021
1081 Clear -31 1016 76 10000 2 310 22:40 24.03.2021
1082 Clear -32 1016 75 10000 1.18 271 21:59 24.03.2021
1083 Clear -31 1016 69 10000 1 310 21:39 24.03.2021
1084 Clear -31 1016 69 10000 1 310 21:19 24.03.2021
1085 Clear -30 1015 76 10000 2 270 20:41 24.03.2021
1086 Clear -30 1015 76 10000 2 270 20:19 24.03.2021
1087 Clear -30 1015 76 10000 2 300 19:34 24.03.2021
1088 Clear -29 1015 69 10000 2 290 18:56 24.03.2021
1089 Clear -28 1014 76 10000 1 90 18:38 24.03.2021
1090 Clear -28 1014 76 10000 1 90 18:19 24.03.2021
1091 Clear -28 1014 69 10000 1 270 17:34 24.03.2021
1092 Clear -25 1014 70 10000 4 290 16:59 24.03.2021
1093 Clear -25 1013 70 10000 3 300 16:41 24.03.2021
1094 Clear -25 1013 70 10000 3 300 16:20 24.03.2021
1095 Clear -24 1013 64 10000 3 300 15:41 24.03.2021
1096 Clear -24 1013 64 10000 3 300 15:21 24.03.2021
1097 Clear -23 1013 64 10000 3 280 14:41 24.03.2021
1098 Clear -23 1013 64 10000 3 280 14:21 24.03.2021
1099 Clear -24 1013 70 10000 2 270 13:44 24.03.2021
1100 Clear -22 1012 64 10000 3 270 13:24 24.03.2021
1101 Clear -20 1012 59 10000 3 280 12:40 24.03.2021
1102 Clear -20 1012 59 10000 3 280 12:20 24.03.2021
1103 Clear -20 1011 54 10000 1.6 283 11:41 24.03.2021
1104 Clear -17 1011 51 10000 1.53 291 10:49 24.03.2021
1105 Clear -16 1011 47 10000 1 80 10:31 24.03.2021
1106 Clear -15 1010 43 10000 1 100 09:55 24.03.2021
1107 Clear -14 1010 40 10000 1 90 09:33 24.03.2021
1108 Clear -15 1010 43 10000 1 60 08:58 24.03.2021
1109 Clear -15 1010 43 10000 1 60 08:39 24.03.2021
1110 Clear -16 1009 43 10000 2 70 07:50 24.03.2021
1111 Clear -16 1009 43 10000 2 70 07:19 24.03.2021
1112 Clear -15 1009 39 10000 1 70 06:45 24.03.2021
1113 Clear -21 1008 49 10000 3 260 02:41 24.03.2021
1114 Clear -23 1007 54 10000 3 290 00:42 24.03.2021
1115 Clear -24 1007 58 10000 2 280 23:52 23.03.2021
1116 Clear -25 1007 64 10000 2 270 23:20 23.03.2021
1117 Clear -25 1006 64 10000 2 280 22:51 23.03.2021
1118 Clear -25 1006 64 10000 2 290 22:25 23.03.2021
1119 Clear -25 1006 64 10000 2 280 21:47 23.03.2021
1120 Clear -24 1006 58 10000 3 280 21:29 23.03.2021
1121 Clear -24 1006 58 10000 3 270 20:47 23.03.2021
1122 Clear -24 1005 58 10000 3 270 20:25 23.03.2021
1123 Clear -24 1005 58 10000 3 260 19:48 23.03.2021
1124 Clear -24 1005 58 10000 3 250 19:26 23.03.2021
1125 Clear -23 1005 59 10000 3 290 18:47 23.03.2021
1126 Clear -23 1005 59 10000 4 290 18:23 23.03.2021
1127 Clear -22 1005 54 10000 4 280 17:49 23.03.2021
1128 Clear -22 1005 54 10000 3 280 17:23 23.03.2021
1129 Clear -22 1005 54 10000 4 280 16:57 23.03.2021
1130 Clear -22 1005 54 10000 4 290 16:25 23.03.2021
1131 Clear -22 1005 54 10000 4 290 15:47 23.03.2021
1132 Clear -22 1005 54 10000 5 290 15:21 23.03.2021
1133 Clear -21 1005 49 10000 5 290 14:40 23.03.2021
1134 Clear -21 1005 49 10000 5 290 14:18 23.03.2021
1135 Clear -21 1005 54 10000 5 290 13:43 23.03.2021
1136 Clear -21 1005 54 10000 5 290 13:21 23.03.2021
1137 Clear -21 1005 54 10000 5 290 12:43 23.03.2021
1138 Clear -20 1005 50 10000 5 290 12:23 23.03.2021
1139 Clear -20 1005 54 10000 6 290 11:47 23.03.2021
1140 Clear -19 1005 50 10000 7 290 10:56 23.03.2021
1141 Clear -19 1004 55 10000 6 290 10:38 23.03.2021
1142 Clear -19 1004 55 10000 6 290 10:20 23.03.2021
1143 Clear -18 1004 50 10000 5 300 09:42 23.03.2021
1144 Clear -18 1004 50 10000 5 300 09:21 23.03.2021
1145 Clear -19 1003 55 10000 6 290 08:40 23.03.2021
1146 Clear -19 1003 55 10000 6 290 08:22 23.03.2021
1147 Clear -19 1003 55 10000 6 290 07:48 23.03.2021
1148 Clear -19 1003 55 10000 6 270 07:20 23.03.2021
1149 Clear -20 1003 54 10000 7 270 06:33 23.03.2021
1150 Clear -24 1004 58 10000 5 270 03:23 23.03.2021
1151 Clear -26 1004 64 10000 5 260 02:21 23.03.2021
1152 Snow -34 1006 68 10000 4.42 279 23:44 22.03.2021
1153 Mist -36 1006 75 5000 2.53 258 22:56 22.03.2021
1154 Fog -36 1006 75 1600 1 60 22:38 22.03.2021
1155 Fog -36 1006 75 1600 1 60 22:20 22.03.2021
1156 Clear -38 1007 67 10000 2.13 246 21:42 22.03.2021
1157 Clear -38 1007 67 10000 2.02 251 21:23 22.03.2021
1158 Clear -38 1007 74 10000 2.02 251 20:42 22.03.2021
1159 Clear -38 1007 74 10000 1.84 261 20:22 22.03.2021
1160 Clear -37 1008 74 10000 1 260 19:55 22.03.2021
1161 Clear -37 1008 74 10000 1 210 19:37 22.03.2021
1162 Clear -37 1008 74 10000 1 210 19:19 22.03.2021
1163 Clear -35 1008 68 10000 1 290 18:40 22.03.2021
1164 Clear -35 1008 68 10000 1 290 18:21 22.03.2021
1165 Clear -34 1008 68 10000 2 290 17:44 22.03.2021
1166 Clear -34 1008 75 10000 2 290 17:21 22.03.2021
1167 Clear -34 1009 75 10000 1 280 16:45 22.03.2021
1168 Clear -33 1009 75 10000 2 270 16:20 22.03.2021
1169 Clear -32 1009 75 10000 3 290 15:39 22.03.2021
1170 Clear -32 1009 75 10000 3 290 15:19 22.03.2021
1171 Clear -31 1009 69 10000 3 290 14:53 22.03.2021
1172 Clear -30 1010 76 10000 2 290 14:34 22.03.2021
1173 Clear -27 1010 63 10000 2 290 13:48 22.03.2021
1174 Clear -27 1010 63 10000 2 290 13:27 22.03.2021
1175 Clouds -26 1010 58 10000 3 290 12:55 22.03.2021
1176 Clouds -26 1010 58 10000 3 290 12:26 22.03.2021
1177 Clouds -24 1010 49 10000 2 270 11:49 22.03.2021
1178 Clouds -24 1010 49 10000 2 270 11:29 22.03.2021
1179 Clouds -24 1010 49 10000 2 130 10:46 22.03.2021
1180 Clouds -24 1010 49 10000 3 160 10:25 22.03.2021
1181 Clouds -24 1010 49 10000 3 160 09:49 22.03.2021
1182 Clouds -23 1010 45 10000 4 160 09:30 22.03.2021
1183 Clouds -23 1010 45 10000 5 150 08:46 22.03.2021
1184 Clouds -23 1009 45 10000 4 160 08:27 22.03.2021
1185 Clouds -23 1009 49 10000 4 150 07:50 22.03.2021
1186 Clouds -23 1009 49 10000 3 160 07:30 22.03.2021
1187 Clouds -23 1009 41 10000 3 210 06:49 22.03.2021
1188 Clear -25 1009 44 10000 4 240 02:47 22.03.2021
1189 Clear -27 1009 58 10000 3 220 00:48 22.03.2021
1190 Clear -28 1009 57 10000 2 260 23:59 21.03.2021
1191 Clear -28 1009 57 10000 3 260 23:20 21.03.2021
1192 Clear -27 1009 52 10000 4 270 22:59 21.03.2021
1193 Clear -26 1008 53 10000 4 270 22:41 21.03.2021
1194 Clear -25 1008 48 10000 4 290 21:43 21.03.2021
1195 Clear -25 1008 53 10000 5 280 21:24 21.03.2021
1196 Clear -24 1007 53 10000 5 270 20:56 21.03.2021
1197 Clear -22 1007 54 10000 5 280 20:38 21.03.2021
1198 Clear -22 1007 54 10000 5 280 20:19 21.03.2021
1199 Clear -21 1006 54 10000 5 280 19:39 21.03.2021
1200 Clear -21 1006 54 10000 5 280 19:19 21.03.2021
1201 Snow -21 1005 71 10000 5 300 18:41 21.03.2021
1202 Snow -21 1005 71 10000 5 300 18:18 21.03.2021
1203 Snow -20 1005 77 2400 6 290 17:42 21.03.2021
1204 Snow -20 1005 77 2400 6 290 17:18 21.03.2021
1205 Snow -19 1005 78 1500 6 290 16:49 21.03.2021
1206 Snow -19 1004 84 1500 7 310 16:23 21.03.2021
1207 Snow -18 1004 85 700 5 300 15:46 21.03.2021
1208 Snow -17 1003 78 700 6 300 15:21 21.03.2021
1209 Snow -17 1002 85 700 8 320 14:48 21.03.2021
1210 Snow -16 1002 85 700 6 310 14:27 21.03.2021
1211 Snow -15 1001 85 700 9 310 13:57 21.03.2021
1212 Snow -14 1001 78 1000 8 310 13:39 21.03.2021
1213 Snow -14 1000 85 500 9 310 12:44 21.03.2021
1214 Snow -13 1000 92 500 9 310 12:25 21.03.2021
1215 Snow -13 1000 92 500 9 310 12:25 21.03.2021
1216 Snow -5 998 68 10000 1 60 11:41 21.03.2021
1217 Snow -5 998 68 10000 1 60 11:21 21.03.2021
1218 Snow -4 998 68 10000 2 120 10:45 21.03.2021
1219 Snow -4 998 63 10000 3 160 10:27 21.03.2021
1220 Snow -4 998 63 10000 4 170 09:50 21.03.2021
1221 Snow -4 998 63 10000 3 180 09:32 21.03.2021
1222 Snow -4 998 63 10000 4 160 08:57 21.03.2021
1223 Snow -4 998 58 10000 3 160 08:31 21.03.2021
1224 Snow -4 998 58 10000 4 170 07:51 21.03.2021
1225 Snow -4 998 54 10000 3 160 07:28 21.03.2021
1226 Snow -4 998 54 10000 4 160 06:21 21.03.2021
1227 Snow -5 999 54 10000 4 170 04:52 21.03.2021
1228 Clear -14 1002 92 10000 1 150 00:58 21.03.2021
1229 Clear -17 1002 85 10000 1 170 00:38 21.03.2021
1230 Clear -17 1002 85 10000 1 170 00:20 21.03.2021
1231 Clear -19 1002 84 10000 1 150 23:45 20.03.2021
1232 Mist -20 1003 84 2400 4.43 161 23:19 20.03.2021
1233 Mist -20 1003 84 1900 4.58 155 22:24 20.03.2021
1234 Fog -20 1004 84 900 4.58 155 21:49 20.03.2021
1235 Fog -22 1004 84 200 3.31 152 21:27 20.03.2021
1236 Fog -22 1005 84 200 1 10 20:50 20.03.2021
1237 Fog -21 1005 84 200 2.81 153 20:25 20.03.2021
1238 Fog -21 1005 84 200 2.81 153 20:25 20.03.2021
1239 Fog -21 1006 84 800 2.81 153 19:56 20.03.2021
1240 Smoke -22 1006 84 5000 1 360 19:38 20.03.2021
1241 Smoke -22 1006 84 5000 1 360 19:20 20.03.2021
1242 Clouds -21 1006 84 10000 1 320 18:44 20.03.2021
1243 Clouds -21 1007 84 10000 1 340 18:21 20.03.2021
1244 Clouds -20 1008 92 10000 1 320 17:42 20.03.2021
1245 Clouds -20 1008 92 10000 1 320 17:22 20.03.2021
1246 Clouds -19 1009 84 10000 1 310 16:43 20.03.2021
1247 Clouds -19 1009 84 10000 1 310 16:19 20.03.2021
1248 Clouds -18 1009 85 10000 2.35 157 15:44 20.03.2021
1249 Clouds -17 1010 85 10000 1 350 15:25 20.03.2021
1250 Clouds -15 1010 85 10000 1 320 14:40 20.03.2021
1251 Clouds -15 1010 85 10000 1 320 14:20 20.03.2021
1252 Clouds -17 1011 85 10000 1 340 13:31 20.03.2021
1253 Clouds -14 1012 85 10000 2 330 12:42 20.03.2021
1254 Clouds -14 1012 85 10000 2 330 12:23 20.03.2021
1255 Clouds -14 1012 85 10000 2 330 12:23 20.03.2021
1256 Clouds -14 1012 85 10000 2 330 12:23 20.03.2021
1257 Clouds -13 1012 92 10000 2 360 11:43 20.03.2021
1258 Clouds -12 1012 92 10000 2 360 11:22 20.03.2021
1259 Clouds -11 1012 92 10000 2 10 10:46 20.03.2021
1260 Clouds -10 1012 85 10000 3 340 10:24 20.03.2021
1261 Clouds -9 1012 86 10000 3 360 09:53 20.03.2021
1262 Clouds -8 1012 86 10000 2 360 09:23 20.03.2021
1263 Clouds -5 1013 86 10000 2 180 08:55 20.03.2021
1264 Snow -5 1013 86 10000 3 170 08:27 20.03.2021
1265 Snow -5 1013 86 5000 4 160 07:49 20.03.2021
1266 Snow -5 1013 86 5000 4 160 07:49 20.03.2021
1267 Snow -5 1013 80 3200 3 170 07:29 20.03.2021
1268 Snow -4 1014 74 10000 3 160 06:41 20.03.2021
1269 Snow -5 1014 74 10000 2 170 05:30 20.03.2021
1270 Clear -6 1015 68 10000 3 150 03:46 20.03.2021
1271 Clear -9 1015 79 10000 2 160 02:40 20.03.2021
1272 Snow -12 1016 85 10000 2 160 23:48 19.03.2021
1273 Snow -12 1016 85 3200 2 170 23:22 19.03.2021
1274 Snow -14 1016 85 5000 1 170 22:45 19.03.2021
1275 Clouds -15 1016 92 10000 1 160 22:25 19.03.2021
1276 Clouds -15 1016 85 10000 1 170 21:52 19.03.2021
1277 Clouds -14 1016 92 10000 1 190 21:21 19.03.2021
1278 Clouds -16 1016 92 10000 2 160 20:46 19.03.2021
1279 Clouds -15 1016 85 10000 1 160 20:27 19.03.2021
1280 Clouds -15 1016 85 10000 1 160 20:27 19.03.2021
1281 Clouds -16 1016 92 10000 2 180 19:59 19.03.2021
1282 Clear -15 1016 85 10000 2.92 212 19:39 19.03.2021
1283 Clear -15 1016 85 10000 2.98 213 19:19 19.03.2021
1284 Clear -15 1017 85 10000 1 230 18:39 19.03.2021
1285 Clear -15 1017 85 10000 1 230 18:18 19.03.2021
1286 Clear -15 1017 85 10000 1 180 17:50 19.03.2021
1287 Clear -14 1017 85 10000 3 200 17:27 19.03.2021
1288 Clear -15 1017 85 10000 2 210 16:51 19.03.2021
1289 Clear -13 1017 85 10000 2 180 16:26 19.03.2021
1290 Clear -14 1017 85 10000 1 200 15:43 19.03.2021
1291 Clear -14 1018 78 10000 2 190 15:22 19.03.2021
1292 Clear -14 1018 78 10000 2 170 14:42 19.03.2021
1293 Clear -14 1018 78 10000 2 170 14:21 19.03.2021
1294 Clear -15 1018 72 10000 1 230 13:34 19.03.2021
1295 Clear -14 1019 66 10000 2.88 200 12:50 19.03.2021
1296 Clear -15 1019 72 10000 2 350 12:32 19.03.2021
1297 Clear -14 1019 66 10000 1 360 11:40 19.03.2021
1298 Clear -11 1019 67 10000 2.58 187 10:53 19.03.2021
1299 Clear -7 1019 63 10000 2 170 10:30 19.03.2021
1300 Clear -7 1019 63 10000 2 190 09:49 19.03.2021
1301 Clear -6 1019 63 10000 2 160 09:30 19.03.2021
1302 Clear -6 1020 58 10000 2 160 08:54 19.03.2021
1303 Clear -6 1020 53 10000 2 150 08:36 19.03.2021
1304 Clear -6 1020 58 10000 2 150 07:54 19.03.2021
1305 Clear -10 1020 62 10000 1 0 07:35 19.03.2021
1306 Clear -11 1021 67 10000 1 110 06:43 19.03.2021
1307 Clear -24 1025 77 10000 1 50 02:45 19.03.2021
1308 Clear -29 1026 69 10000 1 30 00:52 19.03.2021
1309 Mist -31 1027 76 5000 1.6 171 23:30 18.03.2021
1310 Mist -31 1027 76 5000 1.6 171 23:30 18.03.2021
1311 Clear -32 1027 68 10000 1.84 182 22:58 18.03.2021
1312 Clear -32 1027 75 10000 1 240 22:38 18.03.2021
1313 Clear -32 1027 75 10000 1 240 22:18 18.03.2021
1314 Clear -31 1027 69 10000 1 300 21:39 18.03.2021
1315 Clear -31 1028 69 10000 1.55 188 20:47 18.03.2021
1316 Clear -30 1028 63 10000 2 300 20:27 18.03.2021
1317 Clear -30 1028 69 10000 1.19 204 19:45 18.03.2021
1318 Clear -29 1028 63 10000 1 280 19:25 18.03.2021
1319 Clear -29 1028 63 10000 1 280 18:57 18.03.2021
1320 Clear -29 1028 69 10000 2 280 18:33 18.03.2021
1321 Clear -29 1028 69 10000 3 270 17:50 18.03.2021
1322 Clear -28 1028 63 10000 1 250 17:25 18.03.2021
1323 Clear -27 1028 63 10000 2 280 16:48 18.03.2021
1324 Clear -25 1028 58 10000 2 260 16:29 18.03.2021
1325 Clear -25 1028 58 10000 2 280 15:47 18.03.2021
1326 Clear -25 1028 58 10000 2 300 15:26 18.03.2021
1327 Clear -22 1028 49 10000 1 340 14:55 18.03.2021
1328 Clear -21 1028 49 10000 2 330 14:32 18.03.2021
1329 Clear -21 1028 54 10000 3 300 13:53 18.03.2021
1330 Clear -19 1028 46 10000 3 310 13:26 18.03.2021
1331 Clear -18 1027 42 10000 3 300 12:44 18.03.2021
1332 Clear -18 1028 42 10000 4 280 12:26 18.03.2021
1333 Clear -17 1027 39 10000 3 280 11:55 18.03.2021
1334 Clear -16 1027 39 10000 2 280 11:33 18.03.2021
1335 Clear -15 1027 39 10000 2 310 10:49 18.03.2021
1336 Clear -14 1027 36 10000 3 290 10:27 18.03.2021
1337 Clear -13 1027 33 10000 3 300 09:56 18.03.2021
1338 Clear -13 1027 40 10000 2 310 09:29 18.03.2021
1339 Clear -12 1026 40 10000 3 260 08:52 18.03.2021
1340 Clear -12 1026 48 10000 1 40 08:32 18.03.2021
1341 Clear -12 1026 48 10000 1 40 08:32 18.03.2021
1342 Clear -11 1026 40 10000 3 280 07:54 18.03.2021
1343 Clear -11 1026 40 10000 3 260 07:25 18.03.2021
1344 Clear -12 1026 48 10000 4 270 06:37 18.03.2021
1345 Clear -12 1026 48 10000 4 270 06:18 18.03.2021
1346 Clear -15 1026 51 10000 2 40 03:41 18.03.2021
1347 Clear -15 1025 78 10000 3 320 00:19 18.03.2021
1348 Clear -16 1023 92 10000 2 330 22:58 17.03.2021
1349 Clear -15 1023 85 10000 2 340 22:36 17.03.2021
1350 Clear -15 1023 85 10000 2 340 22:18 17.03.2021
1351 Clear -14 1022 92 10000 1 350 21:45 17.03.2021
1352 Clear -14 1022 92 10000 1 350 21:27 17.03.2021
1353 Clear -13 1022 92 10000 2 320 20:45 17.03.2021
1354 Clear -15 1022 85 10000 1 340 20:25 17.03.2021
1355 Clear -14 1021 85 10000 2 320 19:51 17.03.2021
1356 Clouds -14 1021 85 10000 3 280 19:25 17.03.2021
1357 Clouds -17 1021 85 10000 2 290 18:57 17.03.2021
1358 Clear -18 1021 85 10000 1 280 18:39 17.03.2021
1359 Clear -16 1020 85 10000 2 270 17:58 17.03.2021
1360 Clear -18 1020 92 10000 2.17 251 17:27 17.03.2021
1361 Clear -18 1020 92 10000 2.17 251 16:57 17.03.2021
1362 Clear -17 1020 85 10000 2.17 251 16:37 17.03.2021
1363 Clear -17 1020 85 10000 2.27 253 16:19 17.03.2021
1364 Clear -16 1020 78 10000 2 200 15:40 17.03.2021
1365 Clear -14 1020 72 10000 1 240 14:46 17.03.2021
1366 Clear -12 1020 67 10000 2 230 14:28 17.03.2021
1367 Clear -12 1020 72 10000 3 200 13:56 17.03.2021
1368 Clear -11 1020 67 10000 4 210 13:38 17.03.2021
1369 Clear -10 1019 67 10000 3 220 12:59 17.03.2021
1370 Clear -12 1019 72 10000 3 230 12:34 17.03.2021
1371 Clear -12 1019 72 10000 2 220 11:54 17.03.2021
1372 Clear -10 1019 67 10000 2 210 11:27 17.03.2021
1373 Clouds -9 1019 62 10000 3 210 10:59 17.03.2021
1374 Clouds -8 1019 62 10000 2 200 10:40 17.03.2021
1375 Clouds -5 1019 50 10000 4 190 09:59 17.03.2021
1376 Clouds -7 1021 87 10000 2.55 235 09:41 17.03.2021
1377 Clouds -5 1021 86 10000 2.89 237 09:20 17.03.2021
1378 Clouds -6 1019 53 10000 3 180 08:43 17.03.2021
1379 Clouds -6 1019 53 10000 3 170 08:24 17.03.2021
1380 Clouds 15 956 41 3849 3.71 217 07:37 17.03.2021
1381 Clear -6 1019 49 10000 3 170 06:48 17.03.2021
1382 Clear -9 1020 57 10000 3 180 04:28 17.03.2021
1383 Clear -11 1020 62 10000 4 180 03:31 17.03.2021
1384 Clear -19 1020 71 10000 3.54 198 00:44 17.03.2021
1385 Clear -21 1020 77 10000 3.53 192 00:24 17.03.2021
1386 Clear -24 1021 84 10000 3.04 185 23:25 16.03.2021
1387 Clear -24 1021 84 10000 1 340 22:44 16.03.2021
1388 Snow -24 1021 84 10000 2 330 22:26 16.03.2021
1389 Snow -23 1020 77 10000 1 320 21:44 16.03.2021
1390 Clear -23 1021 77 10000 1 180 21:25 16.03.2021
1391 Clear -22 1021 77 10000 1 180 20:56 16.03.2021
1392 Clear -22 1021 84 10000 1 280 20:19 16.03.2021
1393 Clear -20 1021 84 10000 1 200 19:48 16.03.2021
1394 Clear -19 1021 78 10000 1 200 19:28 16.03.2021
1395 Clear -19 1021 78 10000 1 160 18:56 16.03.2021
1396 Clear -20 1021 84 10000 1 190 18:36 16.03.2021
1397 Clear -19 1021 78 10000 2 170 17:55 16.03.2021
1398 Clear -15 1021 72 10000 2 180 17:36 16.03.2021
1399 Clear -15 1021 72 10000 3 170 16:58 16.03.2021
1400 Clear -14 1021 66 10000 2 180 16:38 16.03.2021
1401 Clear -14 1021 66 10000 2 180 16:19 16.03.2021
1402 Clear -14 1021 72 10000 2 170 15:40 16.03.2021
1403 Clear -14 1021 72 10000 2 170 15:19 16.03.2021
1404 Clear -14 1021 72 10000 2 160 14:56 16.03.2021
1405 Clear -13 1021 66 10000 2 140 14:37 16.03.2021
1406 Clear -13 1021 66 10000 2 140 14:18 16.03.2021
1407 Clear -12 1021 61 10000 2 190 13:41 16.03.2021
1408 Clear -12 1021 61 10000 2 190 13:19 16.03.2021
1409 Clear -12 1021 67 10000 2 180 12:38 16.03.2021
1410 Clear -12 1021 67 10000 2 180 12:19 16.03.2021
1411 Clear -12 1021 67 10000 2 130 11:35 16.03.2021
1412 Clouds -13 1021 72 10000 2 130 10:53 16.03.2021
1413 Clear -10 1021 57 10000 2 180 10:21 16.03.2021
1414 Clear -9 1021 57 10000 2 160 09:41 16.03.2021
1415 Clear -9 1021 57 10000 2 160 09:21 16.03.2021
1416 Clear -9 1021 57 10000 2 140 08:57 16.03.2021
1417 Clear -9 1021 53 10000 3 140 08:39 16.03.2021
1418 Clear -10 1021 57 10000 3 140 07:57 16.03.2021
1419 Clear -10 1021 52 10000 4 160 07:30 16.03.2021
1420 Clear -11 1021 57 10000 4 170 06:38 16.03.2021
1421 Clear -12 1022 52 10000 3 170 05:37 16.03.2021
1422 Clear -14 1021 51 10000 2 160 04:28 16.03.2021
1423 Clear -19 1021 60 10000 3 170 02:29 16.03.2021
1424 Clear -20 1021 65 10000 2 160 01:59 16.03.2021
1425 Clear -26 1020 70 10000 2 200 23:55 15.03.2021
1426 Clear -25 1020 64 10000 2 210 23:28 15.03.2021
1427 Clear -24 1019 64 10000 3 180 22:50 15.03.2021
1428 Clear -26 1019 70 10000 2 190 22:31 15.03.2021
1429 Clear -25 1019 58 10000 2 180 21:53 15.03.2021
1430 Clear -23 1019 59 10000 3 180 21:33 15.03.2021
1431 Clear -24 1019 64 10000 3 170 20:57 15.03.2021
1432 Clear -24 1019 64 10000 3 170 20:57 15.03.2021
1433 Clear -23 1019 59 10000 4 170 20:39 15.03.2021
1434 Clear -23 1019 59 10000 4 170 20:20 15.03.2021
1435 Clear -25 1019 70 10000 2 190 19:49 15.03.2021
1436 Clear -27 1019 69 10000 2 170 19:30 15.03.2021
1437 Clear -26 1019 70 10000 2 160 18:49 15.03.2021
1438 Clear -26 1019 70 10000 2 190 18:26 15.03.2021
1439 Clear -26 1019 70 10000 2 180 17:55 15.03.2021
1440 Clear -25 1019 64 10000 3 200 17:30 15.03.2021
1441 Clear -26 1019 76 10000 2 160 16:50 15.03.2021
1442 Clear -25 1019 64 10000 2 180 16:31 15.03.2021
1443 Clear -25 1019 64 10000 2 190 15:45 15.03.2021
1444 Clear -23 1019 64 10000 1 200 15:25 15.03.2021
1445 Clear -22 1018 64 10000 1 190 14:44 15.03.2021
1446 Clear -20 1018 59 10000 2 240 14:22 15.03.2021
1447 Clear -18 1017 55 10000 4 270 13:47 15.03.2021
1448 Clear -18 1017 55 10000 4 270 13:25 15.03.2021
1449 Clear -17 1017 51 10000 5 270 12:48 15.03.2021
1450 Clear -17 1016 51 10000 4 270 12:20 15.03.2021
1451 Clear -17 1016 51 10000 3 260 11:52 15.03.2021
1452 Clear -16 1016 51 10000 4 280 11:32 15.03.2021
1453 Snow -15 1015 47 10000 7 280 10:55 15.03.2021
1454 Snow -14 1014 47 10000 8 280 10:31 15.03.2021
1455 Clouds -14 1013 51 10000 7 270 09:53 15.03.2021
1456 Clouds -13 1013 43 10000 8 260 09:34 15.03.2021
1457 Clouds -12 1012 37 10000 7 290 08:54 15.03.2021
1458 Clear -12 1012 37 10000 5 310 08:34 15.03.2021
1459 Clear -12 1011 40 10000 8 260 07:55 15.03.2021
1460 Clear -12 1011 34 10000 6 280 07:32 15.03.2021
1461 Snow -12 1010 37 10000 8 300 06:40 15.03.2021
1462 Snow -12 1009 40 10000 9 280 05:32 15.03.2021
1463 Clouds -11 1005 73 10000 6 300 01:36 15.03.2021
1464 Clouds -13 1003 85 10000 1 270 23:58 14.03.2021
1465 Snow -13 1003 85 10000 2.6 302 23:20 14.03.2021
1466 Snow -13 1003 78 10000 1 210 22:47 14.03.2021
1467 Clouds -13 1002 78 10000 1 250 22:23 14.03.2021
1468 Snow -12 1002 79 5000 1.95 289 21:45 14.03.2021
1469 Snow -12 1002 72 10000 0.82 266 21:19 14.03.2021
1470 Snow -12 1002 67 10000 2 290 20:49 14.03.2021
1471 Snow -12 1002 72 10000 2 310 20:26 14.03.2021
1472 Snow -12 1002 72 10000 2 310 20:26 14.03.2021
1473 Snow -13 1002 78 10000 2 290 19:48 14.03.2021
1474 Snow -13 1001 78 10000 1 340 19:24 14.03.2021
1475 Snow -13 1002 72 10000 1 360 18:49 14.03.2021
1476 Snow -13 1001 72 10000 2 330 18:28 14.03.2021
1477 Snow -13 1001 72 10000 2 320 17:41 14.03.2021
1478 Clear -13 1001 72 10000 2 320 17:23 14.03.2021
1479 Clear -14 1001 78 10000 2 340 16:49 14.03.2021
1480 Clear -14 1001 72 10000 1 340 16:28 14.03.2021
1481 Clear -14 1001 72 10000 2 310 15:56 14.03.2021
1482 Clear -14 1001 72 10000 2 310 15:36 14.03.2021
1483 Clear -14 1001 72 10000 2 310 14:41 14.03.2021
1484 Clear -14 1001 72 10000 2 310 14:23 14.03.2021
1485 Clear -15 1001 78 10000 2 320 13:49 14.03.2021
1486 Clear -15 1001 78 10000 2 320 13:29 14.03.2021
1487 Clear -15 1001 78 10000 1 320 12:47 14.03.2021
1488 Clear -16 1000 78 10000 1 100 12:28 14.03.2021
1489 Clear -14 1000 66 10000 1 120 11:54 14.03.2021
1490 Clear -12 1000 61 10000 0.3 320 11:36 14.03.2021
1491 Clear -10 1000 57 10000 2 140 10:56 14.03.2021
1492 Clear -9 1000 53 10000 3 140 10:37 14.03.2021
1493 Clear -9 1000 53 10000 3 140 10:18 14.03.2021
1494 Clouds -12 1001 84 10000 0.88 259 09:43 14.03.2021
1495 Clear -7 999 49 10000 2 120 09:22 14.03.2021
1496 Clear -5 999 39 10000 1.62 255 08:48 14.03.2021
1497 Clear -5 999 39 10000 2 280 08:29 14.03.2021
1498 Clear -5 999 39 10000 3 270 07:47 14.03.2021
1499 Clear -4 999 39 10000 3 260 07:19 14.03.2021
1500 Clouds -6 998 49 10000 6 270 05:32 14.03.2021
1501 Clouds -10 995 85 10000 2 300 00:52 14.03.2021
1502 Clouds -10 994 85 10000 3 290 00:19 14.03.2021
1503 Clouds -10 993 85 10000 4 300 23:53 13.03.2021
1504 Clouds -12 993 92 10000 1 300 23:35 13.03.2021
1505 Snow -12 992 92 10000 2 350 22:54 13.03.2021
1506 Snow -12 992 85 10000 2 340 22:32 13.03.2021
1507 Snow -14 991 92 10000 2 310 21:48 13.03.2021
1508 Clouds -16 991 92 10000 2 310 21:26 13.03.2021
1509 Clouds -17 991 92 10000 1 280 20:53 13.03.2021
1510 Clouds -17 991 92 10000 1 300 20:31 13.03.2021
1511 Mist -17 990 92 5000 2 330 19:54 13.03.2021
1512 Snow -16 990 85 5000 2 350 19:31 13.03.2021
1513 Snow -16 990 92 1100 1 90 18:58 13.03.2021
1514 Snow -16 990 85 10000 1 100 18:39 13.03.2021
1515 Snow -16 990 85 10000 1 100 18:18 13.03.2021
1516 Snow -10 991 92 5000 1 130 17:42 13.03.2021
1517 Snow -10 991 92 5000 1 130 17:24 13.03.2021
1518 Snow -10 991 92 2400 2 120 16:45 13.03.2021
1519 Snow -10 992 92 5000 2 120 16:27 13.03.2021
1520 Snow -9 993 79 2400 4 130 15:41 13.03.2021
1521 Snow -9 994 67 10000 4 130 14:51 13.03.2021
1522 Clouds -10 995 73 10000 2 120 14:29 13.03.2021
1523 Clear -10 996 73 10000 2 90 13:51 13.03.2021
1524 Clear -11 997 73 10000 3 100 13:25 13.03.2021
1525 Clear -12 998 79 10000 1 80 12:45 13.03.2021
1526 Clear -11 998 73 10000 1 100 12:27 13.03.2021
1527 Clear -11 999 73 10000 3 100 11:50 13.03.2021
1528 Clear -11 999 73 10000 4 100 11:29 13.03.2021
1529 Clear -11 1000 73 10000 3 100 10:50 13.03.2021
1530 Clear -11 1000 73 10000 3 100 10:50 13.03.2021
1531 Clear -13 1001 78 10000 2 90 10:30 13.03.2021
1532 Clear -13 1001 72 10000 2 100 09:47 13.03.2021
1533 Clear -11 1002 67 10000 2 110 09:19 13.03.2021
1534 Clear -11 1002 73 10000 1 130 08:43 13.03.2021
1535 Clear -11 1003 67 10000 3 140 08:19 13.03.2021
1536 Clear -11 1003 67 10000 4 140 07:54 13.03.2021
1537 Clear -11 1005 67 10000 2 130 06:53 13.03.2021
1538 Clear -14 1006 78 10000 2 330 02:55 13.03.2021
1539 Clouds -16 1005 85 10000 3 320 00:57 13.03.2021
1540 Snow -16 1005 85 3200 3 340 23:59 12.03.2021
1541 Snow -16 1005 92 3200 3 350 23:32 12.03.2021
1542 Snow -15 1004 85 2400 3 360 22:46 12.03.2021
1543 Snow -15 1004 85 2400 3 360 22:28 12.03.2021
1544 Snow -15 1004 85 2400 4 360 21:45 12.03.2021
1545 Snow -15 1004 92 2100 3 350 21:27 12.03.2021
1546 Snow -15 1004 92 2100 3 350 21:27 12.03.2021
1547 Snow -15 1004 92 3200 3 350 20:59 12.03.2021
1548 Snow -15 1004 92 5000 3 350 20:40 12.03.2021
1549 Snow -15 1004 92 5000 3 350 20:18 12.03.2021
1550 Snow -14 1004 85 2400 2 360 19:42 12.03.2021
1551 Snow -14 1004 85 2400 2 360 19:24 12.03.2021
1552 Snow -14 1004 85 10000 3 350 18:36 12.03.2021
1553 Snow -14 1004 85 10000 3 350 18:36 12.03.2021
1554 Snow -14 1004 85 10000 3 350 18:18 12.03.2021
1555 Snow -15 1004 92 10000 3 340 17:39 12.03.2021
1556 Snow -15 1004 92 10000 3 340 17:20 12.03.2021
1557 Snow -14 1004 85 5000 3 350 16:42 12.03.2021
1558 Snow -14 1004 85 5000 3 330 15:55 12.03.2021
1559 Snow -14 1004 92 10000 3 360 15:35 12.03.2021
1560 Snow -13 1004 85 10000 3 360 14:49 12.03.2021
1561 Snow -13 1004 85 10000 3 20 14:21 12.03.2021
1562 Snow -12 1004 85 10000 3 20 13:45 12.03.2021
1563 Snow -11 1004 85 10000 3 40 13:24 12.03.2021
1564 Snow -10 1004 85 5000 3 60 12:59 12.03.2021
1565 Snow -10 1004 85 3200 3 60 12:41 12.03.2021
1566 Snow -10 1004 85 3200 3 60 12:20 12.03.2021
1567 Snow -10 1004 79 2400 3 50 11:51 12.03.2021
1568 Snow -10 1004 73 10000 3 50 11:23 12.03.2021
1569 Snow -11 1004 73 10000 2 30 10:54 12.03.2021
1570 Snow -11 1004 67 10000 3 350 10:26 12.03.2021
1571 Snow -11 1003 67 10000 4 360 09:56 12.03.2021
1572 Snow -11 1004 67 10000 3 350 09:26 12.03.2021
1573 Snow -11 1004 67 10000 3 350 08:46 12.03.2021
1574 Clear -12 1004 67 10000 2 350 07:58 12.03.2021
1575 Clear -13 1004 72 10000 3 350 07:34 12.03.2021
1576 Clear -13 1004 66 10000 3 360 06:53 12.03.2021
1577 Clear -14 1005 72 10000 4 360 06:28 12.03.2021
1578 Clear -14 1005 72 10000 4 360 06:28 12.03.2021
1579 Clear -21 1009 84 10000 2 10 02:49 12.03.2021
1580 Clear -24 1010 84 10000 1 340 00:47 12.03.2021
1581 Clear -26 1011 76 10000 1 340 23:30 11.03.2021
1582 Clear -27 1011 76 10000 2 330 22:50 11.03.2021
1583 Clear -26 1012 84 10000 1 340 22:30 11.03.2021
1584 Clear -26 1012 84 10000 1 340 22:30 11.03.2021
1585 Snow -24 1012 77 10000 1 330 21:55 11.03.2021
1586 Snow -24 1012 84 10000 1 330 21:36 11.03.2021
1587 Snow -24 1012 84 10000 1 330 21:18 11.03.2021
1588 Snow -24 1013 84 10000 1 250 20:41 11.03.2021
1589 Snow -24 1013 84 10000 1 250 20:19 11.03.2021
1590 Clear -24 1013 77 10000 1 230 19:44 11.03.2021
1591 Clear -25 1013 77 10000 1 250 19:26 11.03.2021
1592 Clear -27 1013 76 10000 2.24 184 18:46 11.03.2021
1593 Clear -26 1013 84 10000 2.25 193 18:28 11.03.2021
1594 Clear -25 1014 77 10000 2.25 193 17:44 11.03.2021
1595 Clear -26 1014 76 10000 2.12 207 16:53 11.03.2021
1596 Clear -25 1014 84 10000 1 280 16:27 11.03.2021
1597 Clear -25 1014 84 10000 2 240 15:48 11.03.2021
1598 Clear -24 1014 84 10000 2 250 15:21 11.03.2021
1599 Clear -23 1015 84 10000 2 260 14:46 11.03.2021
1600 Clear -23 1015 84 10000 3 250 14:19 11.03.2021
1601 Clear -23 1015 84 10000 3 250 14:19 11.03.2021
1602 Clear -23 1015 84 10000 2 230 13:49 11.03.2021
1603 Clear -21 1015 84 10000 1.52 244 13:30 11.03.2021
1604 Clear -21 1015 84 10000 2 230 12:58 11.03.2021
1605 Clear -20 1015 84 10000 2 230 12:39 11.03.2021
1606 Clear -20 1015 84 10000 2 230 12:21 11.03.2021
1607 Clear -20 1015 77 10000 1 260 11:43 11.03.2021
1608 Clear -17 1015 71 10000 2 240 11:21 11.03.2021
1609 Clear -13 1015 61 10000 3 240 10:42 11.03.2021
1610 Clear -13 1015 61 10000 3 240 10:20 11.03.2021
1611 Clear -11 1015 57 10000 3 290 09:41 11.03.2021
1612 Clear -11 1015 57 10000 3 290 09:22 11.03.2021
1613 Clouds -11 1014 52 10000 3 280 08:47 11.03.2021
1614 Clouds -10 1014 48 10000 4 280 08:19 11.03.2021
1615 Clouds -11 1014 57 10000 5 280 07:29 11.03.2021
1616 Clouds -11 1014 52 10000 4 270 06:50 11.03.2021
1617 Clouds -10 1014 52 10000 5 250 06:30 11.03.2021
1618 Clear -11 1014 57 10000 4 260 03:53 11.03.2021
1619 Clear -16 1013 72 10000 3 230 01:19 11.03.2021
1620 Clear -16 1012 78 10000 4 240 23:33 10.03.2021
1621 Clear -16 1012 78 10000 4 250 22:59 10.03.2021
1622 Clear -19 1011 84 10000 3 210 22:33 10.03.2021
1623 Clear -16 1011 85 10000 4 210 21:47 10.03.2021
1624 Snow -16 1011 85 10000 4 200 21:26 10.03.2021
1625 Snow -15 1011 78 10000 4 230 20:51 10.03.2021
1626 Clear -15 1011 78 10000 4 220 20:33 10.03.2021
1627 Clear -14 1010 78 10000 4 230 19:54 10.03.2021
1628 Clear -14 1010 78 10000 5 240 19:33 10.03.2021
1629 Clear -16 1010 92 10000 5 240 18:56 10.03.2021
1630 Snow -17 1010 85 10000 4 210 18:37 10.03.2021
1631 Snow -17 1010 85 10000 4 210 18:18 10.03.2021
1632 Snow -16 1010 85 10000 5 220 17:41 10.03.2021
1633 Snow -16 1009 85 10000 5 210 17:19 10.03.2021
1634 Clear -15 1009 78 10000 4 210 16:48 10.03.2021
1635 Clear -16 1009 78 10000 5 220 16:25 10.03.2021
1636 Clear -15 1009 72 10000 5 220 15:51 10.03.2021
1637 Clear -15 1009 72 10000 6 220 15:25 10.03.2021
1638 Clear -14 1009 72 10000 5 220 14:57 10.03.2021
1639 Clear -13 1009 66 10000 5 210 14:23 10.03.2021
1640 Clear -13 1008 72 10000 4 210 13:58 10.03.2021
1641 Clear -13 1008 72 10000 4 220 13:31 10.03.2021
1642 Clear -14 1008 72 10000 4 230 12:48 10.03.2021
1643 Clear -14 1008 66 10000 4 210 12:28 10.03.2021
1644 Clear -13 1007 66 10000 4 230 11:53 10.03.2021
1645 Clouds -11 1007 62 10000 4 260 11:28 10.03.2021
1646 Clouds -10 1007 57 10000 4 250 10:51 10.03.2021
1647 Clouds -9 1006 62 10000 7 260 10:33 10.03.2021
1648 Clouds -8 1005 53 10000 5 260 09:56 10.03.2021
1649 Snow -8 1005 53 10000 6 270 09:38 10.03.2021
1650 Snow -8 1005 53 10000 6 270 09:18 10.03.2021
1651 Snow -7 1003 63 10000 8 270 08:44 10.03.2021
1652 Snow -7 1003 63 10000 8 270 08:26 10.03.2021
1653 Snow -6 1002 73 5000 8 280 07:44 10.03.2021
1654 Snow -6 1001 86 1500 8 280 07:24 10.03.2021
1655 Clouds -7 1001 79 10000 3 170 06:52 10.03.2021
1656 Snow -12 1000 85 10000 2 170 02:44 10.03.2021
1657 Snow -20 1001 84 10000 5.32 183 00:36 10.03.2021
1658 Snow -21 1001 84 10000 1 360 23:33 09.03.2021
1659 Clear -22 1001 84 10000 2 300 22:52 09.03.2021
1660 Clear -23 1002 84 10000 1 340 22:34 09.03.2021
1661 Clear -23 1002 84 10000 1 330 21:59 09.03.2021
1662 Clear -23 1003 77 10000 2 340 21:38 09.03.2021
1663 Clear -23 1003 77 10000 2 340 21:20 09.03.2021
1664 Clear -24 1003 84 10000 2 350 20:55 09.03.2021
1665 Clear -25 1004 77 10000 2 340 20:36 09.03.2021
1666 Clear -25 1004 77 10000 2 340 20:18 09.03.2021
1667 Clear -25 1004 84 10000 2 360 19:43 09.03.2021
1668 Clear -25 1005 84 10000 1 340 19:24 09.03.2021
1669 Clear -26 1006 84 10000 1 350 18:40 09.03.2021
1670 Clear -26 1006 84 10000 1 350 18:18 09.03.2021
1671 Clear -26 1007 76 10000 1 340 17:45 09.03.2021
1672 Clear -27 1007 76 10000 2 350 17:24 09.03.2021
1673 Clear -27 1008 76 10000 2 320 16:40 09.03.2021
1674 Clear -27 1008 76 10000 2 320 16:21 09.03.2021
1675 Clear -27 1009 76 10000 1 330 15:56 09.03.2021
1676 Clear -27 1009 83 10000 1 350 15:25 09.03.2021
1677 Clear -27 1009 83 10000 1 310 14:49 09.03.2021
1678 Clear -27 1010 83 10000 2.16 167 14:26 09.03.2021
1679 Clear -27 1010 76 10000 1 320 13:42 09.03.2021
1680 Clear -27 1010 76 10000 1 320 13:21 09.03.2021
1681 Clear -25 1010 77 10000 1 300 12:54 09.03.2021
1682 Clear -25 1010 84 10000 1 320 12:35 09.03.2021
1683 Clear -22 1010 77 10000 3 350 11:43 09.03.2021
1684 Clear -22 1010 77 10000 3 350 11:22 09.03.2021
1685 Clear -20 1010 71 10000 2 360 10:58 09.03.2021
1686 Clear -18 1011 71 10000 0.95 212 10:39 09.03.2021
1687 Clear -18 1011 71 10000 0.95 212 10:39 09.03.2021
1688 Clear -18 1011 71 10000 1.09 239 10:20 09.03.2021
1689 Clear -17 1011 66 10000 2 210 09:46 09.03.2021
1690 Clear -15 1011 66 10000 1 180 09:26 09.03.2021
1691 Clear -15 1010 66 10000 1 180 08:49 09.03.2021
1692 Clear -15 1010 61 10000 2 170 08:30 09.03.2021
1693 Clear -15 1011 61 10000 2 170 07:46 09.03.2021
1694 Clear -16 1011 66 10000 2 160 07:23 09.03.2021
1695 Clear -18 1010 65 10000 1 140 06:44 09.03.2021
1696 Clear -19 1011 71 10000 2 160 05:48 09.03.2021
1697 Snow -26 1009 70 10000 1 250 01:31 09.03.2021
1698 Snow -26 1009 70 10000 1 250 01:31 09.03.2021
1699 Snow -26 1009 70 10000 1 250 01:31 09.03.2021
1700 Snow -31 1008 76 10000 2 270 23:56 08.03.2021
1701 Snow -30 1008 69 10000 1 260 23:37 08.03.2021
1702 Snow -30 1008 69 10000 1 260 23:18 08.03.2021
1703 Snow -30 1007 76 10000 2 270 22:40 08.03.2021
1704 Snow -30 1007 76 10000 2 270 22:21 08.03.2021
1705 Snow -29 1007 76 10000 0.76 315 21:45 08.03.2021
1706 Snow -29 1006 76 10000 1 280 21:26 08.03.2021
1707 Snow -28 1006 76 10000 3 300 20:40 08.03.2021
1708 Snow -28 1006 76 10000 3 300 20:20 08.03.2021
1709 Clear -28 1006 76 10000 3 290 19:45 08.03.2021
1710 Clear -28 1005 76 10000 3 300 19:20 08.03.2021
1711 Clear -26 1005 84 10000 3 330 18:37 08.03.2021
1712 Clear -26 1005 84 10000 3 330 18:19 08.03.2021
1713 Clear -25 1005 84 10000 2 330 17:43 08.03.2021
1714 Clear -24 1004 77 10000 3 340 17:22 08.03.2021
1715 Clear -23 1004 77 10000 3 340 16:42 08.03.2021
1716 Clear -23 1004 77 10000 3 340 16:22 08.03.2021
1717 Clear -23 1004 77 10000 3 350 15:42 08.03.2021
1718 Clear -23 1004 77 10000 3 350 15:23 08.03.2021
1719 Clear -23 1003 84 10000 3 340 14:21 08.03.2021
1720 Clear -23 1003 84 10000 3 340 13:57 08.03.2021
1721 Clear -22 1003 77 10000 4 350 13:23 08.03.2021
1722 Clear -22 1003 77 10000 4 350 12:58 08.03.2021
1723 Snow -22 1003 77 10000 4 340 12:35 08.03.2021
1724 Snow -21 1003 77 10000 4 350 11:50 08.03.2021
1725 Snow -21 1002 77 10000 4 350 11:30 08.03.2021
1726 Snow -20 1002 71 10000 4 350 10:57 08.03.2021
1727 Snow -20 1002 77 5000 3 350 10:39 08.03.2021
1728 Snow -20 1002 77 5000 3 350 10:18 08.03.2021
1729 Snow -20 1001 71 10000 4 360 09:27 08.03.2021
1730 Snow -20 1001 71 10000 5 350 08:52 08.03.2021
1731 Snow -20 1001 71 10000 4 350 08:25 08.03.2021
1732 Snow -20 1001 71 10000 4 350 07:22 08.03.2021
1733 Snow -21 1001 71 10000 5 350 05:46 08.03.2021
1734 Snow -24 1002 70 5000 4 350 02:43 08.03.2021
1735 Snow -26 1003 76 5000 4 360 00:43 08.03.2021
1736 Snow -27 1003 76 5000 3 350 23:53 07.03.2021
1737 Snow -27 1003 76 10000 4 350 23:22 07.03.2021
1738 Snow -27 1004 76 10000 3 350 22:49 07.03.2021
1739 Snow -27 1004 76 5000 3 360 22:28 07.03.2021
1740 Snow -26 1004 76 5000 3 360 21:56 07.03.2021
1741 Snow -26 1005 76 5000 3 360 21:34 07.03.2021
1742 Snow -26 1005 76 3200 3 350 20:59 07.03.2021
1743 Snow -27 1006 76 10000 3 350 20:41 07.03.2021
1744 Snow -27 1006 76 10000 3 350 20:19 07.03.2021
1745 Snow -27 1006 76 10000 4 350 19:55 07.03.2021
1746 Snow -27 1006 69 10000 3 360 19:37 07.03.2021
1747 Snow -27 1006 69 10000 3 360 19:19 07.03.2021
1748 Snow -28 1007 76 10000 3 350 18:40 07.03.2021
1749 Snow -28 1007 76 10000 3 350 18:18 07.03.2021
1750 Snow -28 1008 76 10000 3 350 17:39 07.03.2021
1751 Snow -28 1008 76 10000 3 350 17:20 07.03.2021
1752 Clear -28 1008 76 10000 3 350 16:44 07.03.2021
1753 Clear -28 1008 76 10000 3 350 16:21 07.03.2021
1754 Clear -27 1009 76 10000 2 340 15:56 07.03.2021
1755 Clear -27 1009 76 10000 3 340 15:38 07.03.2021
1756 Clear -27 1009 76 10000 3 340 15:19 07.03.2021
1757 Clear -27 1010 69 10000 3 330 14:29 07.03.2021
1758 Clear -27 1010 69 10000 4 330 13:57 07.03.2021
1759 Clear -27 1011 69 10000 4 330 13:38 07.03.2021
1760 Clear -27 1011 69 10000 4 330 13:18 07.03.2021
1761 Clear -27 1011 69 10000 3 340 12:40 07.03.2021
1762 Clear -27 1011 69 10000 3 340 12:21 07.03.2021
1763 Clear -26 1012 64 10000 3 340 11:24 07.03.2021
1764 Clear -26 1012 64 10000 2 340 10:59 07.03.2021
1765 Clear -27 1012 63 10000 3 350 10:38 07.03.2021
1766 Clear -25 1012 58 10000 2 350 09:58 07.03.2021
1767 Clear -25 1012 58 10000 2 350 09:39 07.03.2021
1768 Clear -25 1012 58 10000 2 350 09:19 07.03.2021
1769 Clear -25 1013 58 10000 2 360 08:45 07.03.2021
1770 Clear -24 1013 53 10000 2 10 08:22 07.03.2021
1771 Clear -25 1013 58 10000 2 10 07:23 07.03.2021
1772 Mist -35 1016 68 3200 2 10 02:40 07.03.2021
1773 Fog -38 1017 67 450 3 350 00:35 07.03.2021
1774 Fog -40 1018 67 350 2 350 23:41 06.03.2021
1775 Fog -40 1018 67 350 2 350 23:22 06.03.2021
1776 Fog -39 1017 60 400 1 340 22:47 06.03.2021
1777 Fog -39 1017 67 400 2 340 22:25 06.03.2021
1778 Fog -39 1018 67 400 1 320 21:52 06.03.2021
1779 Fog -38 1018 67 500 1 350 21:21 06.03.2021
1780 Fog -39 1018 67 550 2 330 20:45 06.03.2021
1781 Fog -39 1018 67 600 2 330 20:21 06.03.2021
1782 Mist -38 1018 67 1300 2 320 19:41 06.03.2021
1783 Mist -38 1018 67 1300 2 320 19:18 06.03.2021
1784 Mist -38 1019 67 3200 2 330 18:43 06.03.2021
1785 Mist -38 1019 67 5000 2 330 18:23 06.03.2021
1786 Clear -37 1019 67 10000 2 320 17:55 06.03.2021
1787 Clear -36 1019 68 10000 2 320 17:33 06.03.2021
1788 Clear -36 1020 68 10000 1 320 17:00 06.03.2021
1789 Clear -36 1020 68 10000 2 300 16:38 06.03.2021
1790 Clear -36 1020 68 10000 2 300 16:20 06.03.2021
1791 Clear -34 1020 68 10000 1 320 15:41 06.03.2021
1792 Clear -34 1020 68 10000 1 320 15:23 06.03.2021
1793 Clear -34 1020 75 10000 2 310 14:33 06.03.2021
1794 Clear -33 1020 75 10000 2 300 13:57 06.03.2021
1795 Clear -33 1021 75 10000 2 310 13:39 06.03.2021
1796 Clear -33 1021 75 10000 2 310 13:19 06.03.2021
1797 Clear -32 1021 75 10000 2 310 12:44 06.03.2021
1798 Clear -32 1021 68 10000 2 320 12:19 06.03.2021
1799 Clear -32 1021 75 10000 2 330 11:49 06.03.2021
1800 Clear -30 1021 69 10000 2 360 11:21 06.03.2021
1801 Clear -30 1021 69 10000 2 10 10:48 06.03.2021
1802 Clear -29 1022 69 10000 1 20 10:19 06.03.2021
1803 Clear -24 1022 58 10000 0.84 127 09:42 06.03.2021
1804 Clear -24 1022 58 10000 0.81 113 09:19 06.03.2021
1805 Clear -23 1023 54 10000 1 190 08:40 06.03.2021
1806 Clear -23 1023 54 10000 2 180 07:57 06.03.2021
1807 Clear -23 1023 54 10000 1 160 07:24 06.03.2021
1808 Clear -24 1023 53 10000 1 150 06:58 06.03.2021
1809 Clear -26 1024 58 10000 2 110 05:34 06.03.2021
1810 Clear -26 1024 58 10000 2 110 05:34 06.03.2021
1811 Mist -32 1026 75 2100 1.45 264 02:38 06.03.2021
1812 Mist -38 1026 67 3200 1 200 00:48 06.03.2021
1813 Mist -38 1026 61 1000 1 130 23:53 05.03.2021
1814 Fog -39 1026 67 900 2 120 23:29 05.03.2021
1815 Mist -39 1026 67 5000 1 280 22:49 05.03.2021
1816 Clear -37 1026 67 10000 2 280 22:23 05.03.2021
1817 Clear -39 1026 60 10000 1 250 21:54 05.03.2021
1818 Clear -39 1026 67 10000 1 260 21:35 05.03.2021
1819 Clear -40 1027 67 10000 1.95 264 20:58 05.03.2021
1820 Clear -40 1027 67 10000 1 250 20:40 05.03.2021
1821 Clear -40 1027 67 10000 1 250 20:21 05.03.2021
1822 Clear -37 1027 67 10000 1 260 19:41 05.03.2021
1823 Clear -37 1027 67 10000 1 260 19:20 05.03.2021
1824 Clear -34 1027 75 10000 2 240 18:42 05.03.2021
1825 Clear -34 1027 75 10000 2 240 18:23 05.03.2021
1826 Clear -34 1027 68 10000 2 230 17:37 05.03.2021
1827 Clear -34 1027 68 10000 2 230 17:19 05.03.2021
1828 Clear -35 1027 68 10000 1 230 16:41 05.03.2021
1829 Clear -35 1027 68 10000 1 230 16:22 05.03.2021
1830 Clear -35 1027 75 10000 2 270 15:52 05.03.2021
1831 Clear -36 1028 68 10000 1 250 15:23 05.03.2021
1832 Clear -34 1027 68 10000 2.36 269 14:39 05.03.2021
1833 Clear -34 1027 68 10000 2.36 269 14:39 05.03.2021
1834 Clear -34 1027 68 10000 2.36 271 14:18 05.03.2021
1835 Clear -31 1027 69 10000 2 280 13:40 05.03.2021
1836 Clear -31 1027 69 10000 2 280 13:19 05.03.2021
1837 Clear -28 1027 69 10000 1 290 12:30 05.03.2021
1838 Clear -28 1027 63 10000 2 270 11:37 05.03.2021
1839 Clear -28 1027 63 10000 2 270 11:18 05.03.2021
1840 Clear -27 1027 58 10000 1 270 10:43 05.03.2021
1841 Clear -27 1027 58 10000 1 270 10:24 05.03.2021
1842 Clear -25 1027 53 10000 3 290 09:52 05.03.2021
1843 Clear -25 1027 53 10000 3 290 09:27 05.03.2021
1844 Clear -25 1027 53 10000 4 290 08:56 05.03.2021
1845 Clear -25 1027 53 10000 4 290 08:36 05.03.2021
1846 Clear -25 1027 53 10000 4 290 08:18 05.03.2021
1847 Clear -25 1026 53 10000 5 260 07:30 05.03.2021
1848 Clear -26 1026 53 10000 4 270 06:33 05.03.2021
1849 Clear -27 1026 58 10000 3 210 05:33 05.03.2021
1850 Clear -34 1025 62 10000 2 260 00:54 05.03.2021
1851 Clear -35 1025 68 10000 2 260 23:45 04.03.2021
1852 Clear -35 1025 68 10000 3 260 23:23 04.03.2021
1853 Clear -35 1024 68 10000 4 240 22:29 04.03.2021
1854 Clear -35 1024 68 10000 4 240 22:29 04.03.2021
1855 Clear -35 1024 68 10000 2 240 21:53 04.03.2021
1856 Clear -36 1024 68 10000 3 240 21:29 04.03.2021
1857 Clear -36 1024 68 10000 4 230 20:56 04.03.2021
1858 Clear -35 1024 61 10000 3 230 20:38 04.03.2021
1859 Clear -35 1024 61 10000 3 230 20:18 04.03.2021
1860 Clear -36 1024 68 10000 3 230 19:43 04.03.2021
1861 Clear -36 1024 68 10000 5 230 19:23 04.03.2021
1862 Clear -36 1024 68 10000 4 230 18:45 04.03.2021
1863 Clear -37 1024 74 10000 3 230 18:26 04.03.2021
1864 Clear -36 1023 68 10000 3 230 17:47 04.03.2021
1865 Clear -35 1023 61 10000 4 230 17:28 04.03.2021
1866 Clear -35 1023 68 10000 3 230 16:48 04.03.2021
1867 Clear -35 1022 75 10000 3 260 16:29 04.03.2021
1868 Clear -33 1022 68 10000 2 270 15:52 04.03.2021
1869 Clear -32 1022 62 10000 2 310 15:33 04.03.2021
1870 Clear -32 1022 68 10000 3 310 14:53 04.03.2021
1871 Clear -31 1022 69 10000 3 300 14:31 04.03.2021
1872 Clear -31 1021 69 10000 2 280 13:50 04.03.2021
1873 Clear -31 1021 69 10000 2 290 13:32 04.03.2021
1874 Clear -30 1021 63 10000 3 290 12:58 04.03.2021
1875 Clear -30 1020 63 10000 3 290 12:39 04.03.2021
1876 Clear -30 1020 63 10000 2 270 11:47 04.03.2021
1877 Clear -30 1020 57 10000 2 290 11:26 04.03.2021
1878 Clear -30 1020 57 10000 3 290 10:55 04.03.2021
1879 Clear -30 1019 57 10000 4 290 10:31 04.03.2021
1880 Snow -29 1019 52 10000 5 300 09:44 04.03.2021
1881 Snow -29 1018 57 10000 5 290 09:23 04.03.2021
1882 Snow -28 1017 57 10000 4 290 08:36 04.03.2021
1883 Clear -29 1017 63 10000 5 300 07:54 04.03.2021
1884 Clear -28 1017 52 10000 4 290 07:31 04.03.2021
1885 Clear -29 1016 57 10000 4 270 06:25 04.03.2021
1886 Clear -28 1016 52 10000 4 280 05:39 04.03.2021
1887 Snow -31 1015 69 10000 4 270 01:44 04.03.2021
1888 Snow -31 1015 69 10000 4 270 01:44 04.03.2021
1889 Snow -31 1015 69 10000 4 270 01:44 04.03.2021
1890 Snow -31 1015 69 10000 4 270 01:44 04.03.2021
1891 Snow -31 1015 69 10000 4 270 01:44 04.03.2021
1892 Snow -31 1014 69 10000 3 270 22:56 03.03.2021
1893 Snow -31 1014 69 10000 3 270 22:28 03.03.2021
1894 Snow -31 1014 69 10000 2 250 21:45 03.03.2021
1895 Snow -32 1014 68 10000 3 240 21:25 03.03.2021
1896 Snow -31 1014 69 10000 3 240 20:59 03.03.2021
1897 Snow -32 1014 75 10000 3 240 20:41 03.03.2021
1898 Snow -32 1014 75 10000 3 240 20:19 03.03.2021
1899 Snow -31 1014 69 10000 4 270 19:42 03.03.2021
1900 Snow -31 1014 69 10000 4 270 19:23 03.03.2021
1901 Snow -31 1015 69 10000 3 270 18:48 03.03.2021
1902 Snow -31 1015 69 10000 3 280 18:29 03.03.2021
1903 Snow -31 1015 76 10000 3 280 17:54 03.03.2021
1904 Snow -30 1015 69 10000 3 280 17:20 03.03.2021
1905 Snow -30 1015 69 10000 3 280 16:44 03.03.2021
1906 Snow -30 1015 76 10000 3 290 16:26 03.03.2021
1907 Snow -30 1015 76 10000 3 270 15:45 03.03.2021
1908 Snow -30 1015 69 10000 3 290 15:27 03.03.2021
1909 Snow -31 1015 69 10000 2 280 14:34 03.03.2021
1910 Snow -33 1015 75 10000 3 280 13:59 03.03.2021
1911 Snow -33 1015 75 10000 2 280 13:37 03.03.2021
1912 Snow -33 1015 75 10000 2 280 13:18 03.03.2021
1913 Snow -34 1015 75 10000 1 280 12:40 03.03.2021
1914 Snow -34 1015 75 10000 1 280 12:22 03.03.2021
1915 Snow -35 1016 75 10000 2.6 295 11:43 03.03.2021
1916 Snow -33 1015 68 10000 1 340 11:21 03.03.2021
1917 Clear -33 1015 75 10000 2.39 293 10:43 03.03.2021
1918 Clear -31 1016 76 10000 1 180 10:20 03.03.2021
1919 Clear -28 1016 63 10000 1 120 09:40 03.03.2021
1920 Clear -28 1016 69 10000 1 170 08:49 03.03.2021
1921 Clear -28 1016 63 10000 1 160 08:23 03.03.2021
1922 Clear -27 1016 63 10000 1 140 07:52 03.03.2021
1923 Clouds -26 1018 82 10000 1.42 314 06:55 03.03.2021
1924 Clear -28 1016 63 10000 1 150 06:19 03.03.2021
1925 Clear -30 1017 63 10000 1 140 05:30 03.03.2021
1926 Clear -32 1017 62 10000 1 130 04:36 03.03.2021
1927 Mist -32 1018 62 5000 1 130 03:52 03.03.2021
1928 Fog -40 1018 60 600 0.9 286 00:18 03.03.2021
1929 Fog -40 1019 60 800 0.9 286 23:32 02.03.2021
1930 Fog -39 1019 67 900 0.89 290 22:48 02.03.2021
1931 Mist -39 1019 67 1600 1 290 22:21 02.03.2021
1932 Mist -39 1019 67 5000 0.86 292 21:46 02.03.2021
1933 Clear -38 1019 67 10000 1 300 21:28 02.03.2021
1934 Clear -38 1019 67 10000 1 260 20:54 02.03.2021
1935 Clear -37 1019 67 10000 1 290 20:36 02.03.2021
1936 Clear -37 1019 67 10000 1 290 20:18 02.03.2021
1937 Clear -37 1020 67 10000 0.86 297 19:42 02.03.2021
1938 Clear -37 1020 67 10000 0.88 293 19:23 02.03.2021
1939 Clear -37 1020 67 10000 2 280 18:41 02.03.2021
1940 Clear -37 1020 67 10000 2 280 18:21 02.03.2021
1941 Clear -36 1020 68 10000 1 300 17:50 02.03.2021
1942 Clear -36 1020 75 10000 1 280 17:31 02.03.2021
1943 Clear -36 1020 68 10000 2 290 16:58 02.03.2021
1944 Clear -35 1020 68 10000 2 280 16:36 02.03.2021
1945 Clear -36 1021 75 10000 2 290 15:52 02.03.2021
1946 Clear -36 1021 75 10000 2 290 15:52 02.03.2021
1947 Clear -34 1021 68 10000 1 280 15:25 02.03.2021
1948 Clear -34 1021 75 10000 2 300 14:28 02.03.2021
1949 Clear -33 1021 68 10000 2 290 13:59 02.03.2021
1950 Clear -32 1021 75 10000 2 290 13:39 02.03.2021
1951 Clear -32 1021 75 10000 2 290 13:20 02.03.2021
1952 Clear -35 1021 68 10000 1.33 293 12:31 02.03.2021
1953 Clear -34 1021 75 10000 1 210 11:59 02.03.2021
1954 Clear -32 1021 75 10000 1 210 11:38 02.03.2021
1955 Clear -32 1021 75 10000 1 210 11:19 02.03.2021
1956 Clear -30 1021 69 10000 1 190 10:39 02.03.2021
1957 Clear -30 1021 69 10000 1 190 10:20 02.03.2021
1958 Clear -28 1021 69 10000 2 170 09:40 02.03.2021
1959 Clear -28 1021 69 10000 2 170 09:40 02.03.2021
1960 Clear -28 1021 69 10000 2 170 09:20 02.03.2021
1961 Clear -26 1021 64 10000 1 120 08:38 02.03.2021
1962 Clear -26 1021 64 10000 2 150 07:59 02.03.2021
1963 Clear -26 1021 64 10000 2 150 07:38 02.03.2021
1964 Clear -27 1021 63 10000 1 120 06:35 02.03.2021
1965 Clear -29 1021 69 10000 2 120 05:46 02.03.2021
1966 Clear -29 1021 69 10000 2 120 05:46 02.03.2021
1967 Clear -29 1022 63 10000 1 120 05:28 02.03.2021
1968 Mist -36 1022 68 5000 1 100 01:45 02.03.2021
1969 Fog -36 1022 68 5000 1 80 01:27 02.03.2021
1970 Clear -38 1022 67 10000 2.08 266 00:39 02.03.2021
1971 Clear -35 1022 68 10000 1 270 23:28 01.03.2021
1972 Clear -33 1022 68 10000 2 300 22:42 01.03.2021
1973 Clear -33 1022 68 10000 2 300 22:22 01.03.2021
1974 Clear -33 1022 75 10000 2 280 21:46 01.03.2021
1975 Clear -32 1023 68 10000 3 270 21:24 01.03.2021
1976 Clear -32 1023 75 10000 3 270 20:48 01.03.2021
1977 Clear -31 1023 76 10000 3 270 20:27 01.03.2021
1978 Clear -31 1023 69 10000 3 270 19:54 01.03.2021
1979 Clear -31 1023 76 10000 3 270 19:33 01.03.2021
1980 Clear -31 1023 76 10000 3 270 18:46 01.03.2021
1981 Clear -31 1023 76 10000 2 280 18:25 01.03.2021
1982 Clear -30 1023 69 10000 2 280 17:58 01.03.2021
1983 Clear -30 1023 76 10000 1 270 17:39 01.03.2021
1984 Clear -30 1023 76 10000 1 270 17:19 01.03.2021
1985 Clear -30 1023 76 10000 1 270 17:19 01.03.2021
1986 Clear -29 1023 76 10000 2 280 16:43 01.03.2021
1987 Clear -29 1023 76 10000 2 280 16:24 01.03.2021
1988 Clear -28 1023 69 10000 2 270 15:41 01.03.2021
1989 Clear -28 1023 69 10000 2 270 15:20 01.03.2021
1990 Clear -28 1023 69 10000 3 280 14:47 01.03.2021
1991 Clear -28 1023 69 10000 3 270 14:28 01.03.2021
1992 Clear -27 1023 69 10000 2 300 13:40 01.03.2021
1993 Clear -27 1023 69 10000 2 300 13:22 01.03.2021
1994 Snow -27 1023 69 10000 3 290 12:52 01.03.2021
1995 Snow -26 1023 64 10000 4 280 12:32 01.03.2021
1996 Snow -26 1023 64 10000 3 280 11:59 01.03.2021
1997 Snow -26 1023 64 10000 3 270 11:39 01.03.2021
1998 Clear -26 1023 70 10000 3 270 10:44 01.03.2021
1999 Clear -25 1023 64 10000 3 270 10:23 01.03.2021
2000 Clear -25 1023 64 10000 4 270 09:58 01.03.2021
2001 Snow -24 1023 64 10000 5 270 09:40 01.03.2021
2002 Snow -24 1022 70 10000 5 270 09:20 01.03.2021
2003 Snow -24 1022 70 10000 5 270 08:47 01.03.2021
2004 Snow -23 1022 64 10000 5 270 07:50 01.03.2021
2005 Snow -23 1022 64 10000 5 270 07:50 01.03.2021
2006 Snow -23 1022 64 10000 6 270 06:51 01.03.2021
2007 Clear -24 1022 64 10000 4 280 03:24 01.03.2021
2008 Snow -26 1022 70 10000 4 260 00:44 01.03.2021
2009 Snow -27 1022 76 10000 3 250 23:26 28.02.2021
2010 Snow -26 1022 76 10000 2 260 22:45 28.02.2021
2011 Snow -26 1022 76 10000 2 260 22:22 28.02.2021
2012 Snow -25 1022 70 10000 2 270 21:49 28.02.2021
2013 Snow -25 1022 70 10000 3 270 21:27 28.02.2021
2014 Snow -25 1022 70 10000 3 280 20:55 28.02.2021
2015 Snow -25 1022 70 5000 4 280 20:35 28.02.2021
2016 Snow -25 1022 70 5000 5 280 19:47 28.02.2021
2017 Snow -25 1022 70 5000 4 280 19:28 28.02.2021
2018 Snow -25 1022 70 5000 4 280 18:49 28.02.2021
2019 Snow -24 1022 70 5000 4 280 18:28 28.02.2021
2020 Snow -24 1022 70 10000 5 280 17:59 28.02.2021
2021 Snow -24 1022 64 10000 5 290 17:41 28.02.2021
2022 Snow -24 1022 64 10000 5 290 17:21 28.02.2021
2023 Snow -24 1022 70 10000 4 280 16:50 28.02.2021
2024 Snow -24 1022 70 10000 5 290 16:30 28.02.2021
2025 Snow -24 1021 70 10000 4 280 15:53 28.02.2021
2026 Snow -24 1021 70 10000 4 280 15:53 28.02.2021
2027 Snow -24 1021 70 10000 5 280 15:31 28.02.2021
2028 Snow -24 1021 70 10000 5 290 14:58 28.02.2021
2029 Snow -24 1021 70 10000 4 300 14:39 28.02.2021
2030 Snow -24 1021 70 10000 4 300 14:20 28.02.2021
2031 Snow -24 1021 70 10000 5 280 13:41 28.02.2021
2032 Snow -24 1021 70 10000 5 280 13:19 28.02.2021
2033 Snow -24 1020 70 10000 4 280 12:55 28.02.2021
2034 Snow -24 1020 70 10000 5 270 12:36 28.02.2021
2035 Snow -24 1020 70 10000 5 270 12:18 28.02.2021
2036 Snow -23 1020 70 5000 4 260 11:42 28.02.2021
2037 Snow -23 1020 70 5000 4 260 11:22 28.02.2021
2038 Snow -23 1020 70 3200 4 260 10:52 28.02.2021
2039 Snow -23 1020 70 3200 4 250 10:26 28.02.2021
2040 Snow -22 1019 64 3200 5 280 09:42 28.02.2021
2041 Snow -22 1019 64 3200 5 280 09:24 28.02.2021
2042 Snow -22 1018 71 3200 5 260 08:49 28.02.2021
2043 Snow -22 1018 71 5000 5 270 08:31 28.02.2021
2044 Clear -22 1017 64 10000 5 270 07:54 28.02.2021
2045 Clear -22 1017 64 10000 4 260 07:36 28.02.2021
2046 Clear -22 1016 64 10000 5 280 06:29 28.02.2021
2047 Clear -23 1016 64 10000 4 280 05:24 28.02.2021
2048 Clear -24 1015 64 10000 2 310 03:26 28.02.2021
2049 Clear -26 1014 70 10000 3 310 01:44 28.02.2021
2050 Clear -26 1014 70 10000 3 310 00:50 28.02.2021
2051 Clear -26 1014 70 10000 3 310 00:26 28.02.2021
2052 Clear -26 1014 70 10000 3 320 23:45 27.02.2021
2053 Clear -26 1014 70 10000 2 290 23:19 27.02.2021
2054 Clear -26 1014 70 10000 3 320 22:44 27.02.2021
2055 Clear -26 1014 76 10000 3 340 22:19 27.02.2021
2056 Clear -25 1014 70 10000 3 340 21:42 27.02.2021
2057 Clear -25 1014 70 10000 3 340 21:42 27.02.2021
2058 Clear -25 1014 70 10000 3 340 21:24 27.02.2021
2059 Clear -25 1014 70 10000 3 340 20:49 27.02.2021
2060 Clear -25 1014 70 10000 3 340 20:27 27.02.2021
2061 Clear -25 1014 77 10000 4 350 19:46 27.02.2021
2062 Clear -25 1014 77 10000 5 360 19:27 27.02.2021
2063 Clear -25 1014 77 10000 5 360 18:46 27.02.2021
2064 Clear -25 1014 77 10000 5 360 18:22 27.02.2021
2065 Clear -24 1014 70 10000 4 360 17:58 27.02.2021
2066 Clear -24 1015 70 10000 4 360 17:38 27.02.2021
2067 Clear -24 1015 70 10000 4 360 17:19 27.02.2021
2068 Clear -24 1015 77 10000 4 360 16:49 27.02.2021
2069 Clear -24 1015 77 10000 3 350 16:27 27.02.2021
2070 Clear -24 1015 77 10000 3 360 15:44 27.02.2021
2071 Clear -24 1016 77 10000 3 360 15:18 27.02.2021
2072 Clear -24 1017 77 10000 3 10 14:40 27.02.2021
2073 Clear -24 1017 77 10000 3 10 14:21 27.02.2021
2074 Clear -23 1017 70 10000 3 20 13:40 27.02.2021
2075 Clear -23 1017 70 10000 3 20 13:19 27.02.2021
2076 Clear -24 1018 77 10000 4 10 12:45 27.02.2021
2077 Clear -24 1018 77 10000 4 20 12:24 27.02.2021
2078 Clear -24 1018 77 10000 4 20 11:47 27.02.2021
2079 Clear -24 1019 77 10000 4 10 11:29 27.02.2021
2080 Clear -24 1019 77 10000 4 360 10:51 27.02.2021
2081 Clear -25 1019 77 10000 4 360 10:32 27.02.2021
2082 Clear -25 1019 77 10000 4 340 09:53 27.02.2021
2083 Clear -25 1019 77 10000 3 350 09:31 27.02.2021
2084 Clear -25 1020 70 10000 5 360 08:43 27.02.2021
2085 Clear -25 1020 70 10000 5 360 08:24 27.02.2021
2086 Clear -26 1020 76 10000 5 360 07:44 27.02.2021
2087 Clear -27 1022 76 10000 4 360 06:55 27.02.2021
2088 Mist -35 1026 75 2400 3 360 01:24 27.02.2021
2089 Mist -37 1026 67 2000 2 350 00:30 27.02.2021
2090 Mist -36 1027 68 5000 3 330 23:41 26.02.2021
2091 Mist -36 1027 68 5000 3 330 23:22 26.02.2021
2092 Mist -36 1027 68 5000 3 350 22:34 26.02.2021
2093 Mist -36 1027 68 5000 3 340 21:54 26.02.2021
2094 Mist -36 1027 68 5000 3 340 21:35 26.02.2021
2095 Mist -36 1027 68 5000 3 350 20:55 26.02.2021
2096 Mist -36 1028 68 5000 2 360 20:37 26.02.2021
2097 Mist -36 1028 68 5000 2 360 20:18 26.02.2021
2098 Mist -36 1029 68 5000 2 360 19:26 26.02.2021
2099 Mist -35 1029 68 1200 3 340 18:55 26.02.2021
2100 Mist -35 1029 75 5000 3 350 18:25 26.02.2021
2101 Mist -34 1029 68 2100 3 340 17:58 26.02.2021
2102 Mist -34 1028 68 5000 3 340 17:36 26.02.2021
2103 Mist -34 1028 68 5000 3 340 17:18 26.02.2021
2104 Clear -34 1028 68 10000 3 340 16:46 26.02.2021
2105 Clear -34 1028 68 10000 3 340 16:27 26.02.2021
2106 Clear -34 1029 68 10000 3 340 15:44 26.02.2021
2107 Clear -34 1029 75 10000 3 350 15:24 26.02.2021
2108 Clear -34 1030 68 10000 3 350 14:57 26.02.2021
2109 Clear -34 1030 75 10000 3 340 14:35 26.02.2021
2110 Clear -33 1030 68 10000 4 340 13:54 26.02.2021
2111 Clear -34 1030 75 10000 3 340 13:34 26.02.2021
2112 Clear -33 1030 68 10000 3 340 12:57 26.02.2021
2113 Clear -33 1030 68 10000 3 330 12:28 26.02.2021
2114 Clear -33 1030 68 10000 2 330 11:43 26.02.2021
2115 Clear -34 1030 75 10000 3 330 11:20 26.02.2021
2116 Clear -33 1031 68 10000 2 350 10:43 26.02.2021
2117 Clear -33 1031 68 10000 2 360 09:48 26.02.2021
2118 Clear -32 1031 68 10000 2 360 09:28 26.02.2021
2119 Clear -30 1032 63 10000 2 10 08:39 26.02.2021
2120 Clear -30 1032 69 10000 2 30 07:59 26.02.2021
2121 Clear -30 1032 69 10000 1 20 07:24 26.02.2021
2122 Clear -31 1032 69 10000 0.68 89 06:35 26.02.2021
2123 Clear -32 1032 68 10000 1 70 05:19 26.02.2021
2124 Fog -36 1033 68 700 0.34 109 02:39 26.02.2021
2125 Fog -40 1033 60 400 0.42 289 00:33 26.02.2021
2126 Fog -41 1032 66 450 1 260 23:41 25.02.2021
2127 Fog -41 1032 66 450 1 260 23:19 25.02.2021
2128 Fog -40 1032 60 450 1 290 22:38 25.02.2021
2129 Fog -40 1032 67 350 1 280 21:54 25.02.2021
2130 Fog -40 1032 67 350 1 280 21:54 25.02.2021
2131 Fog -40 1032 67 750 1 260 21:33 25.02.2021
2132 Fog -40 1032 67 500 1 310 20:57 25.02.2021
2133 Fog -40 1032 60 800 1 280 20:37 25.02.2021
2134 Fog -40 1032 60 800 1 280 20:19 25.02.2021
2135 Fog -39 1032 60 900 2 290 19:49 25.02.2021
2136 Fog -40 1032 67 900 1 280 19:21 25.02.2021
2137 Mist -39 1032 67 1300 0.75 288 18:44 25.02.2021
2138 Mist -37 1032 67 5000 2 300 18:18 25.02.2021
2139 Clear -37 1031 67 10000 3 300 17:42 25.02.2021
2140 Clear -37 1031 67 10000 3 300 17:23 25.02.2021
2141 Clear -36 1031 68 10000 3 300 16:35 25.02.2021
2142 Clear -36 1031 75 10000 4 290 15:55 25.02.2021
2143 Clear -35 1031 68 10000 3 310 15:29 25.02.2021
2144 Clear -35 1031 68 10000 3 290 14:40 25.02.2021
2145 Clear -35 1031 68 10000 3 290 14:21 25.02.2021
2146 Clear -35 1031 75 10000 2 310 13:48 25.02.2021
2147 Clear -35 1031 68 10000 1 330 13:24 25.02.2021
2148 Clear -33 1030 68 10000 1 320 12:40 25.02.2021
2149 Clear -33 1030 68 10000 1 320 12:20 25.02.2021
2150 Clear -36 1030 75 10000 2 330 11:43 25.02.2021
2151 Clear -33 1030 68 10000 1 340 10:58 25.02.2021
2152 Clear -32 1030 68 10000 2 330 10:37 25.02.2021
2153 Clear -31 1030 69 10000 2 330 09:53 25.02.2021
2154 Clear -31 1030 69 10000 2 360 09:34 25.02.2021
2155 Clear -30 1030 69 10000 2 360 08:46 25.02.2021
2156 Clear -30 1030 69 10000 2 10 08:22 25.02.2021
2157 Clear -29 1030 69 10000 1 20 07:43 25.02.2021
2158 Clear -29 1030 69 10000 1 50 07:19 25.02.2021
2159 Clear -30 1030 69 10000 1 30 05:57 25.02.2021
2160 Fog -36 1031 68 1200 0.66 17 01:52 25.02.2021
2161 Fog -37 1031 67 900 1 320 01:33 25.02.2021
2162 Mist -39 1031 67 1200 1 320 00:37 25.02.2021
2163 Mist -39 1031 67 1200 2 300 23:40 24.02.2021
2164 Mist -38 1031 67 2100 1 320 22:58 24.02.2021
2165 Mist -38 1031 67 2400 2 300 22:30 24.02.2021
2166 Mist -38 1031 67 2100 1 310 21:56 24.02.2021
2167 Mist -39 1031 67 5000 1 10 21:34 24.02.2021
2168 Mist -38 1031 61 5000 1 20 20:51 24.02.2021
2169 Mist -37 1031 67 5000 1 320 20:29 24.02.2021
2170 Mist -36 1030 68 5000 2 300 19:52 24.02.2021
2171 Clear -37 1031 67 10000 2 300 19:26 24.02.2021
2172 Clear -37 1031 67 10000 1 310 18:54 24.02.2021
2173 Clear -36 1031 68 10000 1 310 18:33 24.02.2021
2174 Clear -36 1031 68 10000 2 310 17:45 24.02.2021
2175 Clear -36 1031 68 10000 1 300 17:25 24.02.2021
2176 Clear -37 1031 67 10000 1 320 16:49 24.02.2021
2177 Clear -37 1031 67 10000 1 300 16:22 24.02.2021
2178 Clear -35 1031 68 10000 1 310 15:56 24.02.2021
2179 Clear -35 1031 68 10000 2 290 15:35 24.02.2021
2180 Clear -36 1031 75 10000 2 300 14:52 24.02.2021
2181 Clear -35 1031 68 10000 1 310 14:31 24.02.2021
2182 Clear -35 1031 75 10000 1 300 13:55 24.02.2021
2183 Clear -35 1031 68 10000 2 300 13:37 24.02.2021
2184 Clear -35 1031 68 10000 2 300 13:19 24.02.2021
2185 Clear -35 1031 75 10000 2 320 12:42 24.02.2021
2186 Clear -35 1031 75 10000 2 320 12:23 24.02.2021
2187 Clear -35 1031 68 10000 1 340 11:39 24.02.2021
2188 Clear -33 1031 68 10000 1 340 10:48 24.02.2021
2189 Clear -32 1031 68 10000 2 360 10:26 24.02.2021
2190 Clear -31 1030 69 10000 1 30 09:33 24.02.2021
2191 Clear -30 1030 69 10000 1 50 08:58 24.02.2021
2192 Clear -30 1030 69 10000 1 80 08:33 24.02.2021
2193 Clear -29 1030 69 10000 0.73 116 07:55 24.02.2021
2194 Clear -28 1030 63 10000 1 130 07:19 24.02.2021
2195 Clear -29 1030 69 10000 1 140 06:20 24.02.2021
2196 Mist -35 1030 68 5000 1 150 02:44 24.02.2021
2197 Mist -39 1029 60 3200 0.74 257 23:55 23.02.2021
2198 Mist -39 1029 60 5000 0.67 264 22:51 23.02.2021
2199 Mist -39 1029 60 5000 0.72 273 22:23 23.02.2021
2200 Mist -38 1029 61 5000 0.72 273 21:56 23.02.2021
2201 Mist -38 1029 67 3200 1 300 21:37 23.02.2021
2202 Mist -38 1029 67 3200 1 300 21:18 23.02.2021
2203 Mist -39 1029 67 5000 1 200 20:45 23.02.2021
2204 Mist -39 1029 67 5000 0.7 297 20:27 23.02.2021
2205 Mist -38 1029 67 5000 1 290 19:47 23.02.2021
2206 Clear -38 1029 67 10000 1 290 19:26 23.02.2021
2207 Clear -39 1029 67 10000 1 280 18:47 23.02.2021
2208 Clear -40 1029 67 10000 1.04 291 18:29 23.02.2021
2209 Clear -40 1028 67 10000 1.04 291 17:54 23.02.2021
2210 Clear -38 1028 61 10000 1.03 293 17:28 23.02.2021
2211 Clear -36 1028 68 10000 1 280 16:47 23.02.2021
2212 Clear -36 1028 68 10000 2 300 16:24 23.02.2021
2213 Clear -36 1028 68 10000 2 290 15:51 23.02.2021
2214 Mist -36 1028 68 5000 1 280 15:33 23.02.2021
2215 Mist -36 1028 68 5000 1.18 304 14:57 23.02.2021
2216 Clear -35 1028 68 10000 1.18 304 14:38 23.02.2021
2217 Clear -35 1028 68 10000 1.18 298 14:19 23.02.2021
2218 Clear -36 1028 75 10000 1 330 13:38 23.02.2021
2219 Clear -36 1028 75 10000 1 330 13:18 23.02.2021
2220 Clear -35 1028 68 10000 1 340 12:44 23.02.2021
2221 Clear -34 1028 68 10000 1 340 12:19 23.02.2021
2222 Clear -35 1028 75 10000 1 340 11:45 23.02.2021
2223 Clear -34 1028 75 10000 0.98 303 11:18 23.02.2021
2224 Clear -31 1028 69 10000 1 160 10:39 23.02.2021
2225 Clear -31 1028 69 10000 1 160 10:18 23.02.2021
2226 Clear -30 1028 69 10000 2 140 09:41 23.02.2021
2227 Clear -30 1028 69 10000 2 140 09:21 23.02.2021
2228 Clear -29 1028 69 10000 1 170 08:45 23.02.2021
2229 Clear -29 1028 69 10000 2 170 08:20 23.02.2021
2230 Clear -29 1028 69 10000 2 170 07:34 23.02.2021
2231 Clear -32 1028 68 10000 2 130 05:27 23.02.2021
2232 Mist -34 1028 68 3200 1 150 02:43 23.02.2021
2233 Mist -36 1028 68 2100 1 150 02:24 23.02.2021
2234 Mist -39 1028 67 1600 1.2 274 00:19 23.02.2021
2235 Mist -39 1028 60 2000 1.2 274 23:32 22.02.2021
2236 Mist -39 1028 60 2400 1.3 276 22:43 22.02.2021
2237 Mist -39 1028 67 2400 1.25 273 22:23 22.02.2021
2238 Mist -39 1028 67 2400 1.25 273 21:58 22.02.2021
2239 Mist -38 1028 67 2400 1 240 21:38 22.02.2021
2240 Mist -38 1028 67 2400 1 240 21:20 22.02.2021
2241 Mist -38 1028 67 2400 1.28 275 20:44 22.02.2021
2242 Mist -38 1028 67 5000 1 240 20:25 22.02.2021
2243 Mist -38 1028 67 5000 1 220 19:46 22.02.2021
2244 Mist -39 1028 67 5000 1 270 19:28 22.02.2021
2245 Clear -40 1028 67 10000 1 280 18:48 22.02.2021
2246 Clear -38 1028 67 10000 1 270 18:29 22.02.2021
2247 Clear -38 1028 74 10000 1 270 17:49 22.02.2021
2248 Clear -38 1028 67 10000 1 240 17:20 22.02.2021
2249 Clear -37 1028 67 10000 1 280 16:50 22.02.2021
2250 Clear -37 1028 67 10000 1 290 16:29 22.02.2021
2251 Clear -35 1028 68 10000 2 290 15:32 22.02.2021
2252 Clear -36 1028 75 10000 1 300 14:54 22.02.2021
2253 Clear -36 1028 68 10000 1 290 14:35 22.02.2021
2254 Clear -35 1028 68 10000 2 270 13:54 22.02.2021
2255 Clear -35 1028 68 10000 1 280 13:33 22.02.2021
2256 Clear -34 1028 75 10000 1 260 12:48 22.02.2021
2257 Clear -33 1028 75 10000 2 260 12:23 22.02.2021
2258 Clear -31 1028 76 10000 2 260 11:52 22.02.2021
2259 Clear -33 1028 75 10000 3 250 11:31 22.02.2021
2260 Clear -35 1028 75 10000 2 190 10:59 22.02.2021
2261 Clear -32 1028 68 10000 2 170 10:39 22.02.2021
2262 Clear -32 1028 68 10000 2 170 10:19 22.02.2021
2263 Clear -30 1027 69 10000 1 170 09:37 22.02.2021
2264 Clear -30 1027 69 10000 1 170 09:19 22.02.2021
2265 Clear -29 1027 69 10000 2 160 08:49 22.02.2021
2266 Clear -29 1027 69 10000 2 170 08:20 22.02.2021
2267 Snow -28 1027 63 10000 2 220 07:46 22.02.2021
2268 Snow -28 1027 63 10000 3 240 07:22 22.02.2021
2269 Clear -29 1027 69 10000 3 140 06:26 22.02.2021
2270 Clear -29 1026 63 10000 1 120 04:25 22.02.2021
2271 Clear -31 1026 69 10000 1 210 03:22 22.02.2021
2272 Clear -32 1026 68 10000 3 240 00:54 22.02.2021
2273 Clear -32 1026 68 10000 3 240 00:29 22.02.2021
2274 Clear -32 1025 68 10000 3 260 23:55 21.02.2021
2275 Clear -31 1025 69 10000 2 240 23:23 21.02.2021
2276 Clear -31 1025 69 10000 3 250 22:28 21.02.2021
2277 Clear -31 1024 69 10000 3 250 21:52 21.02.2021
2278 Clear -30 1024 69 10000 3 250 21:34 21.02.2021
2279 Clear -30 1024 69 10000 3 240 20:58 21.02.2021
2280 Clear -31 1024 76 10000 3 240 20:36 21.02.2021
2281 Clear -31 1024 76 10000 3 240 20:18 21.02.2021
2282 Clear -30 1024 69 10000 3 260 19:43 21.02.2021
2283 Clear -30 1024 76 10000 3 270 19:23 21.02.2021
2284 Clear -29 1023 69 10000 3 270 18:29 21.02.2021
2285 Clear -29 1023 76 10000 3 270 17:58 21.02.2021
2286 Clear -28 1023 69 10000 3 270 17:26 21.02.2021
2287 Snow -28 1023 76 10000 2 270 16:53 21.02.2021
2288 Snow -28 1023 76 10000 2 290 16:31 21.02.2021
2289 Snow -27 1022 69 10000 2 290 15:47 21.02.2021
2290 Snow -28 1022 76 10000 2 270 15:19 21.02.2021
2291 Snow -27 1022 69 10000 1 280 14:42 21.02.2021
2292 Snow -27 1022 69 10000 1 280 14:21 21.02.2021
2293 Snow -27 1022 76 10000 2 280 13:45 21.02.2021
2294 Snow -27 1021 76 10000 2 280 13:22 21.02.2021
2295 Clear -27 1021 76 10000 2 260 12:29 21.02.2021
2296 Clear -26 1021 70 10000 2 270 11:44 21.02.2021
2297 Snow -28 1020 76 10000 2 260 10:58 21.02.2021
2298 Snow -26 1020 76 10000 3 270 10:23 21.02.2021
2299 Snow -29 1020 76 10000 2 200 09:55 21.02.2021
2300 Snow -27 1020 69 10000 2 180 09:29 21.02.2021
2301 Snow -28 1019 76 10000 1 170 08:54 21.02.2021
2302 Snow -28 1019 76 10000 2 160 08:20 21.02.2021
2303 Clear -28 1019 76 10000 1 150 07:35 21.02.2021
2304 Clear -28 1019 69 10000 1 140 06:55 21.02.2021
2305 Mist -34 1018 68 5000 1 120 03:39 21.02.2021
2306 Mist -36 1018 68 1200 1.88 301 02:30 21.02.2021
2307 Fog -40 1018 67 400 1 260 00:44 21.02.2021
2308 Fog -40 1017 67 400 1 270 00:19 21.02.2021
2309 Fog -41 1017 66 750 0.9 271 23:25 20.02.2021
2310 Fog -40 1017 67 800 1 240 22:44 20.02.2021
2311 Fog -40 1017 67 800 1 240 22:25 20.02.2021
2312 Fog -39 1017 60 800 1 240 21:45 20.02.2021
2313 Fog -39 1016 60 700 1 300 21:24 20.02.2021
2314 Fog -39 1016 60 800 1 280 20:48 20.02.2021
2315 Fog -40 1016 67 800 1 260 20:24 20.02.2021
2316 Fog -40 1016 67 900 1 290 19:52 20.02.2021
2317 Fog -39 1016 67 900 1 260 19:30 20.02.2021
2318 Fog -37 1016 67 900 3 280 18:41 20.02.2021
2319 Fog -37 1016 67 900 3 280 18:21 20.02.2021
2320 Mist -38 1015 67 2400 1 270 17:41 20.02.2021
2321 Mist -38 1015 67 2400 1 270 17:22 20.02.2021
2322 Mist -38 1015 74 5000 3 280 16:33 20.02.2021
2323 Clear -38 1015 67 10000 1.08 290 15:56 20.02.2021
2324 Clear -36 1015 68 10000 2 300 15:36 20.02.2021
2325 Clear -35 1015 68 10000 3 290 14:49 20.02.2021
2326 Clear -35 1015 68 10000 2 300 14:24 20.02.2021
2327 Clear -34 1015 68 10000 2 300 13:49 20.02.2021
2328 Clear -36 1015 75 10000 2 290 13:27 20.02.2021
2329 Clear -35 1015 68 10000 2 300 12:51 20.02.2021
2330 Clear -36 1014 75 10000 2 310 12:32 20.02.2021
2331 Clear -35 1014 75 10000 1 350 11:44 20.02.2021
2332 Clear -36 1014 75 10000 1 330 11:26 20.02.2021
2333 Clear -34 1014 75 10000 1.13 285 10:50 20.02.2021
2334 Clear -33 1014 68 10000 1 160 09:59 20.02.2021
2335 Clear -30 1013 69 10000 1 282 09:40 20.02.2021
2336 Clear -28 1013 69 10000 2 160 08:49 20.02.2021
2337 Clear -28 1013 69 10000 2 160 08:19 20.02.2021
2338 Clear -33 1012 68 10000 2 140 03:40 20.02.2021
2339 Clear -34 1012 68 10000 1 170 02:30 20.02.2021
2340 Clear -34 1012 68 10000 1 300 01:50 20.02.2021
2341 Clear -36 1012 68 10000 1.66 271 00:48 20.02.2021
2342 Clear -35 1012 68 10000 1 300 00:23 20.02.2021
2343 Clear -36 1012 75 10000 2 240 23:19 19.02.2021
2344 Clear -35 1011 68 10000 1.41 275 22:37 19.02.2021
2345 Clear -35 1011 68 10000 1.21 281 22:18 19.02.2021
2346 Clear -36 1011 68 10000 1.21 281 21:36 19.02.2021
2347 Clear -36 1011 68 10000 1 100 20:58 19.02.2021
2348 Snow -36 1011 68 10000 1 260 20:40 19.02.2021
2349 Snow -36 1011 68 10000 1 260 20:22 19.02.2021
2350 Snow -37 1011 67 10000 1 320 19:43 19.02.2021
2351 Snow -37 1010 67 10000 1 300 19:20 19.02.2021
2352 Clear -37 1010 67 10000 1 290 18:43 19.02.2021
2353 Clear -37 1010 67 10000 1 290 18:23 19.02.2021
2354 Clear -38 1010 67 10000 1 260 17:24 19.02.2021
2355 Clear -36 1010 68 10000 1 290 16:40 19.02.2021
2356 Clear -36 1010 68 10000 1 290 16:21 19.02.2021
2357 Clear -36 1010 68 10000 2 300 15:49 19.02.2021
2358 Clear -36 1010 68 10000 2 300 15:27 19.02.2021
2359 Clear -37 1010 67 10000 1 250 14:46 19.02.2021
2360 Clear -37 1010 67 10000 1 200 14:26 19.02.2021
2361 Clear -37 1010 67 10000 1 160 13:53 19.02.2021
2362 Clear -36 1010 68 10000 1 210 13:30 19.02.2021
2363 Clear -34 1010 68 10000 0.63 331 12:52 19.02.2021
2364 Clear -33 1010 75 10000 1 130 12:24 19.02.2021
2365 Clear -33 1010 68 10000 0.62 330 11:54 19.02.2021
2366 Clear -33 1010 68 10000 0.71 310 11:26 19.02.2021
2367 Clear -33 1010 75 10000 1 210 10:54 19.02.2021
2368 Clear -33 1009 75 10000 0.71 310 10:31 19.02.2021
2369 Clear -33 1009 75 10000 0.75 328 09:51 19.02.2021
2370 Clear -31 1009 69 10000 1 70 09:27 19.02.2021
2371 Clear -30 1009 69 10000 1 80 08:54 19.02.2021
2372 Clear -29 1009 76 10000 1 40 08:26 19.02.2021
2373 Clear -27 1008 69 10000 1.01 344 07:49 19.02.2021
2374 Clear -28 1008 76 10000 1.01 344 07:31 19.02.2021
2375 Clear -29 1008 76 10000 1 20 06:55 19.02.2021
2376 Clear -30 1008 76 10000 1 20 06:27 19.02.2021
2377 Clear -31 1008 69 10000 2 340 04:41 19.02.2021
2378 Mist -34 1008 68 3200 1 340 01:48 19.02.2021
2379 Mist -36 1008 75 3200 2 330 00:37 19.02.2021
2380 Mist -35 1008 68 3200 2 310 23:56 18.02.2021
2381 Mist -35 1008 68 3200 2 330 23:35 18.02.2021
2382 Mist -36 1008 75 2100 1 330 22:51 18.02.2021
2383 Mist -36 1008 75 3200 2 320 22:30 18.02.2021
2384 Clear -36 1008 68 10000 2 340 21:56 18.02.2021
2385 Clear -36 1008 68 10000 2 310 21:28 18.02.2021
2386 Clear -35 1008 68 10000 2 330 20:57 18.02.2021
2387 Clear -35 1008 68 10000 2 340 20:38 18.02.2021
2388 Clear -35 1008 68 10000 2 340 20:18 18.02.2021
2389 Clear -35 1008 75 10000 2 320 19:41 18.02.2021
2390 Clear -35 1008 75 10000 2 320 19:19 18.02.2021
2391 Clear -34 1008 75 10000 2 340 18:43 18.02.2021
2392 Clear -34 1008 75 10000 2 340 18:25 18.02.2021
2393 Clear -34 1008 75 10000 3 330 17:43 18.02.2021
2394 Clear -34 1008 75 10000 3 320 17:23 18.02.2021
2395 Clear -34 1008 68 10000 2 350 16:44 18.02.2021
2396 Clear -33 1008 68 10000 3 330 16:26 18.02.2021
2397 Clear -33 1009 68 10000 3 340 15:42 18.02.2021
2398 Clear -33 1009 68 10000 3 340 15:22 18.02.2021
2399 Clear -33 1009 68 10000 3 340 14:50 18.02.2021
2400 Clear -33 1009 75 10000 3 340 14:30 18.02.2021
2401 Clear -33 1009 75 10000 3 340 13:49 18.02.2021
2402 Clear -33 1009 68 10000 2 330 13:21 18.02.2021
2403 Clear -34 1010 75 10000 2 330 12:54 18.02.2021
2404 Clear -33 1010 68 10000 2 340 12:28 18.02.2021
2405 Clear -33 1010 75 10000 2 350 11:47 18.02.2021
2406 Clear -33 1010 75 10000 2 340 11:27 18.02.2021
2407 Clear -33 1010 75 10000 2 340 10:53 18.02.2021
2408 Clear -32 1010 68 10000 2 340 10:35 18.02.2021
2409 Clear -32 1010 75 10000 2 360 09:57 18.02.2021
2410 Clear -30 1010 69 10000 2 350 09:28 18.02.2021
2411 Clear -30 1010 69 10000 3 350 08:48 18.02.2021
2412 Clear -29 1011 69 10000 2 340 08:30 18.02.2021
2413 Clear -30 1011 76 10000 2 350 07:42 18.02.2021
2414 Clear -30 1011 76 10000 2 350 07:18 18.02.2021
2415 Clear -30 1012 69 10000 3 340 05:29 18.02.2021
2416 Mist -38 1015 74 2100 3 340 23:57 17.02.2021
2417 Mist -37 1015 67 2100 2 340 23:38 17.02.2021
2418 Mist -37 1016 67 1500 3 340 22:57 17.02.2021
2419 Mist -38 1016 74 1300 2 340 22:38 17.02.2021
2420 Mist -38 1016 74 1300 2 340 22:18 17.02.2021
2421 Mist -38 1017 67 1500 3 340 21:41 17.02.2021
2422 Mist -38 1017 67 1500 3 340 21:19 17.02.2021
2423 Mist -38 1018 74 1500 3 340 20:40 17.02.2021
2424 Mist -38 1018 74 1200 2 340 19:59 17.02.2021
2425 Mist -38 1018 67 1500 2 340 19:37 17.02.2021
2426 Mist -38 1019 67 1500 2 350 18:57 17.02.2021
2427 Mist -37 1019 67 1500 2 340 18:34 17.02.2021
2428 Mist -37 1019 67 1500 2 340 17:47 17.02.2021
2429 Mist -37 1020 67 1500 2 340 17:22 17.02.2021
2430 Mist -37 1020 67 1000 2 340 16:52 17.02.2021
2431 Fog -37 1021 67 800 3 350 16:29 17.02.2021
2432 Fog -36 1021 68 900 3 340 15:59 17.02.2021
2433 Mist -37 1022 74 1100 3 340 15:40 17.02.2021
2434 Mist -37 1022 74 1100 3 340 15:21 17.02.2021
2435 Mist -37 1022 67 1500 3 340 14:44 17.02.2021
2436 Mist -37 1023 67 1800 2 350 14:25 17.02.2021
2437 Mist -38 1024 67 5000 2 330 13:43 17.02.2021
2438 Mist -37 1025 74 5000 2 330 12:59 17.02.2021
2439 Mist -37 1025 67 5000 2 320 12:26 17.02.2021
2440 Mist -37 1026 74 5000 2 330 11:50 17.02.2021
2441 Mist -37 1026 67 5000 2 350 11:30 17.02.2021
2442 Mist -37 1027 67 5000 1 340 10:59 17.02.2021
2443 Mist -36 1027 75 5000 1 340 10:40 17.02.2021
2444 Mist -36 1027 75 5000 1 340 10:20 17.02.2021
2445 Clear -36 1028 75 10000 2 350 09:41 17.02.2021
2446 Clear -36 1028 75 10000 2 350 09:19 17.02.2021
2447 Clear -33 1028 68 10000 1 20 08:42 17.02.2021
2448 Clear -33 1028 68 10000 1 20 08:21 17.02.2021
2449 Mist -32 1029 68 5000 1 70 07:25 17.02.2021
2450 Mist -34 1031 68 3200 1 130 04:54 17.02.2021
2451 Fog -38 1032 67 300 1.36 174 02:33 17.02.2021
2452 Fog -39 1033 67 450 0.9 198 01:49 17.02.2021
2453 Fog -40 1033 60 350 1 330 00:32 17.02.2021
2454 Fog -40 1033 67 350 1.03 238 23:53 16.02.2021
2455 Fog -40 1033 60 350 1.03 238 23:34 16.02.2021
2456 Fog -41 1034 66 550 1.11 233 22:42 16.02.2021
2457 Fog -41 1034 66 550 1.22 225 22:23 16.02.2021
2458 Fog -40 1034 60 550 1.22 225 21:42 16.02.2021
2459 Fog -40 1034 60 550 1.22 224 21:22 16.02.2021
2460 Fog -39 1034 60 600 1 280 20:58 16.02.2021
2461 Mist -40 1034 60 1400 1 250 20:39 16.02.2021
2462 Mist -40 1034 60 1400 1 250 20:20 16.02.2021
2463 Mist -39 1034 67 1100 1 310 19:40 16.02.2021
2464 Mist -39 1034 67 1100 1 310 19:22 16.02.2021
2465 Mist -39 1035 67 2100 1 290 18:40 16.02.2021
2466 Mist -39 1035 67 2100 1 290 18:21 16.02.2021
2467 Mist -39 1035 67 5000 1.18 233 17:50 16.02.2021
2468 Clear -38 1035 67 10000 1 300 17:25 16.02.2021
2469 Clear -39 1035 60 10000 1 300 16:51 16.02.2021
2470 Clear -39 1035 67 10000 1 300 16:27 16.02.2021
2471 Clear -39 1035 67 10000 1 280 15:47 16.02.2021
2472 Clear -38 1035 67 10000 1 280 15:26 16.02.2021
2473 Clear -37 1035 67 10000 1.16 246 14:50 16.02.2021
2474 Clear -37 1035 67 10000 1 300 14:32 16.02.2021
2475 Clear -37 1035 67 10000 1.22 249 13:58 16.02.2021
2476 Clear -37 1035 67 10000 1 320 13:34 16.02.2021
2477 Clear -37 1035 67 10000 1 330 12:47 16.02.2021
2478 Clear -35 1035 75 10000 1 320 12:26 16.02.2021
2479 Clear -35 1035 68 10000 1.26 249 11:50 16.02.2021
2480 Clear -35 1035 75 10000 1.5 232 11:24 16.02.2021
2481 Clear -34 1035 75 10000 1.5 232 10:57 16.02.2021
2482 Clear -33 1034 68 10000 1 190 10:38 16.02.2021
2483 Clear -33 1034 68 10000 1 190 10:20 16.02.2021
2484 Clear -31 1034 76 10000 2 160 09:47 16.02.2021
2485 Clear -30 1034 76 10000 1 170 09:26 16.02.2021
2486 Clear -28 1034 76 10000 2 180 08:45 16.02.2021
2487 Clear -28 1034 76 10000 2 180 08:45 16.02.2021
2488 Clear -28 1034 76 10000 1 180 08:22 16.02.2021
2489 Clear -28 1033 76 10000 2 160 07:27 16.02.2021
2490 Snow -29 1033 76 10000 2 150 06:21 16.02.2021
2491 Snow -38 1032 74 5000 1 190 01:21 16.02.2021
2492 Snow -37 1031 67 5000 0.91 262 23:46 15.02.2021
2493 Snow -37 1030 67 10000 0.91 271 23:24 15.02.2021
2494 Snow -36 1030 68 10000 1 300 22:46 15.02.2021
2495 Snow -37 1030 67 10000 1 280 22:23 15.02.2021
2496 Clear -37 1030 67 10000 1 300 21:42 15.02.2021
2497 Clear -37 1030 67 10000 1 300 21:23 15.02.2021
2498 Mist -37 1029 67 5000 0.82 254 20:49 15.02.2021
2499 Mist -36 1029 68 5000 1 280 20:29 15.02.2021
2500 Mist -36 1029 68 5000 0.77 264 19:48 15.02.2021
2501 Clear -36 1029 75 10000 2 290 19:24 15.02.2021
2502 Clear -36 1029 75 10000 1 300 18:49 15.02.2021
2503 Clear -36 1029 75 10000 1 310 18:26 15.02.2021
2504 Snow -35 1028 68 10000 0.82 261 17:45 15.02.2021
2505 Snow -35 1028 75 10000 2 290 17:27 15.02.2021
2506 Clear -35 1028 75 10000 2 300 16:57 15.02.2021
2507 Clear -35 1028 75 10000 1 270 16:29 15.02.2021
2508 Clear -35 1027 75 10000 1 300 15:58 15.02.2021
2509 Clear -33 1027 68 10000 2 320 15:40 15.02.2021
2510 Clear -33 1027 68 10000 2 320 15:18 15.02.2021
2511 Clear -32 1027 75 10000 2 300 14:40 15.02.2021
2512 Clear -32 1027 75 10000 2 300 14:20 15.02.2021
2513 Clear -32 1027 75 10000 2 300 13:48 15.02.2021
2514 Snow -32 1027 75 10000 2 300 13:20 15.02.2021
2515 Snow -32 1027 75 10000 2 300 13:20 15.02.2021
2516 Snow -31 1026 76 10000 1 310 12:45 15.02.2021
2517 Clear -32 1026 75 10000 1 350 12:21 15.02.2021
2518 Clear -31 1026 76 10000 0.85 282 11:49 15.02.2021
2519 Snow -30 1026 76 10000 0.85 285 11:22 15.02.2021
2520 Snow -28 1026 76 10000 1 140 10:50 15.02.2021
2521 Clear -27 1025 76 10000 2 140 10:25 15.02.2021
2522 Snow -27 1025 76 10000 2 130 09:56 15.02.2021
2523 Snow -26 1025 76 10000 2 130 09:33 15.02.2021
2524 Snow -25 1025 77 10000 1 120 08:55 15.02.2021
2525 Clear -24 1024 77 10000 1 130 07:49 15.02.2021
2526 Clear -24 1024 77 10000 1.96 282 06:59 15.02.2021
2527 Clear -24 1024 77 10000 1 70 06:40 15.02.2021
2528 Snow -25 1023 77 5000 1.83 277 02:32 15.02.2021
2529 Snow -26 1022 76 5000 1.23 266 00:55 15.02.2021
2530 Snow -27 1022 76 5000 1 260 23:42 14.02.2021
2531 Snow -27 1022 76 5000 1 260 23:22 14.02.2021
2532 Snow -27 1022 83 5000 1 170 22:39 14.02.2021
2533 Snow -27 1022 83 5000 1 170 22:19 14.02.2021
2534 Snow -26 1022 84 5000 1.38 289 21:48 14.02.2021
2535 Snow -26 1022 84 10000 1.57 293 21:29 14.02.2021
2536 Snow -25 1022 77 10000 1 150 20:46 14.02.2021
2537 Snow -25 1022 77 10000 1.91 293 20:26 14.02.2021
2538 Snow -25 1021 84 5000 1.91 293 19:48 14.02.2021
2539 Snow -25 1022 77 10000 1 290 18:56 14.02.2021
2540 Snow -25 1021 77 10000 1 320 18:37 14.02.2021
2541 Snow -26 1021 84 10000 1 280 17:56 14.02.2021
2542 Clear -27 1021 76 10000 2 290 17:36 14.02.2021
2543 Snow -29 1021 83 10000 1 290 16:55 14.02.2021
2544 Snow -28 1021 76 10000 1 290 16:29 14.02.2021
2545 Snow -25 1021 77 10000 1 290 15:49 14.02.2021
2546 Snow -24 1021 77 10000 2 290 15:31 14.02.2021
2547 Snow -24 1021 84 10000 2 300 14:48 14.02.2021
2548 Snow -23 1022 77 10000 2 290 14:27 14.02.2021
2549 Snow -23 1022 84 5000 2 270 13:53 14.02.2021
2550 Snow -22 1022 77 5000 3 270 13:30 14.02.2021
2551 Snow -22 1022 77 5000 3 270 12:40 14.02.2021
2552 Snow -22 1022 77 5000 3 270 12:19 14.02.2021
2553 Snow -22 1022 77 5000 2 260 11:50 14.02.2021
2554 Snow -22 1022 77 10000 3 260 11:21 14.02.2021
2555 Clear -22 1022 77 10000 4 270 10:37 14.02.2021
2556 Clear -22 1022 77 10000 3 260 09:55 14.02.2021
2557 Clear -22 1022 84 10000 4 250 09:37 14.02.2021
2558 Clear -22 1022 84 10000 4 250 09:19 14.02.2021
2559 Clear -21 1021 77 10000 4 260 08:35 14.02.2021
2560 Snow -21 1022 77 10000 3 270 07:54 14.02.2021
2561 Snow -21 1021 77 10000 3 270 06:37 14.02.2021
2562 Snow -22 1022 84 10000 2 260 04:52 14.02.2021
2563 Snow -22 1021 77 5000 3 260 03:23 14.02.2021
2564 Snow -22 1022 77 5000 3 260 01:42 14.02.2021
2565 Clouds -22 1021 77 10000 3 260 00:46 14.02.2021
2566 Snow -22 1021 77 10000 2 270 23:59 13.02.2021
2567 Snow -22 1021 77 10000 3 280 23:37 13.02.2021
2568 Snow -22 1021 77 10000 3 280 23:19 13.02.2021
2569 Snow -22 1021 77 10000 1 320 22:32 13.02.2021
2570 Snow -23 1021 84 10000 2 290 21:53 13.02.2021
2571 Snow -23 1022 84 10000 2 290 21:35 13.02.2021
2572 Snow -23 1022 84 10000 2 290 21:35 13.02.2021
2573 Snow -23 1022 84 10000 2.37 278 20:49 13.02.2021
2574 Snow -23 1022 84 10000 1 290 20:28 13.02.2021
2575 Snow -23 1022 77 10000 2 290 19:49 13.02.2021
2576 Snow -23 1022 77 10000 2 290 19:49 13.02.2021
2577 Snow -23 1022 77 10000 2 300 19:24 13.02.2021
2578 Snow -23 1022 77 10000 2 290 18:50 13.02.2021
2579 Snow -23 1022 77 10000 2 290 18:28 13.02.2021
2580 Snow -23 1022 77 10000 2 290 17:45 13.02.2021
2581 Snow -23 1022 84 10000 2 290 17:26 13.02.2021
2582 Snow -23 1022 84 10000 1 270 16:55 13.02.2021
2583 Snow -22 1022 84 10000 2 310 16:37 13.02.2021
2584 Snow -22 1021 84 10000 2 300 15:46 13.02.2021
2585 Snow -21 1021 84 10000 2 310 15:26 13.02.2021
2586 Snow -20 1022 84 10000 2 310 14:41 13.02.2021
2587 Snow -20 1021 84 10000 2 300 13:54 13.02.2021
2588 Snow -20 1021 84 10000 2 310 13:29 13.02.2021
2589 Snow -20 1021 84 10000 2 300 12:57 13.02.2021
2590 Snow -20 1021 84 10000 2 290 12:36 13.02.2021
2591 Snow -20 1021 84 10000 2 290 12:18 13.02.2021
2592 Snow -21 1021 84 10000 2 290 11:40 13.02.2021
2593 Snow -21 1021 84 10000 2 290 11:18 13.02.2021
2594 Snow -20 1021 84 10000 2 280 10:43 13.02.2021
2595 Snow -20 1021 84 10000 2 280 10:23 13.02.2021
2596 Clear -19 1021 84 10000 2 280 09:48 13.02.2021
2597 Clear -19 1021 84 10000 2 270 09:28 13.02.2021
2598 Clear -19 1020 78 10000 2 260 08:50 13.02.2021
2599 Clear -19 1020 84 10000 2 260 08:19 13.02.2021
2600 Clear -18 1020 85 10000 1 250 07:23 13.02.2021
2601 Clear -17 1020 78 10000 2 320 06:24 13.02.2021
2602 Clear -18 1020 85 10000 2 310 05:18 13.02.2021
2603 Clear -19 1020 78 10000 2 300 02:44 13.02.2021
2604 Clear -19 1020 78 10000 2 300 00:57 13.02.2021
2605 Clear -19 1020 78 10000 2 300 00:57 13.02.2021
2606 Clear -19 1020 84 10000 3 310 00:19 13.02.2021
2607 Clear -19 1020 78 10000 3 300 23:45 12.02.2021
2608 Clear -19 1021 84 10000 2 300 23:19 12.02.2021
2609 Snow -19 1021 84 10000 3 320 22:32 12.02.2021
2610 Snow -19 1021 84 10000 3 320 21:59 12.02.2021
2611 Snow -19 1022 84 10000 3 320 21:40 12.02.2021
2612 Snow -19 1022 84 10000 3 320 21:21 12.02.2021
2613 Snow -19 1022 84 10000 2 310 20:41 12.02.2021
2614 Snow -19 1022 84 10000 2 310 20:23 12.02.2021
2615 Snow -19 1022 84 10000 3 320 19:54 12.02.2021
2616 Snow -19 1022 84 10000 2 330 19:29 12.02.2021
2617 Snow -19 1022 84 10000 3 320 18:35 12.02.2021
2618 Snow -19 1023 84 10000 2 310 17:56 12.02.2021
2619 Snow -20 1023 84 10000 2 300 17:38 12.02.2021
2620 Snow -22 1023 84 5000 1 30 16:54 12.02.2021
2621 Snow -22 1023 77 10000 1 350 16:18 12.02.2021
2622 Snow -24 1024 84 10000 1 70 15:43 12.02.2021
2623 Snow -24 1024 84 10000 1 70 15:20 12.02.2021
2624 Clouds -26 1024 76 10000 1 50 14:36 12.02.2021
2625 Clear -27 1024 76 10000 1 30 13:49 12.02.2021
2626 Clear -28 1025 83 10000 1 310 13:29 12.02.2021
2627 Clear -28 1025 76 10000 2 290 12:53 12.02.2021
2628 Clear -27 1025 76 10000 1 310 12:35 12.02.2021
2629 Clear -27 1025 83 10000 1 260 11:48 12.02.2021
2630 Clear -28 1025 83 10000 2 280 11:22 12.02.2021
2631 Clear -28 1025 83 10000 1 280 10:48 12.02.2021
2632 Clear -27 1026 83 10000 1.13 306 10:19 12.02.2021
2633 Clear -25 1026 77 10000 1 140 09:42 12.02.2021
2634 Clear -25 1026 77 10000 1 140 09:23 12.02.2021
2635 Clear -24 1026 77 10000 1 130 08:45 12.02.2021
2636 Clear -23 1025 77 10000 0.66 3 08:22 12.02.2021
2637 Clear -22 1026 84 10000 0.66 3 07:52 12.02.2021
2638 Snow -22 1026 84 10000 0.41 341 07:24 12.02.2021
2639 Snow -23 1026 84 10000 0.65 341 06:53 12.02.2021
2640 Snow -26 1026 76 10000 0.61 327 05:37 12.02.2021
2641 Clear -28 1026 83 10000 0.39 344 03:35 12.02.2021
2642 Clear -30 1026 76 10000 2 320 00:34 12.02.2021
2643 Clear -29 1025 76 10000 1 310 23:38 11.02.2021
2644 Clear -29 1025 76 10000 1 310 23:18 11.02.2021
2645 Clear -28 1025 76 10000 2 320 22:42 11.02.2021
2646 Clear -28 1025 76 10000 2 320 22:23 11.02.2021
2647 Clear -28 1025 76 10000 2 320 21:43 11.02.2021
2648 Clear -28 1025 76 10000 2 340 21:24 11.02.2021
2649 Clear -30 1025 76 10000 2 330 20:56 11.02.2021
2650 Clear -30 1025 76 10000 2 330 20:37 11.02.2021
2651 Clear -30 1025 76 10000 2 330 20:18 11.02.2021
2652 Clear -30 1025 76 10000 2 330 19:46 11.02.2021
2653 Clear -29 1025 76 10000 2 330 19:25 11.02.2021
2654 Clear -28 1025 76 10000 2 350 18:41 11.02.2021
2655 Clear -28 1025 76 10000 2 350 18:19 11.02.2021
2656 Clear -27 1025 76 10000 3 350 17:43 11.02.2021
2657 Clear -28 1025 76 10000 2 340 17:20 11.02.2021
2658 Clear -28 1025 76 10000 2 340 16:44 11.02.2021
2659 Clear -27 1025 76 10000 2 350 16:25 11.02.2021
2660 Clear -26 1025 76 10000 3 340 15:45 11.02.2021
2661 Clear -25 1025 77 10000 3 330 15:26 11.02.2021
2662 Clear -25 1025 77 10000 3 330 15:26 11.02.2021
2663 Clear -26 1025 76 10000 2 340 14:55 11.02.2021
2664 Clear -26 1025 76 10000 3 340 14:31 11.02.2021
2665 Clear -26 1025 84 10000 2 350 13:43 11.02.2021
2666 Clear -25 1025 77 10000 3 10 13:20 11.02.2021
2667 Clear -25 1025 84 10000 3 20 12:56 11.02.2021
2668 Clear -25 1025 84 10000 3 360 12:33 11.02.2021
2669 Clear -24 1025 77 10000 4 360 11:48 11.02.2021
2670 Clear -24 1025 77 10000 4 350 11:27 11.02.2021
2671 Clear -24 1025 84 10000 4 350 10:46 11.02.2021
2672 Clear -24 1024 77 10000 4 350 10:27 11.02.2021
2673 Clear -24 1024 77 10000 4 350 09:59 11.02.2021
2674 Clear -24 1024 77 10000 4 350 09:36 11.02.2021
2675 Clear -24 1024 77 10000 4 350 09:18 11.02.2021
2676 Clear -24 1024 77 10000 4 350 08:43 11.02.2021
2677 Clear -24 1023 77 10000 3 350 07:43 11.02.2021
2678 Clear -25 1023 77 10000 3 360 06:43 11.02.2021
2679 Snow -24 1023 77 5000 3 360 05:54 11.02.2021
2680 Clear -27 1022 76 10000 1 340 03:43 11.02.2021
2681 Clear -30 1021 76 10000 1 360 02:21 11.02.2021
2682 Clear -32 1021 68 10000 1 80 00:23 11.02.2021
2683 Clear -32 1020 68 10000 1 60 23:48 10.02.2021
2684 Clear -33 1020 68 10000 1 250 23:19 10.02.2021
2685 Clear -35 1019 75 10000 1 230 22:43 10.02.2021
2686 Clear -36 1019 68 10000 1 150 22:23 10.02.2021
2687 Clear -36 1019 68 10000 0.42 98 21:40 10.02.2021
2688 Clear -36 1019 68 10000 0.38 123 21:20 10.02.2021
2689 Clear -36 1019 68 10000 0.38 123 21:20 10.02.2021
2690 Clear -35 1019 68 10000 0.38 123 20:50 10.02.2021
2691 Clear -35 1019 68 10000 1 320 20:28 10.02.2021
2692 Clear -35 1019 68 10000 2 310 19:50 10.02.2021
2693 Clear -36 1019 68 10000 2 300 19:27 10.02.2021
2694 Clear -36 1018 68 10000 1 340 18:48 10.02.2021
2695 Clear -36 1018 68 10000 1 310 18:26 10.02.2021
2696 Clear -35 1018 68 10000 1 280 17:59 10.02.2021
2697 Clear -35 1018 68 10000 2 290 17:27 10.02.2021
2698 Clear -34 1018 68 10000 1 310 16:59 10.02.2021
2699 Clear -35 1018 68 10000 2 300 16:41 10.02.2021
2700 Clear -35 1018 68 10000 2 300 16:41 10.02.2021
2701 Clear -35 1018 68 10000 2 300 16:22 10.02.2021
2702 Clear -35 1019 68 10000 1 310 15:24 10.02.2021
2703 Clear -35 1018 75 10000 1 280 14:53 10.02.2021
2704 Clear -34 1018 68 10000 1 320 14:34 10.02.2021
2705 Clear -35 1019 75 10000 2 300 13:55 10.02.2021
2706 Clear -33 1019 75 10000 2 310 13:30 10.02.2021
2707 Clear -34 1019 68 10000 1 320 12:54 10.02.2021
2708 Clear -33 1019 68 10000 1 360 12:31 10.02.2021
2709 Clear -33 1019 68 10000 1 330 11:58 10.02.2021
2710 Clear -33 1018 75 10000 1 340 11:39 10.02.2021
2711 Clear -33 1018 75 10000 1 340 11:21 10.02.2021
2712 Clear -32 1019 75 10000 2 340 10:25 10.02.2021
2713 Clear -32 1019 68 10000 2 320 09:57 10.02.2021
2714 Clear -32 1019 68 10000 1 350 09:33 10.02.2021
2715 Clear -31 1019 76 10000 2 350 08:56 10.02.2021
2716 Clear -30 1019 76 10000 2 340 08:35 10.02.2021
2717 Clear -29 1019 69 10000 2 10 07:41 10.02.2021
2718 Clear -28 1019 69 10000 2 340 06:33 10.02.2021
2719 Mist -36 1021 68 2100 2 360 01:56 10.02.2021
2720 Fog -37 1021 67 1000 2 340 00:23 10.02.2021
2721 Fog -37 1021 67 1000 2 340 00:23 10.02.2021
2722 Mist -36 1021 68 2100 2 320 23:34 09.02.2021
2723 Mist -36 1020 68 5000 3 330 22:53 09.02.2021
2724 Mist -36 1020 68 3200 3 330 22:24 09.02.2021
2725 Clear -36 1020 68 10000 3 350 21:52 09.02.2021
2726 Clear -36 1020 68 10000 3 340 21:27 09.02.2021
2727 Mist -36 1019 68 5000 3 340 20:46 09.02.2021
2728 Mist -36 1019 68 5000 3 340 20:26 09.02.2021
2729 Clear -36 1019 68 10000 3 340 19:55 09.02.2021
2730 Clear -36 1019 68 10000 3 330 19:31 09.02.2021
2731 Clear -36 1018 68 10000 2 340 18:58 09.02.2021
2732 Clear -36 1018 68 10000 2 350 18:36 09.02.2021
2733 Clear -35 1018 68 10000 3 340 17:57 09.02.2021
2734 Clear -35 1018 68 10000 2 330 17:37 09.02.2021
2735 Clear -35 1018 68 10000 2 330 17:18 09.02.2021
2736 Clear -34 1017 68 10000 2 320 16:40 09.02.2021
2737 Clear -34 1017 68 10000 2 320 16:18 09.02.2021
2738 Clear -34 1017 68 10000 2 340 15:48 09.02.2021
2739 Clear -34 1017 68 10000 2 320 15:24 09.02.2021
2740 Snow -33 1017 68 10000 3 350 14:53 09.02.2021
2741 Snow -31 1017 69 10000 2 340 14:26 09.02.2021
2742 Snow -30 1017 69 10000 2 360 13:50 09.02.2021
2743 Snow -30 1016 69 10000 3 360 13:25 09.02.2021
2744 Snow -30 1016 69 10000 3 340 12:49 09.02.2021
2745 Snow -31 1016 76 10000 3 340 12:31 09.02.2021
2746 Snow -32 1016 68 10000 3 330 11:56 09.02.2021
2747 Clear -33 1015 68 10000 3 350 11:38 09.02.2021
2748 Clear -33 1015 68 10000 3 350 11:19 09.02.2021
2749 Clear -33 1015 68 10000 2 330 10:43 09.02.2021
2750 Clear -33 1015 68 10000 2 330 10:18 09.02.2021
2751 Clear -31 1015 69 10000 3 340 09:42 09.02.2021
2752 Clear -31 1015 69 10000 3 340 09:24 09.02.2021
2753 Clear -30 1014 69 10000 2 350 08:42 09.02.2021
2754 Clear -30 1014 69 10000 2 350 08:22 09.02.2021
2755 Snow -28 1013 69 10000 4 360 06:18 09.02.2021
2756 Snow -29 1012 69 3200 5 360 03:51 09.02.2021
2757 Snow -30 1012 76 5000 2 20 02:31 09.02.2021
2758 Mist -31 1011 69 5000 2.03 1 00:33 09.02.2021
2759 Clear -31 1011 69 10000 1.34 311 23:57 08.02.2021
2760 Clear -32 1011 68 10000 1 230 23:20 08.02.2021
2761 Mist -33 1011 75 5000 0.42 298 22:43 08.02.2021
2762 Mist -33 1011 68 5000 2 190 22:24 08.02.2021
2763 Mist -34 1011 68 5000 2 140 21:54 08.02.2021
2764 Mist -34 1010 68 2400 1 140 21:31 08.02.2021
2765 Mist -35 1011 68 2400 1 160 20:59 08.02.2021
2766 Mist -35 1011 68 2100 1 180 20:38 08.02.2021
2767 Mist -35 1011 68 2100 1 180 20:19 08.02.2021
2768 Mist -36 1011 68 2100 1.5 287 19:42 08.02.2021
2769 Mist -36 1011 68 2100 1.39 281 19:22 08.02.2021
2770 Mist -37 1011 67 1500 1.39 281 18:46 08.02.2021
2771 Mist -38 1011 61 1500 1 170 18:19 08.02.2021
2772 Mist -38 1012 61 1500 1.32 283 17:44 08.02.2021
2773 Mist -39 1012 67 1500 1 220 17:24 08.02.2021
2774 Mist -38 1012 61 1500 1 160 16:43 08.02.2021
2775 Mist -38 1012 61 1500 1 160 16:21 08.02.2021
2776 Mist -39 1013 67 1500 1 170 15:43 08.02.2021
2777 Mist -39 1013 67 1500 1 140 15:20 08.02.2021
2778 Mist -39 1013 67 2100 1 220 14:52 08.02.2021
2779 Mist -39 1014 67 2100 1.58 270 14:31 08.02.2021
2780 Mist -38 1014 67 2100 2 130 13:57 08.02.2021
2781 Mist -38 1014 67 2100 1 90 13:33 08.02.2021
2782 Mist -38 1014 61 2100 2 220 12:55 08.02.2021
2783 Mist -38 1015 67 2100 1 120 12:36 08.02.2021
2784 Mist -38 1015 61 2100 1 230 11:49 08.02.2021
2785 Fog -38 1016 61 1600 0.8 240 11:22 08.02.2021
2786 Mist -37 1017 61 2100 0.8 240 10:45 08.02.2021
2787 Mist -37 1017 67 2100 1 180 10:24 08.02.2021
2788 Mist -37 1018 67 2400 2 160 09:53 08.02.2021
2789 Mist -36 1018 61 1800 2 120 09:35 08.02.2021
2790 Mist -36 1018 68 1500 1 180 08:47 08.02.2021
2791 Fog -37 1018 67 800 2 230 08:21 08.02.2021
2792 Fog -37 1019 67 450 3 210 07:34 08.02.2021
2793 Mist -38 1020 61 1500 2 120 06:25 08.02.2021
2794 Fog -42 1024 66 150 0.96 206 02:37 08.02.2021
2795 Fog -43 1024 66 250 1 240 01:48 08.02.2021
2796 Fog -43 1025 59 550 0.69 192 00:21 08.02.2021
2797 Fog -44 1025 59 700 2 300 23:50 07.02.2021
2798 Fog -44 1025 59 700 2 300 23:50 07.02.2021
2799 Fog -43 1026 59 500 2 290 23:21 07.02.2021
2800 Fog -43 1027 59 300 0.52 121 22:45 07.02.2021
2801 Fog -43 1027 59 600 2 310 22:27 07.02.2021
2802 Fog -43 1027 59 800 2 300 21:53 07.02.2021
2803 Fog -43 1028 59 700 3 290 21:28 07.02.2021
2804 Fog -43 1028 66 450 2 300 20:59 07.02.2021
2805 Fog -42 1029 60 300 2 310 20:40 07.02.2021
2806 Fog -42 1029 60 300 2 310 20:22 07.02.2021
2807 Fog -42 1029 60 300 2 310 20:22 07.02.2021
2808 Fog -42 1030 60 300 2 340 19:39 07.02.2021
2809 Fog -42 1030 60 300 2 340 19:20 07.02.2021
2810 Fog -42 1030 66 300 1 330 18:40 07.02.2021
2811 Fog -42 1030 66 300 1 330 18:22 07.02.2021
2812 Fog -41 1030 60 350 1 330 17:44 07.02.2021
2813 Fog -41 1031 60 250 2 320 17:21 07.02.2021
2814 Fog -41 1031 66 300 2 320 16:50 07.02.2021
2815 Fog -41 1032 60 750 2 350 16:29 07.02.2021
2816 Fog -40 1032 60 550 2 340 15:59 07.02.2021
2817 Fog -39 1032 60 800 3 330 15:40 07.02.2021
2818 Fog -39 1032 60 800 3 330 15:21 07.02.2021
2819 Fog -40 1034 67 900 3 330 14:40 07.02.2021
2820 Fog -40 1034 67 900 3 330 14:22 07.02.2021
2821 Fog -40 1034 67 750 2 330 13:37 07.02.2021
2822 Fog -40 1034 67 750 2 330 13:19 07.02.2021
2823 Fog -40 1035 67 900 3 340 12:39 07.02.2021
2824 Fog -40 1035 67 900 3 340 12:20 07.02.2021
2825 Fog -40 1035 67 900 3 340 12:20 07.02.2021
2826 Fog -39 1036 60 900 3 340 11:41 07.02.2021
2827 Fog -39 1036 60 900 3 340 11:23 07.02.2021
2828 Mist -39 1036 60 1100 3 350 10:29 07.02.2021
2829 Clear -39 1036 60 10000 2 360 09:55 07.02.2021
2830 Clear -39 1036 67 10000 3 340 09:37 07.02.2021
2831 Clear -39 1036 67 10000 3 340 09:18 07.02.2021
2832 Clear -37 1035 67 10000 4 340 07:56 07.02.2021
2833 Mist -37 1036 67 5000 3 350 06:25 07.02.2021
2834 Mist -38 1035 67 1100 2 350 04:36 07.02.2021
2835 Fog -42 1035 66 500 2 350 02:31 07.02.2021
2836 Fog -42 1034 60 350 2 340 00:38 07.02.2021
2837 Fog -42 1034 60 300 2 340 23:53 06.02.2021
2838 Fog -43 1033 66 300 2 320 22:59 06.02.2021
2839 Fog -43 1033 66 300 2 330 22:21 06.02.2021
2840 Fog -42 1033 60 300 2 320 21:37 06.02.2021
2841 Fog -42 1033 60 300 2 320 21:19 06.02.2021
2842 Fog -42 1033 60 350 2 330 20:44 06.02.2021
2843 Fog -43 1032 66 400 2 320 20:22 06.02.2021
2844 Fog -42 1032 60 400 2 310 19:46 06.02.2021
2845 Fog -42 1032 60 300 2 320 19:25 06.02.2021
2846 Fog -42 1031 66 450 2 330 18:45 06.02.2021
2847 Fog -42 1031 66 500 2 310 18:26 06.02.2021
2848 Fog -41 1031 60 450 2 330 17:41 06.02.2021
2849 Fog -41 1031 60 450 2 330 17:21 06.02.2021
2850 Fog -41 1030 66 550 2 320 16:55 06.02.2021
2851 Fog -40 1030 60 550 2 320 16:30 06.02.2021
2852 Fog -40 1030 67 550 2 320 15:53 06.02.2021
2853 Fog -40 1030 67 400 2 330 15:34 06.02.2021
2854 Fog -39 1030 60 500 2 330 14:59 06.02.2021
2855 Fog -39 1029 60 550 2 330 14:39 06.02.2021
2856 Fog -39 1029 60 550 2 330 14:21 06.02.2021
2857 Fog -39 1029 60 900 2 330 13:45 06.02.2021
2858 Mist -39 1029 67 1200 2 340 12:47 06.02.2021
2859 Mist -38 1028 61 3200 2 330 12:20 06.02.2021
2860 Clear -37 1028 67 10000 1 40 11:40 06.02.2021
2861 Clear -37 1028 67 10000 1 40 11:20 06.02.2021
2862 Clear -37 1028 67 10000 1 40 10:53 06.02.2021
2863 Clear -37 1027 67 10000 1 60 10:27 06.02.2021
2864 Snow -36 1027 61 10000 1 70 09:38 06.02.2021
2865 Snow -36 1027 61 10000 1 70 09:19 06.02.2021
2866 Snow -36 1026 61 10000 1 100 08:59 06.02.2021
2867 Snow -37 1026 67 5000 1 110 08:29 06.02.2021
2868 Snow -37 1025 67 5000 1 140 07:20 06.02.2021
2869 Snow -37 1024 61 5000 1.7 294 05:42 06.02.2021
2870 Mist -38 1023 67 2100 1 0 03:47 06.02.2021
2871 Fog -42 1022 60 900 1 270 01:30 06.02.2021
2872 Fog -43 1022 59 750 1 260 00:45 06.02.2021
2873 Fog -43 1022 66 700 1 280 00:18 06.02.2021
2874 Fog -43 1021 66 600 1 330 23:41 05.02.2021
2875 Fog -43 1021 66 600 1 330 23:23 05.02.2021
2876 Fog -43 1021 59 700 1.42 289 22:43 05.02.2021
2877 Fog -43 1021 59 550 1 190 22:18 05.02.2021
2878 Fog -42 1020 60 450 1.68 295 21:40 05.02.2021
2879 Fog -42 1020 60 900 1 40 20:59 05.02.2021
2880 Fog -42 1019 60 500 2.4 293 20:38 05.02.2021
2881 Fog -42 1019 60 500 1 290 19:50 05.02.2021
2882 Fog -42 1019 60 200 2 310 19:19 05.02.2021
2883 Fog -42 1019 60 400 1 340 18:45 05.02.2021
2884 Fog -41 1018 60 550 2 290 18:19 05.02.2021
2885 Mist -41 1018 60 1200 2 280 17:43 05.02.2021
2886 Mist -41 1018 60 1500 2 280 17:21 05.02.2021
2887 Mist -41 1018 60 1500 2 280 17:21 05.02.2021
2888 Mist -41 1017 60 1500 2 300 16:46 05.02.2021
2889 Mist -41 1017 60 1100 2 300 16:23 05.02.2021
2890 Mist -41 1017 66 1500 2 290 15:54 05.02.2021
2891 Fog -41 1017 66 900 2 280 15:26 05.02.2021
2892 Mist -41 1016 66 1500 2 290 14:40 05.02.2021
2893 Mist -41 1016 66 1500 2 290 14:22 05.02.2021
2894 Mist -40 1016 60 1500 2 290 13:59 05.02.2021
2895 Fog -40 1016 67 800 2 310 13:36 05.02.2021
2896 Mist -39 1016 60 1100 3 340 12:49 05.02.2021
2897 Mist -39 1015 60 1500 3 350 12:28 05.02.2021
2898 Mist -39 1014 60 1300 2 340 11:41 05.02.2021
2899 Mist -39 1014 60 1300 2 340 11:21 05.02.2021
2900 Mist -39 1014 67 1500 4 10 10:57 05.02.2021
2901 Mist -39 1014 67 1800 3 350 10:27 05.02.2021
2902 Mist -38 1013 61 3200 3 350 09:47 05.02.2021
2903 Mist -38 1013 61 3200 3 360 09:28 05.02.2021
2904 Mist -38 1013 61 2400 3 20 08:53 05.02.2021
2905 Fog -38 1012 67 1000 2 10 08:22 05.02.2021
2906 Fog -39 1012 67 1100 1 140 07:36 05.02.2021
2907 Fog -39 1012 67 600 1 100 06:52 05.02.2021
2908 Fog -41 1012 66 350 1 140 05:37 05.02.2021
2909 Fog -44 1012 59 400 2 160 03:18 05.02.2021
2910 Fog -44 1012 59 200 2 130 02:24 05.02.2021
2911 Fog -45 1012 59 300 1 160 00:40 05.02.2021
2912 Fog -45 1012 59 300 1 160 00:20 05.02.2021
2913 Fog -45 1012 59 500 2 150 23:57 04.02.2021
2914 Fog -45 1012 59 550 1 130 23:39 04.02.2021
2915 Fog -45 1012 59 550 1 130 23:20 04.02.2021
2916 Fog -45 1012 59 550 1 130 23:20 04.02.2021
2917 Fog -45 1012 59 550 1 130 23:20 04.02.2021
2918 Fog -44 1012 59 300 1.18 251 22:51 04.02.2021
2919 Fog -44 1012 59 300 1.18 251 22:51 04.02.2021
2920 Fog -45 1012 59 150 1.2 240 22:26 04.02.2021
2921 Fog -45 1012 59 150 1.2 240 21:42 04.02.2021
2922 Fog -45 1012 59 150 1.1 236 21:20 04.02.2021
2923 Fog -45 1012 65 150 1.1 236 20:49 04.02.2021
2924 Fog -45 1012 59 400 1.1 236 20:30 04.02.2021
2925 Fog -45 1012 59 400 1.1 236 20:30 04.02.2021
2926 Fog -45 1012 59 400 1.1 236 20:30 04.02.2021
2927 Fog -45 1012 59 400 1.1 236 20:30 04.02.2021
2928 Fog -45 1012 59 600 1 260 19:43 04.02.2021
2929 Fog -45 1013 59 500 0.53 228 18:57 04.02.2021
2930 Fog -46 1013 58 500 0.78 253 18:26 04.02.2021
2931 Fog -46 1013 58 500 0.78 253 18:26 04.02.2021
2932 Fog -46 1013 58 500 1 300 17:56 04.02.2021
2933 Fog -46 1013 58 600 1 290 17:37 04.02.2021
2934 Fog -46 1013 58 600 1 290 17:18 04.02.2021
2935 Fog -45 1014 59 350 1 320 16:41 04.02.2021
2936 Fog -45 1014 59 350 1 320 16:18 04.02.2021
2937 Fog -45 1013 59 300 1 300 15:40 04.02.2021
2938 Fog -45 1013 59 300 1 300 15:20 04.02.2021
2939 Fog -45 1014 59 400 2 310 14:48 04.02.2021
2940 Fog -45 1014 59 300 2 340 14:21 04.02.2021
2941 Fog -44 1014 59 200 1 330 13:48 04.02.2021
2942 Fog -45 1014 59 900 2 350 13:28 04.02.2021
2943 Fog -45 1014 59 300 2 40 12:54 04.02.2021
2944 Fog -44 1014 59 400 1 350 11:58 04.02.2021
2945 Fog -43 1014 59 650 2 330 11:37 04.02.2021
2946 Fog -43 1014 59 650 2 330 11:18 04.02.2021
2947 Fog -43 1014 59 700 2 310 10:36 04.02.2021
2948 Mist -43 1014 59 1000 2 20 09:46 04.02.2021
2949 Fog -43 1014 66 900 2 360 09:23 04.02.2021
2950 Mist -42 1014 60 1300 2 340 08:58 04.02.2021
2951 Mist -42 1014 66 1800 2 340 08:27 04.02.2021
2952 Mist -41 1014 60 3200 2 350 07:58 04.02.2021
2953 Mist -41 1014 66 3200 3 350 07:35 04.02.2021
2954 Mist -41 1014 60 3200 3 340 06:54 04.02.2021
2955 Mist -41 1014 60 3200 3 360 06:34 04.02.2021
2956 Fog -43 1014 59 900 3 360 02:43 04.02.2021
2957 Fog -44 1014 59 700 3 360 02:24 04.02.2021
2958 Fog -44 1013 59 800 3 350 00:33 04.02.2021
2959 Fog -44 1013 59 700 2 350 23:39 03.02.2021
2960 Fog -44 1013 59 700 2 350 22:42 03.02.2021
2961 Fog -44 1013 59 700 2 350 22:21 03.02.2021
2962 Fog -43 1012 59 700 2 350 21:56 03.02.2021
2963 Fog -43 1012 59 700 3 360 21:25 03.02.2021
2964 Fog -43 1012 59 700 3 360 20:58 03.02.2021
2965 Fog -42 1012 66 500 3 350 20:38 03.02.2021
2966 Fog -42 1012 66 500 3 350 20:18 03.02.2021
2967 Fog -41 1012 60 500 2 340 19:41 03.02.2021
2968 Fog -41 1012 60 500 2 340 19:18 03.02.2021
2969 Fog -41 1012 60 500 2 340 18:41 03.02.2021
2970 Fog -41 1012 60 500 2 340 18:19 03.02.2021
2971 Fog -41 1012 66 500 2 350 17:49 03.02.2021
2972 Fog -41 1011 60 500 2 340 17:30 03.02.2021
2973 Fog -41 1011 60 500 2 340 16:52 03.02.2021
2974 Fog -41 1011 66 500 2 340 16:27 03.02.2021
2975 Fog -40 1011 60 500 2 330 15:45 03.02.2021
2976 Fog -40 1012 67 600 1 340 15:25 03.02.2021
2977 Mist -39 1011 60 2400 1 360 14:53 03.02.2021
2978 Snow -39 1011 67 10000 1 40 14:25 03.02.2021
2979 Snow -38 1011 61 10000 1.06 128 13:54 03.02.2021
2980 Snow -37 1011 61 10000 1 130 13:26 03.02.2021
2981 Snow -37 1011 61 10000 1 100 12:47 03.02.2021
2982 Snow -37 1012 67 10000 2 100 12:24 03.02.2021
2983 Snow -37 1011 67 10000 1 90 11:49 03.02.2021
2984 Snow -37 1011 67 10000 1 100 11:28 03.02.2021
2985 Snow -37 1011 67 10000 1 100 10:53 03.02.2021
2986 Snow -37 1011 67 10000 2 120 10:21 03.02.2021
2987 Snow -37 1011 67 5000 2 130 09:47 03.02.2021
2988 Snow -37 1011 67 3200 3 130 09:28 03.02.2021
2989 Snow -37 1011 67 3200 2 130 08:53 03.02.2021
2990 Snow -37 1010 67 5000 2 130 08:27 03.02.2021
2991 Snow -37 1010 67 10000 1 180 07:39 03.02.2021
2992 Snow -37 1010 61 10000 1 230 06:41 03.02.2021
2993 Snow -37 1009 61 5000 2 250 04:54 03.02.2021
2994 Snow -37 1009 61 5000 2 240 04:29 03.02.2021
2995 Snow -38 1009 67 5000 2 260 03:18 03.02.2021
2996 Snow -38 1009 61 5000 2 280 02:36 03.02.2021
2997 Snow -39 1009 67 5000 2 290 00:36 03.02.2021
2998 Snow -39 1009 67 5000 3 280 23:53 02.02.2021
2999 Snow -39 1009 67 3200 3 280 23:29 02.02.2021
3000 Snow -39 1009 67 10000 2 280 22:59 02.02.2021
3001 Snow -39 1009 60 10000 4 290 22:22 02.02.2021
3002 Snow -39 1009 60 10000 4 280 21:57 02.02.2021
3003 Snow -39 1009 67 10000 3 290 21:37 02.02.2021
3004 Snow -39 1009 67 10000 3 290 21:18 02.02.2021
3005 Snow -39 1009 60 10000 4 290 20:43 02.02.2021
3006 Snow -39 1009 67 10000 4 280 20:20 02.02.2021
3007 Snow -39 1009 67 10000 4 280 20:20 02.02.2021
3008 Snow -39 1009 67 3200 4 290 19:48 02.02.2021
3009 Snow -39 1009 67 5000 3 300 19:29 02.02.2021
3010 Snow -39 1009 67 10000 3 290 18:45 02.02.2021
3011 Snow -39 1009 67 10000 3 290 18:25 02.02.2021
3012 Snow -39 1009 60 10000 3 300 17:50 02.02.2021
3013 Snow -39 1009 60 10000 3 290 17:23 02.02.2021
3014 Snow -39 1010 60 10000 3 300 16:57 02.02.2021
3015 Snow -39 1010 60 10000 3 300 16:38 02.02.2021
3016 Snow -39 1010 60 10000 3 310 15:59 02.02.2021
3017 Clear -39 1011 67 10000 2 300 15:41 02.02.2021
3018 Clear -39 1011 67 10000 2 300 15:21 02.02.2021
3019 Clear -39 1011 67 10000 2 290 14:41 02.02.2021
3020 Clear -39 1011 67 10000 2 290 14:19 02.02.2021
3021 Clear -39 1011 67 10000 2 270 13:46 02.02.2021
3022 Clear -39 1011 67 10000 1 270 13:28 02.02.2021
3023 Clear -39 1012 67 10000 1 270 12:57 02.02.2021
3024 Clear -39 1012 60 10000 1 270 12:27 02.02.2021
3025 Clear -39 1012 60 10000 1 250 11:41 02.02.2021
3026 Clear -39 1012 60 10000 1 250 11:20 02.02.2021
3027 Clear -40 1012 67 10000 1 250 10:51 02.02.2021
3028 Clear -40 1013 60 10000 1 240 10:27 02.02.2021
3029 Clear -40 1013 67 10000 1 260 09:46 02.02.2021
3030 Clear -39 1013 60 10000 1 250 09:25 02.02.2021
3031 Clear -39 1014 60 10000 1 260 08:48 02.02.2021
3032 Clear -39 1014 60 10000 1 260 08:21 02.02.2021
3033 Clear -39 1014 60 10000 1 270 07:28 02.02.2021
3034 Clear -39 1015 60 10000 1 270 06:41 02.02.2021
3035 Clear -39 1015 60 10000 1 270 05:52 02.02.2021
3036 Clear -41 1016 66 10000 1 290 04:37 02.02.2021
3037 Fog -44 1018 59 450 2.33 274 02:25 02.02.2021
3038 Mist -45 1018 59 1500 2.04 272 01:28 02.02.2021
3039 Mist -44 1019 59 2100 1.99 270 00:31 02.02.2021
3040 Fog -45 1019 59 600 1.94 276 23:18 01.02.2021
3041 Mist -44 1020 59 2100 1 220 22:40 01.02.2021
3042 Mist -44 1020 59 2100 1 220 22:21 01.02.2021
3043 Mist -45 1020 53 1000 2.23 277 21:48 01.02.2021
3044 Mist -45 1020 53 1000 2.04 277 21:26 01.02.2021
3045 Mist -45 1021 65 1000 2.04 277 20:45 01.02.2021
3046 Fog -45 1021 59 500 1.89 275 20:25 01.02.2021
3047 Fog -45 1022 59 550 1.89 275 19:49 01.02.2021
3048 Mist -44 1022 59 2100 1 280 19:22 01.02.2021
3049 Fog -46 1022 58 350 1 260 18:59 01.02.2021
3050 Fog -46 1022 58 450 1 270 18:40 01.02.2021
3051 Fog -46 1022 58 450 1 270 18:22 01.02.2021
3052 Fog -47 1023 58 450 1 270 17:44 01.02.2021
3053 Fog -47 1023 58 500 1.9 278 17:21 01.02.2021
3054 Fog -47 1024 58 350 1 280 16:41 01.02.2021
3055 Fog -47 1024 58 350 1 280 16:22 01.02.2021
3056 Fog -47 1025 58 300 1 240 15:40 01.02.2021
3057 Fog -47 1025 58 300 1 240 15:19 01.02.2021
3058 Fog -46 1025 58 200 1 260 14:51 01.02.2021
3059 Fog -46 1026 58 200 1 270 14:23 01.02.2021
3060 Fog -46 1026 52 200 1.66 288 13:42 01.02.2021
3061 Fog -46 1026 52 200 1.63 297 13:24 01.02.2021
3062 Fog -45 1026 59 250 1 280 12:44 01.02.2021
3063 Fog -45 1026 59 250 1 280 12:44 01.02.2021
3064 Fog -47 1026 58 300 1 290 12:25 01.02.2021
3065 Fog -46 1026 58 150 1.74 300 11:43 01.02.2021
3066 Fog -45 1026 59 150 1 310 11:20 01.02.2021
3067 Fog -45 1026 59 250 1.62 299 10:47 01.02.2021
3068 Fog -45 1027 59 350 1 320 10:21 01.02.2021
3069 Fog -44 1027 59 550 1 330 09:49 01.02.2021
3070 Clear -42 1027 60 10000 1 280 09:25 01.02.2021
3071 Clear -41 1027 60 10000 1 280 08:56 01.02.2021
3072 Clear -41 1027 60 10000 1 280 08:56 01.02.2021
3073 Clear -41 1027 60 10000 1 290 08:24 01.02.2021
3074 Clear -40 1027 60 10000 1 280 06:58 01.02.2021
3075 Clear -40 1028 60 10000 1 260 04:32 01.02.2021
3076 Fog -44 1029 66 600 1 240 02:38 01.02.2021
3077 Mist -42 1029 60 5000 2.25 295 23:52 31.01.2021
3078 Mist -42 1029 60 5000 1.99 299 22:56 31.01.2021
3079 Clear -42 1029 60 10000 1 250 22:37 31.01.2021
3080 Clear -42 1029 60 10000 1 250 22:37 31.01.2021
3081 Clear -42 1029 60 10000 1 250 22:18 31.01.2021
3082 Snow -42 1029 60 10000 1 240 21:42 31.01.2021
3083 Snow -42 1029 60 10000 1 240 21:19 31.01.2021
3084 Clear -41 1029 60 10000 1 220 20:42 31.01.2021
3085 Clear -41 1029 60 10000 1 220 20:20 31.01.2021
3086 Clear -42 1029 66 10000 1 230 19:38 31.01.2021
3087 Clear -42 1029 66 10000 1 230 19:19 31.01.2021
3088 Clear -42 1029 60 10000 1 230 18:47 31.01.2021
3089 Clear -41 1029 60 10000 1 240 18:25 31.01.2021
3090 Clear -41 1029 60 10000 1 250 17:57 31.01.2021
3091 Mist -41 1029 60 5000 1 260 17:38 31.01.2021
3092 Mist -41 1029 60 5000 1 260 17:19 31.01.2021
3093 Mist -41 1029 60 5000 1 260 17:19 31.01.2021
3094 Snow -41 1029 60 5000 1 270 16:41 31.01.2021
3095 Snow -41 1029 60 5000 1 270 16:20 31.01.2021
3096 Snow -41 1029 66 5000 1 270 15:48 31.01.2021
3097 Snow -41 1029 60 5000 1 260 15:21 31.01.2021
3098 Mist -41 1029 66 5000 1 260 14:36 31.01.2021
3099 Mist -41 1029 66 5000 1 260 14:18 31.01.2021
3100 Fog -42 1029 66 900 1 230 13:41 31.01.2021
3101 Fog -42 1029 66 900 1 230 13:18 31.01.2021
3102 Fog -43 1029 59 300 1 220 12:45 31.01.2021
3103 Fog -43 1029 59 200 1 220 12:20 31.01.2021
3104 Fog -42 1029 60 500 2.31 298 11:39 31.01.2021
3105 Fog -42 1029 60 500 2.35 293 11:20 31.01.2021
3106 Fog -42 1029 66 400 2.35 293 10:45 31.01.2021
3107 Fog -41 1029 60 400 2.39 293 10:26 31.01.2021
3108 Fog -41 1029 60 700 2.39 293 09:41 31.01.2021
3109 Fog -41 1029 60 650 2.23 288 08:53 31.01.2021
3110 Fog -41 1029 60 900 2.23 288 08:31 31.01.2021
3111 Fog -42 1029 66 550 1 140 06:47 31.01.2021
3112 Fog -43 1030 59 650 1.33 281 03:53 31.01.2021
3113 Snow -45 1030 59 800 1 320 00:28 31.01.2021
3114 Snow -45 1030 65 800 0.46 345 23:59 30.01.2021
3115 Snow -44 1030 59 1000 0.5 347 23:28 30.01.2021
3116 Snow -44 1030 59 1000 0.5 347 22:43 30.01.2021
3117 Snow -44 1030 59 1000 0.51 326 22:23 30.01.2021
3118 Fog -45 1030 59 800 0.51 326 21:39 30.01.2021
3119 Fog -45 1030 59 800 0.61 323 21:20 30.01.2021
3120 Fog -45 1030 59 900 1 10 20:41 30.01.2021
3121 Fog -45 1030 59 900 1 10 20:23 30.01.2021
3122 Fog -45 1030 59 750 1 350 19:40 30.01.2021
3123 Fog -45 1030 59 750 1 350 19:22 30.01.2021
3124 Fog -45 1031 53 800 1 350 18:40 30.01.2021
3125 Fog -45 1031 53 800 1 350 18:21 30.01.2021
3126 Fog -46 1031 58 700 1 350 17:49 30.01.2021
3127 Fog -46 1031 58 550 1 350 17:19 30.01.2021
3128 Fog -46 1031 58 750 1 350 16:42 30.01.2021
3129 Fog -46 1031 58 750 1 350 16:23 30.01.2021
3130 Fog -46 1031 58 900 1 340 15:49 30.01.2021
3131 Fog -46 1031 58 900 1 360 15:25 30.01.2021
3132 Fog -45 1032 53 450 1 350 14:58 30.01.2021
3133 Fog -45 1032 53 250 1 350 14:39 30.01.2021
3134 Fog -45 1032 53 250 1 350 14:18 30.01.2021
3135 Fog -45 1032 59 700 1 360 13:24 30.01.2021
3136 Fog -45 1032 59 700 1 340 12:46 30.01.2021
3137 Fog -45 1032 59 1000 1 350 12:28 30.01.2021
3138 Fog -45 1032 59 900 1 350 11:53 30.01.2021
3139 Fog -45 1032 59 800 1 330 11:21 30.01.2021
3140 Mist -45 1032 59 1000 1 330 10:43 30.01.2021
3141 Mist -45 1032 59 1000 1 340 09:43 30.01.2021
3142 Mist -45 1032 59 1500 1 340 09:25 30.01.2021
3143 Mist -45 1032 59 1800 1 330 08:47 30.01.2021
3144 Snow -44 1032 59 3200 1 350 07:44 30.01.2021
3145 Snow -44 1032 59 3200 1 20 06:35 30.01.2021
3146 Mist -45 1033 59 3200 1 10 03:57 30.01.2021
3147 Mist -45 1033 59 1800 1 10 03:33 30.01.2021
3148 Mist -45 1033 59 1000 0.74 40 02:23 30.01.2021
3149 Mist -45 1033 59 3200 0.97 31 01:26 30.01.2021
3150 Fog -46 1033 58 900 0.9 38 00:35 30.01.2021
3151 Fog -46 1033 58 700 0.96 2 23:55 29.01.2021
3152 Fog -46 1033 58 700 0.4 14 23:28 29.01.2021
3153 Mist -46 1033 58 1200 0.4 14 22:56 29.01.2021
3154 Mist -46 1033 58 1200 0.4 14 22:37 29.01.2021
3155 Mist -46 1033 58 1200 0.5 32 21:59 29.01.2021
3156 Mist -45 1033 53 1200 0.74 32 21:28 29.01.2021
3157 Mist -46 1033 58 1500 0.74 32 20:45 29.01.2021
3158 Clouds -42 1037 77 9559 0.93 10 20:24 29.01.2021
3159 Fog -45 1033 59 700 1 350 19:42 29.01.2021
3160 Fog -45 1033 59 700 1 350 19:22 29.01.2021
3161 Fog -45 1033 59 900 1.2 357 18:57 29.01.2021
3162 Mist -45 1033 59 2100 1 10 17:59 29.01.2021
3163 Mist -45 1033 59 1500 1 360 17:37 29.01.2021
3164 Mist -45 1033 59 1500 1 360 17:18 29.01.2021
3165 Fog -45 1033 59 400 1.06 308 16:39 29.01.2021
3166 Fog -45 1033 59 400 0.86 310 16:21 29.01.2021
3167 Fog -45 1033 59 400 0.86 310 16:21 29.01.2021
3168 Fog -45 1033 59 350 0.86 310 15:41 29.01.2021
3169 Fog -45 1033 59 350 0.92 305 15:22 29.01.2021
3170 Fog -45 1033 59 350 0.92 305 14:30 29.01.2021
3171 Fog -45 1033 59 300 1.02 306 13:58 29.01.2021
3172 Fog -45 1033 59 300 1.02 306 13:34 29.01.2021
3173 Fog -45 1033 59 300 1.06 313 12:48 29.01.2021
3174 Fog -45 1033 59 350 0.93 311 12:20 29.01.2021
3175 Fog -45 1033 53 350 1 340 11:46 29.01.2021
3176 Fog -45 1033 53 350 1 350 11:18 29.01.2021
3177 Fog -45 1033 59 350 0.81 304 10:47 29.01.2021
3178 Fog -45 1032 59 450 0.79 304 10:26 29.01.2021
3179 Mist -45 1032 59 3200 1 360 09:44 29.01.2021
3180 Mist -44 1032 59 3200 0.67 316 08:52 29.01.2021
3181 Mist -44 1032 59 2400 0.41 332 08:28 29.01.2021
3182 Mist -43 1032 59 2400 0.41 332 07:54 29.01.2021
3183 Mist -43 1031 59 2100 0.51 327 07:35 29.01.2021
3184 Mist -43 1032 59 1800 0.48 333 06:50 29.01.2021
3185 Mist -42 1031 60 2400 0.6 271 05:19 29.01.2021
3186 Fog -44 1032 59 900 1 330 02:48 29.01.2021
3187 Mist -44 1031 59 5000 1 30 00:38 29.01.2021
3188 Mist -44 1031 59 5000 1 30 00:19 29.01.2021
3189 Mist -44 1030 59 5000 1 30 23:41 28.01.2021
3190 Mist -44 1030 59 5000 1 30 23:41 28.01.2021
3191 Mist -44 1030 59 5000 1 30 23:23 28.01.2021
3192 Mist -44 1030 59 3200 1 20 22:45 28.01.2021
3193 Snow -44 1030 59 2100 1 10 22:26 28.01.2021
3194 Snow -44 1030 59 2100 0.87 7 21:53 28.01.2021
3195 Snow -44 1030 59 2100 0.87 7 21:33 28.01.2021
3196 Snow -44 1030 59 2100 1.1 14 20:57 28.01.2021
3197 Snow -44 1030 59 2100 1.1 14 20:39 28.01.2021
3198 Snow -44 1030 59 2100 1.27 15 20:18 28.01.2021
3199 Mist -44 1030 59 1100 0.92 359 19:40 28.01.2021
3200 Mist -44 1030 59 1100 0.8 340 19:19 28.01.2021
3201 Mist -44 1030 53 1100 0.8 340 18:43 28.01.2021
3202 Mist -45 1030 59 1100 1 360 18:20 28.01.2021
3203 Mist -45 1030 59 1200 1 360 17:45 28.01.2021
3204 Fog -45 1030 59 900 0.37 276 17:26 28.01.2021
3205 Fog -45 1030 59 900 1 350 16:44 28.01.2021
3206 Fog -45 1030 59 750 0.41 264 16:23 28.01.2021
3207 Fog -45 1030 59 500 0.41 264 15:43 28.01.2021
3208 Fog -45 1030 59 450 0.28 228 15:18 28.01.2021
3209 Fog -45 1031 59 450 0.28 228 14:42 28.01.2021
3210 Fog -45 1031 59 450 0.28 228 14:42 28.01.2021
3211 Fog -45 1031 59 450 0.24 347 14:23 28.01.2021
3212 Fog -45 1031 59 500 0.24 347 13:48 28.01.2021
3213 Fog -45 1031 53 450 0.54 323 12:59 28.01.2021
3214 Fog -46 1031 58 600 0.54 323 12:40 28.01.2021
3215 Fog -46 1031 58 600 0.56 320 12:21 28.01.2021
3216 Fog -46 1031 58 650 0.56 320 11:43 28.01.2021
3217 Fog -46 1031 58 900 1 10 11:20 28.01.2021
3218 Fog -46 1031 58 750 1 10 10:54 28.01.2021
3219 Fog -45 1031 53 800 0.48 335 10:34 28.01.2021
3220 Fog -45 1031 53 750 1 340 09:50 28.01.2021
3221 Fog -45 1031 53 750 0.28 300 09:25 28.01.2021
3222 Fog -45 1031 53 900 1 350 08:57 28.01.2021
3223 Fog -45 1031 59 1000 0.28 300 08:38 28.01.2021
3224 Fog -45 1031 59 900 1 360 07:45 28.01.2021
3225 Fog -44 1031 59 900 0.43 203 06:51 28.01.2021
3226 Fog -44 1031 53 900 0.43 203 06:30 28.01.2021
3227 Fog -44 1032 53 650 0.49 258 04:30 28.01.2021
3228 Fog -45 1032 53 650 0.73 307 01:40 28.01.2021
3229 Mist -45 1032 59 3200 1.12 292 23:54 27.01.2021
3230 Mist -45 1032 59 3200 1.26 271 23:24 27.01.2021
3231 Mist -45 1032 59 3200 1.26 271 23:24 27.01.2021
3232 Mist -45 1032 59 3200 1.26 271 22:43 27.01.2021
3233 Snow -45 1032 59 3200 1.07 265 22:24 27.01.2021
3234 Snow -45 1033 59 3200 1.07 265 21:44 27.01.2021
3235 Snow -45 1033 59 5000 0.99 270 21:24 27.01.2021
3236 Snow -44 1032 53 5000 0.99 270 20:55 27.01.2021
3237 Snow -44 1033 59 5000 0.99 270 20:31 27.01.2021
3238 Snow -44 1033 59 5000 1.2 284 19:56 27.01.2021
3239 Snow -44 1033 59 5000 1.2 284 19:37 27.01.2021
3240 Snow -44 1033 59 5000 1.7 285 19:18 27.01.2021
3241 Snow -44 1033 59 5000 1.7 285 18:40 27.01.2021
3242 Snow -44 1033 59 5000 1.61 274 18:21 27.01.2021
3243 Mist -44 1033 59 5000 1.61 274 17:40 27.01.2021
3244 Mist -44 1034 59 3200 1.51 274 17:18 27.01.2021
3245 Mist -44 1034 59 3200 1.51 274 16:45 27.01.2021
3246 Fog -44 1034 59 1000 1.51 282 16:27 27.01.2021
3247 Fog -45 1034 59 650 1.51 282 15:49 27.01.2021
3248 Fog -45 1034 59 300 1.51 282 15:30 27.01.2021
3249 Fog -45 1034 53 300 1.58 291 14:41 27.01.2021
3250 Fog -45 1034 53 300 1.87 297 14:20 27.01.2021
3251 Fog -45 1034 59 250 1.87 297 13:42 27.01.2021
3252 Fog -45 1034 59 250 1.86 301 12:47 27.01.2021
3253 Fog -44 1034 59 200 2.06 305 12:26 27.01.2021
3254 Fog -44 1034 59 250 2.06 305 11:53 27.01.2021
3255 Fog -44 1034 59 400 1.97 302 11:26 27.01.2021
3256 Fog -44 1034 59 500 1.97 302 11:00 27.01.2021
3257 Fog -44 1034 59 600 1.97 302 10:36 27.01.2021
3258 Fog -44 1034 59 600 1.9 295 10:18 27.01.2021
3259 Fog -44 1034 59 700 1.9 295 09:34 27.01.2021
3260 Fog -44 1034 59 750 1.69 290 08:48 27.01.2021
3261 Fog -45 1034 59 900 1 160 07:59 27.01.2021
3262 Fog -45 1034 59 800 1 150 07:40 27.01.2021
3263 Fog -46 1034 58 800 1.79 287 06:48 27.01.2021
3264 Fog -46 1034 58 400 1.75 287 05:58 27.01.2021
3265 Fog -46 1034 52 200 1.75 287 05:35 27.01.2021
3266 Fog -48 1035 58 150 1.53 274 02:46 27.01.2021
3267 Fog -48 1035 58 200 1.42 269 02:21 27.01.2021
3268 Fog -48 1035 52 200 1.42 269 01:47 27.01.2021
3269 Fog -49 1035 58 300 1.23 268 00:30 27.01.2021
3270 Fog -49 1035 58 350 1.27 278 23:44 26.01.2021
3271 Fog -49 1035 58 350 1.26 276 23:22 26.01.2021
3272 Fog -49 1035 58 150 1.26 276 22:46 26.01.2021
3273 Fog -49 1035 51 150 1.11 271 22:20 26.01.2021
3274 Fog -49 1035 51 200 1.11 271 21:53 26.01.2021
3275 Fog -49 1035 51 300 1 275 21:27 26.01.2021
3276 Fog -49 1035 51 350 1 275 20:58 26.01.2021
3277 Fog -49 1035 51 300 1 275 20:38 26.01.2021
3278 Fog -49 1035 51 300 1.08 278 20:20 26.01.2021
3279 Fog -49 1036 51 150 1.08 278 19:43 26.01.2021
3280 Fog -49 1036 51 150 0.97 272 19:20 26.01.2021
3281 Fog -50 1036 57 200 0.99 276 18:46 26.01.2021
3282 Fog -49 1036 51 150 1.01 282 18:24 26.01.2021
3283 Fog -49 1036 51 200 1.01 282 17:49 26.01.2021
3284 Fog -49 1036 51 250 0.87 284 17:27 26.01.2021
3285 Fog -49 1036 51 200 0.87 284 16:55 26.01.2021
3286 Fog -49 1036 51 200 0.87 284 16:37 26.01.2021
3287 Fog -49 1036 51 200 0.72 300 16:18 26.01.2021
3288 Fog -50 1036 57 200 0.72 300 15:39 26.01.2021
3289 Fog -50 1036 57 200 0.91 312 15:19 26.01.2021
3290 Fog -50 1037 57 200 0.91 312 14:35 26.01.2021
3291 Fog -50 1037 57 200 0.91 312 14:35 26.01.2021
3292 Fog -50 1037 57 150 1.12 324 13:59 26.01.2021
3293 Fog -50 1037 57 250 1.12 324 13:33 26.01.2021
3294 Fog -50 1037 51 150 1.13 328 12:57 26.01.2021
3295 Fog -50 1038 51 150 1.16 329 12:38 26.01.2021
3296 Fog -50 1038 51 150 1.11 335 12:19 26.01.2021
3297 Fog -50 1038 51 350 1.11 335 11:49 26.01.2021
3298 Fog -50 1038 51 200 1.16 340 11:19 26.01.2021
3299 Fog -50 1037 51 100 1.16 340 10:39 26.01.2021
3300 Fog -50 1037 51 100 1.45 344 10:20 26.01.2021
3301 Fog -50 1038 51 150 1.45 344 09:39 26.01.2021
3302 Fog -50 1038 51 150 1.59 357 09:21 26.01.2021
3303 Fog -50 1038 57 250 1.59 357 08:44 26.01.2021
3304 Fog -49 1038 51 1000 1.61 13 07:56 26.01.2021
3305 Fog -48 1039 52 900 1.54 16 07:19 26.01.2021
3306 Fog -48 1039 58 700 1.62 7 05:52 26.01.2021
3307 Fog -49 1039 51 500 1.62 7 05:33 26.01.2021
3308 Fog -51 1040 57 200 1.41 12 03:32 26.01.2021
3309 Fog -52 1041 50 100 1.52 10 01:19 26.01.2021
3310 Fog -52 1041 50 200 1.17 13 00:26 26.01.2021
3311 Fog -52 1041 50 150 1.17 13 23:33 25.01.2021
3312 Fog -52 1042 50 200 1.35 23 22:51 25.01.2021
3313 Fog -52 1042 50 150 1.35 23 22:31 25.01.2021
3314 Fog -52 1042 50 100 1 320 21:47 25.01.2021
3315 Fog -52 1042 50 150 1 330 21:20 25.01.2021
3316 Fog -52 1043 50 150 1.54 29 20:44 25.01.2021
3317 Fog -52 1043 57 200 1.46 29 20:24 25.01.2021
3318 Fog -51 1043 51 200 1 320 19:49 25.01.2021
3319 Fog -51 1043 51 200 1 320 19:24 25.01.2021
3320 Fog -51 1043 51 200 1 320 18:47 25.01.2021
3321 Fog -51 1044 51 200 1 320 18:25 25.01.2021
3322 Fog -51 1044 51 250 1 330 17:49 25.01.2021
3323 Fog -51 1044 51 200 1 320 17:26 25.01.2021
3324 Fog -51 1044 51 200 1 320 16:57 25.01.2021
3325 Fog -51 1044 51 200 1 350 16:39 25.01.2021
3326 Fog -51 1044 51 200 1 350 16:20 25.01.2021
3327 Fog -52 1044 57 150 1 340 15:41 25.01.2021
3328 Fog -52 1044 57 150 1 340 15:22 25.01.2021
3329 Fog -52 1045 57 100 1 320 14:39 25.01.2021
3330 Fog -52 1045 57 100 1 320 14:18 25.01.2021
3331 Fog -51 1045 51 150 0.77 46 13:44 25.01.2021
3332 Fog -51 1045 51 350 1 360 13:25 25.01.2021
3333 Fog -51 1045 51 400 1 340 12:45 25.01.2021
3334 Fog -51 1045 51 400 1 350 12:19 25.01.2021
3335 Fog -50 1045 51 350 1 340 11:31 25.01.2021
3336 Fog -50 1045 51 200 1 340 10:53 25.01.2021
3337 Fog -51 1045 51 250 1 340 10:23 25.01.2021
3338 Fog -51 1045 51 250 1 320 09:55 25.01.2021
3339 Fog -51 1045 51 200 1 360 09:37 25.01.2021
3340 Fog -50 1045 51 500 1.1 58 08:56 25.01.2021
3341 Fog -50 1045 51 700 1 350 08:23 25.01.2021
3342 Fog -50 1045 51 600 1 360 07:30 25.01.2021
3343 Fog -50 1045 57 900 1 20 06:52 25.01.2021
3344 Fog -51 1045 51 150 0.46 83 03:23 25.01.2021
3345 Fog -52 1044 50 100 0.13 272 00:52 25.01.2021
3346 Fog -52 1044 50 150 0.35 237 23:40 24.01.2021
3347 Fog -52 1044 50 150 0.16 256 23:19 24.01.2021
3348 Fog -51 1044 51 100 0.16 256 22:41 24.01.2021
3349 Fog -51 1044 51 100 0.21 336 22:20 24.01.2021
3350 Fog -51 1044 51 200 0.21 336 21:46 24.01.2021
3351 Fog -51 1043 51 200 1 360 21:23 24.01.2021
3352 Fog -51 1043 51 150 0.51 285 20:44 24.01.2021
3353 Fog -51 1043 51 100 0.65 273 20:21 24.01.2021
3354 Fog -51 1043 51 100 0.65 273 19:51 24.01.2021
3355 Fog -51 1043 51 100 0.64 294 19:27 24.01.2021
3356 Fog -51 1043 51 100 0.58 266 18:58 24.01.2021
3357 Fog -51 1043 51 100 0.58 266 18:39 24.01.2021
3358 Fog -51 1043 51 100 0.58 266 18:39 24.01.2021
3359 Fog -51 1043 51 100 0.65 270 18:20 24.01.2021
3360 Fog -52 1043 50 150 1 360 17:50 24.01.2021
3361 Fog -51 1043 51 100 0.75 275 17:28 24.01.2021
3362 Fog -51 1043 57 100 0.75 275 16:57 24.01.2021
3363 Fog -51 1042 51 150 0.75 275 16:37 24.01.2021
3364 Fog -51 1042 51 150 0.84 283 16:18 24.01.2021
3365 Fog -51 1042 51 150 1 340 15:42 24.01.2021
3366 Fog -51 1042 51 150 1 340 15:18 24.01.2021
3367 Fog -51 1042 51 50 1 279 14:38 24.01.2021
3368 Fog -50 1041 51 100 1.13 274 13:46 24.01.2021
3369 Fog -50 1041 51 100 1.14 279 13:26 24.01.2021
3370 Fog -50 1041 57 100 1.2 275 12:49 24.01.2021
3371 Fog -49 1041 51 100 1.23 279 12:20 24.01.2021
3372 Fog -49 1040 51 100 1.23 279 11:51 24.01.2021
3373 Fog -49 1040 51 100 1.38 277 11:24 24.01.2021
3374 Fog -48 1040 52 100 1.38 277 10:47 24.01.2021
3375 Fog -48 1040 52 100 1.65 273 10:26 24.01.2021
3376 Fog -46 1040 58 300 1.75 267 09:23 24.01.2021
3377 Fog -45 1039 59 300 1.75 267 08:58 24.01.2021
3378 Fog -45 1039 59 400 1.87 257 08:23 24.01.2021
3379 Fog -49 1037 58 200 1.89 252 03:25 24.01.2021
3380 Fog -50 1036 51 250 1 150 02:18 24.01.2021
3381 Fog -51 1035 57 300 1 190 00:27 24.01.2021
3382 Fog -50 1035 51 300 1 180 23:53 23.01.2021
3383 Fog -51 1034 51 300 1 160 23:27 23.01.2021
3384 Fog -51 1034 51 450 2 160 22:57 23.01.2021
3385 Fog -51 1034 57 300 1 160 22:38 23.01.2021
3386 Fog -50 1034 51 300 1 160 21:57 23.01.2021
3387 Fog -50 1034 51 150 1.79 259 21:23 23.01.2021
3388 Fog -51 1034 57 150 1.79 259 20:49 23.01.2021
3389 Fog -51 1034 51 200 1.76 264 20:29 23.01.2021
3390 Fog -51 1033 51 200 1.76 264 19:47 23.01.2021
3391 Fog -51 1033 51 200 1.76 264 19:47 23.01.2021
3392 Fog -51 1033 51 250 1 150 19:25 23.01.2021
3393 Fog -51 1033 51 250 1 150 19:25 23.01.2021
3394 Fog -51 1033 51 250 1.72 266 18:52 23.01.2021
3395 Fog -51 1033 51 250 1.61 266 18:28 23.01.2021
3396 Fog -51 1032 57 200 1.61 266 17:56 23.01.2021
3397 Fog -51 1032 51 300 1.46 273 17:28 23.01.2021
3398 Fog -51 1032 51 300 1.46 273 16:52 23.01.2021
3399 Fog -51 1032 51 250 1.46 273 16:32 23.01.2021
3400 Fog -51 1031 51 450 1.28 279 15:49 23.01.2021
3401 Fog -51 1031 51 400 1.26 281 15:27 23.01.2021
3402 Fog -51 1030 51 250 1.26 281 14:38 23.01.2021
3403 Fog -51 1030 51 250 1.21 283 14:19 23.01.2021
3404 Fog -51 1030 51 200 1.21 283 13:40 23.01.2021
3405 Fog -51 1030 51 200 1.08 293 13:22 23.01.2021
3406 Fog -52 1029 57 250 1.08 292 12:42 23.01.2021
3407 Fog -52 1029 57 250 1.06 306 12:22 23.01.2021
3408 Fog -52 1029 50 100 1.06 306 11:35 23.01.2021
3409 Fog -52 1029 50 150 1.19 323 10:55 23.01.2021
3410 Fog -52 1029 50 150 1.35 340 10:24 23.01.2021
3411 Fog -53 1028 56 150 1.35 340 09:52 23.01.2021
3412 Fog -53 1028 50 200 1.63 355 09:28 23.01.2021
3413 Fog -51 1028 51 200 1.63 355 08:42 23.01.2021
3414 Fog -50 1027 51 350 1.71 358 07:48 23.01.2021
3415 Fog -51 1027 51 650 1.45 6 06:48 23.01.2021
3416 Fog -54 1027 50 300 1.44 19 02:20 23.01.2021
3417 Fog -54 1027 50 600 1 360 00:23 23.01.2021
3418 Fog -53 1027 50 300 1 20 23:36 22.01.2021
3419 Fog -52 1027 50 300 1 340 22:42 22.01.2021
3420 Fog -52 1027 50 500 1 350 21:59 22.01.2021
3421 Fog -53 1027 50 550 1 350 21:38 22.01.2021
3422 Fog -53 1027 50 550 1 350 21:20 22.01.2021
3423 Fog -53 1027 50 550 1 30 20:46 22.01.2021
3424 Fog -52 1027 50 250 1 10 20:25 22.01.2021
3425 Fog -52 1027 50 350 1 340 19:37 22.01.2021
3426 Fog -52 1027 50 350 1 340 19:18 22.01.2021
3427 Fog -51 1027 51 400 1 350 18:43 22.01.2021
3428 Fog -51 1027 51 400 1 350 18:24 22.01.2021
3429 Fog -51 1028 51 400 1 350 17:46 22.01.2021
3430 Fog -51 1028 51 350 1 350 17:28 22.01.2021
3431 Fog -51 1028 57 350 1 340 16:54 22.01.2021
3432 Fog -51 1028 57 550 2 350 16:27 22.01.2021
3433 Fog -50 1028 51 500 1 10 15:44 22.01.2021
3434 Fog -50 1028 51 650 1 10 15:19 22.01.2021
3435 Fog -50 1028 57 450 2 10 14:31 22.01.2021
3436 Fog -50 1028 57 350 1 20 13:52 22.01.2021
3437 Fog -50 1028 57 350 1 10 13:32 22.01.2021
3438 Fog -50 1028 57 300 1 360 12:53 22.01.2021
3439 Fog -50 1028 57 300 0.85 187 12:26 22.01.2021
3440 Fog -50 1028 57 250 0.85 187 11:48 22.01.2021
3441 Fog -50 1028 51 250 1 20 11:30 22.01.2021
3442 Fog -50 1029 57 200 0.98 195 10:46 22.01.2021
3443 Fog -50 1029 57 250 1 360 10:22 22.01.2021
3444 Fog -49 1029 58 200 1.01 204 09:39 22.01.2021
3445 Fog -49 1028 58 400 1 20 08:57 22.01.2021
3446 Fog -49 1028 58 400 1 40 08:30 22.01.2021
3447 Fog -49 1028 58 400 0.99 201 07:40 22.01.2021
3448 Fog -49 1029 58 200 0.87 225 04:39 22.01.2021
3449 Fog -50 1028 51 250 1 340 00:54 22.01.2021
3450 Fog -50 1028 57 200 1.25 256 00:25 22.01.2021
3451 Fog -50 1028 57 200 1.25 256 23:42 21.01.2021
3452 Fog -49 1028 51 300 1.23 252 22:59 21.01.2021
3453 Fog -49 1028 58 250 1.23 252 22:41 21.01.2021
3454 Fog -49 1028 58 250 1.25 254 21:44 21.01.2021
3455 Fog -48 1028 52 200 1.2 255 21:23 21.01.2021
3456 Fog -48 1029 52 150 1.2 255 20:57 21.01.2021
3457 Fog -49 1029 58 200 1.2 255 20:39 21.01.2021
3458 Fog -49 1029 58 200 1.22 259 20:18 21.01.2021
3459 Fog -49 1029 58 300 1.22 259 19:46 21.01.2021
3460 Fog -49 1029 58 300 1.28 254 19:24 21.01.2021
3461 Fog -48 1028 52 150 1.28 254 18:42 21.01.2021
3462 Fog -48 1028 52 150 1.31 253 18:21 21.01.2021
3463 Fog -49 1028 58 300 1.31 253 17:57 21.01.2021
3464 Fog -48 1028 58 700 1.34 250 17:21 21.01.2021
3465 Fog -47 1028 58 700 1 240 16:55 21.01.2021
3466 Fog -47 1028 58 450 1 230 16:37 21.01.2021
3467 Fog -47 1028 58 450 1 230 16:18 21.01.2021
3468 Fog -47 1028 58 400 2 240 15:46 21.01.2021
3469 Fog -47 1028 58 350 2 230 15:24 21.01.2021
3470 Mist -47 1028 58 1800 2 240 14:44 21.01.2021
3471 Mist -47 1028 58 5000 2 250 14:23 21.01.2021
3472 Clear -46 1028 58 10000 2 250 13:43 21.01.2021
3473 Clear -46 1028 58 10000 2 250 13:23 21.01.2021
3474 Clear -46 1028 58 10000 2 250 12:42 21.01.2021
3475 Clear -46 1028 58 10000 2 250 12:24 21.01.2021
3476 Clear -46 1027 58 10000 2 250 11:51 21.01.2021
3477 Clear -45 1027 53 10000 2 250 11:28 21.01.2021
3478 Clear -45 1027 59 10000 2 240 10:52 21.01.2021
3479 Clear -45 1027 59 10000 2 250 10:33 21.01.2021
3480 Clear -45 1027 59 10000 2 250 09:45 21.01.2021
3481 Clear -45 1026 59 10000 2 250 09:25 21.01.2021
3482 Clear -44 1026 53 10000 2 260 08:45 21.01.2021
3483 Clear -44 1026 59 10000 3 260 08:25 21.01.2021
3484 Clear -43 1025 59 10000 3 260 07:28 21.01.2021
3485 Clear -43 1025 59 10000 2 270 06:58 21.01.2021
3486 Clear -43 1024 59 10000 4 280 05:22 21.01.2021
3487 Mist -45 1023 65 3200 2 260 02:58 21.01.2021
3488 Fog -48 1022 58 550 1.96 281 01:21 21.01.2021
3489 Fog -47 1021 58 400 1.79 290 23:56 20.01.2021
3490 Fog -47 1021 58 350 1.79 290 23:36 20.01.2021
3491 Fog -47 1021 58 350 1.66 294 23:18 20.01.2021
3492 Fog -47 1021 52 800 1.66 294 22:46 20.01.2021
3493 Fog -47 1021 58 450 1.38 290 22:28 20.01.2021
3494 Fog -47 1020 58 550 1.38 290 21:41 20.01.2021
3495 Fog -47 1020 58 550 1.28 295 21:22 20.01.2021
3496 Fog -47 1020 58 450 1.28 295 20:50 20.01.2021
3497 Fog -47 1020 52 350 1.13 300 20:19 20.01.2021
3498 Fog -47 1020 58 500 1.13 300 19:46 20.01.2021
3499 Fog -47 1019 58 900 1 310 19:26 20.01.2021
3500 Fog -46 1019 58 400 1.19 324 18:42 20.01.2021
3501 Fog -46 1019 58 400 1.08 321 18:19 20.01.2021
3502 Fog -46 1019 58 700 1 280 17:42 20.01.2021
3503 Fog -46 1019 58 700 1 280 17:23 20.01.2021
3504 Fog -46 1019 58 750 2 300 16:44 20.01.2021
3505 Fog -45 1018 59 900 2 310 15:56 20.01.2021
3506 Fog -45 1018 59 900 1 320 15:36 20.01.2021
3507 Fog -45 1018 59 900 1 300 14:52 20.01.2021
3508 Fog -45 1018 59 250 1 360 14:29 20.01.2021
3509 Fog -45 1018 59 350 1.8 0 13:59 20.01.2021
3510 Fog -45 1018 59 750 1 360 13:36 20.01.2021
3511 Fog -45 1017 59 900 2 20 12:54 20.01.2021
3512 Fog -45 1017 65 800 2 10 12:22 20.01.2021
3513 Fog -45 1017 59 650 1 360 11:39 20.01.2021
3514 Fog -45 1017 59 650 1 360 11:39 20.01.2021
3515 Fog -45 1017 59 650 1 360 11:18 20.01.2021
3516 Fog -45 1017 59 500 2 350 10:44 20.01.2021
3517 Fog -45 1017 59 800 2 40 10:18 20.01.2021
3518 Fog -45 1017 59 900 2 40 09:38 20.01.2021
3519 Fog -45 1017 59 900 2 20 09:18 20.01.2021
3520 Mist -45 1017 59 1600 2 20 08:41 20.01.2021
3521 Mist -45 1017 59 1600 2 20 08:20 20.01.2021
3522 Mist -45 1016 59 1600 1 20 07:37 20.01.2021
3523 Mist -45 1016 59 1500 2 30 06:59 20.01.2021
3524 Fog -47 1017 58 800 1 10 03:37 20.01.2021
3525 Fog -48 1017 52 800 2.2 69 01:51 20.01.2021
3526 Fog -49 1018 51 800 1 10 00:52 20.01.2021
3527 Fog -50 1018 57 800 1.9 69 23:54 19.01.2021
3528 Fog -50 1018 57 900 1.9 69 23:34 19.01.2021
3529 Fog -50 1018 57 900 1.9 69 23:34 19.01.2021
3530 Fog -50 1018 57 700 2 67 22:58 19.01.2021
3531 Fog -50 1018 51 500 2 67 22:39 19.01.2021
3532 Fog -50 1018 51 500 1.81 70 22:21 19.01.2021
3533 Fog -50 1019 51 800 1 20 21:54 19.01.2021
3534 Fog -51 1018 57 800 1.81 70 21:34 19.01.2021
3535 Fog -51 1019 57 600 1.73 70 20:49 19.01.2021
3536 Fog -51 1019 57 800 1.74 71 20:28 19.01.2021
3537 Fog -51 1019 51 650 1.74 71 19:56 19.01.2021
3538 Fog -51 1019 51 550 1.74 71 19:36 19.01.2021
3539 Fog -51 1019 51 550 1.7 76 19:18 19.01.2021
3540 Fog -52 1019 57 600 1.68 75 18:38 19.01.2021
3541 Fog -52 1019 57 600 1.56 78 18:20 19.01.2021
3542 Fog -52 1019 50 450 1.56 78 17:42 19.01.2021
3543 Fog -52 1019 50 450 1.68 78 17:20 19.01.2021
3544 Fog -52 1019 50 450 1.68 78 16:40 19.01.2021
3545 Fog -52 1019 50 450 1.68 77 16:20 19.01.2021
3546 Fog -52 1019 50 400 1.68 77 15:50 19.01.2021
3547 Fog -52 1019 50 400 1.68 77 15:30 19.01.2021
3548 Fog -52 1019 50 400 1.53 77 14:44 19.01.2021
3549 Fog -52 1020 50 600 1.51 79 14:26 19.01.2021
3550 Fog -52 1020 50 500 1.51 79 13:49 19.01.2021
3551 Fog -52 1020 50 600 1.79 76 13:23 19.01.2021
3552 Fog -52 1020 50 700 1.79 76 12:51 19.01.2021
3553 Fog -52 1020 50 600 1.64 77 12:30 19.01.2021
3554 Fog -52 1020 50 500 1.65 72 11:52 19.01.2021
3555 Fog -52 1020 50 500 1.4 74 11:29 19.01.2021
3556 Fog -52 1021 50 500 1.4 74 10:59 19.01.2021
3557 Fog -53 1020 56 450 1.4 74 10:40 19.01.2021
3558 Fog -53 1020 56 450 1.33 76 10:18 19.01.2021
3559 Fog -53 1020 50 450 1.33 76 09:42 19.01.2021
3560 Fog -53 1020 50 450 1.43 69 09:19 19.01.2021
3561 Fog -53 1021 50 350 1.43 69 08:33 19.01.2021
3562 Fog -53 1021 50 500 1.63 58 07:51 19.01.2021
3563 Fog -52 1021 57 450 1.17 60 06:59 19.01.2021
3564 Fog -52 1021 50 900 0.62 69 04:18 19.01.2021
3565 Fog -53 1022 50 900 0.82 87 02:22 19.01.2021
3566 Fog -53 1022 50 350 0.69 77 00:34 19.01.2021
3567 Fog -53 1022 50 350 0.56 73 23:47 18.01.2021
3568 Fog -53 1023 50 300 0.58 91 23:23 18.01.2021
3569 Mist -52 1023 50 3200 0.58 91 22:41 18.01.2021
3570 Mist -52 1023 50 3200 0.85 85 22:21 18.01.2021
3571 Mist -52 1023 50 3200 0.85 85 21:47 18.01.2021
3572 Fog -52 1023 57 500 0.69 76 21:22 18.01.2021
3573 Fog -52 1022 50 700 0.69 76 20:55 18.01.2021
3574 Fog -52 1023 57 600 0.69 76 20:33 18.01.2021
3575 Fog -52 1023 57 500 0.49 74 19:54 18.01.2021
3576 Fog -51 1023 51 500 0.49 74 19:34 18.01.2021
3577 Fog -51 1023 51 550 0.26 116 18:48 18.01.2021
3578 Fog -51 1023 51 650 0.29 121 18:26 18.01.2021
3579 Fog -51 1023 51 650 0.29 121 17:47 18.01.2021
3580 Fog -51 1023 57 450 0.47 121 17:29 18.01.2021
3581 Fog -50 1023 51 350 0.47 121 16:50 18.01.2021
3582 Fog -50 1023 51 300 0.59 111 16:27 18.01.2021
3583 Fog -50 1024 51 400 0.59 111 15:54 18.01.2021
3584 Fog -50 1024 51 400 0.59 96 15:29 18.01.2021
3585 Fog -50 1024 51 450 0.59 96 14:58 18.01.2021
3586 Fog -51 1025 57 450 0.59 96 14:38 18.01.2021
3587 Fog -51 1025 57 450 0.31 101 14:20 18.01.2021
3588 Fog -51 1025 57 450 0.31 101 13:44 18.01.2021
3589 Fog -51 1025 57 350 0.43 128 13:20 18.01.2021
3590 Fog -50 1025 51 400 0.32 138 12:46 18.01.2021
3591 Fog -50 1025 51 450 0.59 131 12:19 18.01.2021
3592 Fog -50 1026 51 450 0.59 131 11:46 18.01.2021
3593 Fog -50 1026 51 450 0.62 166 11:25 18.01.2021
3594 Fog -50 1026 57 500 0.62 166 10:47 18.01.2021
3595 Fog -50 1026 57 400 0.83 164 10:26 18.01.2021
3596 Fog -50 1026 57 400 0.83 164 09:39 18.01.2021
3597 Fog -50 1026 57 400 0.99 163 09:18 18.01.2021
3598 Fog -49 1026 51 450 1.12 167 08:26 18.01.2021
3599 Fog -49 1026 51 500 1.12 167 07:54 18.01.2021
3600 Fog -49 1026 58 700 1.32 186 06:35 18.01.2021
3601 Fog -50 1027 57 350 1.22 189 04:43 18.01.2021
3602 Fog -50 1027 51 250 1.12 201 04:25 18.01.2021
3603 Fog -50 1027 51 250 1.12 201 03:50 18.01.2021
3604 Fog -51 1027 57 150 1.05 213 03:27 18.01.2021
3605 Fog -51 1027 51 150 1.05 213 02:57 18.01.2021
3606 Fog -51 1028 51 100 1.14 230 02:19 18.01.2021
3607 Fog -51 1028 57 150 1.34 231 00:41 18.01.2021
3608 Fog -50 1028 51 150 1.35 230 23:57 17.01.2021
3609 Fog -49 1028 51 200 1.35 230 23:39 17.01.2021
3610 Fog -49 1028 51 200 1.39 235 23:19 17.01.2021
3611 Fog -48 1028 52 200 1.43 241 22:24 17.01.2021
3612 Fog -48 1028 58 300 1.43 241 21:45 17.01.2021
3613 Fog -48 1028 58 250 1.35 244 21:27 17.01.2021
3614 Fog -49 1028 58 250 1.35 244 20:55 17.01.2021
3615 Fog -48 1028 52 250 1.35 244 20:37 17.01.2021
3616 Fog -48 1028 52 250 1.29 247 20:18 17.01.2021
3617 Fog -47 1028 52 350 1.29 247 19:40 17.01.2021
3618 Fog -47 1028 58 400 1.32 250 18:58 17.01.2021
3619 Fog -47 1028 58 500 1.26 250 18:30 17.01.2021
3620 Fog -46 1028 58 400 1.46 255 17:54 17.01.2021
3621 Fog -46 1028 58 350 1.46 255 17:35 17.01.2021
3622 Fog -46 1028 58 300 1.62 257 16:57 17.01.2021
3623 Fog -47 1028 58 300 1.62 257 16:39 17.01.2021
3624 Fog -47 1028 58 300 1.7 257 16:19 17.01.2021
3625 Fog -47 1029 58 300 1.7 257 15:38 17.01.2021
3626 Fog -47 1029 58 300 1.73 258 15:19 17.01.2021
3627 Fog -46 1028 58 200 1.73 258 14:44 17.01.2021
3628 Fog -45 1028 53 150 1.72 261 14:25 17.01.2021
3629 Fog -45 1029 59 150 1.72 261 13:44 17.01.2021
3630 Fog -45 1029 59 150 1.84 263 13:26 17.01.2021
3631 Fog -44 1029 59 200 2.23 264 12:47 17.01.2021
3632 Fog -45 1029 59 200 2.27 267 12:28 17.01.2021
3633 Fog -45 1029 59 150 2.27 267 11:41 17.01.2021
3634 Fog -45 1029 59 150 2.31 269 11:21 17.01.2021
3635 Fog -44 1028 59 250 2.31 269 10:42 17.01.2021
3636 Fog -44 1028 59 250 2.46 267 10:19 17.01.2021
3637 Fog -43 1028 59 200 2.45 265 09:19 17.01.2021
3638 Fog -42 1028 60 150 2.45 265 08:43 17.01.2021
3639 Fog -41 1027 60 900 2.14 275 06:29 17.01.2021
3640 Fog -42 1027 66 550 1.57 264 04:28 17.01.2021
3641 Fog -43 1028 59 400 1.31 267 02:38 17.01.2021
3642 Fog -44 1027 59 650 1.51 281 00:38 17.01.2021
3643 Fog -44 1027 59 650 1.3 276 00:18 17.01.2021
3644 Fog -45 1027 65 450 1.3 276 23:48 16.01.2021
3645 Fog -44 1027 59 800 1.27 276 23:19 16.01.2021
3646 Fog -45 1027 53 600 1.27 276 22:34 16.01.2021
3647 Fog -46 1027 58 650 1.22 276 21:58 16.01.2021
3648 Fog -46 1028 58 600 1.12 274 21:24 16.01.2021
3649 Fog -46 1028 58 600 1.12 274 20:53 16.01.2021
3650 Fog -46 1028 58 550 1.12 274 20:30 16.01.2021
3651 Fog -46 1027 58 450 1.07 284 19:55 16.01.2021
3652 Fog -46 1027 58 600 1.07 284 19:37 16.01.2021
3653 Fog -46 1027 58 600 1.09 290 19:18 16.01.2021
3654 Mist -45 1027 59 2400 1.17 301 18:40 16.01.2021
3655 Snow -45 1027 59 2400 1.15 304 18:20 16.01.2021
3656 Snow -45 1027 59 2400 1.15 304 17:41 16.01.2021
3657 Snow -45 1027 59 2400 1.11 305 17:21 16.01.2021
3658 Snow -46 1027 58 2400 1 280 16:45 16.01.2021
3659 Mist -45 1027 59 2400 1.13 308 16:25 16.01.2021
3660 Fog -45 1027 59 900 1.13 308 15:48 16.01.2021
3661 Fog -46 1027 58 900 1.16 313 14:59 16.01.2021
3662 Fog -46 1027 58 750 1.22 322 14:19 16.01.2021
3663 Fog -46 1027 58 900 1.22 322 13:48 16.01.2021
3664 Fog -46 1027 58 900 1.18 328 13:21 16.01.2021
3665 Fog -47 1027 58 300 1.18 327 12:39 16.01.2021
3666 Fog -47 1027 58 300 1.3 332 12:20 16.01.2021
3667 Fog -47 1026 58 300 1.3 332 11:46 16.01.2021
3668 Fog -47 1026 58 250 1.44 341 11:24 16.01.2021
3669 Fog -47 1026 58 350 1.44 341 10:45 16.01.2021
3670 Fog -47 1026 58 350 1.53 347 10:19 16.01.2021
3671 Fog -47 1025 58 600 1.53 347 09:32 16.01.2021
3672 Fog -47 1025 52 700 1.62 351 08:35 16.01.2021
3673 Fog -47 1024 58 550 1.66 355 07:31 16.01.2021
3674 Fog -47 1024 52 700 1.83 358 06:43 16.01.2021
3675 Fog -48 1024 58 800 1.66 3 04:39 16.01.2021
3676 Fog -49 1023 58 500 1.92 13 02:56 16.01.2021
3677 Fog -50 1023 57 100 1.82 8 00:50 16.01.2021
3678 Fog -50 1023 57 200 1.78 6 00:28 16.01.2021
3679 Fog -50 1023 57 250 1.78 6 23:55 15.01.2021
3680 Fog -50 1023 51 250 1.73 10 23:21 15.01.2021
3681 Fog -50 1023 57 150 1.83 16 22:25 15.01.2021
3682 Fog -50 1023 51 250 1.83 16 21:46 15.01.2021
3683 Fog -49 1023 51 500 1.85 17 20:59 15.01.2021
3684 Fog -49 1023 51 300 1.85 17 20:40 15.01.2021
3685 Fog -49 1023 51 300 1.87 20 20:22 15.01.2021
3686 Fog -49 1023 58 300 1.87 20 19:41 15.01.2021
3687 Fog -49 1023 58 300 1.79 19 19:22 15.01.2021
3688 Fog -49 1023 58 250 2.01 17 18:44 15.01.2021
3689 Fog -49 1023 58 250 1.98 15 18:19 15.01.2021
3690 Fog -49 1023 58 200 1.98 15 17:52 15.01.2021
3691 Fog -49 1023 51 150 1.8 18 17:26 15.01.2021
3692 Fog -49 1022 58 200 1.8 18 16:55 15.01.2021
3693 Fog -49 1022 58 250 1.72 20 16:26 15.01.2021
3694 Fog -49 1023 51 200 1.72 20 15:44 15.01.2021
3695 Fog -49 1023 58 200 1.86 23 15:23 15.01.2021
3696 Fog -49 1023 51 150 1.86 23 14:56 15.01.2021
3697 Fog -49 1023 58 250 1.86 23 14:37 15.01.2021
3698 Fog -49 1023 58 250 2.05 24 14:18 15.01.2021
3699 Fog -49 1023 58 200 2.05 24 13:40 15.01.2021
3700 Fog -49 1023 58 200 2.21 25 13:19 15.01.2021
3701 Fog -49 1023 58 300 2.2 26 12:37 15.01.2021
3702 Fog -49 1023 58 300 1.9 25 12:19 15.01.2021
3703 Fog -49 1023 51 450 1.9 25 11:42 15.01.2021
3704 Fog -49 1023 58 450 1.8 31 10:58 15.01.2021
3705 Fog -49 1023 58 300 1.81 31 10:39 15.01.2021
3706 Fog -49 1023 58 300 1.83 35 10:21 15.01.2021
3707 Fog -49 1023 58 350 1.83 35 09:47 15.01.2021
3708 Fog -49 1023 58 400 1.97 35 09:27 15.01.2021
3709 Fog -48 1023 52 550 2.09 32 08:27 15.01.2021
3710 Fog -48 1023 52 550 2.09 32 07:44 15.01.2021
3711 Fog -48 1023 58 500 2.09 33 07:22 15.01.2021
3712 Fog -48 1023 58 800 1.82 36 06:28 15.01.2021
3713 Fog -50 1024 51 400 1.38 54 02:28 15.01.2021
3714 Fog -50 1024 51 350 1.48 52 00:41 15.01.2021
3715 Fog -51 1024 57 350 1.39 52 23:30 14.01.2021
3716 Fog -51 1024 57 350 1.25 58 22:56 14.01.2021
3717 Fog -51 1024 57 300 1.25 58 22:36 14.01.2021
3718 Fog -51 1024 57 300 1.25 58 22:36 14.01.2021
3719 Fog -51 1024 57 300 1.29 55 22:18 14.01.2021
3720 Fog -51 1024 57 350 1.29 55 21:39 14.01.2021
3721 Fog -51 1024 57 350 1.21 53 21:20 14.01.2021
3722 Fog -51 1024 57 250 1.21 53 20:44 14.01.2021
3723 Fog -51 1024 57 400 1.05 52 19:59 14.01.2021
3724 Fog -51 1024 57 400 1.05 52 19:38 14.01.2021
3725 Fog -51 1024 57 400 1.18 61 19:18 14.01.2021
3726 Fog -50 1025 51 300 1.18 61 18:42 14.01.2021
3727 Fog -50 1025 51 300 1.14 66 17:59 14.01.2021
3728 Fog -50 1025 51 300 1.14 66 17:59 14.01.2021
3729 Fog -50 1025 51 300 1.14 66 17:59 14.01.2021
3730 Fog -50 1025 51 250 1.14 66 17:38 14.01.2021
3731 Fog -50 1025 51 250 0.97 64 17:19 14.01.2021
3732 Fog -50 1025 51 400 0.97 64 16:37 14.01.2021
3733 Fog -50 1025 57 150 0.88 72 15:55 14.01.2021
3734 Fog -49 1025 51 200 0.88 72 15:34 14.01.2021
3735 Fog -50 1025 57 200 0.88 64 14:49 14.01.2021
3736 Fog -50 1025 57 250 0.88 64 14:31 14.01.2021
3737 Fog -50 1025 51 250 0.96 64 13:57 14.01.2021
3738 Fog -50 1025 51 200 0.9 68 13:26 14.01.2021
3739 Fog -50 1025 51 150 0.88 69 12:59 14.01.2021
3740 Fog -50 1025 51 200 0.88 69 12:38 14.01.2021
3741 Fog -50 1025 51 200 0.79 71 12:18 14.01.2021
3742 Fog -50 1025 51 250 0.79 71 11:41 14.01.2021
3743 Fog -50 1025 51 250 0.59 76 11:20 14.01.2021
3744 Fog -50 1025 51 250 0.59 76 10:47 14.01.2021
3745 Fog -50 1025 51 350 0.57 68 10:20 14.01.2021
3746 Fog -50 1025 57 300 0.57 68 09:44 14.01.2021
3747 Fog -49 1025 51 300 0.57 67 09:22 14.01.2021
3748 Fog -50 1024 57 300 0.57 67 08:43 14.01.2021
3749 Fog -49 1025 51 500 0.75 61 08:22 14.01.2021
3750 Fog -49 1024 51 500 0.75 62 07:45 14.01.2021
3751 Fog -49 1024 58 600 0.67 69 06:43 14.01.2021
3752 Fog -49 1024 51 500 0.41 83 05:34 14.01.2021
3753 Fog -50 1024 51 300 0.63 55 00:36 14.01.2021
3754 Fog -50 1023 51 400 0.54 38 23:49 13.01.2021
3755 Fog -50 1023 57 450 0.36 37 23:21 13.01.2021
3756 Fog -50 1023 57 250 0.51 54 22:28 13.01.2021
3757 Fog -50 1023 57 250 0.51 54 21:50 13.01.2021
3758 Fog -50 1023 57 400 0.78 59 21:28 13.01.2021
3759 Fog -50 1024 57 450 0.78 59 20:57 13.01.2021
3760 Fog -50 1023 57 350 1 49 20:29 13.01.2021
3761 Fog -49 1023 51 300 1 49 19:57 13.01.2021
3762 Fog -49 1023 51 300 1 49 19:37 13.01.2021
3763 Fog -49 1023 51 300 1 36 19:18 13.01.2021
3764 Fog -50 1023 57 350 0.86 33 18:37 13.01.2021
3765 Fog -49 1023 51 300 0.78 33 17:51 13.01.2021
3766 Fog -49 1023 51 300 0.64 53 17:24 13.01.2021
3767 Fog -49 1023 51 250 0.64 53 16:50 13.01.2021
3768 Fog -49 1023 51 250 0.73 57 16:22 13.01.2021
3769 Fog -49 1023 58 250 0.73 57 15:52 13.01.2021
3770 Fog -49 1023 58 250 0.73 57 15:34 13.01.2021
3771 Fog -49 1023 58 250 0.98 47 14:46 13.01.2021
3772 Fog -49 1023 58 350 1.33 40 13:53 13.01.2021
3773 Fog -49 1023 58 550 1.37 38 13:27 13.01.2021
3774 Fog -48 1023 52 550 1.37 38 12:47 13.01.2021
3775 Fog -48 1023 58 450 1.35 31 12:28 13.01.2021
3776 Fog -48 1023 58 450 1.35 31 11:55 13.01.2021
3777 Fog -48 1022 58 300 1.35 31 11:35 13.01.2021
3778 Fog -48 1022 52 400 1.3 23 10:56 13.01.2021
3779 Fog -48 1022 52 450 1.3 23 10:37 13.01.2021
3780 Fog -48 1022 52 450 1.18 24 10:18 13.01.2021
3781 Fog -49 1022 58 350 1.18 24 09:31 13.01.2021
3782 Fog -49 1022 58 400 1.28 27 08:52 13.01.2021
3783 Fog -49 1022 58 400 1.28 27 08:31 13.01.2021
3784 Fog -48 1021 52 450 1.46 26 07:35 13.01.2021
3785 Fog -48 1021 58 400 1.54 29 06:56 13.01.2021
3786 Fog -48 1021 52 400 0.9 48 04:21 13.01.2021
3787 Fog -49 1021 58 400 0.9 48 03:48 13.01.2021
3788 Fog -49 1021 58 350 1.09 49 03:29 13.01.2021
3789 Fog -50 1021 57 350 1.26 42 01:32 13.01.2021
3790 Fog -50 1021 57 400 1.21 37 00:29 13.01.2021
3791 Fog -50 1020 57 350 1.21 41 23:24 12.01.2021
3792 Fog -50 1020 57 450 1.21 41 22:47 12.01.2021
3793 Fog -50 1020 51 400 1.32 45 22:24 12.01.2021
3794 Fog -50 1020 51 450 1.32 45 21:53 12.01.2021
3795 Fog -50 1020 51 450 1.32 45 21:31 12.01.2021
3796 Fog -50 1020 51 400 1.38 49 20:53 12.01.2021
3797 Fog -50 1020 57 450 1.49 43 20:29 12.01.2021
3798 Fog -50 1020 57 350 1.49 43 19:56 12.01.2021
3799 Fog -50 1020 57 400 1.49 43 19:37 12.01.2021
3800 Fog -50 1019 57 350 1.44 44 18:51 12.01.2021
3801 Fog -50 1019 57 500 1.15 57 18:25 12.01.2021
3802 Fog -50 1019 57 500 1.15 57 17:55 12.01.2021
3803 Fog -50 1019 57 450 1.15 57 17:31 12.01.2021
3804 Fog -50 1019 57 450 1.15 57 17:31 12.01.2021
3805 Fog -50 1019 57 400 1.04 53 16:44 12.01.2021
3806 Fog -50 1019 57 300 1.01 50 16:25 12.01.2021
3807 Fog -49 1019 51 550 1.01 50 15:45 12.01.2021
3808 Fog -49 1019 51 400 1.1 54 15:22 12.01.2021
3809 Fog -49 1019 51 400 1.1 54 14:47 12.01.2021
3810 Fog -49 1019 51 500 1.18 55 14:26 12.01.2021
3811 Fog -50 1019 57 550 1 360 13:53 12.01.2021
3812 Fog -50 1019 57 500 1.18 55 13:33 12.01.2021
3813 Fog -50 1019 57 450 1.3 49 12:33 12.01.2021
3814 Fog -50 1018 57 500 1.21 51 11:42 12.01.2021
3815 Fog -50 1018 57 400 0.99 61 10:59 12.01.2021
3816 Fog -50 1018 51 500 0.99 61 10:40 12.01.2021
3817 Fog -50 1018 51 500 1.05 61 10:19 12.01.2021
3818 Fog -50 1018 51 450 1.05 61 09:43 12.01.2021
3819 Fog -50 1018 57 400 1.27 52 09:22 12.01.2021
3820 Fog -50 1018 57 550 1.46 45 08:27 12.01.2021
3821 Fog -50 1017 57 600 1.46 45 07:44 12.01.2021
3822 Fog -49 1017 51 750 1.65 38 07:26 12.01.2021
3823 Fog -49 1017 58 750 1.28 38 05:45 12.01.2021
3824 Fog -49 1017 58 800 1.06 61 03:46 12.01.2021
3825 Fog -49 1017 51 800 1.15 62 03:22 12.01.2021
3826 Fog -50 1017 57 550 1 360 01:51 12.01.2021
3827 Fog -50 1017 51 500 0.94 69 00:33 12.01.2021
3828 Fog -50 1016 51 550 1.04 70 23:41 11.01.2021
3829 Fog -50 1016 51 550 0.97 76 23:19 11.01.2021
3830 Fog -50 1016 51 450 0.97 76 22:45 11.01.2021
3831 Fog -50 1016 51 350 1.01 76 22:27 11.01.2021
3832 Fog -50 1017 51 550 1.01 76 21:46 11.01.2021
3833 Fog -50 1017 57 300 1.15 74 21:25 11.01.2021
3834 Fog -49 1017 51 350 1.15 74 20:58 11.01.2021
3835 Fog -50 1017 57 1200 1.14 77 20:37 11.01.2021
3836 Fog -50 1017 57 1200 1.06 77 20:19 11.01.2021
3837 Fog -49 1017 58 550 1.06 77 19:42 11.01.2021
3838 Fog -49 1017 58 550 0.9 86 19:21 11.01.2021
3839 Fog -49 1017 58 450 0.9 86 18:42 11.01.2021
3840 Fog -49 1017 58 450 0.84 93 18:23 11.01.2021
3841 Fog -49 1017 58 800 0.84 93 17:42 11.01.2021
3842 Fog -49 1017 58 800 0.71 113 17:24 11.01.2021
3843 Fog -49 1017 58 600 0.71 113 16:48 11.01.2021
3844 Fog -48 1017 52 650 0.84 117 16:29 11.01.2021
3845 Fog -48 1018 58 900 0.84 117 15:54 11.01.2021
3846 Fog -48 1018 58 900 0.84 117 15:34 11.01.2021
3847 Fog -48 1018 58 900 1 115 14:51 11.01.2021
3848 Mist -47 1018 52 1500 1 115 14:32 11.01.2021
3849 Mist -47 1018 58 2400 0.96 118 13:45 11.01.2021
3850 Mist -47 1018 52 2400 0.78 132 13:22 11.01.2021
3851 Mist -47 1018 58 1300 0.83 123 12:42 11.01.2021
3852 Mist -47 1018 58 1300 0.92 132 12:24 11.01.2021
3853 Mist -47 1018 58 1000 0.92 132 11:45 11.01.2021
3854 Mist -47 1018 58 1200 0.98 142 10:59 11.01.2021
3855 Mist -47 1018 58 1200 0.98 142 10:39 11.01.2021
3856 Fog -47 1019 58 900 1.01 144 09:59 11.01.2021
3857 Fog -47 1019 58 900 1.01 144 09:36 11.01.2021
3858 Fog -47 1019 58 900 1.01 144 09:36 11.01.2021
3859 Fog -47 1019 58 900 1.03 141 08:52 11.01.2021
3860 Fog -47 1019 58 600 1.03 141 08:34 11.01.2021
3861 Fog -47 1019 58 500 1 138 07:48 11.01.2021
3862 Fog -46 1019 58 550 0.85 136 07:25 11.01.2021
3863 Fog -46 1019 52 450 0.81 147 06:49 11.01.2021
3864 Fog -47 1020 58 650 1.14 160 02:52 11.01.2021
3865 Fog -47 1020 58 750 0.99 152 00:57 11.01.2021
3866 Fog -47 1020 58 800 1.02 156 23:48 10.01.2021
3867 Fog -46 1020 58 900 1.04 161 23:23 10.01.2021
3868 Fog -46 1020 58 1200 1.04 161 22:44 10.01.2021
3869 Fog -46 1020 58 1300 0.96 151 22:20 10.01.2021
3870 Snow -46 1021 58 900 0.96 151 21:41 10.01.2021
3871 Fog -46 1021 58 900 0.89 157 21:19 10.01.2021
3872 Snow -45 1021 59 750 0.89 157 20:49 10.01.2021
3873 Snow -45 1021 59 800 0.78 156 20:27 10.01.2021
3874 Fog -45 1021 59 500 0.78 156 19:42 10.01.2021
3875 Fog -45 1021 59 500 0.6 147 19:23 10.01.2021
3876 Fog -45 1021 59 500 0.6 147 18:45 10.01.2021
3877 Fog -45 1021 59 550 0.94 163 18:20 10.01.2021
3878 Fog -45 1021 59 550 0.94 163 18:20 10.01.2021
3879 Fog -44 1021 59 400 0.95 171 17:26 10.01.2021
3880 Fog -44 1021 59 350 0.95 171 16:51 10.01.2021
3881 Fog -44 1021 66 350 0.95 171 16:31 10.01.2021
3882 Fog -44 1021 59 250 1.13 175 15:42 10.01.2021
3883 Fog -44 1021 59 250 1.07 176 15:24 10.01.2021
3884 Fog -44 1021 59 350 1.07 176 14:41 10.01.2021
3885 Fog -44 1021 59 350 0.89 170 14:23 10.01.2021
3886 Fog -44 1021 59 750 0.89 170 13:48 10.01.2021
3887 Fog -44 1021 66 450 0.69 158 13:27 10.01.2021
3888 Fog -44 1021 66 450 0.69 158 12:59 10.01.2021
3889 Fog -43 1021 59 500 0.67 168 12:41 10.01.2021
3890 Fog -43 1021 59 750 0.43 171 11:57 10.01.2021
3891 Fog -43 1021 59 600 0.43 218 11:21 10.01.2021
3892 Fog -43 1021 59 500 0.43 218 10:53 10.01.2021
3893 Fog -43 1021 59 650 0.68 232 10:25 10.01.2021
3894 Fog -43 1021 59 600 0.68 232 09:46 10.01.2021
3895 Fog -43 1020 59 550 0.66 226 08:50 10.01.2021
3896 Fog -43 1020 59 550 0.52 212 08:18 10.01.2021
3897 Fog -42 1019 60 800 0.26 211 07:27 10.01.2021
3898 Fog -42 1019 66 500 0.34 266 06:18 10.01.2021
3899 Fog -42 1019 60 350 0.34 266 05:34 10.01.2021
3900 Fog -45 1019 59 650 0.81 281 02:42 10.01.2021
3901 Snow -43 1018 59 1100 1.04 305 00:38 10.01.2021
3902 Mist -44 1018 66 1100 1.22 315 23:42 09.01.2021
3903 Mist -44 1018 66 1100 1.47 316 23:23 09.01.2021
3904 Mist -44 1017 66 1300 1 310 22:25 09.01.2021
3905 Fog -44 1017 59 900 1.83 311 21:59 09.01.2021
3906 Fog -45 1017 59 900 1.83 311 21:40 09.01.2021
3907 Fog -45 1017 59 900 1.75 315 21:21 09.01.2021
3908 Fog -45 1017 59 500 1.75 315 20:59 09.01.2021
3909 Fog -45 1017 59 650 1.75 315 20:38 09.01.2021
3910 Fog -44 1017 59 550 1.55 316 19:44 09.01.2021
3911 Fog -44 1017 59 250 1.31 320 19:22 09.01.2021
3912 Fog -44 1016 59 350 1.36 324 18:39 09.01.2021
3913 Fog -44 1016 59 350 1.17 323 18:20 09.01.2021
3914 Fog -44 1016 59 450 1.17 323 17:45 09.01.2021
3915 Fog -44 1016 59 400 0.94 325 17:27 09.01.2021
3916 Fog -45 1015 65 250 0.94 325 16:32 09.01.2021
3917 Fog -45 1015 59 300 0.82 318 15:47 09.01.2021
3918 Fog -45 1015 59 450 0.6 326 15:28 09.01.2021
3919 Fog -45 1015 65 500 0.6 326 14:40 09.01.2021
3920 Fog -45 1015 65 500 0.47 12 14:20 09.01.2021
3921 Fog -44 1015 59 400 0.47 12 13:47 09.01.2021
3922 Fog -44 1015 59 450 0.61 17 13:29 09.01.2021
3923 Fog -44 1015 59 400 0.68 357 12:48 09.01.2021
3924 Fog -44 1015 59 300 0.58 358 12:22 09.01.2021
3925 Fog -44 1015 59 500 0.58 358 11:50 09.01.2021
3926 Fog -44 1015 59 400 0.63 325 11:29 09.01.2021
3927 Fog -44 1014 59 400 0.63 325 10:52 09.01.2021
3928 Fog -43 1014 59 350 0.63 325 10:30 09.01.2021
3929 Fog -43 1014 59 300 0.6 302 09:52 09.01.2021
3930 Fog -43 1014 59 450 0.37 293 09:25 09.01.2021
3931 Fog -41 1014 60 500 0.37 293 08:34 09.01.2021
3932 Fog -41 1013 60 600 0.56 278 06:58 09.01.2021
3933 Fog -41 1013 60 600 0.56 278 06:39 09.01.2021
3934 Fog -41 1013 60 800 0.31 269 04:47 09.01.2021
3935 Mist -42 1012 60 1300 0.43 251 03:22 09.01.2021
3936 Fog -43 1012 59 800 0.43 251 02:31 09.01.2021
3937 Fog -44 1012 66 800 0.45 276 01:46 09.01.2021
3938 Mist -43 1012 66 1200 0.22 198 00:36 09.01.2021
3939 Mist -43 1012 66 1100 0.13 358 23:57 08.01.2021
3940 Mist -42 1012 60 1100 0.36 307 22:58 08.01.2021
3941 Mist -42 1012 60 1100 0.38 340 22:18 08.01.2021
3942 Mist -42 1012 66 2100 0.38 340 21:37 08.01.2021
3943 Mist -42 1012 66 2100 1 300 20:49 08.01.2021
3944 Mist -42 1012 60 1200 1 310 20:25 08.01.2021
3945 Mist -43 1012 66 1100 1.21 348 19:55 08.01.2021
3946 Mist -44 1012 66 1200 1.23 352 19:22 08.01.2021
3947 Mist -44 1012 59 1200 1.18 347 18:36 08.01.2021
3948 Mist -44 1012 59 1200 1.34 338 18:18 08.01.2021
3949 Mist -44 1011 59 1200 1 310 17:44 08.01.2021
3950 Mist -44 1011 59 1200 1.44 335 17:20 08.01.2021
3951 Mist -44 1012 66 1500 1.44 335 16:33 08.01.2021
3952 Mist -43 1012 59 1500 1.51 344 15:43 08.01.2021
3953 Mist -44 1012 59 1000 1.69 340 14:51 08.01.2021
3954 Fog -45 1012 59 900 1.69 340 14:32 08.01.2021
3955 Fog -45 1012 59 350 1.91 354 13:39 08.01.2021
3956 Fog -45 1012 59 350 2.07 357 13:18 08.01.2021
3957 Fog -44 1012 59 300 2.07 357 12:45 08.01.2021
3958 Fog -44 1012 59 450 2.29 354 12:19 08.01.2021
3959 Fog -44 1012 59 900 2.29 354 11:42 08.01.2021
3960 Fog -44 1012 59 900 2.47 4 11:23 08.01.2021
3961 Fog -44 1012 66 900 2.47 4 10:49 08.01.2021
3962 Fog -44 1012 59 600 2.58 5 10:26 08.01.2021
3963 Fog -44 1012 59 600 2.58 5 09:44 08.01.2021
3964 Fog -44 1012 59 600 2.52 6 09:25 08.01.2021
3965 Mist -44 1012 59 1200 1 360 08:23 08.01.2021
3966 Mist -43 1012 59 3200 1 30 07:25 08.01.2021
3967 Snow -43 1012 59 5000 1 10 04:47 08.01.2021
3968 Mist -42 1013 60 5000 1 40 23:46 07.01.2021
3969 Snow -42 1013 60 5000 1 40 23:46 07.01.2021
3970 Snow -42 1014 66 5000 2 30 23:28 07.01.2021
3971 Snow -42 1014 66 5000 1 40 22:44 07.01.2021
3972 Snow -41 1013 60 5000 1 30 22:25 07.01.2021
3973 Snow -41 1014 60 5000 1 30 21:42 07.01.2021
3974 Snow -41 1014 60 5000 1 30 21:24 07.01.2021
3975 Snow -42 1014 66 3200 1 50 20:46 07.01.2021
3976 Snow -41 1014 60 5000 1 30 20:28 07.01.2021
3977 Snow -41 1014 60 5000 1 10 19:43 07.01.2021
3978 Snow -42 1015 66 5000 1 20 19:20 07.01.2021
3979 Mist -42 1015 60 5000 1 20 18:30 07.01.2021
3980 Snow -42 1015 60 3200 1 10 17:42 07.01.2021
3981 Snow -42 1015 60 3200 1 10 17:22 07.01.2021
3982 Snow -43 1016 66 3200 2.12 31 16:53 07.01.2021
3983 Snow -43 1016 59 3200 1 20 16:27 07.01.2021
3984 Mist -43 1017 59 3200 1 360 15:40 07.01.2021
3985 Mist -43 1017 59 5000 2.12 41 14:55 07.01.2021
3986 Snow -44 1017 66 5000 1 10 14:27 07.01.2021
3987 Snow -43 1017 59 5000 1.89 44 13:45 07.01.2021
3988 Snow -43 1017 59 5000 1 360 13:18 07.01.2021
3989 Mist -43 1018 59 5000 1 360 12:42 07.01.2021
3990 Snow -42 1018 57 5000 1 10 11:55 07.01.2021
3991 Snow -42 1019 64 5000 1 10 11:36 07.01.2021
3992 Snow -41 1019 64 5000 1 20 10:50 07.01.2021
3993 Snow -41 1019 64 5000 1 20 10:31 07.01.2021
3994 Snow -41 1019 64 5000 1 30 09:48 07.01.2021
3995 Snow -41 1019 64 3200 1 40 09:20 07.01.2021
3996 Snow -41 1019 64 3200 1 20 08:29 07.01.2021
3997 Snow -41 1020 57 2400 1 30 07:53 07.01.2021
3998 Snow -41 1020 57 2400 1 30 07:30 07.01.2021
3999 Snow -41 1021 57 2400 1 20 05:26 07.01.2021
4000 Mist -43 1024 57 3200 1.05 86 00:32 07.01.2021
4001 Snow -43 1024 57 2400 0.98 96 23:51 06.01.2021
4002 Snow -44 1024 63 1400 0.99 95 22:47 06.01.2021
4003 Mist -44 1025 57 1500 1 98 21:56 06.01.2021
4004 Snow -44 1025 57 1500 1 98 21:38 06.01.2021
4005 Snow -45 1025 63 1500 0.86 104 21:19 06.01.2021
4006 Mist -45 1025 63 1500 0.86 104 20:39 06.01.2021
4007 Fog -45 1026 56 900 0.9 95 20:18 06.01.2021
4008 Fog -45 1026 56 900 0.9 95 19:41 06.01.2021
4009 Fog -46 1026 56 900 0.89 95 19:22 06.01.2021
4010 Fog -46 1026 56 900 0.89 95 18:42 06.01.2021
4011 Fog -46 1027 56 900 0.78 104 18:24 06.01.2021
4012 Fog -46 1027 56 900 0.78 104 17:43 06.01.2021
4013 Fog -46 1028 56 900 0.72 107 17:25 06.01.2021
4014 Fog -46 1028 56 900 0.72 107 16:45 06.01.2021
4015 Fog -46 1028 56 800 0.67 116 16:20 06.01.2021
4016 Fog -46 1028 56 800 0.67 116 15:54 06.01.2021
4017 Fog -46 1028 56 700 0.67 116 15:32 06.01.2021
4018 Fog -46 1029 56 650 0.55 113 14:52 06.01.2021
4019 Fog -46 1029 56 650 0.65 87 14:27 06.01.2021
4020 Fog -46 1029 56 500 0.65 87 13:47 06.01.2021
4021 Fog -46 1030 56 800 0.67 71 13:24 06.01.2021
4022 Fog -46 1030 56 800 0.67 71 12:49 06.01.2021
4023 Fog -46 1030 56 800 0.56 50 12:29 06.01.2021
4024 Fog -46 1030 56 350 0.56 50 11:40 06.01.2021
4025 Fog -46 1030 56 350 0.55 79 11:21 06.01.2021
4026 Fog -46 1030 56 500 0.55 79 10:31 06.01.2021
4027 Fog -46 1030 56 800 0.41 64 09:52 06.01.2021
4028 Fog -46 1030 56 900 0.33 78 09:22 06.01.2021
4029 Fog -46 1031 56 900 0.33 78 08:41 06.01.2021
4030 Fog -45 1031 56 800 0.6 85 08:18 06.01.2021
4031 Fog -45 1031 56 800 0.38 89 07:27 06.01.2021
4032 Fog -45 1030 56 1200 0.39 47 05:53 06.01.2021
4033 Fog -45 1031 56 800 0.3 64 04:43 06.01.2021
4034 Fog -47 1032 55 400 0.18 23 02:47 06.01.2021
4035 Fog -47 1032 55 400 0.18 291 02:26 06.01.2021
4036 Fog -47 1032 49 400 0.18 291 01:35 06.01.2021
4037 Fog -47 1032 55 400 0.24 238 23:44 05.01.2021
4038 Fog -47 1032 55 200 0.18 261 22:53 05.01.2021
4039 Fog -47 1032 55 200 0.18 261 22:34 05.01.2021
4040 Fog -45 1032 56 200 0.38 265 21:59 05.01.2021
4041 Fog -45 1032 56 150 0.42 272 21:18 05.01.2021
4042 Fog -46 1032 56 200 0.42 272 20:30 05.01.2021
4043 Fog -46 1032 56 400 0.4 273 19:45 05.01.2021
4044 Fog -45 1032 56 150 0.54 265 19:24 05.01.2021
4045 Fog -45 1032 56 150 0.54 265 18:49 05.01.2021
4046 Fog -45 1032 56 150 0.84 258 18:28 05.01.2021
4047 Fog -45 1033 56 150 0.84 258 17:54 05.01.2021
4048 Fog -45 1033 56 150 0.84 258 17:32 05.01.2021
4049 Fog -46 1033 56 200 0.77 258 16:57 05.01.2021
4050 Fog -46 1033 56 200 0.77 258 16:36 05.01.2021
4051 Fog -45 1033 56 200 0.7 266 16:18 05.01.2021
4052 Fog -46 1033 56 150 0.7 266 15:40 05.01.2021
4053 Fog -46 1033 56 150 0.82 271 14:48 05.01.2021
4054 Fog -46 1033 56 150 0.88 271 14:18 05.01.2021
4055 Fog -46 1033 56 150 0.88 271 13:44 05.01.2021
4056 Fog -46 1033 56 150 0.82 276 13:20 05.01.2021
4057 Fog -46 1033 56 200 0.82 276 12:46 05.01.2021
4058 Fog -46 1033 56 150 0.83 278 12:20 05.01.2021
4059 Fog -45 1033 56 200 0.83 278 11:34 05.01.2021
4060 Fog -45 1033 56 200 0.83 278 11:33 05.01.2021
4061 Fog -45 1033 56 200 0.83 278 11:33 05.01.2021
4062 Fog -45 1033 56 200 0.83 278 11:33 05.01.2021
4063 Fog -45 1033 56 200 0.83 278 11:33 05.01.2021
4064 Fog -45 1033 56 400 0.87 279 10:46 05.01.2021
4065 Fog -45 1033 56 400 0.92 276 10:26 05.01.2021
4066 Fog -44 1033 57 450 0.92 276 09:48 05.01.2021
4067 Fog -44 1033 57 450 1.05 265 09:28 05.01.2021
4068 Fog -43 1033 57 700 1.17 253 08:25 05.01.2021
4069 Fog -44 1032 57 350 1.24 252 06:46 05.01.2021
4070 Fog -44 1033 57 150 1 267 03:56 05.01.2021
4071 Fog -47 1032 55 150 1.16 263 00:48 05.01.2021
4072 Fog -47 1032 55 150 1.13 256 23:45 04.01.2021
4073 Fog -47 1032 55 150 1.29 262 23:25 04.01.2021
4074 Fog -47 1032 55 150 1.29 262 22:49 04.01.2021
4075 Fog -47 1032 55 150 1.29 261 22:27 04.01.2021
4076 Fog -46 1032 56 350 1.29 261 21:47 04.01.2021
4077 Fog -46 1032 56 350 1.2 265 21:29 04.01.2021
4078 Fog -46 1032 50 250 1.2 265 20:43 04.01.2021
4079 Fog -46 1031 56 200 1.11 264 20:23 04.01.2021
4080 Fog -47 1031 55 200 1.11 264 19:51 04.01.2021
4081 Fog -47 1031 55 350 1.3 269 19:24 04.01.2021
4082 Fog -47 1031 55 350 1.3 269 18:54 04.01.2021
4083 Fog -46 1031 56 200 1.2 275 18:24 04.01.2021
4084 Fog -46 1031 50 150 1.2 275 17:42 04.01.2021
4085 Fog -47 1031 55 150 1.12 277 17:24 04.01.2021
4086 Fog -46 1031 56 200 1.12 277 16:46 04.01.2021
4087 Fog -46 1031 56 200 1.13 275 16:27 04.01.2021
4088 Fog -47 1031 55 200 1.13 275 15:49 04.01.2021
4089 Fog -47 1031 55 250 1 284 15:27 04.01.2021
4090 Fog -47 1031 55 250 1 284 15:27 04.01.2021
4091 Fog -47 1031 55 200 1 284 14:34 04.01.2021
4092 Fog -47 1031 55 150 0.93 278 13:46 04.01.2021
4093 Fog -47 1031 55 150 0.82 272 13:23 04.01.2021
4094 Fog -47 1031 55 200 0.84 268 12:38 04.01.2021
4095 Fog -47 1031 55 150 0.67 266 11:58 04.01.2021
4096 Fog -47 1030 55 100 0.78 259 11:22 04.01.2021
4097 Fog -47 1030 55 100 0.78 259 11:22 04.01.2021
4098 Fog -46 1030 56 250 0.78 259 10:48 04.01.2021
4099 Fog -46 1030 56 450 0.83 245 10:27 04.01.2021
4100 Fog -46 1030 56 350 0.83 245 09:51 04.01.2021
4101 Fog -46 1029 56 500 0.52 230 09:19 04.01.2021
4102 Fog -46 1029 56 550 0.52 230 08:45 04.01.2021
4103 Fog -46 1029 56 550 0.14 340 07:55 04.01.2021
4104 Fog -47 1029 55 400 0.14 340 07:31 04.01.2021
4105 Fog -47 1028 55 350 0.4 350 05:32 04.01.2021
4106 Fog -49 1028 55 250 0.61 44 02:45 04.01.2021
4107 Fog -49 1027 48 400 0.64 45 00:47 04.01.2021
4108 Fog -49 1027 48 350 0.71 31 23:49 03.01.2021
4109 Fog -49 1027 48 350 0.71 31 23:49 03.01.2021
4110 Fog -50 1027 54 250 0.79 17 23:24 03.01.2021
4111 Fog -50 1027 54 250 0.79 17 22:56 03.01.2021
4112 Fog -49 1027 48 200 0.79 17 22:32 03.01.2021
4113 Fog -50 1027 54 300 0.11 79 21:55 03.01.2021
4114 Fog -49 1027 48 300 1.31 44 21:26 03.01.2021
4115 Fog -49 1026 48 300 1.31 44 20:49 03.01.2021
4116 Fog -49 1026 48 300 1.31 44 20:31 03.01.2021
4117 Fog -49 1026 48 500 1.23 33 19:56 03.01.2021
4118 Fog -49 1026 55 550 1.23 33 19:35 03.01.2021
4119 Fog -49 1026 55 450 0.98 38 18:57 03.01.2021
4120 Fog -49 1026 55 200 0.98 38 18:38 03.01.2021
4121 Fog -49 1026 55 150 0.64 64 18:19 03.01.2021
4122 Fog -49 1025 55 150 0.64 64 17:45 03.01.2021
4123 Fog -49 1025 55 200 0.97 43 17:23 03.01.2021
4124 Fog -49 1025 55 150 0.97 43 16:42 03.01.2021
4125 Fog -49 1025 55 250 0.65 45 16:19 03.01.2021
4126 Fog -48 1025 49 150 0.65 45 15:46 03.01.2021
4127 Fog -48 1025 49 150 0.87 48 15:27 03.01.2021
4128 Fog -48 1025 49 250 0.87 48 14:52 03.01.2021
4129 Fog -48 1025 49 250 0.97 48 14:27 03.01.2021
4130 Fog -49 1025 55 250 0.97 48 13:41 03.01.2021
4131 Fog -48 1025 49 300 1.31 51 13:22 03.01.2021
4132 Fog -48 1025 55 250 1.31 51 12:32 03.01.2021
4133 Fog -48 1025 55 400 0.93 50 11:42 03.01.2021
4134 Fog -48 1025 55 400 0.73 51 11:24 03.01.2021
4135 Fog -48 1024 55 200 0.73 51 10:34 03.01.2021
4136 Fog -48 1024 55 350 1.04 54 09:59 03.01.2021
4137 Fog -48 1024 55 650 1.04 54 09:40 03.01.2021
4138 Fog -48 1024 55 400 1.24 61 09:21 03.01.2021
4139 Fog -47 1024 55 200 1.23 63 07:38 03.01.2021
4140 Fog -46 1023 56 250 0.88 62 05:58 03.01.2021
4141 Fog -47 1024 55 250 1.11 59 02:27 03.01.2021
4142 Fog -47 1023 55 250 1.11 59 01:44 03.01.2021
4143 Fog -47 1023 55 250 1.11 59 01:44 03.01.2021
4144 Fog -47 1023 55 300 1.19 60 00:18 03.01.2021
4145 Fog -47 1023 55 150 1.21 62 23:27 02.01.2021
4146 Fog -47 1023 55 150 1.21 62 22:52 02.01.2021
4147 Fog -47 1023 55 150 1.21 62 22:32 02.01.2021
4148 Fog -47 1024 55 450 1.31 58 21:50 02.01.2021
4149 Fog -47 1024 55 450 1.31 58 21:31 02.01.2021
4150 Fog -46 1024 56 200 1.34 56 20:50 02.01.2021
4151 Fog -46 1024 56 200 1.26 47 20:28 02.01.2021
4152 Fog -46 1024 56 400 1.26 47 19:52 02.01.2021
4153 Fog -46 1023 56 500 1.12 48 19:20 02.01.2021
4154 Fog -46 1023 56 550 1.12 48 18:53 02.01.2021
4155 Fog -46 1023 56 550 1.34 49 18:33 02.01.2021
4156 Fog -46 1023 56 500 1.04 52 17:57 02.01.2021
4157 Fog -46 1023 56 700 1.04 52 17:38 02.01.2021
4158 Fog -46 1023 56 650 1.02 38 16:49 02.01.2021
4159 Fog -46 1024 56 700 0.98 20 16:23 02.01.2021
4160 Fog -46 1024 56 650 0.98 20 15:51 02.01.2021
4161 Fog -46 1024 56 650 0.43 345 15:28 02.01.2021
4162 Fog -46 1024 56 450 0.43 345 14:53 02.01.2021
4163 Fog -46 1024 56 450 0.43 345 14:33 02.01.2021
4164 Fog -45 1024 56 750 0.64 314 13:44 02.01.2021
4165 Fog -45 1023 56 250 0.99 296 12:59 02.01.2021
4166 Fog -44 1023 57 100 0.99 278 12:41 02.01.2021
4167 Fog -44 1023 57 350 1.42 280 12:22 02.01.2021
4168 Fog -44 1023 57 500 1.42 280 11:42 02.01.2021
4169 Fog -44 1023 57 450 1.58 280 11:20 02.01.2021
4170 Fog -44 1023 57 200 1.58 280 10:42 02.01.2021
4171 Fog -44 1023 63 250 2.25 296 10:23 02.01.2021
4172 Fog -43 1023 57 300 2.25 296 09:43 02.01.2021
4173 Fog -43 1023 57 400 1.74 282 09:21 02.01.2021
4174 Fog -44 1023 57 300 1.74 282 08:48 02.01.2021
4175 Fog -44 1023 57 300 1.11 242 08:19 02.01.2021
4176 Mist -44 1022 57 1200 0.95 241 07:25 02.01.2021
4177 Mist -44 1022 57 1200 0.95 241 06:58 02.01.2021
4178 Fog -44 1022 63 800 0.87 262 06:18 02.01.2021
4179 Fog -43 1022 57 550 1.68 287 04:26 02.01.2021
4180 Fog -45 1021 56 300 1.91 283 00:49 02.01.2021
4181 Fog -45 1021 56 300 2.11 283 00:28 02.01.2021
4182 Fog -46 1021 56 400 2.11 283 23:39 01.01.2021
4183 Fog -46 1020 56 400 2.35 280 23:19 01.01.2021
4184 Fog -46 1020 56 150 2.35 280 22:46 01.01.2021
4185 Fog -46 1020 56 200 2.75 277 22:21 01.01.2021
4186 Fog -46 1020 56 250 2.75 277 21:43 01.01.2021
4187 Fog -46 1020 56 250 2.82 276 21:20 01.01.2021
4188 Fog -46 1020 56 200 2.82 276 20:51 01.01.2021
4189 Fog -45 1020 56 200 2.75 277 20:19 01.01.2021
4190 Fog -45 1020 56 200 2.75 277 19:42 01.01.2021
4191 Fog -45 1020 56 400 2.8 281 19:23 01.01.2021
4192 Fog -45 1019 56 400 2.8 281 18:49 01.01.2021
4193 Fog -45 1019 56 400 2.31 279 18:31 01.01.2021
4194 Fog -45 1019 56 350 2.42 282 17:59 01.01.2021
4195 Fog -45 1019 56 250 2.42 282 17:40 01.01.2021
4196 Fog -45 1019 56 300 2.35 280 17:18 01.01.2021
4197 Fog -44 1019 57 200 2.35 280 16:36 01.01.2021
4198 Fog -44 1019 57 250 2.25 278 15:45 01.01.2021
4199 Fog -44 1019 57 200 2.39 285 14:52 01.01.2021
4200 Fog -44 1019 57 200 2.39 285 14:33 01.01.2021
4201 Fog -44 1019 57 250 2.42 288 13:46 01.01.2021
4202 Fog -44 1019 57 250 2.47 287 13:25 01.01.2021
4203 Fog -44 1018 57 450 2.42 285 12:39 01.01.2021
4204 Fog -44 1018 63 450 2.48 285 12:18 01.01.2021
4205 Fog -43 1018 57 600 2.48 285 11:39 01.01.2021
4206 Fog -43 1018 57 450 2.29 280 11:18 01.01.2021
4207 Fog -43 1018 64 450 2.29 280 10:35 01.01.2021
4208 Fog -42 1017 57 200 2.27 282 09:47 01.01.2021
4209 Fog -42 1017 64 300 2.36 286 09:21 01.01.2021
4210 Mist -40 1017 58 5000 2.85 287 08:30 01.01.2021
4211 Mist -35 1016 66 2000 2.02 281 04:53 01.01.2021
4212 Mist -39 1016 58 1900 2.06 279 02:56 01.01.2021
4213 Fog -42 1017 64 900 2.02 281 01:39 01.01.2021
4214 Fog -42 1017 57 1200 2.06 275 00:31 01.01.2021
4215 Fog -42 1016 57 800 2.07 273 23:37 31.12.2020
4216 Mist -42 1017 64 1100 2.05 271 23:19 31.12.2020
4217 Mist -41 1017 64 1500 2.05 271 22:41 31.12.2020
4218 Mist -41 1017 57 1500 2.03 267 22:21 31.12.2020
4219 Fog -41 1017 64 900 2.03 267 21:47 31.12.2020
4220 Fog -41 1017 64 900 2.03 270 21:29 31.12.2020
4221 Fog -40 1017 58 900 2.03 270 20:54 31.12.2020
4222 Fog -40 1017 65 800 2.17 275 20:21 31.12.2020
4223 Fog -39 1017 58 600 2.17 275 19:48 31.12.2020
4224 Fog -39 1017 58 600 2.17 275 19:30 31.12.2020
4225 Fog -38 1018 58 500 2.27 279 18:50 31.12.2020
4226 Fog -39 1018 65 600 2.24 278 18:24 31.12.2020
4227 Fog -39 1018 65 900 2.24 278 17:45 31.12.2020
4228 Fog -40 1018 65 400 2.12 277 17:25 31.12.2020
4229 Fog -40 1018 65 300 2.12 277 16:44 31.12.2020
4230 Fog -40 1018 65 300 1.9 274 16:26 31.12.2020
4231 Fog -40 1018 65 300 1.9 274 15:57 31.12.2020
4232 Fog -40 1019 65 350 1.9 274 15:38 31.12.2020
4233 Fog -40 1019 65 350 1.97 275 15:18 31.12.2020
4234 Fog -40 1019 65 350 1.97 275 14:40 31.12.2020
4235 Fog -40 1019 65 350 1.93 278 14:21 31.12.2020
4236 Fog -40 1019 65 450 1.93 278 13:42 31.12.2020
4237 Fog -40 1019 65 450 1.93 278 13:42 31.12.2020
4238 Fog -40 1019 58 500 2.05 281 13:24 31.12.2020
4239 Fog -40 1019 58 500 2.05 281 13:24 31.12.2020
4240 Fog -40 1020 65 200 2.05 281 12:55 31.12.2020
4241 Fog -40 1020 65 200 2.05 281 12:37 31.12.2020
4242 Fog -40 1020 58 300 2.05 282 11:58 31.12.2020
4243 Fog -41 1020 64 500 2.05 282 11:40 31.12.2020
4244 Fog -41 1020 64 500 2.05 282 11:40 31.12.2020
4245 Fog -40 1020 58 600 1.96 283 11:21 31.12.2020
4246 Fog -40 1020 65 250 1.96 283 10:40 31.12.2020
4247 Fog -40 1020 65 350 1.9 287 10:22 31.12.2020
4248 Fog -40 1020 58 550 1.9 287 09:47 31.12.2020
4249 Fog -40 1020 65 350 1.83 279 09:22 31.12.2020
4250 Fog -40 1020 65 350 1.83 279 08:46 31.12.2020
4251 Fog -40 1020 65 350 1.57 264 08:27 31.12.2020
4252 Fog -41 1020 64 350 1.57 264 07:52 31.12.2020
4253 Fog -41 1020 57 300 1.33 257 06:57 31.12.2020
4254 Fog -42 1020 64 250 1.23 273 05:30 31.12.2020
4255 Fog -43 1021 64 300 1 299 03:25 31.12.2020
4256 Fog -43 1021 57 350 0.95 299 02:27 31.12.2020
4257 Fog -43 1021 57 250 0.95 299 01:53 31.12.2020
4258 Fog -43 1021 57 250 0.95 299 01:33 31.12.2020
4259 Fog -43 1021 57 400 0.95 312 00:55 31.12.2020
4260 Fog -44 1021 63 500 1.21 311 00:24 31.12.2020
4261 Fog -44 1020 63 400 1.16 296 23:21 30.12.2020
4262 Fog -43 1021 57 500 1.16 296 22:56 30.12.2020
4263 Fog -43 1021 57 500 1.16 296 22:34 30.12.2020
4264 Fog -43 1020 57 400 0.57 276 21:50 30.12.2020
4265 Fog -43 1020 57 400 0.64 250 21:25 30.12.2020
4266 Fog -43 1020 57 350 0.64 250 20:53 30.12.2020
4267 Fog -43 1020 64 300 0.6 235 20:27 30.12.2020
4268 Fog -43 1020 64 350 0.6 235 19:58 30.12.2020
4269 Fog -43 1020 64 350 0.6 235 19:58 30.12.2020
4270 Fog -43 1020 64 350 0.6 235 19:58 30.12.2020
4271 Fog -43 1020 64 500 0.6 235 19:36 30.12.2020
4272 Fog -42 1020 57 450 0.36 227 19:18 30.12.2020
4273 Fog -42 1020 57 800 0.36 227 18:38 30.12.2020
4274 Fog -42 1020 57 900 0.11 277 18:20 30.12.2020
4275 Fog -42 1020 57 900 0.11 277 17:42 30.12.2020
4276 Fog -42 1020 57 350 0.43 287 17:22 30.12.2020
4277 Fog -42 1020 64 900 0.43 287 16:43 30.12.2020
4278 Fog -42 1020 64 900 0.42 271 15:51 30.12.2020
4279 Fog -42 1020 64 900 0.42 271 15:51 30.12.2020
4280 Fog -42 1020 64 900 0.42 271 15:30 30.12.2020
4281 Fog -42 1020 64 600 1 120 14:52 30.12.2020
4282 Fog -42 1020 64 600 1 120 14:29 30.12.2020
4283 Fog -42 1020 64 450 0.25 202 13:59 30.12.2020
4284 Fog -43 1020 57 450 1 150 12:56 30.12.2020
4285 Fog -43 1020 57 400 1 140 12:26 30.12.2020
4286 Fog -43 1020 57 450 1 150 11:39 30.12.2020
4287 Fog -43 1020 57 400 0.51 221 11:21 30.12.2020
4288 Fog -43 1020 57 400 0.51 221 11:21 30.12.2020
4289 Fog -44 1020 63 350 0.51 221 10:56 30.12.2020
4290 Fog -44 1020 63 350 0.51 221 10:37 30.12.2020
4291 Fog -44 1020 63 300 0.88 210 10:18 30.12.2020
4292 Fog -44 1020 63 300 0.88 210 09:41 30.12.2020
4293 Fog -44 1020 57 500 1 140 08:35 30.12.2020
4294 Fog -44 1020 57 700 1 130 07:46 30.12.2020
4295 Fog -44 1020 57 800 1 130 07:21 30.12.2020
4296 Fog -44 1020 57 300 0.34 182 06:38 30.12.2020
4297 Fog -44 1020 57 350 0.37 178 05:47 30.12.2020
4298 Fog -44 1020 57 350 0.56 169 05:27 30.12.2020
4299 Fog -46 1020 56 250 0.45 150 03:29 30.12.2020
4300 Fog -46 1020 56 300 0.45 150 02:47 30.12.2020
4301 Fog -46 1020 56 300 0.22 178 02:28 30.12.2020
4302 Fog -46 1020 56 300 0.22 178 01:42 30.12.2020
4303 Fog -46 1020 56 300 0.25 193 01:23 30.12.2020
4304 Fog -46 1020 56 250 0.53 162 00:37 30.12.2020
4305 Fog -47 1020 55 300 0.77 155 23:59 29.12.2020
4306 Fog -47 1020 55 400 0.77 155 23:40 29.12.2020
4307 Fog -47 1020 55 400 0.86 151 23:22 29.12.2020
4308 Fog -47 1020 55 500 0.86 151 22:44 29.12.2020
4309 Fog -47 1020 55 700 0.84 155 22:26 29.12.2020
4310 Fog -47 1020 55 750 0.84 155 21:52 29.12.2020
4311 Fog -47 1020 55 750 0.84 155 21:34 29.12.2020
4312 Fog -47 1020 55 700 0.65 153 20:55 29.12.2020
4313 Fog -47 1020 55 800 0.65 153 20:37 29.12.2020
4314 Fog -47 1020 55 700 0.66 152 20:19 29.12.2020
4315 Fog -47 1020 55 600 0.66 152 19:40 29.12.2020
4316 Fog -47 1020 55 450 0.63 144 19:20 29.12.2020
4317 Fog -46 1020 56 400 0.63 144 18:46 29.12.2020
4318 Fog -46 1020 56 400 0.61 56 18:27 29.12.2020
4319 Fog -46 1020 56 400 0.61 56 17:44 29.12.2020
4320 Fog -46 1020 56 400 0.65 61 17:20 29.12.2020
4321 Fog -46 1020 56 400 0.65 61 16:46 29.12.2020
4322 Fog -46 1020 56 400 0.66 74 16:24 29.12.2020
4323 Fog -46 1020 56 350 0.66 74 15:37 29.12.2020
4324 Fog -46 1020 56 350 0.54 81 15:18 29.12.2020
4325 Fog -45 1020 56 400 0.54 81 14:37 29.12.2020
4326 Fog -45 1020 56 350 0.51 105 14:19 29.12.2020
4327 Fog -45 1020 56 400 0.51 105 13:48 29.12.2020
4328 Fog -45 1020 56 350 0.76 109 13:23 29.12.2020
4329 Fog -45 1020 56 300 1 340 12:42 29.12.2020
4330 Fog -45 1020 56 250 0.83 103 12:23 29.12.2020
4331 Fog -45 1020 56 250 0.83 103 11:56 29.12.2020
4332 Fog -45 1020 56 500 0.83 103 11:31 29.12.2020
4333 Fog -44 1020 57 900 0.99 106 10:37 29.12.2020
4334 Fog -45 1021 56 900 1.01 120 09:50 29.12.2020
4335 Fog -45 1021 56 900 1.15 141 09:25 29.12.2020
4336 Fog -45 1021 56 900 1.15 141 08:55 29.12.2020
4337 Fog -45 1021 56 800 1.15 141 08:33 29.12.2020
4338 Fog -45 1021 56 250 1.37 157 07:27 29.12.2020
4339 Fog -45 1021 56 300 0.69 105 06:46 29.12.2020
4340 Fog -44 1021 57 200 0.89 91 05:27 29.12.2020
4341 Fog -44 1022 57 800 0.98 140 00:55 29.12.2020
4342 Fog -44 1022 63 700 0.66 144 00:22 29.12.2020
4343 Mist -44 1022 63 1000 0.66 144 23:36 28.12.2020
4344 Mist -43 1022 64 5000 0.18 314 22:28 28.12.2020
4345 Mist -43 1023 57 5000 0.18 314 21:46 28.12.2020
4346 Mist -43 1023 57 5000 0.46 329 21:28 28.12.2020
4347 Mist -43 1023 57 2100 1 310 20:44 28.12.2020
4348 Mist -43 1023 57 2100 1 310 20:44 28.12.2020
4349 Clear -43 1023 64 10000 1 330 20:24 28.12.2020
4350 Clear -43 1023 64 10000 1 330 19:50 28.12.2020
4351 Clear -43 1023 64 10000 1 330 19:26 28.12.2020
4352 Clear -42 1023 57 10000 1 340 18:59 28.12.2020
4353 Clear -42 1023 57 10000 1 340 18:32 28.12.2020
4354 Clear -42 1023 57 10000 1 330 17:51 28.12.2020
4355 Clear -42 1023 57 10000 1 330 17:33 28.12.2020
4356 Clear -43 1023 64 10000 1 330 16:59 28.12.2020
4357 Clear -43 1023 57 10000 1 340 16:31 28.12.2020
4358 Clear -43 1023 57 10000 1 350 15:54 28.12.2020
4359 Clear -43 1023 64 10000 2 360 15:33 28.12.2020
4360 Clear -42 1023 57 10000 2 10 14:34 28.12.2020
4361 Clear -41 1023 57 10000 2 360 13:48 28.12.2020
4362 Clear -41 1023 57 10000 3 30 13:21 28.12.2020
4363 Clear -41 1023 57 10000 2 30 12:29 28.12.2020
4364 Snow -42 1023 64 5000 2 20 11:56 28.12.2020
4365 Snow -41 1023 64 3200 2 20 11:37 28.12.2020
4366 Snow -41 1023 64 5000 2 30 11:18 28.12.2020
4367 Snow -41 1023 64 5000 2 40 10:29 28.12.2020
4368 Mist -41 1023 57 5000 2 40 09:58 28.12.2020
4369 Snow -41 1023 57 5000 2 40 09:37 28.12.2020
4370 Snow -41 1023 57 5000 2 30 09:18 28.12.2020
4371 Mist -42 1024 57 3200 1 30 06:53 28.12.2020
4372 Mist -43 1025 64 5000 1 30 05:23 28.12.2020
4373 Mist -43 1025 57 3200 1 40 03:34 28.12.2020
4374 Snow -44 1026 57 3200 1 40 01:55 28.12.2020
4375 Snow -44 1027 57 1100 1 30 23:55 27.12.2020
4376 Snow -44 1027 57 1100 1 30 23:29 27.12.2020
4377 Snow -45 1028 63 2100 1 50 22:40 27.12.2020
4378 Snow -45 1028 56 1700 1 20 21:55 27.12.2020
4379 Mist -46 1028 56 1300 0.98 261 21:22 27.12.2020
4380 Mist -46 1028 56 1600 0.87 262 20:32 27.12.2020
4381 Mist -46 1028 56 1800 1 30 19:24 27.12.2020
4382 Mist -47 1028 55 1500 1.07 290 18:50 27.12.2020
4383 Mist -47 1028 55 1500 1 30 18:21 27.12.2020
4384 Mist -47 1028 55 1500 1 30 17:58 27.12.2020
4385 Fog -47 1029 55 900 1.39 285 17:37 27.12.2020
4386 Fog -48 1029 55 300 1.48 282 17:18 27.12.2020
4387 Fog -48 1029 55 300 1.48 282 17:18 27.12.2020
4388 Fog -48 1029 55 250 1.52 282 16:25 27.12.2020
4389 Fog -48 1029 55 300 1.52 282 15:34 27.12.2020
4390 Fog -48 1029 55 300 1.49 281 14:56 27.12.2020
4391 Fog -48 1029 55 250 1.49 281 14:38 27.12.2020
4392 Fog -48 1029 55 350 1.44 281 13:39 27.12.2020
4393 Fog -47 1029 49 350 1.5 276 12:56 27.12.2020
4394 Fog -48 1029 55 350 1.66 270 12:28 27.12.2020
4395 Fog -48 1029 55 250 1.66 270 11:42 27.12.2020
4396 Fog -48 1029 55 250 1.65 267 11:21 27.12.2020
4397 Fog -47 1029 49 250 1.65 267 10:45 27.12.2020
4398 Fog -47 1029 49 250 1.65 267 10:21 27.12.2020
4399 Fog -47 1029 49 200 1.65 267 09:39 27.12.2020
4400 Fog -47 1029 55 150 1 40 08:28 27.12.2020
4401 Fog -46 1028 56 150 1.62 256 07:29 27.12.2020
4402 Fog -45 1028 56 150 1.62 256 06:48 27.12.2020
4403 Fog -44 1028 57 200 1.21 264 05:38 27.12.2020
4404 Fog -46 1028 56 150 1.57 246 03:26 27.12.2020
4405 Fog -46 1027 56 300 1.57 246 02:30 27.12.2020
4406 Fog -45 1027 56 300 1.76 228 00:58 27.12.2020
4407 Fog -45 1027 56 400 1.78 217 23:44 26.12.2020
4408 Fog -44 1027 57 350 1.75 210 23:26 26.12.2020
4409 Fog -45 1027 56 450 1.75 210 22:46 26.12.2020
4410 Fog -45 1027 56 350 1.84 201 22:20 26.12.2020
4411 Fog -45 1027 56 350 1.84 201 21:54 26.12.2020
4412 Fog -44 1027 57 550 1.67 201 21:31 26.12.2020
4413 Fog -45 1026 56 700 1.67 201 20:46 26.12.2020
4414 Fog -45 1026 56 700 1.16 200 20:26 26.12.2020
4415 Fog -45 1026 63 300 1.16 200 19:50 26.12.2020
4416 Fog -44 1026 57 300 0.86 221 19:22 26.12.2020
4417 Fog -44 1026 57 300 1.01 202 18:36 26.12.2020
4418 Fog -45 1026 56 250 0.94 214 17:48 26.12.2020
4419 Fog -45 1026 56 250 1.04 210 17:29 26.12.2020
4420 Fog -45 1026 56 250 1.04 210 16:40 26.12.2020
4421 Fog -45 1026 56 150 0.91 223 16:21 26.12.2020
4422 Fog -46 1026 56 200 0.63 259 15:24 26.12.2020
4423 Fog -46 1026 56 200 0.63 259 14:44 26.12.2020
4424 Fog -46 1026 56 350 0.73 257 14:20 26.12.2020
4425 Fog -45 1026 56 300 0.73 257 13:42 26.12.2020
4426 Fog -45 1026 56 300 0.73 257 13:42 26.12.2020
4427 Fog -45 1025 56 350 0.78 266 13:23 26.12.2020
4428 Fog -45 1025 56 400 0.68 269 12:42 26.12.2020
4429 Fog -45 1025 56 550 0.54 262 12:20 26.12.2020
4430 Fog -45 1025 56 500 0.54 262 11:51 26.12.2020
4431 Fog -45 1025 63 600 0.47 286 11:21 26.12.2020
4432 Fog -45 1024 63 550 0.47 286 10:51 26.12.2020
4433 Fog -45 1024 63 550 0.55 319 10:27 26.12.2020
4434 Fog -44 1024 57 550 0.55 319 09:49 26.12.2020
4435 Fog -44 1024 57 550 0.66 324 09:24 26.12.2020
4436 Fog -44 1024 57 350 0.8 336 08:21 26.12.2020
4437 Fog -45 1023 56 300 0.8 336 07:49 26.12.2020
4438 Fog -45 1022 63 250 0.2 4 06:23 26.12.2020
4439 Fog -46 1022 56 400 0.26 355 02:49 26.12.2020
4440 Fog -46 1021 56 400 0.22 4 00:43 26.12.2020
4441 Fog -46 1021 56 450 0.39 19 00:24 26.12.2020
4442 Fog -46 1021 56 500 0.39 19 23:39 25.12.2020
4443 Fog -46 1021 56 450 0.51 20 23:21 25.12.2020
4444 Fog -46 1020 56 500 0.51 20 22:40 25.12.2020
4445 Fog -45 1020 56 600 0.71 358 21:50 25.12.2020
4446 Snow -44 1020 57 600 0.71 358 21:32 25.12.2020
4447 Snow -44 1020 57 600 0.73 345 20:48 25.12.2020
4448 Snow -44 1020 57 600 0.63 336 20:28 25.12.2020
4449 Fog -46 1020 56 600 0.63 336 19:47 25.12.2020
4450 Fog -46 1020 56 500 0.96 347 18:58 25.12.2020
4451 Fog -46 1020 56 400 0.96 347 18:38 25.12.2020
4452 Fog -47 1019 55 400 1.04 359 17:40 25.12.2020
4453 Fog -46 1019 56 600 0.97 349 17:21 25.12.2020
4454 Fog -46 1019 56 600 0.97 349 16:33 25.12.2020
4455 Fog -46 1019 56 600 1.19 338 15:57 25.12.2020
4456 Fog -46 1019 63 450 1.19 338 15:35 25.12.2020
4457 Fog -45 1019 56 300 1.21 335 14:49 25.12.2020
4458 Fog -45 1019 56 300 1.16 336 14:28 25.12.2020
4459 Fog -44 1019 57 300 1.16 336 13:44 25.12.2020
4460 Fog -44 1019 57 300 1.38 330 13:26 25.12.2020
4461 Fog -43 1019 57 700 1.32 332 12:35 25.12.2020
4462 Fog -43 1018 57 900 1.48 317 11:54 25.12.2020
4463 Mist -43 1018 64 1300 1.48 317 11:31 25.12.2020
4464 Fog -42 1018 64 900 1.54 309 10:53 25.12.2020
4465 Fog -42 1018 64 900 1.64 296 10:23 25.12.2020
4466 Fog -42 1018 64 900 1.64 296 09:34 25.12.2020
4467 Fog -41 1018 57 600 1.82 289 08:48 25.12.2020
4468 Fog -42 1018 64 450 1.54 277 07:58 25.12.2020
4469 Fog -42 1017 57 350 1.55 269 06:46 25.12.2020
4470 Fog -44 1018 57 300 1.73 278 03:49 25.12.2020
4471 Fog -45 1018 56 400 0.98 268 01:41 25.12.2020
4472 Fog -46 1018 56 500 0.94 271 00:18 25.12.2020
4473 Fog -46 1018 56 300 0.99 268 23:23 24.12.2020
4474 Fog -46 1018 56 350 0.99 268 22:50 24.12.2020
4475 Fog -46 1018 56 400 1.08 257 22:21 24.12.2020
4476 Fog -46 1018 56 400 1.08 257 21:34 24.12.2020
4477 Fog -47 1018 55 350 1.08 256 20:36 24.12.2020
4478 Fog -49 1019 55 150 0.75 279 18:51 24.12.2020
4479 Fog -49 1019 55 150 0.85 301 18:18 24.12.2020
4480 Fog -49 1019 48 200 0.85 301 17:37 24.12.2020
4481 Fog -50 1019 48 250 0.94 318 16:45 24.12.2020
4482 Fog -50 1019 54 400 0.95 319 16:22 24.12.2020
4483 Fog -50 1019 54 500 0.95 319 15:42 24.12.2020
4484 Fog -50 1019 48 800 0.97 324 15:19 24.12.2020
4485 Fog -50 1019 54 600 0.97 324 14:49 24.12.2020
4486 Fog -50 1019 54 450 1.12 338 14:24 24.12.2020
4487 Fog -50 1019 54 300 1.12 338 13:43 24.12.2020
4488 Fog -50 1019 54 200 1.17 336 13:25 24.12.2020
4489 Fog -50 1019 54 200 1.22 340 12:44 24.12.2020
4490 Fog -50 1019 54 450 1.27 340 12:21 24.12.2020
4491 Fog -50 1019 54 400 1.27 340 11:47 24.12.2020
4492 Fog -50 1019 54 550 1.16 340 11:21 24.12.2020
4493 Fog -50 1019 54 800 1.16 340 10:53 24.12.2020
4494 Fog -50 1019 54 800 1.16 340 10:34 24.12.2020
4495 Mist -50 1019 54 1000 1.28 352 09:52 24.12.2020
4496 Mist -50 1019 54 1000 1.4 359 09:26 24.12.2020
4497 Fog -49 1019 48 900 1.4 359 08:39 24.12.2020
4498 Fog -49 1019 55 700 1.3 10 07:42 24.12.2020
4499 Fog -49 1019 55 450 1.47 19 07:20 24.12.2020
4500 Fog -49 1018 55 800 1.6 22 05:40 24.12.2020
4501 Fog -49 1019 48 250 1.07 18 01:57 24.12.2020
4502 Fog -50 1019 54 250 1.07 18 01:37 24.12.2020
4503 Fog -49 1019 48 300 0.68 16 01:18 24.12.2020
4504 Fog -49 1018 48 300 0.46 38 00:21 24.12.2020
4505 Fog -49 1018 55 200 0.46 38 23:49 23.12.2020
4506 Fog -49 1018 55 200 0.46 38 23:30 23.12.2020
4507 Fog -49 1019 55 300 0.58 48 22:57 23.12.2020
4508 Fog -49 1019 55 300 0.58 48 22:31 23.12.2020
4509 Fog -49 1019 55 350 0.62 56 21:56 23.12.2020
4510 Fog -49 1019 55 400 0.45 44 21:28 23.12.2020
4511 Fog -48 1019 49 300 0.45 44 20:54 23.12.2020
4512 Fog -48 1019 49 300 0.45 44 20:36 23.12.2020
4513 Fog -48 1019 55 250 0.37 54 20:18 23.12.2020
4514 Fog -48 1019 55 200 0.37 54 19:39 23.12.2020
4515 Fog -48 1019 55 200 0.32 51 19:20 23.12.2020
4516 Fog -48 1019 55 200 0.32 51 18:48 23.12.2020
4517 Fog -48 1020 55 150 0.34 76 18:24 23.12.2020
4518 Fog -48 1020 55 150 0.34 76 17:39 23.12.2020
4519 Fog -48 1020 55 150 0.34 76 17:39 23.12.2020
4520 Fog -48 1020 55 150 0.36 127 17:20 23.12.2020
4521 Fog -47 1020 55 200 0.36 127 16:47 23.12.2020
4522 Fog -47 1020 55 200 0.41 113 16:29 23.12.2020
4523 Fog -47 1020 55 150 0.41 113 15:56 23.12.2020
4524 Fog -47 1020 55 150 0.41 113 15:30 23.12.2020
4525 Fog -47 1020 55 150 0.24 124 14:59 23.12.2020
4526 Fog -47 1020 55 150 0.24 124 14:39 23.12.2020
4527 Fog -46 1020 50 250 0.36 177 14:20 23.12.2020
4528 Fog -47 1021 55 200 0.36 177 13:44 23.12.2020
4529 Fog -47 1021 55 200 0.36 177 13:44 23.12.2020
4530 Fog -47 1021 55 200 0.36 177 13:44 23.12.2020
4531 Fog -46 1021 56 150 0.5 191 13:19 23.12.2020
4532 Fog -46 1021 56 150 0.49 195 12:53 23.12.2020
4533 Fog -46 1021 56 150 0.66 194 12:28 23.12.2020
4534 Fog -45 1021 56 150 0.66 194 11:53 23.12.2020
4535 Fog -44 1021 57 300 0.61 191 11:21 23.12.2020
4536 Fog -44 1022 57 250 0.61 191 10:50 23.12.2020
4537 Fog -44 1022 57 250 0.61 191 10:32 23.12.2020
4538 Fog -44 1022 57 250 0.42 192 09:36 23.12.2020
4539 Fog -45 1022 56 500 0.29 199 08:51 23.12.2020
4540 Fog -45 1022 63 550 0.33 213 08:22 23.12.2020
4541 Fog -44 1022 57 500 0.33 213 07:37 23.12.2020
4542 Fog -44 1022 57 300 0.26 207 06:41 23.12.2020
4543 Fog -44 1022 57 250 0.45 217 05:54 23.12.2020
4544 Fog -44 1022 63 200 0.59 229 05:19 23.12.2020
4545 Fog -44 1022 57 250 0.58 255 01:32 23.12.2020
4546 Fog -44 1022 57 200 0.66 266 00:30 23.12.2020
4547 Fog -44 1022 57 200 0.84 265 23:38 22.12.2020
4548 Fog -45 1022 63 250 0.85 269 23:20 22.12.2020
4549 Fog -45 1022 56 200 0.85 269 22:42 22.12.2020
4550 Fog -45 1022 56 200 0.7 276 22:21 22.12.2020
4551 Fog -45 1022 56 200 0.7 276 21:45 22.12.2020
4552 Fog -45 1022 56 200 0.65 288 21:20 22.12.2020
4553 Fog -46 1022 63 200 0.65 288 20:51 22.12.2020
4554 Fog -46 1022 63 200 0.65 288 20:31 22.12.2020
4555 Fog -46 1022 56 250 0.77 304 19:52 22.12.2020
4556 Fog -46 1022 56 250 0.88 304 19:28 22.12.2020
4557 Fog -46 1022 56 200 0.88 304 18:58 22.12.2020
4558 Fog -46 1022 63 200 0.95 305 18:38 22.12.2020
4559 Fog -45 1022 56 200 1.12 301 18:19 22.12.2020
4560 Fog -45 1022 56 250 1.12 301 17:38 22.12.2020
4561 Fog -45 1022 56 200 1.28 308 17:18 22.12.2020
4562 Fog -45 1022 56 200 1.28 308 16:47 22.12.2020
4563 Fog -45 1021 56 200 1.49 313 16:21 22.12.2020
4564 Fog -45 1021 56 200 1.49 313 15:46 22.12.2020
4565 Fog -45 1021 56 200 1.85 318 15:28 22.12.2020
4566 Fog -45 1021 56 250 1.85 318 14:57 22.12.2020
4567 Fog -45 1021 56 250 1.85 318 14:38 22.12.2020
4568 Fog -44 1021 57 200 1.83 322 14:18 22.12.2020
4569 Fog -44 1021 57 200 1.83 322 13:42 22.12.2020
4570 Fog -44 1021 57 200 1.78 321 13:18 22.12.2020
4571 Fog -44 1021 57 400 1.75 321 12:44 22.12.2020
4572 Fog -44 1021 57 400 1.53 322 12:26 22.12.2020
4573 Fog -45 1021 56 400 1.53 322 11:57 22.12.2020
4574 Fog -44 1020 57 500 1.53 322 11:38 22.12.2020
4575 Mist -44 1020 57 1200 1.37 328 11:19 22.12.2020
4576 Mist -43 1020 57 5000 1.37 328 10:47 22.12.2020
4577 Mist -42 1020 57 5000 1.38 325 10:24 22.12.2020
4578 Mist -42 1020 57 5000 1.38 325 09:56 22.12.2020
4579 Snow -41 1019 57 5000 1 250 09:23 22.12.2020
4580 Mist -41 1019 57 5000 1.26 325 08:53 22.12.2020
4581 Mist -41 1019 57 5000 1.03 324 08:29 22.12.2020
4582 Mist -41 1019 64 3200 1.03 324 07:48 22.12.2020
4583 Mist -41 1018 64 2000 1 290 06:48 22.12.2020
4584 Mist -42 1017 57 2000 1 300 05:44 22.12.2020
4585 Fog -43 1017 57 800 1 290 03:40 22.12.2020
4586 Fog -42 1015 64 1500 1.26 353 00:47 22.12.2020
4587 Snow -42 1015 64 800 1.34 353 23:54 21.12.2020
4588 Snow -42 1015 64 800 1.34 353 23:54 21.12.2020
4589 Fog -42 1015 64 800 1.34 353 23:36 21.12.2020
4590 Fog -42 1015 57 350 1.08 344 22:39 21.12.2020
4591 Fog -43 1015 57 300 0.79 352 22:20 21.12.2020
4592 Fog -43 1015 57 300 0.79 352 21:59 21.12.2020
4593 Fog -43 1014 57 200 0.79 352 21:40 21.12.2020
4594 Fog -43 1014 57 250 0.68 8 21:22 21.12.2020
4595 Fog -44 1014 63 250 0.68 8 20:36 21.12.2020
4596 Fog -44 1014 63 200 0.7 17 20:18 21.12.2020
4597 Fog -44 1014 63 200 0.7 17 20:18 21.12.2020
4598 Fog -43 1014 57 150 0.7 17 19:44 21.12.2020
4599 Fog -42 1014 57 200 0.55 12 19:19 21.12.2020
4600 Fog -42 1013 57 300 0.55 12 18:52 21.12.2020
4601 Fog -42 1013 57 300 0.68 13 18:34 21.12.2020
4602 Fog -42 1013 57 250 0.46 23 17:56 21.12.2020
4603 Fog -42 1013 57 200 0.46 23 17:37 21.12.2020
4604 Fog -42 1013 57 200 0.53 41 17:19 21.12.2020
4605 Fog -42 1013 57 200 0.53 41 16:38 21.12.2020
4606 Fog -42 1013 57 250 0.58 49 16:18 21.12.2020
4607 Fog -43 1012 64 250 0.58 49 15:40 21.12.2020
4608 Fog -44 1012 63 250 0.58 55 14:57 21.12.2020
4609 Fog -45 1013 56 300 0.5 53 14:22 21.12.2020
4610 Fog -46 1012 56 300 0.5 53 13:45 21.12.2020
4611 Fog -46 1012 56 300 0.38 42 13:27 21.12.2020
4612 Fog -46 1012 56 300 0.49 17 12:47 21.12.2020
4613 Fog -46 1012 56 300 0.56 16 12:25 21.12.2020
4614 Fog -46 1012 56 300 0.56 16 11:58 21.12.2020
4615 Fog -46 1012 56 800 0.56 16 11:40 21.12.2020
4616 Fog -46 1011 56 600 0.6 15 11:22 21.12.2020
4617 Fog -45 1011 56 800 0.6 15 10:49 21.12.2020
4618 Fog -45 1011 56 800 0.6 15 10:30 21.12.2020
4619 Fog -45 1011 56 800 0.84 19 09:49 21.12.2020
4620 Fog -45 1011 56 800 0.87 9 09:26 21.12.2020
4621 Fog -46 1011 56 800 0.87 9 08:58 21.12.2020
4622 Mist -46 1010 56 1200 0.86 353 08:18 21.12.2020
4623 Fog -45 1009 56 1000 1.13 14 06:47 21.12.2020
4624 Fog -46 1009 56 450 1.21 3 04:58 21.12.2020
4625 Fog -47 1008 55 900 1.32 356 02:32 21.12.2020
4626 Fog -46 1008 56 200 1.75 359 00:35 21.12.2020
4627 Fog -46 1007 56 500 1.83 0 23:38 20.12.2020
4628 Fog -46 1007 56 500 1.9 360 23:19 20.12.2020
4629 Fog -46 1007 56 500 1.9 360 22:42 20.12.2020
4630 Fog -46 1007 56 250 1.98 6 22:22 20.12.2020
4631 Fog -46 1007 56 550 1 340 21:40 20.12.2020
4632 Fog -46 1007 56 800 1 350 21:22 20.12.2020
4633 Fog -46 1007 56 400 1.99 5 20:53 20.12.2020
4634 Fog -46 1007 56 400 1.93 6 20:26 20.12.2020
4635 Fog -46 1007 56 400 1.93 6 19:56 20.12.2020
4636 Fog -46 1007 56 400 1.93 6 19:38 20.12.2020
4637 Fog -46 1007 56 500 1.96 13 19:19 20.12.2020
4638 Fog -46 1007 56 700 1 350 18:41 20.12.2020
4639 Fog -46 1007 56 700 1 350 18:22 20.12.2020
4640 Fog -46 1007 56 800 1 350 17:45 20.12.2020
4641 Fog -46 1007 56 800 1 350 17:27 20.12.2020
4642 Fog -46 1007 56 800 1 360 16:47 20.12.2020
4643 Fog -46 1007 56 800 1 360 16:27 20.12.2020
4644 Fog -46 1007 56 900 1 360 15:50 20.12.2020
4645 Fog -46 1007 56 900 1 350 15:25 20.12.2020
4646 Fog -46 1007 56 900 1 350 14:55 20.12.2020
4647 Fog -46 1007 56 900 1 360 14:34 20.12.2020
4648 Fog -46 1007 56 700 1 350 13:48 20.12.2020
4649 Fog -46 1007 56 700 1 350 13:29 20.12.2020
4650 Fog -46 1008 56 900 1 360 12:59 20.12.2020
4651 Fog -46 1008 56 600 1 340 12:39 20.12.2020
4652 Mist -46 1008 56 1000 1 340 12:21 20.12.2020
4653 Mist -46 1008 56 1500 1 350 11:44 20.12.2020
4654 Mist -46 1008 56 1500 1 360 11:26 20.12.2020
4655 Mist -46 1008 56 1500 1 10 10:48 20.12.2020
4656 Mist -46 1009 56 1500 1 360 10:21 20.12.2020
4657 Mist -46 1009 56 1000 1 360 09:46 20.12.2020
4658 Mist -46 1009 56 1000 1 360 09:27 20.12.2020
4659 Mist -46 1009 56 1000 1 360 09:27 20.12.2020
4660 Mist -46 1009 56 1000 1 10 08:59 20.12.2020
4661 Mist -46 1009 56 1500 1 10 08:40 20.12.2020
4662 Mist -46 1009 56 1500 1 360 07:29 20.12.2020
4663 Mist -46 1010 56 1400 1 360 06:18 20.12.2020
4664 Fog -47 1012 55 900 1 340 02:37 20.12.2020
4665 Fog -47 1013 55 900 1 350 00:41 20.12.2020
4666 Fog -47 1014 55 800 1 350 23:36 19.12.2020
4667 Fog -47 1014 49 800 1 340 23:18 19.12.2020
4668 Fog -48 1014 55 700 1 340 22:41 19.12.2020
4669 Fog -48 1015 55 800 1 350 22:20 19.12.2020
4670 Fog -47 1015 49 800 1 350 21:44 19.12.2020
4671 Fog -47 1015 49 800 1 350 21:25 19.12.2020
4672 Fog -47 1016 55 800 1 320 20:55 19.12.2020
4673 Fog -47 1016 55 700 1 340 20:24 19.12.2020
4674 Fog -47 1016 55 700 1 340 19:58 19.12.2020
4675 Fog -47 1016 55 750 1 330 19:38 19.12.2020
4676 Fog -47 1016 55 900 1 350 19:19 19.12.2020
4677 Fog -47 1016 55 700 1 350 18:33 19.12.2020
4678 Fog -47 1017 55 800 1 350 17:55 19.12.2020
4679 Fog -47 1017 55 800 1 350 17:31 19.12.2020
4680 Mist -47 1017 55 1100 1 360 16:58 19.12.2020
4681 Mist -46 1017 56 1200 1 360 16:38 19.12.2020
4682 Fog -46 1018 56 900 1 350 16:20 19.12.2020
4683 Fog -46 1018 56 800 1 350 15:49 19.12.2020
4684 Fog -46 1018 56 750 1 350 15:20 19.12.2020
4685 Fog -46 1018 56 900 1 360 14:37 19.12.2020
4686 Fog -46 1019 56 800 0.98 55 13:42 19.12.2020
4687 Mist -46 1019 56 1200 1 10 13:23 19.12.2020
4688 Mist -46 1019 56 1200 1 10 12:57 19.12.2020
4689 Mist -46 1019 63 1400 1 350 12:39 19.12.2020
4690 Mist -45 1019 56 3200 1 360 12:21 19.12.2020
4691 Mist -45 1019 56 1400 1 10 11:48 19.12.2020
4692 Mist -45 1020 56 1400 1 360 11:19 19.12.2020
4693 Mist -45 1020 56 1100 0.64 38 10:42 19.12.2020
4694 Mist -45 1020 56 1300 0.36 40 10:18 19.12.2020
4695 Fog -45 1020 56 900 0.36 40 09:42 19.12.2020
4696 Fog -45 1020 56 900 0.58 51 08:59 19.12.2020
4697 Fog -45 1020 56 800 0.7 39 08:20 19.12.2020
4698 Fog -45 1020 63 700 0.56 13 07:20 19.12.2020
4699 Fog -44 1020 57 800 0.43 11 06:50 19.12.2020
4700 Mist -43 1020 57 1600 1 10 05:24 19.12.2020
4701 Snow -43 1020 57 5000 1 20 03:50 19.12.2020
4702 Snow -41 1020 57 3200 1 30 00:42 19.12.2020
4703 Snow -41 1020 57 5000 1 10 00:22 19.12.2020
4704 Snow -41 1020 64 3200 1 360 23:57 18.12.2020
4705 Snow -41 1020 64 3200 1 360 23:39 18.12.2020
4706 Snow -40 1020 58 3200 1 350 23:18 18.12.2020
4707 Snow -41 1020 64 3200 1 350 22:42 18.12.2020
4708 Snow -41 1020 64 2100 1 340 22:20 18.12.2020
4709 Snow -41 1020 64 1800 1 360 21:46 18.12.2020
4710 Snow -41 1020 64 1800 1 360 21:28 18.12.2020
4711 Snow -40 1020 65 1800 1 350 20:27 18.12.2020
4712 Snow -40 1020 65 1800 1 10 19:52 18.12.2020
4713 Snow -39 1020 58 1800 1 350 19:27 18.12.2020
4714 Snow -39 1020 58 1800 1 350 18:54 18.12.2020
4715 Snow -39 1020 58 1800 1 350 18:36 18.12.2020
4716 Snow -39 1020 65 5000 1.09 337 18:18 18.12.2020
4717 Mist -39 1020 65 5000 1 10 17:22 18.12.2020
4718 Mist -39 1020 65 3200 1 10 16:49 18.12.2020
4719 Snow -39 1020 65 3200 1 320 16:27 18.12.2020
4720 Snow -39 1020 65 3200 1 320 15:56 18.12.2020
4721 Snow -38 1020 58 3200 1 320 15:38 18.12.2020
4722 Snow -38 1020 65 1800 0.97 310 15:20 18.12.2020
4723 Snow -38 1020 65 2400 0.97 310 14:54 18.12.2020
4724 Snow -38 1021 65 3200 1.04 308 14:21 18.12.2020
4725 Snow -38 1020 65 5000 1.04 308 13:46 18.12.2020
4726 Snow -38 1021 65 5000 1.08 313 13:24 18.12.2020
4727 Snow -38 1021 65 5000 1.19 308 12:46 18.12.2020
4728 Snow -38 1021 65 5000 1.19 308 12:46 18.12.2020
4729 Snow -38 1021 65 3200 1.26 312 11:51 18.12.2020
4730 Snow -38 1021 65 3200 1.37 309 11:22 18.12.2020
4731 Snow -38 1021 65 3200 1 360 10:39 18.12.2020
4732 Snow -38 1021 65 3200 1 360 10:20 18.12.2020
4733 Snow -38 1021 65 3200 1 360 09:39 18.12.2020
4734 Mist -38 1021 65 3200 1 10 09:21 18.12.2020
4735 Snow -38 1021 65 3200 1 10 08:53 18.12.2020
4736 Snow -38 1021 65 3200 1 10 08:29 18.12.2020
4737 Snow -37 1020 65 3200 1.64 301 07:39 18.12.2020
4738 Snow -37 1020 65 3200 1.64 298 07:18 18.12.2020
4739 Snow -37 1020 65 3200 1.64 298 06:46 18.12.2020
4740 Snow -37 1020 59 2400 1 10 05:41 18.12.2020
4741 Snow -38 1020 65 2400 2.25 298 04:51 18.12.2020
4742 Mist -39 1021 65 2000 2.07 292 01:58 18.12.2020
4743 Mist -39 1021 65 2000 2.07 292 01:38 18.12.2020
4744 Fog -41 1021 64 900 1 350 23:58 17.12.2020
4745 Fog -41 1020 64 800 1 20 23:25 17.12.2020
4746 Fog -40 1020 58 450 2.47 291 22:54 17.12.2020
4747 Fog -40 1020 58 450 2.65 289 22:29 17.12.2020
4748 Fog -41 1020 64 350 2.65 289 21:57 17.12.2020
4749 Fog -41 1020 64 300 2.65 289 21:37 17.12.2020
4750 Fog -41 1020 64 300 2.49 288 21:18 17.12.2020
4751 Fog -41 1020 64 300 2.49 288 20:41 17.12.2020
4752 Fog -41 1021 57 250 2.38 292 20:19 17.12.2020
4753 Fog -41 1021 64 250 2.38 292 19:48 17.12.2020
4754 Fog -40 1021 58 250 2.61 294 19:24 17.12.2020
4755 Fog -40 1021 65 200 2.61 294 18:42 17.12.2020
4756 Fog -41 1021 64 200 2.69 296 18:23 17.12.2020
4757 Fog -41 1021 64 200 2.69 296 18:23 17.12.2020
4758 Fog -41 1021 64 250 2.69 296 17:54 17.12.2020
4759 Fog -41 1021 64 250 2.69 296 17:33 17.12.2020
4760 Fog -40 1021 65 200 2.77 294 16:47 17.12.2020
4761 Fog -39 1021 58 150 2.63 293 16:27 17.12.2020
4762 Fog -39 1021 58 150 2.63 293 15:57 17.12.2020
4763 Fog -39 1021 58 150 1 220 15:39 17.12.2020
4764 Fog -40 1022 58 100 2.51 294 14:57 17.12.2020
4765 Fog -40 1022 58 100 2.51 294 14:37 17.12.2020
4766 Fog -40 1022 58 100 2.51 294 14:37 17.12.2020
4767 Fog -42 1022 64 350 2.48 293 13:59 17.12.2020
4768 Fog -42 1022 64 450 2.48 293 13:39 17.12.2020
4769 Fog -42 1022 64 350 2.38 294 12:58 17.12.2020
4770 Fog -42 1022 64 250 2.25 294 12:36 17.12.2020
4771 Fog -42 1022 57 350 2.28 288 11:58 17.12.2020
4772 Fog -42 1022 57 350 2.28 288 11:58 17.12.2020
4773 Fog -42 1022 57 400 2.28 288 11:38 17.12.2020
4774 Fog -42 1022 57 300 2.18 287 11:20 17.12.2020
4775 Fog -42 1022 57 250 2.18 287 10:33 17.12.2020
4776 Fog -43 1021 64 450 1.99 289 09:36 17.12.2020
4777 Fog -43 1021 57 250 1.94 292 08:40 17.12.2020
4778 Fog -43 1020 57 250 1.96 290 07:41 17.12.2020
4779 Fog -44 1020 63 300 1.5 296 07:20 17.12.2020
4780 Fog -44 1020 57 500 1.53 300 06:45 17.12.2020
4781 Fog -44 1020 57 550 0.96 310 06:27 17.12.2020
4782 Fog -45 1020 56 350 1.07 211 01:57 17.12.2020
4783 Fog -46 1019 56 450 0.39 140 00:20 17.12.2020
4784 Fog -47 1020 55 500 0.39 140 23:38 16.12.2020
4785 Fog -47 1020 55 650 0.21 101 23:18 16.12.2020
4786 Mist -47 1020 55 1500 0.21 101 22:47 16.12.2020
4787 Mist -47 1020 55 1500 0.32 51 22:28 16.12.2020
4788 Mist -47 1019 55 1500 0.32 51 21:42 16.12.2020
4789 Fog -47 1019 55 900 0.59 68 21:22 16.12.2020
4790 Fog -47 1019 55 800 0.59 68 20:49 16.12.2020
4791 Mist -47 1019 55 1100 0.73 67 20:20 16.12.2020
4792 Mist -47 1019 55 1300 0.73 67 19:38 16.12.2020
4793 Fog -47 1020 55 900 1 340 19:18 16.12.2020
4794 Mist -47 1020 55 1300 1.03 53 18:44 16.12.2020
4795 Mist -47 1020 55 1600 0.87 32 18:22 16.12.2020
4796 Mist -47 1020 55 1400 1 10 17:36 16.12.2020
4797 Fog -47 1020 55 900 0.73 46 16:43 16.12.2020
4798 Fog -47 1020 55 450 0.87 63 16:24 16.12.2020
4799 Fog -47 1020 55 450 0.87 63 15:57 16.12.2020
4800 Fog -47 1020 55 400 1 300 15:37 16.12.2020
4801 Fog -47 1020 55 600 1 310 15:18 16.12.2020
4802 Fog -47 1020 55 900 0.7 44 14:41 16.12.2020
4803 Fog -48 1020 55 800 0.8 53 14:22 16.12.2020
4804 Fog -48 1021 55 900 1 10 13:40 16.12.2020
4805 Fog -48 1021 55 900 1 10 13:20 16.12.2020
4806 Fog -48 1020 55 600 1 360 12:43 16.12.2020
4807 Fog -48 1020 55 400 1 330 11:49 16.12.2020
4808 Fog -48 1020 55 400 1 330 11:27 16.12.2020
4809 Fog -48 1021 55 500 1 350 10:54 16.12.2020
4810 Fog -48 1021 55 500 1 350 10:28 16.12.2020
4811 Fog -48 1021 55 550 1 10 09:55 16.12.2020
4812 Fog -48 1021 55 400 1 360 09:24 16.12.2020
4813 Fog -48 1021 55 500 0.97 72 08:22 16.12.2020
4814 Fog -48 1022 55 400 0.97 72 07:44 16.12.2020
4815 Fog -48 1022 55 400 1 20 07:20 16.12.2020
4816 Fog -49 1022 55 600 0.67 95 03:35 16.12.2020
4817 Fog -48 1023 49 450 0.51 98 01:59 16.12.2020
4818 Fog -48 1023 49 500 0.6 87 23:46 15.12.2020
4819 Fog -48 1023 49 450 0.76 89 23:19 15.12.2020
4820 Fog -48 1024 49 450 0.76 89 22:41 15.12.2020
4821 Fog -49 1024 55 450 0.71 91 22:20 15.12.2020
4822 Fog -49 1024 55 400 1 130 21:46 15.12.2020
4823 Fog -48 1024 49 500 1 110 21:23 15.12.2020
4824 Fog -48 1024 49 500 1 110 20:45 15.12.2020
4825 Fog -48 1024 49 600 0.73 87 20:27 15.12.2020
4826 Fog -48 1024 49 600 0.73 87 19:55 15.12.2020
4827 Fog -49 1025 55 600 0.73 87 19:33 15.12.2020
4828 Fog -49 1025 55 800 0.58 67 18:41 15.12.2020
4829 Fog -49 1026 55 800 1 80 18:22 15.12.2020
4830 Fog -49 1026 55 800 1 80 17:58 15.12.2020
4831 Fog -48 1026 55 800 0.44 61 17:40 15.12.2020
4832 Fog -48 1026 55 800 0.69 74 17:20 15.12.2020
4833 Fog -48 1026 49 800 0.69 74 16:32 15.12.2020
4834 Fog -49 1027 55 650 0.84 62 15:52 15.12.2020
4835 Fog -49 1027 55 650 0.84 62 15:31 15.12.2020
4836 Fog -49 1027 55 800 1 40 14:48 15.12.2020
4837 Fog -49 1027 55 900 0.96 48 14:21 15.12.2020
4838 Fog -49 1027 55 900 0.96 48 13:52 15.12.2020
4839 Fog -49 1027 55 900 0.96 48 13:32 15.12.2020
4840 Fog -49 1027 55 900 0.96 48 13:32 15.12.2020
4841 Fog -49 1028 55 750 1.16 33 12:47 15.12.2020
4842 Fog -49 1028 55 750 1.16 33 12:47 15.12.2020
4843 Fog -49 1028 55 800 1.31 38 12:22 15.12.2020
4844 Fog -49 1028 55 800 1.31 38 11:56 15.12.2020
4845 Fog -49 1028 55 900 1 30 11:26 15.12.2020
4846 Mist -49 1028 55 1200 1 330 10:56 15.12.2020
4847 Fog -49 1029 55 900 1 360 10:34 15.12.2020
4848 Fog -49 1029 55 800 1 330 09:52 15.12.2020
4849 Fog -49 1029 55 800 1 330 09:32 15.12.2020
4850 Mist -49 1029 55 1200 1 10 08:54 15.12.2020
4851 Mist -49 1029 55 1500 2 20 08:29 15.12.2020
4852 Mist -49 1029 55 1100 1 20 07:52 15.12.2020
4853 Mist -49 1029 55 1100 1 20 07:28 15.12.2020
4854 Mist -49 1029 55 1800 1 340 06:37 15.12.2020
4855 Fog -50 1030 54 900 2 10 04:18 15.12.2020
4856 Fog -49 1031 55 800 1 340 00:36 15.12.2020
4857 Fog -49 1031 48 750 1 350 23:27 14.12.2020
4858 Fog -49 1031 48 650 1 350 22:58 14.12.2020
4859 Fog -49 1031 55 600 1 340 22:36 14.12.2020
4860 Fog -49 1031 48 600 1 340 21:53 14.12.2020
4861 Fog -49 1031 48 600 1 340 21:35 14.12.2020
4862 Fog -49 1031 48 550 1 340 20:52 14.12.2020
4863 Fog -49 1031 48 550 1 340 20:30 14.12.2020
4864 Fog -49 1031 55 450 1 320 19:55 14.12.2020
4865 Fog -49 1031 55 450 1 320 19:29 14.12.2020
4866 Fog -48 1031 49 450 1 360 18:51 14.12.2020
4867 Fog -48 1031 49 450 1 360 18:32 14.12.2020
4868 Fog -48 1031 55 250 1 360 17:48 14.12.2020
4869 Fog -48 1031 55 300 1 360 17:28 14.12.2020
4870 Fog -48 1032 55 250 1 350 16:52 14.12.2020
4871 Fog -48 1032 55 250 1 350 16:29 14.12.2020
4872 Fog -47 1032 49 300 1 350 15:46 14.12.2020
4873 Fog -47 1032 55 300 1 10 15:25 14.12.2020
4874 Fog -47 1032 55 250 1 360 14:43 14.12.2020
4875 Fog -47 1032 55 200 1 330 14:25 14.12.2020
4876 Fog -47 1032 49 300 1.24 171 13:46 14.12.2020
4877 Fog -48 1032 55 250 1 360 13:22 14.12.2020
4878 Fog -47 1032 49 200 1 10 12:53 14.12.2020
4879 Fog -47 1032 55 200 1 340 12:28 14.12.2020
4880 Fog -47 1033 55 300 1 350 11:35 14.12.2020
4881 Fog -47 1033 55 150 1 360 10:43 14.12.2020
4882 Fog -47 1033 55 150 1 10 10:25 14.12.2020
4883 Fog -46 1033 56 150 1.44 189 09:44 14.12.2020
4884 Fog -46 1033 56 250 1 10 08:48 14.12.2020
4885 Fog -46 1033 56 250 1 10 08:30 14.12.2020
4886 Fog -44 1033 63 400 1.37 206 07:45 14.12.2020
4887 Fog -44 1033 57 250 1.12 212 06:48 14.12.2020
4888 Fog -45 1033 63 250 1.27 216 05:36 14.12.2020
4889 Fog -46 1034 56 150 1.3 232 02:39 14.12.2020
4890 Fog -46 1034 56 150 1.25 240 00:56 14.12.2020
4891 Fog -46 1034 56 150 1.23 239 00:34 14.12.2020
4892 Fog -46 1034 56 150 1.14 242 23:57 13.12.2020
4893 Fog -46 1034 63 100 1.14 242 23:39 13.12.2020
4894 Fog -45 1034 56 250 1.07 244 22:49 13.12.2020
4895 Fog -45 1034 56 250 1.09 251 22:20 13.12.2020
4896 Fog -45 1035 56 250 1.09 251 21:47 13.12.2020
4897 Fog -45 1035 56 250 1.12 253 21:28 13.12.2020
4898 Fog -45 1035 56 150 1.12 253 20:40 13.12.2020
4899 Fog -45 1035 56 150 1.05 254 20:21 13.12.2020
4900 Fog -45 1035 56 200 1.05 254 19:43 13.12.2020
4901 Fog -45 1035 56 150 1.07 260 19:20 13.12.2020
4902 Fog -45 1035 56 150 1.01 260 18:44 13.12.2020
4903 Fog -45 1035 56 150 1.04 262 18:21 13.12.2020
4904 Fog -45 1035 56 200 1.04 262 17:47 13.12.2020
4905 Fog -45 1035 56 150 1.09 263 17:21 13.12.2020
4906 Fog -45 1035 56 150 1.09 263 16:59 13.12.2020
4907 Fog -46 1035 63 150 1.09 263 16:39 13.12.2020
4908 Fog -45 1035 56 150 1.11 263 16:19 13.12.2020
4909 Fog -45 1035 56 150 1.11 263 15:45 13.12.2020
4910 Fog -45 1035 56 150 1.1 262 15:24 13.12.2020
4911 Fog -46 1035 56 100 1.1 262 14:45 13.12.2020
4912 Fog -46 1035 56 100 1.11 262 14:27 13.12.2020
4913 Fog -46 1035 56 150 1.11 262 13:44 13.12.2020
4914 Fog -46 1035 56 150 1.02 263 13:25 13.12.2020
4915 Fog -44 1035 57 200 1.02 263 12:51 13.12.2020
4916 Fog -44 1035 57 150 0.96 265 12:23 13.12.2020
4917 Fog -44 1035 57 150 0.96 265 11:47 13.12.2020
4918 Fog -44 1034 57 150 0.87 271 11:22 13.12.2020
4919 Fog -45 1034 63 200 0.87 271 10:40 13.12.2020
4920 Fog -45 1034 63 200 0.93 276 09:58 13.12.2020
4921 Fog -45 1034 56 200 0.93 276 09:31 13.12.2020
4922 Fog -45 1034 56 100 1.01 272 08:35 13.12.2020
4923 Fog -44 1034 57 350 0.98 264 07:52 13.12.2020
4924 Fog -44 1033 57 150 0.98 252 05:49 13.12.2020
4925 Fog -46 1033 56 200 0.98 268 02:43 13.12.2020
4926 Fog -45 1033 56 100 0.92 265 01:58 13.12.2020
4927 Fog -46 1033 63 150 0.78 268 01:19 13.12.2020
4928 Fog -46 1032 56 200 0.76 259 00:33 13.12.2020
4929 Fog -46 1032 56 200 0.82 268 23:33 12.12.2020
4930 Fog -46 1032 56 200 0.91 263 22:57 12.12.2020
4931 Fog -46 1032 56 250 0.84 256 22:25 12.12.2020
4932 Fog -47 1032 55 250 0.84 256 21:45 12.12.2020
4933 Fog -46 1032 56 350 0.92 255 21:18 12.12.2020
4934 Fog -46 1032 56 350 0.92 255 20:43 12.12.2020
4935 Fog -46 1032 56 250 0.95 247 20:19 12.12.2020
4936 Fog -46 1032 56 250 0.95 247 19:47 12.12.2020
4937 Fog -46 1032 56 200 0.97 242 19:29 12.12.2020
4938 Fog -46 1032 56 150 1.01 248 18:48 12.12.2020
4939 Fog -46 1032 56 150 1.01 248 18:30 12.12.2020
4940 Fog -46 1032 56 200 0.94 246 17:51 12.12.2020
4941 Fog -47 1032 55 150 0.94 246 17:32 12.12.2020
4942 Fog -47 1032 55 200 0.81 241 16:28 12.12.2020
4943 Fog -46 1032 56 400 0.81 241 15:53 12.12.2020
4944 Fog -46 1032 56 400 0.81 241 15:35 12.12.2020
4945 Fog -46 1032 56 300 0.66 251 14:53 12.12.2020
4946 Fog -46 1032 56 300 0.63 269 13:58 12.12.2020
4947 Fog -46 1032 56 350 1 140 13:38 12.12.2020
4948 Fog -46 1032 56 250 0.64 273 13:19 12.12.2020
4949 Fog -46 1032 56 300 0.71 266 12:32 12.12.2020
4950 Fog -46 1032 56 300 0.74 243 11:18 12.12.2020
4951 Fog -46 1032 56 350 0.74 243 10:42 12.12.2020
4952 Fog -47 1032 55 450 0.63 217 09:23 12.12.2020
4953 Fog -47 1032 55 450 0.19 151 07:26 12.12.2020
4954 Fog -47 1032 55 550 1 340 00:50 12.12.2020
4955 Mist -47 1032 55 1200 1 30 23:19 11.12.2020
4956 Fog -48 1032 55 600 1 10 20:55 11.12.2020
4957 Fog -47 1032 55 350 1 320 19:42 11.12.2020
4958 Fog -47 1031 55 200 1 330 16:49 11.12.2020
4959 Fog -45 1031 56 250 0.69 203 14:29 11.12.2020
4960 Fog -45 1031 56 300 1 360 13:26 11.12.2020
4961 Fog -45 1030 63 200 1 20 12:22 11.12.2020
4962 Fog -44 1030 57 200 1 10 11:52 11.12.2020
4963 Fog -44 1030 57 200 1 10 11:30 11.12.2020
4964 Fog -43 1030 57 250 1 360 10:34 11.12.2020
4965 Fog -41 1029 57 250 0.79 254 07:28 11.12.2020
4966 Fog -43 1027 64 250 1.01 256 05:20 11.12.2020
4967 Fog -44 1027 63 150 1.13 255 02:58 11.12.2020
4968 Fog -43 1026 57 300 1 140 00:42 11.12.2020
4969 Fog -43 1026 57 300 1 130 23:26 10.12.2020
4970 Fog -43 1026 64 300 1.29 278 21:37 10.12.2020
4971 Fog -42 1025 57 150 1 190 20:51 10.12.2020
4972 Fog -42 1025 64 350 1 190 19:53 10.12.2020
4973 Fog -42 1025 64 350 1 190 19:29 10.12.2020
4974 Fog -42 1024 64 300 1 150 18:47 10.12.2020
4975 Fog -42 1024 57 450 1.08 294 17:26 10.12.2020
4976 Fog -42 1023 64 450 1.15 298 15:58 10.12.2020
4977 Fog -42 1023 64 400 1.14 298 15:21 10.12.2020
4978 Fog -42 1023 64 450 1.14 298 14:43 10.12.2020
4979 Mist -40 1022 58 1500 2 290 13:26 10.12.2020
4980 Mist -41 1021 57 1200 1 290 12:21 10.12.2020
4981 Fog -42 1020 64 400 0.93 312 10:54 10.12.2020
4982 Fog -41 1019 57 400 1 150 08:21 10.12.2020
4983 Fog -41 1019 57 400 1 120 07:26 10.12.2020
4984 Fog -40 1017 65 600 0.78 331 05:51 10.12.2020
4985 Fog -42 1016 64 2400 2 310 02:40 10.12.2020
4986 Fog -42 1015 64 350 1 330 01:32 10.12.2020
4987 Fog -42 1014 57 750 0.89 318 23:42 09.12.2020
4988 Fog -42 1013 64 800 1 290 20:39 09.12.2020
4989 Fog -41 1012 57 550 1.15 336 19:46 09.12.2020
4990 Mist -41 1012 64 1500 1 210 18:36 09.12.2020
4991 Mist -40 1012 58 5000 2 290 17:19 09.12.2020
4992 Fog -41 1011 64 800 1 260 16:40 09.12.2020
4993 Fog -41 1011 64 600 1 260 16:20 09.12.2020
4994 Mist -40 1011 65 2100 1 310 14:51 09.12.2020
4995 Mist -40 1011 65 2100 1 310 14:26 09.12.2020
4996 Mist -40 1010 65 5000 1 290 13:37 09.12.2020
4997 Mist -40 1010 65 2100 2 300 13:18 09.12.2020
4998 Mist -40 1010 58 2100 1 310 12:31 09.12.2020
4999 Fog -40 1010 65 1900 1 300 11:37 09.12.2020
5000 Fog -40 1009 65 600 1.91 357 09:51 09.12.2020
5001 Fog -40 1008 65 500 2 340 08:41 09.12.2020
5002 Fog -40 1008 65 500 1 330 06:50 09.12.2020
5003 Fog -40 1008 65 300 1 350 05:28 09.12.2020
5004 Fog -42 1007 64 400 1 310 02:41 09.12.2020
5005 Fog -41 1007 57 450 1 340 00:42 09.12.2020
5006 Fog -42 1007 64 450 1 300 23:35 08.12.2020
5007 Fog -41 1007 57 400 2 330 22:22 08.12.2020
5008 Fog -41 1007 57 400 1 320 20:47 08.12.2020
5009 Fog -41 1007 64 450 1 330 19:31 08.12.2020
5010 Fog -41 1007 57 450 1 320 18:36 08.12.2020
5011 Fog -41 1006 64 350 2 330 17:18 08.12.2020
5012 Fog -41 1006 57 400 1 350 15:23 08.12.2020
5013 Fog -41 1006 64 500 2 340 13:50 08.12.2020
5014 Fog -41 1006 64 550 1 350 12:41 08.12.2020
5015 Fog -41 1006 64 650 2 350 11:59 08.12.2020
5016 Fog -40 1006 58 450 2 340 11:24 08.12.2020
5017 Fog -40 1006 65 500 1 350 10:41 08.12.2020
5018 Fog -40 1006 65 650 2 340 09:45 08.12.2020
5019 Mist -39 1005 65 1500 3 350 07:40 08.12.2020
5020 Fog -39 1005 65 900 2 330 05:42 08.12.2020
5021 Fog -40 1004 65 450 2 330 02:33 08.12.2020
5022 Fog -39 1004 65 600 1 350 00:45 08.12.2020
5023 Mist -38 1004 65 1100 1 330 23:36 07.12.2020
5024 Mist -37 1004 65 2100 2 360 22:21 07.12.2020
5025 Snow -37 1004 65 1100 1 310 21:38 07.12.2020
5026 Mist -37 1004 65 2100 1 360 19:27 07.12.2020
5027 Mist -36 1004 66 5000 1 290 17:59 07.12.2020
5028 Clear -36 1004 66 10000 1 320 17:22 07.12.2020
5029 Clear -36 1004 66 10000 2 290 16:43 07.12.2020
5030 Clear -35 1004 66 10000 1 260 15:25 07.12.2020
5031 Clear -35 1004 73 10000 1 250 14:33 07.12.2020
5032 Clear -35 1004 73 10000 0.48 214 13:37 07.12.2020
5033 Clear -32 1005 74 10000 1 320 12:31 07.12.2020
5034 Clear -33 1004 74 10000 2 270 11:42 07.12.2020
5035 Clear -32 1004 74 10000 1 310 10:36 07.12.2020
5036 Clear -30 1004 67 10000 3 290 09:24 07.12.2020
5037 Snow -29 1003 75 10000 2 310 07:40 07.12.2020
5038 Snow -29 1002 75 10000 2 340 05:29 07.12.2020
5039 Snow -29 1001 75 10000 3 350 04:40 07.12.2020
5040 Snow -28 1001 75 10000 4 350 01:23 07.12.2020
5041 Snow -29 1001 75 10000 3 350 22:53 06.12.2020
5042 Snow -29 1001 75 10000 3 350 22:19 06.12.2020
5043 Snow -29 1002 75 10000 3 340 20:47 06.12.2020
5044 Clear -29 1002 75 10000 3 340 20:26 06.12.2020
5045 Snow -28 1002 75 10000 3 350 19:43 06.12.2020
5046 Snow -28 1002 75 10000 2 350 17:54 06.12.2020
5047 Snow -29 1003 75 10000 2 360 16:39 06.12.2020
5048 Clear -31 1004 74 10000 2 350 14:50 06.12.2020
5049 Clear -32 1004 74 10000 2 350 13:31 06.12.2020
5050 Clear -33 1005 74 10000 2 340 12:36 06.12.2020
5051 Clear -33 1006 74 10000 2 360 11:54 06.12.2020
5052 Clear -33 1006 74 10000 2 340 11:28 06.12.2020
5053 Clear -33 1007 74 10000 2 350 10:42 06.12.2020
5054 Clear -32 1007 67 10000 2 330 09:39 06.12.2020
5055 Mist -31 1008 74 5000 1 350 07:53 06.12.2020
5056 Clear -27 1008 75 10000 3 220 05:22 06.12.2020
5057 Clear -25 1010 75 10000 1 130 00:57 06.12.2020
5058 Clouds -25 1010 83 10000 2 180 00:37 06.12.2020
5059 Clouds -24 1010 76 10000 2 190 00:19 06.12.2020
5060 Clouds -25 1011 83 10000 1 210 22:26 05.12.2020
5061 Clouds -24 1011 76 10000 1 180 21:58 05.12.2020
5062 Clear -23 1011 76 10000 2 170 21:37 05.12.2020
5063 Clear -23 1011 76 10000 2 170 21:19 05.12.2020
5064 Clear -24 1011 76 10000 2 240 18:50 05.12.2020
5065 Clear -23 1011 76 10000 3 250 17:57 05.12.2020
5066 Clear -22 1010 76 10000 4 250 16:49 05.12.2020
5067 Clear -22 1010 76 10000 4 250 16:29 05.12.2020
5068 Snow -21 1010 76 10000 5 270 15:24 05.12.2020
5069 Snow -22 1010 76 10000 5 240 13:53 05.12.2020
5070 Snow -20 1009 76 10000 4 240 11:50 05.12.2020
5071 Snow -21 1008 76 10000 4 230 10:41 05.12.2020
5072 Clear -21 1008 76 10000 4 260 09:38 05.12.2020
5073 Snow -21 1007 76 10000 4 260 07:48 05.12.2020
5074 Snow -21 1006 70 10000 3 270 05:58 05.12.2020
5075 Snow -22 1004 76 10000 5 280 02:18 05.12.2020
5076 Clear -22 1002 76 10000 4 300 23:47 04.12.2020
5077 Snow -22 1002 76 10000 3 280 21:53 04.12.2020
5078 Snow -22 1000 83 5000 2 360 19:42 04.12.2020
5079 Snow -23 999 83 10000 2 20 18:40 04.12.2020
5080 Snow -23 999 83 10000 2 340 17:54 04.12.2020
5081 Snow -22 998 76 5000 1 320 17:19 04.12.2020
5082 Snow -23 998 83 5000 1 350 15:34 04.12.2020
5083 Snow -21 998 76 3200 2 10 13:39 04.12.2020
5084 Snow -21 997 83 3200 1 360 13:20 04.12.2020
5085 Snow -20 997 83 2400 1 60 12:47 04.12.2020
5086 Snow -20 997 83 2400 1 60 12:47 04.12.2020
5087 Snow -20 997 83 3200 1 80 10:38 04.12.2020
5088 Snow -20 996 83 10000 1 30 09:37 04.12.2020
5089 Snow -20 995 76 5000 2 350 06:41 04.12.2020
5090 Snow -21 995 83 5000 2 10 05:40 04.12.2020
5091 Snow -21 995 76 5000 1 350 01:54 04.12.2020
5092 Snow -21 995 76 5000 2 340 22:52 03.12.2020
5093 Snow -21 995 83 5000 2 360 22:18 03.12.2020
5094 Snow -21 995 83 5000 2 360 20:47 03.12.2020
5095 Snow -21 995 83 5000 1 350 19:26 03.12.2020
5096 Snow -21 995 83 5000 2 350 18:49 03.12.2020
5097 Snow -21 995 76 3200 2 350 17:38 03.12.2020
5098 Snow -21 995 76 3200 2 350 17:18 03.12.2020
5099 Snow -22 996 83 5000 2 330 15:45 03.12.2020
5100 Snow -22 996 83 5000 2 330 15:27 03.12.2020
5101 Snow -22 997 83 3200 1 350 14:26 03.12.2020
5102 Snow -22 997 83 3200 2 340 13:36 03.12.2020
5103 Snow -22 998 76 10000 2 360 12:26 03.12.2020
5104 Snow -22 999 76 2400 2 350 11:24 03.12.2020
5105 Snow -23 1000 83 2100 2 360 08:56 03.12.2020
5106 Snow -23 1002 76 10000 3 360 05:23 03.12.2020
5107 Snow -24 1002 83 5000 1 40 02:27 03.12.2020
5108 Snow -24 1003 76 10000 1 30 00:48 03.12.2020
5109 Snow -24 1004 76 10000 3 10 22:47 02.12.2020
5110 Snow -24 1004 76 10000 3 10 22:26 02.12.2020
5111 Snow -25 1003 83 10000 2 360 21:18 02.12.2020
5112 Snow -25 1004 75 10000 2 360 20:44 02.12.2020
5113 Snow -25 1004 75 10000 2 360 20:26 02.12.2020
5114 Snow -26 1004 75 10000 1 350 18:37 02.12.2020
5115 Snow -26 1004 75 10000 2 340 17:45 02.12.2020
5116 Snow -25 1004 75 10000 1 350 17:27 02.12.2020
5117 Snow -25 1005 75 5000 1 350 15:23 02.12.2020
5118 Snow -26 1008 75 10000 1 100 12:45 02.12.2020
5119 Snow -28 1009 75 10000 1 60 10:29 02.12.2020
5120 Snow -28 1010 75 10000 2 30 09:27 02.12.2020
5121 Snow -25 1009 83 10000 2 360 04:39 02.12.2020
5122 Snow -24 1010 76 5000 2 340 22:21 01.12.2020
5123 Snow -24 1010 76 5000 2 340 21:53 01.12.2020
5124 Snow -24 1012 76 3200 1 350 19:36 01.12.2020
5125 Snow -24 1012 76 3200 1 360 18:18 01.12.2020
5126 Snow -24 1013 76 10000 1 30 16:37 01.12.2020
5127 Snow -26 1016 75 10000 1 10 13:39 01.12.2020
5128 Snow -26 1017 75 10000 1 350 12:26 01.12.2020
5129 Snow -27 1017 75 5000 1 350 11:27 01.12.2020
5130 Snow -27 1018 75 5000 1 10 10:39 01.12.2020
5131 Clear -28 1018 75 10000 1 20 09:26 01.12.2020
5132 Snow -27 1019 75 10000 1 360 07:19 01.12.2020
5133 Snow -27 1020 75 5000 1.02 96 01:56 01.12.2020
5134 Snow -27 1020 75 10000 1 310 00:57 01.12.2020
5135 Snow -27 1021 75 10000 1 350 23:22 30.11.2020
5136 Snow -27 1021 82 10000 2 10 22:45 30.11.2020
5137 Snow -27 1021 82 10000 2 10 22:26 30.11.2020
5138 Snow -27 1021 75 10000 1 360 21:55 30.11.2020
5139 Snow -27 1021 75 10000 1 40 19:45 30.11.2020
5140 Snow -28 1022 82 10000 1 72 18:40 30.11.2020
5141 Snow -28 1022 75 10000 0.85 69 18:20 30.11.2020
5142 Snow -28 1022 75 10000 1 50 17:24 30.11.2020
5143 Snow -28 1022 75 10000 1 50 16:43 30.11.2020
5144 Snow -29 1023 75 10000 1 30 14:47 30.11.2020
5145 Snow -29 1023 75 10000 1 40 13:54 30.11.2020
5146 Snow -29 1023 75 10000 1 130 12:34 30.11.2020
5147 Snow -29 1023 68 10000 1 130 11:59 30.11.2020
5148 Snow -31 1024 74 5000 1 120 10:31 30.11.2020
5149 Snow -31 1024 74 5000 1 140 09:52 30.11.2020
5150 Snow -33 1024 67 5000 1 20 07:44 30.11.2020
5151 Clouds -35 1024 73 10000 0.82 353 01:21 30.11.2020
5152 Mist -35 1024 66 5000 2 350 22:20 29.11.2020
5153 Mist -35 1024 66 5000 2 340 21:43 29.11.2020
5154 Mist -35 1024 66 5000 2 340 21:25 29.11.2020
5155 Clear -34 1024 66 10000 1 110 18:31 29.11.2020
5156 Snow -32 1024 74 10000 1 310 16:59 29.11.2020
5157 Mist -34 1024 66 5000 1 220 13:35 29.11.2020
5158 Mist -33 1025 74 5000 0.89 301 12:43 29.11.2020
5159 Clear -33 1025 74 10000 1.11 292 11:22 29.11.2020
5160 Clear -32 1025 74 10000 1 160 08:52 29.11.2020
5161 Clear -31 1024 74 10000 2 150 08:34 29.11.2020
5162 Mist -33 1025 74 5000 1 190 02:31 29.11.2020
5163 Clear -32 1024 74 10000 1 140 22:58 28.11.2020
5164 Clear -32 1024 74 10000 1 260 22:18 28.11.2020
5165 Clear -31 1024 74 10000 0.97 310 19:56 28.11.2020
5166 Clear -32 1024 74 10000 1 0 19:27 28.11.2020
5167 Clear -32 1024 74 10000 0.93 307 18:55 28.11.2020
5168 Clear -30 1024 67 10000 2 280 17:57 28.11.2020
5169 Clear -31 1024 74 10000 2 290 16:56 28.11.2020
5170 Clear -28 1024 75 10000 2 300 14:58 28.11.2020
5171 Clear -29 1024 75 10000 1 290 13:47 28.11.2020
5172 Clear -29 1024 75 10000 2 290 11:27 28.11.2020
5173 Clear -26 1023 83 10000 2 270 09:25 28.11.2020
5174 Clear -21 1022 76 10000 2 290 03:39 28.11.2020
5175 Clear -22 1022 83 10000 2 270 01:52 28.11.2020
5176 Clear -20 1022 76 10000 2 310 23:19 27.11.2020
5177 Clear -20 1021 76 10000 3 310 22:24 27.11.2020
5178 Clear -19 1021 77 10000 3 300 20:39 27.11.2020
5179 Clear -19 1021 77 10000 4 300 19:34 27.11.2020
5180 Clear -19 1021 77 10000 3 300 18:57 27.11.2020
5181 Clear -19 1021 77 10000 5 310 16:27 27.11.2020
5182 Clear -18 1020 77 10000 4 310 14:23 27.11.2020
5183 Clear -18 1021 77 10000 3 300 13:18 27.11.2020
5184 Clear -18 1021 77 10000 4 310 12:46 27.11.2020
5185 Clear -17 1021 77 10000 4 320 11:34 27.11.2020
5186 Clear -17 1021 77 10000 4 300 10:43 27.11.2020
5187 Clear -17 1020 77 10000 3 300 09:31 27.11.2020
5188 Clear -23 1022 76 10000 2 270 23:39 26.11.2020
5189 Clouds -22 1024 89 8395 3.27 276 22:25 26.11.2020
5190 Clear -23 1022 76 10000 2 280 21:45 26.11.2020
5191 Clear -24 1022 83 10000 3 260 20:43 26.11.2020
5192 Clear -24 1022 83 10000 2 260 18:36 26.11.2020
5193 Clear -24 1022 76 10000 1 260 17:31 26.11.2020
5194 Clear -22 1023 76 10000 2 280 13:58 26.11.2020
5195 Clear -22 1022 76 10000 2 300 12:58 26.11.2020
5196 Clear -22 1022 76 10000 3 290 12:39 26.11.2020
5197 Clear -22 1021 76 10000 3 280 10:50 26.11.2020
5198 Clear -22 1021 76 10000 3 280 10:23 26.11.2020
5199 Clear -22 1021 76 10000 2 270 09:34 26.11.2020
5200 Clear -22 1021 76 10000 3 270 08:58 26.11.2020
5201 Clear -22 1021 83 10000 3 270 08:34 26.11.2020
5202 Clear -20 1019 76 10000 4 250 02:19 26.11.2020
5203 Clouds -21 1019 83 10000 2 260 22:20 25.11.2020
5204 Clouds -21 1019 76 10000 2 270 20:37 25.11.2020
5205 Clear -21 1018 83 10000 2 250 19:26 25.11.2020
5206 Clear -22 1018 76 10000 2 240 17:29 25.11.2020
5207 Clouds -21 1017 76 10000 2 280 15:46 25.11.2020
5208 Clouds -20 1017 76 10000 2 290 14:58 25.11.2020
5209 Clouds -21 1017 83 10000 2 280 13:46 25.11.2020
5210 Clouds -21 1016 76 10000 1 280 12:58 25.11.2020
5211 Clouds -20 1016 76 10000 2 260 11:26 25.11.2020
5212 Clouds -19 1015 84 10000 3 290 09:22 25.11.2020
5213 Clouds -19 1015 84 10000 3 290 08:50 25.11.2020
5214 Clouds -18 1014 77 10000 3 290 07:45 25.11.2020
5215 Clouds -27 1015 75 10000 1 280 03:54 25.11.2020
5216 Clouds -29 1015 75 10000 1 230 01:50 25.11.2020
5217 Clouds -29 1015 75 10000 1 150 00:22 25.11.2020
5218 Clear -29 1015 75 10000 1 20 23:36 24.11.2020
5219 Clear -29 1015 75 10000 1 20 23:36 24.11.2020
5220 Clear -29 1015 75 10000 1 20 22:51 24.11.2020
5221 Clear -28 1015 75 10000 1 320 21:50 24.11.2020
5222 Snow -28 1015 75 10000 1 350 21:27 24.11.2020
5223 Snow -28 1015 75 10000 1 350 21:27 24.11.2020
5224 Snow -25 1015 75 10000 2 350 20:19 24.11.2020
5225 Snow -20 1014 83 10000 1 10 17:54 24.11.2020
5226 Clouds -20 1016 91 406 2.63 309 17:28 24.11.2020
5227 Clouds -20 1016 91 406 2.63 309 16:38 24.11.2020
5228 Snow -20 1016 91 313 2.4 316 15:56 24.11.2020
5229 Snow -20 1016 91 281 2.03 313 15:20 24.11.2020
5230 Snow -20 1016 91 281 2.03 313 14:45 24.11.2020
5231 Clouds -21 1016 91 329 1.7 315 14:21 24.11.2020
5232 Clouds -21 1016 91 503 1.05 325 12:42 24.11.2020
5233 Clouds -22 1016 91 1282 0.95 348 12:21 24.11.2020
5234 Clouds -22 1016 91 1282 0.95 348 11:35 24.11.2020
5235 Clouds -21 1015 91 1064 1.36 340 10:26 24.11.2020
5236 Clouds -21 1015 91 1064 1.36 340 09:42 24.11.2020
5237 Clouds -21 1014 91 834 1.33 334 09:22 24.11.2020
5238 Clouds -20 1014 91 1297 1.68 318 06:50 24.11.2020
5239 Clouds -20 1013 90 1932 2.25 299 04:18 24.11.2020
5240 Clouds -27 1009 75 10000 1 100 22:28 23.11.2020
5241 Snow -27 1009 75 10000 1.78 268 21:35 23.11.2020
5242 Clear -30 1009 74 10000 1.76 272 20:50 23.11.2020
5243 Clear -30 1009 67 10000 1 270 20:20 23.11.2020
5244 Snow -30 1009 74 10000 1 170 18:48 23.11.2020
5245 Snow -27 1009 75 10000 1.5 277 17:25 23.11.2020
5246 Clear -28 1008 75 10000 1 130 16:22 23.11.2020
5247 Snow -26 1008 75 10000 1 180 14:47 23.11.2020
5248 Snow -27 1008 75 10000 1 120 13:19 23.11.2020
5249 Snow -28 1008 75 10000 1 110 12:36 23.11.2020
5250 Clear -30 1008 74 10000 0.95 312 11:48 23.11.2020
5251 Clear -30 1008 74 10000 0.95 312 11:48 23.11.2020
5252 Clear -31 1008 74 10000 1 190 11:19 23.11.2020
5253 Clear -33 1007 74 10000 1 180 09:31 23.11.2020
5254 Clear -32 1007 74 10000 1 140 08:47 23.11.2020
5255 Clear -31 1007 74 10000 1 120 07:27 23.11.2020
5256 Clear -31 1006 74 10000 1 340 00:38 23.11.2020
5257 Clear -31 1005 74 10000 1 310 23:36 22.11.2020
5258 Clear -31 1005 74 10000 2 320 22:18 22.11.2020
5259 Clear -30 1005 74 10000 3 330 20:54 22.11.2020
5260 Clear -28 1005 75 10000 3 330 19:58 22.11.2020
5261 Clear -28 1005 75 10000 3 350 18:54 22.11.2020
5262 Clear -27 1004 75 10000 4 350 17:26 22.11.2020
5263 Clear -26 1004 83 10000 4 350 15:53 22.11.2020
5264 Clear -25 1004 75 10000 4 350 14:40 22.11.2020
5265 Snow -23 1004 83 10000 3 350 12:50 22.11.2020
5266 Snow -23 1005 83 10000 4 360 12:18 22.11.2020
5267 Snow -23 1004 83 10000 3 360 11:35 22.11.2020
5268 Snow -22 1004 76 10000 3 350 10:45 22.11.2020
5269 Snow -22 1005 83 5000 3 10 09:42 22.11.2020
5270 Snow -24 1009 76 5000 2 350 01:50 22.11.2020
5271 Snow -25 1009 83 5000 2 340 23:53 21.11.2020
5272 Snow -24 1010 83 10000 2 350 22:25 21.11.2020
5273 Snow -23 1011 83 10000 2 350 21:30 21.11.2020
5274 Snow -22 1011 83 10000 2 350 20:35 21.11.2020
5275 Snow -22 1012 83 10000 2 350 19:57 21.11.2020
5276 Snow -22 1012 83 10000 2 350 19:36 21.11.2020
5277 Snow -22 1013 83 10000 2 340 18:31 21.11.2020
5278 Snow -22 1014 83 10000 2 350 17:28 21.11.2020
5279 Snow -22 1014 83 10000 2 340 16:40 21.11.2020
5280 Snow -22 1014 83 10000 1 330 15:22 21.11.2020
5281 Snow -22 1015 83 10000 1 340 14:48 21.11.2020
5282 Snow -22 1015 83 10000 2 340 14:22 21.11.2020
5283 Snow -22 1016 83 10000 2 340 12:42 21.11.2020
5284 Snow -21 1016 76 10000 2 330 12:20 21.11.2020
5285 Snow -21 1016 83 10000 1 360 10:57 21.11.2020
5286 Snow -21 1016 83 5000 1 340 10:26 21.11.2020
5287 Snow -20 1017 83 10000 2 140 08:51 21.11.2020
5288 Snow -20 1017 83 10000 2 140 06:51 21.11.2020
5289 Clouds -19 1018 84 10000 0.91 230 04:39 21.11.2020
5290 Clear -21 1020 83 10000 2 220 01:43 21.11.2020
5291 Snow -20 1020 83 10000 1.2 243 23:59 20.11.2020
5292 Snow -20 1020 83 10000 1 210 22:26 20.11.2020
5293 Snow -20 1020 83 10000 1 160 21:42 20.11.2020
5294 Snow -20 1020 83 10000 1 150 21:21 20.11.2020
5295 Snow -19 1021 84 10000 2 260 19:46 20.11.2020
5296 Snow -18 1021 84 5000 2 240 18:50 20.11.2020
5297 Snow -18 1021 84 5000 3 210 17:53 20.11.2020
5298 Snow -18 1021 84 5000 2 210 17:27 20.11.2020
5299 Snow -20 1022 83 10000 2 210 16:39 20.11.2020
5300 Snow -18 1022 77 10000 1 200 15:58 20.11.2020
5301 Snow -18 1022 84 10000 2 200 15:27 20.11.2020
5302 Snow -19 1022 84 10000 2 200 13:47 20.11.2020
5303 Snow -19 1022 84 10000 1 160 13:18 20.11.2020
5304 Snow -18 1023 77 10000 2 200 12:36 20.11.2020
5305 Snow -19 1022 84 10000 3 220 11:45 20.11.2020
5306 Snow -20 1022 83 10000 1 150 11:19 20.11.2020
5307 Clear -19 1023 77 10000 4 230 09:30 20.11.2020
5308 Snow -20 1022 83 10000 2 180 08:26 20.11.2020
5309 Snow -19 1022 77 10000 3 140 07:33 20.11.2020
5310 Snow -18 1022 77 10000 5 270 03:44 20.11.2020
5311 Snow -17 1022 84 10000 3 220 22:47 19.11.2020
5312 Snow -17 1022 84 10000 3 220 22:26 19.11.2020
5313 Snow -18 1022 84 10000 3 220 21:46 19.11.2020
5314 Snow -20 1022 83 10000 2 250 20:33 19.11.2020
5315 Snow -21 1022 83 10000 1 230 19:54 19.11.2020
5316 Snow -21 1022 83 10000 1 150 19:25 19.11.2020
5317 Snow -24 1022 83 10000 2.05 256 17:46 19.11.2020
5318 Snow -25 1022 83 10000 2.11 254 16:58 19.11.2020
5319 Clear -28 1022 82 10000 1.97 257 15:41 19.11.2020
5320 Clear -28 1022 82 10000 1.82 260 15:23 19.11.2020
5321 Clear -29 1021 82 10000 1.65 268 13:46 19.11.2020
5322 Clear -29 1021 75 10000 1.83 269 13:20 19.11.2020
5323 Clear -27 1021 75 10000 1 320 12:40 19.11.2020
5324 Clear -27 1021 82 10000 1 340 12:19 19.11.2020
5325 Clear -27 1021 75 10000 1 290 11:36 19.11.2020
5326 Clear -26 1021 83 10000 2 290 10:54 19.11.2020
5327 Clear -26 1021 83 10000 1 210 10:19 19.11.2020
5328 Clear -26 1021 83 10000 1 160 09:44 19.11.2020
5329 Clear -26 1021 83 10000 1 160 09:24 19.11.2020
5330 Clear -23 1021 83 10000 2 140 08:20 19.11.2020
5331 Clear -20 1021 76 10000 1 170 06:20 19.11.2020
5332 Clouds -20 1020 83 10000 4 240 01:45 19.11.2020
5333 Clear -19 1020 84 10000 4 260 00:28 19.11.2020
5334 Clear -20 1020 83 10000 4 240 23:25 18.11.2020
5335 Clear -18 1019 77 10000 4 260 22:36 18.11.2020
5336 Clear -20 1019 83 10000 4 230 22:18 18.11.2020
5337 Clear -19 1019 77 10000 4 230 21:39 18.11.2020
5338 Clear -19 1020 84 10000 4 240 21:20 18.11.2020
5339 Clear -17 1020 84 10000 5 230 19:48 18.11.2020
5340 Clear -17 1020 84 10000 5 230 19:27 18.11.2020
5341 Clear -17 1020 84 10000 5 230 18:55 18.11.2020
5342 Clear -17 1019 77 10000 4 210 18:36 18.11.2020
5343 Clear -24 1019 76 10000 4 220 17:37 18.11.2020
5344 Clear -25 1019 75 10000 1.88 244 16:24 18.11.2020
5345 Clear -22 1019 83 10000 2 210 15:36 18.11.2020
5346 Clouds -21 1019 83 10000 3 210 14:41 18.11.2020
5347 Clouds -22 1019 83 10000 3 220 13:43 18.11.2020
5348 Clouds -21 1020 83 10000 3 210 13:20 18.11.2020
5349 Clouds -21 1020 76 10000 1 210 12:30 18.11.2020
5350 Clouds -21 1020 83 10000 1 170 11:34 18.11.2020
5351 Clouds -21 1020 83 10000 2 140 10:31 18.11.2020
5352 Clouds -21 1019 76 10000 2 160 09:52 18.11.2020
5353 Clouds -20 1020 76 10000 2 160 07:45 18.11.2020
5354 Clouds -20 1019 76 10000 4 220 06:33 18.11.2020
5355 Clear -25 1020 83 10000 2 150 00:29 18.11.2020
5356 Clear -23 1020 76 10000 4 210 23:34 17.11.2020
5357 Clear -23 1020 76 10000 5 220 22:49 17.11.2020
5358 Clear -23 1020 76 10000 5 220 22:28 17.11.2020
5359 Clear -23 1020 83 10000 2 230 21:50 17.11.2020
5360 Clear -23 1020 76 10000 4 230 21:50 17.11.2020
5361 Clear -23 1020 83 10000 2 230 21:30 17.11.2020
5362 Clear -24 1020 76 10000 2 240 20:47 17.11.2020
5363 Clear -24 1020 76 10000 2 240 20:25 17.11.2020
5364 Clear -24 1021 83 10000 2.02 253 19:54 17.11.2020
5365 Snow -22 1021 76 10000 2 270 18:24 17.11.2020
5366 Snow -21 1020 76 10000 3 250 17:39 17.11.2020
5367 Snow -20 1021 76 10000 3 270 16:53 17.11.2020
5368 Snow -19 1021 77 10000 3 270 16:18 17.11.2020
5369 Snow -19 1020 77 10000 3 290 15:40 17.11.2020
5370 Snow -19 1020 77 10000 2 280 15:22 17.11.2020
5371 Snow -19 1020 77 10000 2 280 14:53 17.11.2020
5372 Snow -19 1021 77 10000 2 290 13:59 17.11.2020
5373 Snow -19 1021 77 10000 2 290 13:30 17.11.2020
5374 Snow -20 1021 76 10000 3 270 12:43 17.11.2020
5375 Snow -20 1021 83 10000 3 250 11:59 17.11.2020
5376 Snow -20 1021 76 10000 2 250 11:40 17.11.2020
5377 Clear -21 1021 83 10000 2 250 10:39 17.11.2020
5378 Clear -21 1020 83 10000 3 240 10:20 17.11.2020
5379 Clear -21 1020 83 10000 3 240 09:48 17.11.2020
5380 Clear -20 1020 76 10000 3 250 08:54 17.11.2020
5381 Clear -19 1020 77 10000 4 250 08:20 17.11.2020
5382 Clear -18 1020 70 10000 2 240 07:34 17.11.2020
5383 Snow -17 1019 77 10000 3 270 04:32 17.11.2020
5384 Snow -18 1019 77 10000 4 280 03:29 17.11.2020
5385 Snow -18 1019 77 10000 3 270 02:29 17.11.2020
5386 Snow -19 1019 77 10000 3 240 00:57 17.11.2020
5387 Snow -19 1019 77 10000 3 230 23:57 16.11.2020
5388 Clouds -20 1019 83 10000 2 270 23:37 16.11.2020
5389 Clouds -20 1019 83 10000 2 250 23:19 16.11.2020
5390 Clouds -19 1019 77 10000 3 250 22:26 16.11.2020
5391 Clouds -19 1019 77 10000 4 260 21:58 16.11.2020
5392 Clouds -19 1019 84 10000 4 250 21:39 16.11.2020
5393 Clouds -19 1019 84 10000 4 270 21:20 16.11.2020
5394 Clouds -18 1019 77 10000 4 260 20:26 16.11.2020
5395 Clouds -18 1019 77 10000 4 260 19:55 16.11.2020
5396 Clouds -18 1019 77 10000 4 260 19:29 16.11.2020
5397 Clear -20 1019 83 10000 3 250 18:51 16.11.2020
5398 Clear -20 1019 83 10000 4 250 18:21 16.11.2020
5399 Clear -21 1019 83 10000 4 210 17:36 16.11.2020
5400 Clouds -21 1019 83 10000 5 210 17:18 16.11.2020
5401 Clouds -22 1019 83 10000 4 230 16:49 16.11.2020
5402 Clouds -22 1019 83 10000 4 230 16:26 16.11.2020
5403 Clear -21 1019 83 10000 3 220 15:45 16.11.2020
5404 Clear -21 1019 83 10000 3 220 15:27 16.11.2020
5405 Clear -19 1019 83 10000 2 220 14:48 16.11.2020
5406 Clear -18 1019 77 10000 2 250 13:50 16.11.2020
5407 Clear -20 1019 83 10000 1 210 13:18 16.11.2020
5408 Clear -19 1019 83 10000 1 240 12:30 16.11.2020
5409 Clear -18 1018 77 10000 2 250 11:41 16.11.2020
5410 Clear -18 1018 84 10000 2 270 11:21 16.11.2020
5411 Clear -18 1018 84 10000 1 210 10:44 16.11.2020
5412 Clear -18 1018 84 10000 1 210 10:26 16.11.2020
5413 Clear -18 1018 77 10000 3 250 09:50 16.11.2020
5414 Clear -17 1018 77 10000 4 260 09:25 16.11.2020
5415 Clear -16 1017 77 10000 4 250 08:42 16.11.2020
5416 Clouds -15 1017 77 10000 4 260 07:53 16.11.2020
5417 Clouds -15 1017 71 10000 5 270 06:56 16.11.2020
5418 Clouds -14 1017 77 10000 3 270 06:38 16.11.2020
5419 Snow -14 1016 77 10000 4 270 05:22 16.11.2020
5420 Snow -15 1016 77 10000 4 280 03:54 16.11.2020
5421 Snow -15 1016 77 10000 5 280 01:44 16.11.2020
5422 Snow -15 1016 77 10000 4 280 00:26 16.11.2020
5423 Snow -14 1015 77 10000 4 270 23:28 15.11.2020
5424 Snow -14 1015 77 10000 4 280 22:57 15.11.2020
5425 Snow -14 1015 77 10000 4 280 22:22 15.11.2020
5426 Snow -14 1015 71 10000 3 280 21:51 15.11.2020
5427 Snow -15 1015 77 10000 4 280 21:27 15.11.2020
5428 Snow -15 1014 77 10000 5 270 20:48 15.11.2020
5429 Snow -15 1014 77 10000 5 270 20:28 15.11.2020
5430 Snow -15 1014 77 10000 3 280 19:55 15.11.2020
5431 Snow -15 1014 77 10000 5 280 19:36 15.11.2020
5432 Snow -15 1014 77 10000 4 280 19:18 15.11.2020
5433 Clouds -15 1014 77 10000 3 270 18:43 15.11.2020
5434 Clouds -15 1014 77 10000 3 270 18:24 15.11.2020
5435 Clouds -15 1014 77 10000 3 270 17:47 15.11.2020
5436 Clouds -15 1014 77 10000 3 270 17:26 15.11.2020
5437 Snow -15 1014 77 10000 4 270 16:52 15.11.2020
5438 Snow -15 1014 77 10000 4 270 16:24 15.11.2020
5439 Snow -14 1014 71 10000 6 270 15:58 15.11.2020
5440 Snow -14 1014 77 10000 4 270 15:39 15.11.2020
5441 Snow -14 1014 77 10000 4 280 15:21 15.11.2020
5442 Snow -14 1014 77 10000 4 270 14:45 15.11.2020
5443 Snow -13 1014 78 10000 4 270 14:22 15.11.2020
5444 Snow -13 1014 78 10000 5 280 13:41 15.11.2020
5445 Snow -13 1014 78 10000 4 270 12:54 15.11.2020
5446 Snow -13 1014 78 10000 3 280 12:29 15.11.2020
5447 Snow -13 1014 78 10000 4 270 11:58 15.11.2020
5448 Snow -13 1014 78 10000 5 270 11:40 15.11.2020
5449 Snow -13 1014 78 10000 5 270 11:18 15.11.2020
5450 Snow -13 1015 78 10000 3 270 10:49 15.11.2020
5451 Snow -13 1015 78 10000 3 270 10:29 15.11.2020
5452 Snow -12 1014 78 10000 4 270 09:45 15.11.2020
5453 Snow -12 1014 78 10000 4 270 09:22 15.11.2020
5454 Snow -12 1014 78 10000 4 270 08:54 15.11.2020
5455 Snow -12 1014 78 10000 3 270 08:31 15.11.2020
5456 Snow -11 1014 78 10000 4 270 07:44 15.11.2020
5457 Snow -11 1014 78 10000 6 270 05:33 15.11.2020
5458 Clouds -11 1014 78 10000 4 260 04:51 15.11.2020
5459 Snow -9 1014 85 10000 3 280 01:26 15.11.2020
5460 Snow -10 1014 85 10000 3 280 00:29 15.11.2020
5461 Clouds -10 1014 85 10000 2 310 23:41 14.11.2020
5462 Snow -9 1014 92 10000 3 320 22:53 14.11.2020
5463 Snow -9 1013 92 10000 4 280 22:33 14.11.2020
5464 Snow -9 1013 85 10000 3 280 21:55 14.11.2020
5465 Snow -9 1013 92 10000 3 270 21:36 14.11.2020
5466 Snow -9 1013 92 10000 1 220 21:18 14.11.2020
5467 Snow -9 1013 92 10000 1 160 20:34 14.11.2020
5468 Snow -8 1013 92 10000 1.63 283 19:58 14.11.2020
5469 Snow -8 1013 92 10000 1 340 19:36 14.11.2020
5470 Snow -8 1013 92 10000 1 340 19:36 14.11.2020
5471 Clouds -8 1013 92 10000 1 310 18:55 14.11.2020
5472 Clouds -9 1013 85 10000 2 320 18:37 14.11.2020
5473 Clouds -9 1013 85 10000 2 320 18:37 14.11.2020
5474 Clouds -9 1013 85 10000 2 340 18:19 14.11.2020
5475 Snow -8 1013 92 10000 2 310 17:42 14.11.2020
5476 Snow -8 1013 92 10000 2 310 17:23 14.11.2020
5477 Snow -9 1013 92 10000 2 300 16:51 14.11.2020
5478 Snow -9 1013 92 10000 2 300 16:26 14.11.2020
5479 Snow -8 1012 92 10000 3 300 15:53 14.11.2020
5480 Clouds -8 1012 92 10000 2 300 15:30 14.11.2020
5481 Snow -8 1012 92 10000 2 310 14:50 14.11.2020
5482 Snow -8 1012 85 10000 2 310 14:28 14.11.2020
5483 Snow -8 1012 92 3200 2 330 13:49 14.11.2020
5484 Snow -8 1012 92 3200 2 330 13:27 14.11.2020
5485 Snow -8 1012 92 3200 2 330 12:49 14.11.2020
5486 Snow -8 1012 92 3200 2 330 12:30 14.11.2020
5487 Snow -8 1011 92 2100 3 330 11:54 14.11.2020
5488 Snow -8 1011 92 1900 3 340 11:36 14.11.2020
5489 Snow -8 1011 92 10000 3 340 10:51 14.11.2020
5490 Snow -8 1011 92 10000 3 340 10:27 14.11.2020
5491 Snow -8 1011 92 10000 3 360 09:58 14.11.2020
5492 Clouds -8 1011 92 10000 3 20 09:40 14.11.2020
5493 Clouds -8 1010 92 10000 2 10 09:22 14.11.2020
5494 Clouds -8 1010 92 10000 3 360 08:40 14.11.2020
5495 Clouds -8 1010 92 10000 3 350 08:18 14.11.2020
5496 Clouds -8 1010 92 10000 3 310 07:41 14.11.2020
5497 Snow -8 1010 92 10000 3 300 06:38 14.11.2020
5498 Snow -8 1009 92 10000 3 360 06:20 14.11.2020
5499 Snow -8 1010 92 5000 2 340 04:39 14.11.2020
5500 Clouds -10 1011 92 10000 1 330 01:42 14.11.2020
5501 Snow -10 1011 85 10000 2 350 00:24 14.11.2020
5502 Snow -10 1011 85 10000 1 10 23:33 13.11.2020
5503 Snow -10 1011 92 10000 1 20 22:58 13.11.2020
5504 Snow -10 1011 92 10000 1 350 22:39 13.11.2020
5505 Snow -10 1011 92 10000 1 30 22:19 13.11.2020
5506 Snow -10 1012 92 10000 0.61 151 21:43 13.11.2020
5507 Snow -10 1012 92 10000 0.91 209 21:22 13.11.2020
5508 Snow -10 1012 92 10000 0.91 209 20:51 13.11.2020
5509 Clouds -10 1012 85 10000 0.67 212 20:29 13.11.2020
5510 Snow -11 1012 85 10000 0.67 212 19:54 13.11.2020
5511 Snow -11 1012 85 10000 1 180 19:36 13.11.2020
5512 Clouds -11 1012 92 10000 1 130 19:18 13.11.2020
5513 Clouds -10 1012 92 10000 1 170 18:32 13.11.2020
5514 Snow -10 1012 92 10000 1 140 17:43 13.11.2020
5515 Snow -11 1012 92 10000 2 150 17:21 13.11.2020
5516 Snow -10 1012 85 10000 1 140 16:51 13.11.2020
5517 Snow -10 1012 85 10000 1 140 16:25 13.11.2020
5518 Snow -10 1012 85 10000 1 140 16:25 13.11.2020
5519 Snow -10 1012 92 5000 1 140 15:59 13.11.2020
5520 Snow -10 1012 92 5000 1 140 15:39 13.11.2020
5521 Snow -10 1012 92 5000 1 150 15:20 13.11.2020
5522 Snow -10 1012 92 5000 1 160 14:37 13.11.2020
5523 Snow -10 1013 92 5000 0.84 250 14:18 13.11.2020
5524 Snow -10 1013 92 5000 0.84 250 14:18 13.11.2020
5525 Snow -10 1013 92 5000 0.84 250 14:18 13.11.2020
5526 Snow -10 1013 92 5000 1 260 13:31 13.11.2020
5527 Snow -10 1013 92 5000 1 280 12:55 13.11.2020
5528 Snow -10 1012 92 5000 1 290 12:37 13.11.2020
5529 Snow -10 1013 92 5000 1 290 12:18 13.11.2020
5530 Snow -10 1013 92 3200 1 300 11:45 13.11.2020
5531 Snow -10 1012 92 5000 1 310 11:20 13.11.2020
5532 Snow -10 1012 92 5000 1 320 10:42 13.11.2020
5533 Snow -10 1012 92 5000 1 320 10:42 13.11.2020
5534 Snow -10 1012 92 5000 1 320 10:23 13.11.2020
5535 Snow -10 1012 92 2400 2 330 09:47 13.11.2020
5536 Snow -10 1012 92 2400 2 330 09:27 13.11.2020
5537 Snow -10 1012 92 2400 2 330 09:27 13.11.2020
5538 Snow -10 1012 92 2400 2 330 09:27 13.11.2020
5539 Snow -10 1012 92 2400 2 320 08:53 13.11.2020
5540 Snow -10 1012 92 2400 2 330 08:26 13.11.2020
5541 Snow -10 1012 92 3200 1 330 07:50 13.11.2020
5542 Snow -10 1012 92 3200 1 330 07:27 13.11.2020
5543 Snow -9 1012 92 5000 2 360 06:55 13.11.2020
5544 Snow -9 1013 92 2400 1 40 06:34 13.11.2020
5545 Snow -10 1013 85 10000 1 60 05:41 13.11.2020
5546 Clouds -11 1014 92 10000 1 310 03:41 13.11.2020
5547 Clouds -12 1015 85 10000 2 360 01:42 13.11.2020
5548 Clouds -13 1016 92 10000 2 340 00:35 13.11.2020
5549 Clouds -13 1016 92 10000 2 10 23:49 12.11.2020
5550 Clouds -13 1016 92 10000 3 10 23:21 12.11.2020
5551 Clouds -13 1016 92 10000 3 10 22:54 12.11.2020
5552 Clouds -13 1016 84 10000 2 340 22:36 12.11.2020
5553 Clouds -13 1016 84 10000 3 360 21:57 12.11.2020
5554 Clouds -13 1016 84 10000 3 360 21:39 12.11.2020
5555 Clouds -13 1017 84 10000 3 10 21:19 12.11.2020
5556 Clouds -13 1017 84 10000 4 10 20:41 12.11.2020
5557 Clouds -13 1017 84 10000 3 10 20:23 12.11.2020
5558 Clouds -13 1017 84 10000 3 10 19:52 12.11.2020
5559 Clouds -13 1017 84 10000 3 360 19:34 12.11.2020
5560 Clouds -13 1017 84 10000 3 360 18:56 12.11.2020
5561 Clouds -13 1017 92 10000 4 10 18:37 12.11.2020
5562 Clouds -13 1017 92 10000 4 10 18:18 12.11.2020
5563 Clouds -14 1017 84 10000 4 10 17:39 12.11.2020
5564 Clouds -14 1017 84 10000 4 10 17:21 12.11.2020
5565 Clouds -15 1017 84 10000 4 360 16:44 12.11.2020
5566 Clouds -15 1017 84 10000 4 360 16:23 12.11.2020
5567 Snow -14 1017 84 10000 4 360 15:47 12.11.2020
5568 Snow -14 1017 84 10000 4 360 15:27 12.11.2020
5569 Snow -14 1017 92 5000 3 360 14:47 12.11.2020
5570 Snow -14 1017 92 5000 3 360 14:47 12.11.2020
5571 Snow -14 1017 92 5000 3 360 14:27 12.11.2020
5572 Snow -14 1018 84 5000 3 360 13:58 12.11.2020
5573 Snow -14 1018 92 2400 3 350 13:39 12.11.2020
5574 Snow -14 1018 92 3200 3 350 13:19 12.11.2020
5575 Snow -14 1018 84 3200 4 360 12:44 12.11.2020
5576 Snow -14 1018 84 3200 4 360 12:24 12.11.2020
5577 Snow -14 1018 84 3200 4 360 11:53 12.11.2020
5578 Snow -14 1018 84 3200 4 360 11:30 12.11.2020
5579 Snow -14 1017 92 3200 4 360 10:49 12.11.2020
5580 Snow -14 1017 92 3200 4 360 10:29 12.11.2020
5581 Snow -14 1017 92 5000 4 360 09:50 12.11.2020
5582 Snow -14 1017 84 5000 4 360 09:25 12.11.2020
5583 Snow -14 1017 84 5000 4 360 08:58 12.11.2020
5584 Snow -14 1017 84 5000 4 350 08:40 12.11.2020
5585 Snow -14 1017 84 2400 3 360 08:20 12.11.2020
5586 Snow -14 1017 84 2400 3 360 07:53 12.11.2020
5587 Snow -14 1016 84 3200 4 360 07:30 12.11.2020
5588 Snow -14 1016 84 3200 4 360 06:51 12.11.2020
5589 Snow -14 1016 84 3200 4 360 06:22 12.11.2020
5590 Clouds -14 1016 84 10000 4 10 03:43 12.11.2020
5591 Snow -14 1016 84 10000 4 360 03:18 12.11.2020
5592 Snow -15 1016 84 2400 4 10 00:28 12.11.2020
5593 Snow -16 1016 84 10000 3 20 23:42 11.11.2020
5594 Snow -16 1016 84 10000 3 20 23:23 11.11.2020
5595 Snow -16 1016 84 10000 4 10 22:47 11.11.2020
5596 Snow -16 1016 84 10000 4 360 22:21 11.11.2020
5597 Snow -15 1016 84 10000 4 360 21:56 11.11.2020
5598 Snow -15 1016 84 10000 3 350 21:38 11.11.2020
5599 Snow -15 1015 84 10000 3 350 21:19 11.11.2020
5600 Snow -15 1015 84 10000 3 20 20:42 11.11.2020
5601 Snow -15 1015 84 10000 3 350 20:22 11.11.2020
5602 Snow -15 1015 84 10000 3 350 19:55 11.11.2020
5603 Snow -15 1015 84 10000 4 360 19:37 11.11.2020
5604 Snow -15 1015 77 10000 4 10 19:18 11.11.2020
5605 Snow -15 1015 77 10000 4 10 19:18 11.11.2020
5606 Snow -15 1015 77 10000 4 20 18:41 11.11.2020
5607 Snow -15 1015 84 10000 3 360 18:21 11.11.2020
5608 Clouds -15 1015 84 10000 3 360 17:37 11.11.2020
5609 Clouds -15 1015 77 10000 3 10 17:19 11.11.2020
5610 Clouds -15 1014 91 10000 4 360 16:39 11.11.2020
5611 Clouds -15 1014 91 10000 4 360 16:39 11.11.2020
5612 Snow -15 1014 84 10000 3 360 16:21 11.11.2020
5613 Snow -14 1014 84 10000 4 360 15:41 11.11.2020
5614 Snow -14 1014 84 10000 3 350 15:23 11.11.2020
5615 Snow -14 1014 84 10000 2 350 14:47 11.11.2020
5616 Snow -14 1014 84 10000 2 350 14:28 11.11.2020
5617 Snow -14 1013 84 10000 2 10 13:49 11.11.2020
5618 Snow -14 1013 84 10000 2 10 13:24 11.11.2020
5619 Snow -14 1013 84 10000 2 70 12:22 11.11.2020
5620 Snow -14 1013 84 10000 2 70 11:58 11.11.2020
5621 Snow -14 1013 84 10000 2 30 11:40 11.11.2020
5622 Snow -15 1013 84 10000 1 20 11:20 11.11.2020
5623 Snow -15 1013 84 10000 1 30 10:39 11.11.2020
5624 Snow -15 1013 77 10000 1 110 10:19 11.11.2020
5625 Snow -15 1013 84 10000 2 100 09:43 11.11.2020
5626 Snow -16 1013 84 10000 2 100 09:24 11.11.2020
5627 Snow -16 1013 77 10000 2 70 08:45 11.11.2020
5628 Snow -16 1013 77 10000 2 70 08:25 11.11.2020
5629 Snow -17 1013 84 10000 2 80 07:49 11.11.2020
5630 Snow -17 1012 84 10000 2 70 06:33 11.11.2020
5631 Snow -18 1013 77 10000 2 80 05:59 11.11.2020
5632 Snow -19 1013 76 10000 2 360 02:48 11.11.2020
5633 Snow -21 1013 76 10000 3 10 00:58 11.11.2020
5634 Snow -21 1013 76 10000 3 10 00:58 11.11.2020
5635 Snow -21 1013 76 10000 3 360 00:26 11.11.2020
5636 Clouds -21 1013 76 10000 2 350 23:42 10.11.2020
5637 Clouds -21 1013 76 10000 3 350 23:23 10.11.2020
5638 Clouds -21 1012 83 10000 3 360 22:52 10.11.2020
5639 Clouds -21 1012 83 10000 3 360 22:27 10.11.2020
5640 Snow -21 1012 76 10000 3 350 21:43 10.11.2020
5641 Snow -21 1012 76 10000 3 350 21:25 10.11.2020
5642 Snow -21 1012 76 10000 3 350 20:58 10.11.2020
5643 Snow -21 1011 83 10000 3 360 20:40 10.11.2020
5644 Snow -21 1011 76 10000 4 10 20:22 10.11.2020
5645 Snow -20 1011 83 5000 4 10 19:47 10.11.2020
5646 Snow -20 1011 83 5000 4 10 19:28 10.11.2020
5647 Snow -20 1011 76 10000 4 10 18:58 10.11.2020
5648 Snow -20 1011 83 10000 3 360 18:39 10.11.2020
5649 Snow -20 1011 76 10000 4 10 18:18 10.11.2020
5650 Snow -19 1011 76 10000 4 10 17:43 10.11.2020
5651 Snow -19 1011 76 10000 3 20 17:25 10.11.2020
5652 Snow -19 1011 76 10000 3 30 16:44 10.11.2020
5653 Snow -19 1011 76 10000 3 30 16:24 10.11.2020
5654 Snow -19 1011 76 10000 4 30 15:56 10.11.2020
5655 Snow -19 1011 76 10000 4 30 15:37 10.11.2020
5656 Snow -19 1011 76 10000 4 20 15:19 10.11.2020
5657 Snow -19 1011 76 10000 3 20 14:41 10.11.2020
5658 Snow -19 1011 76 10000 3 30 14:21 10.11.2020
5659 Snow -19 1011 76 10000 3 40 13:41 10.11.2020
5660 Snow -19 1011 76 10000 3 50 13:23 10.11.2020
5661 Snow -19 1011 76 10000 3 50 12:58 10.11.2020
5662 Snow -19 1011 76 10000 3 50 12:38 10.11.2020
5663 Snow -19 1011 76 10000 3 60 12:20 10.11.2020
5664 Snow -19 1011 83 10000 3 70 11:38 10.11.2020
5665 Snow -19 1011 77 10000 3 70 11:19 10.11.2020
5666 Snow -19 1011 77 10000 3 70 11:19 10.11.2020
5667 Clouds -19 1012 77 10000 3 80 10:42 10.11.2020
5668 Clouds -19 1012 77 10000 3 80 10:24 10.11.2020
5669 Clouds -19 1011 77 10000 3 90 09:51 10.11.2020
5670 Clouds -19 1011 77 10000 4 100 09:26 10.11.2020
5671 Clouds -19 1011 77 10000 4 90 08:58 10.11.2020
5672 Clouds -18 1012 84 10000 3 90 08:30 10.11.2020
5673 Clouds -18 1012 77 10000 3 80 07:56 10.11.2020
5674 Clouds -18 1012 77 10000 3 80 07:37 10.11.2020
5675 Clouds -18 1013 77 10000 3 90 07:18 10.11.2020
5676 Clouds -18 1013 77 10000 4 90 06:38 10.11.2020
5677 Snow -18 1014 77 10000 2 100 05:27 10.11.2020
5678 Snow -19 1016 77 10000 2 60 02:59 10.11.2020
5679 Snow -20 1016 76 10000 2 90 01:40 10.11.2020
5680 Snow -20 1016 76 10000 2 60 00:30 10.11.2020
5681 Snow -20 1017 76 10000 2 50 23:42 09.11.2020
5682 Snow -20 1017 76 10000 2 60 22:58 09.11.2020
5683 Snow -20 1017 76 10000 2 60 22:40 09.11.2020
5684 Snow -20 1018 83 10000 2 70 22:20 09.11.2020
5685 Snow -20 1018 83 10000 1 80 21:40 09.11.2020
5686 Snow -20 1018 83 10000 1 70 21:21 09.11.2020
5687 Snow -20 1018 83 10000 1 80 20:41 09.11.2020
5688 Snow -20 1018 83 10000 1 70 20:21 09.11.2020
5689 Snow -20 1018 83 10000 1 80 19:46 09.11.2020
5690 Snow -19 1018 83 10000 1 80 19:23 09.11.2020
5691 Snow -19 1018 83 10000 1 50 18:57 09.11.2020
5692 Snow -19 1019 83 10000 1 100 18:38 09.11.2020
5693 Snow -19 1018 83 10000 2 50 18:18 09.11.2020
5694 Snow -19 1018 83 10000 2 70 17:43 09.11.2020
5695 Snow -19 1018 83 10000 2 70 17:25 09.11.2020
5696 Snow -19 1018 83 10000 3 70 16:44 09.11.2020
5697 Snow -19 1019 83 10000 2 40 16:20 09.11.2020
5698 Snow -19 1019 83 10000 2 350 15:45 09.11.2020
5699 Snow -19 1019 83 10000 2 350 15:25 09.11.2020
5700 Snow -19 1019 83 10000 2 360 14:49 09.11.2020
5701 Snow -19 1019 83 10000 2 360 14:28 09.11.2020
5702 Snow -19 1019 83 10000 3 10 13:52 09.11.2020
5703 Snow -19 1019 76 10000 3 20 13:25 09.11.2020
5704 Snow -20 1019 83 10000 4 360 12:57 09.11.2020
5705 Snow -19 1019 76 10000 3 330 12:39 09.11.2020
5706 Snow -19 1019 76 10000 3 330 12:20 09.11.2020
5707 Snow -19 1019 76 10000 3 330 11:42 09.11.2020
5708 Snow -19 1019 76 10000 3 330 11:24 09.11.2020
5709 Snow -19 1019 76 10000 3 330 11:24 09.11.2020
5710 Snow -19 1019 83 10000 3 320 10:44 09.11.2020
5711 Snow -19 1019 83 10000 3 320 10:25 09.11.2020
5712 Snow -19 1019 83 10000 3 340 09:52 09.11.2020
5713 Snow -18 1019 77 10000 3 350 09:28 09.11.2020
5714 Snow -18 1019 84 10000 3 10 08:49 09.11.2020
5715 Snow -18 1019 84 10000 3 10 08:27 09.11.2020
5716 Snow -18 1019 84 10000 3 360 07:43 09.11.2020
5717 Snow -18 1019 84 10000 3 20 07:22 09.11.2020
5718 Snow -18 1019 84 10000 3 360 06:48 09.11.2020
5719 Snow -17 1018 84 5000 3 10 03:51 09.11.2020
5720 Snow -18 1019 84 5000 1 120 01:57 09.11.2020
5721 Snow -18 1019 84 5000 1 150 01:39 09.11.2020
5722 Snow -18 1019 84 10000 2 190 00:35 09.11.2020
5723 Snow -18 1019 84 10000 2 150 23:40 08.11.2020
5724 Snow -18 1019 84 10000 2 140 23:22 08.11.2020
5725 Snow -18 1019 84 10000 1 160 22:42 08.11.2020
5726 Snow -18 1019 77 10000 1 160 22:21 08.11.2020
5727 Snow -18 1019 84 10000 1 110 21:45 08.11.2020
5728 Snow -19 1019 84 10000 1 120 21:21 08.11.2020
5729 Snow -19 1019 84 10000 1 120 20:56 08.11.2020
5730 Snow -19 1020 84 10000 1.43 280 20:38 08.11.2020
5731 Snow -19 1020 77 10000 1 270 20:19 08.11.2020
5732 Snow -19 1020 83 10000 1 320 19:43 08.11.2020
5733 Snow -19 1020 83 10000 1.47 288 19:21 08.11.2020
5734 Snow -19 1020 83 10000 1.47 288 18:55 08.11.2020
5735 Snow -19 1020 83 10000 1.8 289 18:37 08.11.2020
5736 Snow -20 1020 83 10000 1.87 284 18:19 08.11.2020
5737 Snow -20 1020 83 10000 1.87 284 17:41 08.11.2020
5738 Snow -20 1020 83 10000 1.82 279 17:20 08.11.2020
5739 Snow -20 1020 83 10000 1.82 279 16:57 08.11.2020
5740 Snow -20 1020 83 10000 1 250 16:37 08.11.2020
5741 Snow -20 1020 83 10000 1 250 16:18 08.11.2020
5742 Snow -20 1020 83 10000 1 310 15:44 08.11.2020
5743 Snow -20 1020 83 10000 1 310 15:25 08.11.2020
5744 Snow -20 1020 76 10000 1 260 14:42 08.11.2020
5745 Snow -20 1020 76 10000 1 260 14:23 08.11.2020
5746 Snow -20 1020 76 10000 1 260 14:23 08.11.2020
5747 Snow -21 1020 76 10000 2 230 13:50 08.11.2020
5748 Snow -21 1020 76 10000 2 230 13:24 08.11.2020
5749 Snow -21 1020 76 10000 2 230 13:24 08.11.2020
5750 Clouds -21 1021 76 10000 3 220 12:47 08.11.2020
5751 Clouds -21 1021 76 10000 3 220 12:29 08.11.2020
5752 Clouds -22 1021 76 10000 2 230 11:58 08.11.2020
5753 Clouds -22 1021 76 10000 2 230 11:40 08.11.2020
5754 Clouds -22 1021 76 10000 2 230 11:22 08.11.2020
5755 Clouds -22 1021 76 10000 1 270 10:51 08.11.2020
5756 Clouds -21 1021 76 10000 2 290 10:20 08.11.2020
5757 Clouds -21 1021 76 10000 2 290 09:59 08.11.2020
5758 Clouds -21 1021 76 10000 2 280 09:40 08.11.2020
5759 Clouds -21 1021 76 10000 2 270 09:18 08.11.2020
5760 Clouds -20 1021 76 10000 2 270 08:41 08.11.2020
5761 Clouds -20 1021 70 10000 2 270 08:20 08.11.2020
5762 Clouds -19 1021 70 10000 2 270 07:52 08.11.2020
5763 Clouds -19 1021 70 10000 3 270 07:29 08.11.2020
5764 Snow -19 1020 70 10000 3 260 06:26 08.11.2020
5765 Snow -19 1020 70 10000 3 260 05:53 08.11.2020
5766 Snow -19 1020 70 10000 4 280 04:50 08.11.2020
5767 Snow -19 1020 77 10000 3 300 01:54 08.11.2020
5768 Snow -19 1020 77 10000 3 300 01:19 08.11.2020
5769 Snow -19 1020 77 10000 3 290 00:30 08.11.2020
5770 Snow -19 1020 77 10000 3 280 23:50 07.11.2020
5771 Snow -19 1020 77 10000 3 280 23:30 07.11.2020
5772 Snow -19 1019 77 10000 4 280 22:47 07.11.2020
5773 Snow -19 1019 77 10000 4 280 22:28 07.11.2020
5774 Snow -19 1019 77 10000 3 290 21:56 07.11.2020
5775 Snow -19 1019 77 10000 4 290 21:38 07.11.2020
5776 Snow -19 1019 77 10000 4 290 21:19 07.11.2020
5777 Snow -18 1019 77 10000 3 290 20:45 07.11.2020
5778 Snow -18 1019 77 10000 3 290 20:26 07.11.2020
5779 Snow -18 1019 77 10000 3 270 19:45 07.11.2020
5780 Snow -18 1019 77 10000 3 270 19:27 07.11.2020
5781 Clouds -18 1019 77 10000 2 260 18:43 07.11.2020
5782 Clouds -18 1019 77 10000 2 260 18:25 07.11.2020
5783 Clouds -18 1019 77 10000 3 280 17:48 07.11.2020
5784 Clouds -18 1019 77 10000 3 280 17:29 07.11.2020
5785 Snow -17 1019 77 10000 3 300 16:46 07.11.2020
5786 Snow -17 1019 77 10000 3 300 16:26 07.11.2020
5787 Snow -17 1019 77 10000 2 260 15:58 07.11.2020
5788 Snow -17 1019 77 10000 2 270 15:39 07.11.2020
5789 Snow -17 1019 84 10000 2 250 15:20 07.11.2020
5790 Snow -18 1019 84 10000 2 240 14:42 07.11.2020
5791 Snow -18 1019 84 10000 2 240 14:24 07.11.2020
5792 Snow -19 1019 83 10000 1 240 13:50 07.11.2020
5793 Snow -19 1019 83 10000 1 240 13:29 07.11.2020
5794 Snow -19 1019 83 10000 2.3 299 12:42 07.11.2020
5795 Snow -18 1019 77 10000 2.32 300 12:19 07.11.2020
5796 Snow -18 1019 77 10000 2 270 11:41 07.11.2020
5797 Clear -19 1018 84 10000 2 260 11:22 07.11.2020
5798 Clear -19 1018 83 10000 1 250 10:45 07.11.2020
5799 Clear -19 1018 83 10000 1 250 10:25 07.11.2020
5800 Clear -19 1018 77 10000 1 250 09:49 07.11.2020
5801 Clear -18 1018 77 10000 1 250 09:26 07.11.2020
5802 Clear -18 1017 84 10000 2 300 08:53 07.11.2020
5803 Clear -19 1017 83 10000 2 270 08:34 07.11.2020
5804 Clear -18 1017 77 10000 2 280 07:49 07.11.2020
5805 Clear -17 1016 77 10000 2 210 07:18 07.11.2020
5806 Clear -17 1016 77 10000 2 190 06:47 07.11.2020
5807 Clear -18 1015 76 10000 0.97 349 04:43 07.11.2020
5808 Clear -17 1015 83 10000 1 310 03:23 07.11.2020
5809 Clear -24 1014 83 10000 2 290 01:28 07.11.2020
5810 Clear -25 1014 75 10000 3 290 00:43 07.11.2020
5811 Clear -24 1013 76 10000 3 300 23:50 06.11.2020
5812 Clear -23 1013 83 10000 1 300 23:20 06.11.2020
5813 Clear -22 1013 83 10000 1 310 22:41 06.11.2020
5814 Clear -22 1012 76 10000 2 300 22:19 06.11.2020
5815 Clear -22 1012 83 10000 2 300 21:45 06.11.2020
5816 Clear -21 1012 83 10000 2 310 21:21 06.11.2020
5817 Clear -21 1012 83 10000 2 310 20:52 06.11.2020
5818 Snow -20 1011 83 10000 2 330 20:22 06.11.2020
5819 Snow -20 1011 83 10000 2 330 19:56 06.11.2020
5820 Snow -20 1011 83 10000 2 320 19:38 06.11.2020
5821 Snow -20 1011 83 10000 2 310 19:19 06.11.2020
5822 Clear -19 1011 83 10000 1 320 18:45 06.11.2020
5823 Clear -18 1010 84 10000 1 310 18:23 06.11.2020
5824 Clear -18 1010 84 10000 2 300 17:51 06.11.2020
5825 Clear -18 1010 84 10000 2 300 17:25 06.11.2020
5826 Clear -18 1010 84 10000 2 340 16:50 06.11.2020
5827 Clear -18 1010 84 10000 2 340 16:27 06.11.2020
5828 Clear -18 1009 91 10000 2 330 15:49 06.11.2020
5829 Clear -18 1009 91 10000 2 330 15:29 06.11.2020
5830 Snow -18 1009 84 10000 1 340 14:53 06.11.2020
5831 Snow -18 1009 84 10000 2 340 14:27 06.11.2020
5832 Snow -17 1009 84 10000 2 330 13:46 06.11.2020
5833 Snow -17 1009 84 10000 2 330 13:24 06.11.2020
5834 Snow -17 1008 84 5000 2 340 12:46 06.11.2020
5835 Snow -17 1008 84 5000 2 340 12:23 06.11.2020
5836 Snow -17 1008 84 5000 2 340 11:55 06.11.2020
5837 Snow -17 1008 84 10000 2 350 11:35 06.11.2020
5838 Clear -17 1007 84 10000 2 340 10:46 06.11.2020
5839 Clear -17 1007 84 10000 2 340 10:25 06.11.2020
5840 Clear -18 1006 84 10000 2 340 09:49 06.11.2020
5841 Clear -19 1006 84 10000 2 350 09:22 06.11.2020
5842 Clear -19 1006 84 10000 2 350 08:51 06.11.2020
5843 Clear -18 1006 84 10000 2 350 08:29 06.11.2020
5844 Clear -18 1006 84 10000 2 350 08:29 06.11.2020
5845 Clear -17 1006 84 10000 2 360 07:54 06.11.2020
5846 Snow -16 1005 84 10000 2 10 07:34 06.11.2020
5847 Snow -16 1005 84 10000 2 20 06:58 06.11.2020
5848 Snow -16 1005 84 10000 2 20 06:24 06.11.2020
5849 Snow -16 1004 84 10000 2 10 05:36 06.11.2020
5850 Clear -20 1003 91 10000 3 330 01:23 06.11.2020
5851 Snow -19 1002 91 10000 2 320 00:22 06.11.2020
5852 Snow -18 1002 91 10000 2 340 23:35 05.11.2020
5853 Snow -17 1002 84 10000 2 330 22:58 05.11.2020
5854 Snow -17 1002 84 10000 2 330 22:40 05.11.2020
5855 Snow -17 1002 84 10000 2 330 22:21 05.11.2020
5856 Snow -17 1001 84 10000 2 310 21:44 05.11.2020
5857 Snow -18 1001 84 10000 1 280 21:22 05.11.2020
5858 Snow -18 1001 84 10000 1 280 20:57 05.11.2020
5859 Clear -18 1001 84 10000 1 280 20:39 05.11.2020
5860 Snow -17 1001 84 10000 1 300 20:21 05.11.2020
5861 Snow -17 1001 84 10000 1 270 19:42 05.11.2020
5862 Snow -17 1001 84 10000 1 270 19:23 05.11.2020
5863 Snow -17 1001 91 10000 1 320 18:49 05.11.2020
5864 Snow -17 1001 91 10000 1 320 18:30 05.11.2020
5865 Snow -17 1001 91 10000 1 290 17:54 05.11.2020
5866 Snow -17 1001 91 10000 1 300 17:36 05.11.2020
5867 Snow -16 1001 84 10000 1 310 17:18 05.11.2020
5868 Snow -16 1001 84 10000 1 320 16:41 05.11.2020
5869 Snow -16 1001 84 10000 2 320 16:21 05.11.2020
5870 Snow -16 1001 91 10000 2 330 15:49 05.11.2020
5871 Snow -16 1001 91 10000 2 330 15:24 05.11.2020
5872 Snow -15 1000 92 10000 2 330 14:47 05.11.2020
5873 Snow -15 1000 92 10000 2 330 14:29 05.11.2020
5874 Snow -14 1000 84 5000 2 340 13:49 05.11.2020
5875 Snow -14 1000 84 5000 2 340 13:30 05.11.2020
5876 Snow -14 1000 92 5000 2 330 12:53 05.11.2020
5877 Clouds -13 1000 92 10000 2 310 12:29 05.11.2020
5878 Snow -13 1000 92 10000 2 280 11:57 05.11.2020
5879 Snow -13 1000 92 10000 2.39 291 11:37 05.11.2020
5880 Snow -12 1000 92 3200 1 150 11:19 05.11.2020
5881 Snow -12 1000 92 2400 1 170 10:43 05.11.2020
5882 Snow -12 1000 92 2400 1 170 10:25 05.11.2020
5883 Snow -13 999 92 3200 1 240 09:47 05.11.2020
5884 Snow -13 999 92 3200 1 240 09:22 05.11.2020
5885 Snow -12 999 85 3200 2.44 289 08:44 05.11.2020
5886 Snow -12 999 85 3200 2.6 293 08:26 05.11.2020
5887 Snow -12 999 85 5000 1 70 07:41 05.11.2020
5888 Snow -13 999 92 10000 1 40 07:20 05.11.2020
5889 Snow -13 999 84 5000 1 40 06:41 05.11.2020
5890 Snow -13 999 84 3200 1 40 05:44 05.11.2020
5891 Snow -14 999 84 10000 2 300 01:38 05.11.2020
5892 Clear -14 999 84 10000 2 300 00:33 05.11.2020
5893 Clear -14 999 84 10000 2 330 23:45 04.11.2020
5894 Clear -14 999 84 10000 2 330 23:45 04.11.2020
5895 Clear -14 999 84 10000 2 330 23:26 04.11.2020
5896 Clear -14 999 84 10000 2 320 22:53 04.11.2020
5897 Clear -14 999 84 10000 2 320 22:27 04.11.2020
5898 Clear -14 999 77 10000 3 280 21:59 04.11.2020
5899 Clear -14 999 77 10000 4 330 21:41 04.11.2020
5900 Clear -14 999 77 10000 4 330 21:22 04.11.2020
5901 Clear -15 999 84 10000 3 290 20:44 04.11.2020
5902 Clear -15 999 84 10000 3 290 20:26 04.11.2020
5903 Clear -15 999 84 10000 2 310 19:49 04.11.2020
5904 Clear -15 999 84 10000 2 310 19:30 04.11.2020
5905 Clear -15 999 84 10000 3 310 18:56 04.11.2020
5906 Clear -15 999 84 10000 2 330 18:38 04.11.2020
5907 Clear -15 999 84 10000 3 290 18:20 04.11.2020
5908 Clear -16 999 84 10000 3 290 17:41 04.11.2020
5909 Clear -16 999 84 10000 3 300 17:23 04.11.2020
5910 Clear -17 1000 84 10000 1 250 16:42 04.11.2020
5911 Clear -17 1000 84 10000 2 240 16:24 04.11.2020
5912 Clear -17 1000 84 10000 2 220 15:48 04.11.2020
5913 Clear -17 1000 84 10000 2 220 15:26 04.11.2020
5914 Clear -18 1000 84 10000 1 110 14:59 04.11.2020
5915 Clear -17 1000 84 10000 1 290 14:41 04.11.2020
5916 Clear -17 1000 84 10000 2 280 14:21 04.11.2020
5917 Clear -17 1001 91 10000 3 270 13:47 04.11.2020
5918 Clear -17 1001 84 10000 4 260 13:20 04.11.2020
5919 Clear -17 1001 84 10000 4 260 12:54 04.11.2020
5920 Clear -16 1001 84 10000 4 270 12:36 04.11.2020
5921 Clear -17 1001 84 10000 4 270 11:59 04.11.2020
5922 Clear -17 1001 84 10000 4 270 11:40 04.11.2020
5923 Clear -17 1001 84 10000 3 270 11:20 04.11.2020
5924 Clear -18 1001 84 10000 3 260 10:47 04.11.2020
5925 Clear -18 1001 84 10000 3 260 10:22 04.11.2020
5926 Clear -18 1002 84 10000 2 280 09:53 04.11.2020
5927 Clear -18 1002 84 10000 3 250 09:25 04.11.2020
5928 Clear -19 1002 84 10000 2 210 08:47 04.11.2020
5929 Clear -17 1002 84 10000 2 230 08:21 04.11.2020
5930 Clear -17 1002 84 10000 2 230 07:55 04.11.2020
5931 Clear -17 1002 84 10000 2 200 07:30 04.11.2020
5932 Clear -17 1002 84 10000 1 170 06:55 04.11.2020
5933 Clear -17 1002 84 10000 2 190 06:36 04.11.2020
5934 Clear -19 1003 84 10000 1 150 03:55 04.11.2020
5935 Clear -22 1004 83 10000 1.48 274 02:24 04.11.2020
5936 Fog -28 1005 75 10000 1.64 270 00:57 04.11.2020
5937 Clear -27 1005 75 10000 1 260 23:48 03.11.2020
5938 Clear -27 1005 75 10000 1 260 23:24 03.11.2020
5939 Clear -27 1006 82 10000 2 200 22:42 03.11.2020
5940 Clear -27 1006 75 10000 2 220 22:21 03.11.2020
5941 Clear -27 1006 75 10000 2 220 21:59 03.11.2020
5942 Clear -26 1006 75 10000 2 200 21:41 03.11.2020
5943 Clear -25 1006 75 10000 1 170 21:21 03.11.2020
5944 Clear -26 1007 83 10000 2 180 20:45 03.11.2020
5945 Clear -26 1007 83 10000 2 180 20:26 03.11.2020
5946 Clear -26 1007 83 10000 1 170 19:45 03.11.2020
5947 Clear -26 1007 83 10000 1 170 19:25 03.11.2020
5948 Clear -26 1007 83 10000 1 170 19:25 03.11.2020
5949 Clear -25 1008 75 10000 1 170 18:56 03.11.2020
5950 Clear -25 1008 75 10000 1 180 18:38 03.11.2020
5951 Clear -26 1009 75 10000 1 190 18:18 03.11.2020
5952 Clear -25 1009 75 10000 1 150 17:42 03.11.2020
5953 Clear -26 1009 83 10000 2.05 271 17:23 03.11.2020
5954 Clear -25 1010 83 10000 1 250 16:45 03.11.2020
5955 Clear -25 1010 83 10000 1 250 16:24 03.11.2020
5956 Clear -24 1011 76 10000 1 260 15:48 03.11.2020
5957 Clear -24 1011 76 10000 1 260 15:29 03.11.2020
5958 Clear -25 1011 75 10000 1.8 263 14:53 03.11.2020
5959 Clear -24 1011 76 10000 1 280 14:33 03.11.2020
5960 Clear -25 1012 83 10000 1.69 264 13:47 03.11.2020
5961 Clear -25 1012 83 10000 1.84 275 13:24 03.11.2020
5962 Clear -24 1013 83 10000 1.7 269 12:59 03.11.2020
5963 Clear -24 1013 76 10000 1 210 12:39 03.11.2020
5964 Clear -24 1014 76 10000 1 110 12:20 03.11.2020
5965 Clear -23 1014 76 10000 1.83 279 11:44 03.11.2020
5966 Clear -22 1015 83 10000 2 170 11:20 03.11.2020
5967 Clear -23 1016 83 10000 2 190 10:40 03.11.2020
5968 Clear -23 1016 83 10000 2 190 10:22 03.11.2020
5969 Clear -21 1016 76 10000 1 180 09:59 03.11.2020
5970 Clear -21 1016 83 10000 2 180 09:37 03.11.2020
5971 Clear -20 1017 83 10000 2 170 09:18 03.11.2020
5972 Clear -19 1017 84 10000 2 180 08:42 03.11.2020
5973 Clear -19 1017 84 10000 2 180 08:23 03.11.2020
5974 Clear -18 1019 84 10000 2 160 07:35 03.11.2020
5975 Clear -18 1019 84 10000 2 170 06:53 03.11.2020
5976 Clear -17 1020 84 10000 1 190 06:19 03.11.2020
5977 Snow -19 1023 84 5000 2 200 03:34 03.11.2020
5978 Snow -21 1026 83 2400 1 270 00:43 03.11.2020
5979 Mist -21 1027 76 3200 1 210 00:20 03.11.2020
5980 Mist -22 1027 83 3200 1 200 23:41 02.11.2020
5981 Mist -23 1027 83 3200 1 150 22:56 02.11.2020
5982 Mist -23 1028 83 2400 1 150 22:37 02.11.2020
5983 Mist -23 1028 83 2400 1 160 22:19 02.11.2020
5984 Mist -23 1028 83 2400 0.93 237 21:39 02.11.2020
5985 Snow -24 1029 83 2400 1 230 21:20 02.11.2020
5986 Snow -25 1029 83 3200 1 230 20:42 02.11.2020
5987 Snow -25 1030 75 5000 1 250 20:20 02.11.2020
5988 Snow -25 1030 75 5000 1 250 19:59 02.11.2020
5989 Snow -26 1030 75 5000 1 260 19:41 02.11.2020
5990 Mist -26 1030 75 5000 1 260 19:21 02.11.2020
5991 Mist -28 1031 75 3200 1 290 18:41 02.11.2020
5992 Mist -28 1031 75 2100 1 300 18:21 02.11.2020
5993 Mist -28 1031 75 2100 1 300 17:56 02.11.2020
5994 Mist -28 1032 75 5000 1 300 17:37 02.11.2020
5995 Mist -29 1032 82 5000 1 300 17:18 02.11.2020
5996 Mist -29 1032 75 5000 1 290 16:40 02.11.2020
5997 Mist -28 1032 75 5000 1 310 16:21 02.11.2020
5998 Mist -28 1032 75 2100 1 310 15:39 02.11.2020
5999 Mist -27 1033 82 2100 1 310 15:20 02.11.2020
6000 Mist -27 1033 82 2100 1 310 14:53 02.11.2020
6001 Mist -27 1033 75 2100 1 290 14:20 02.11.2020
6002 Mist -27 1033 75 2100 1 290 13:53 02.11.2020
6003 Mist -27 1033 75 2100 1 310 13:23 02.11.2020
6004 Mist -26 1034 75 2100 1 310 12:55 02.11.2020
6005 Mist -26 1034 83 2100 1 310 12:30 02.11.2020
6006 Mist -25 1034 75 2100 1 290 11:56 02.11.2020
6007 Mist -25 1034 83 2100 1 300 11:37 02.11.2020
6008 Mist -25 1034 83 2100 1 290 11:18 02.11.2020
6009 Mist -25 1034 75 5000 1 300 10:41 02.11.2020
6010 Mist -25 1034 75 5000 1 330 10:20 02.11.2020
6011 Mist -26 1034 83 5000 1 310 09:49 02.11.2020
6012 Mist -26 1034 83 5000 1 310 09:23 02.11.2020
6013 Mist -25 1034 75 3200 1 330 08:42 02.11.2020
6014 Mist -24 1034 83 3200 1 330 08:22 02.11.2020
6015 Mist -24 1034 83 3200 1 330 07:50 02.11.2020
6016 Mist -24 1035 83 5000 1 360 06:52 02.11.2020
6017 Mist -23 1035 76 5000 1 360 06:34 02.11.2020
6018 Mist -27 1035 75 2400 1 320 03:23 02.11.2020
6019 Mist -29 1035 75 1800 1 320 01:24 02.11.2020
6020 Mist -29 1035 75 1800 1 320 01:24 02.11.2020
6021 Mist -29 1035 75 2400 2 320 00:35 02.11.2020
6022 Mist -30 1035 74 2100 1 330 23:41 01.11.2020
6023 Mist -30 1035 74 2100 1 330 23:23 01.11.2020
6024 Mist -31 1034 74 5000 2 300 22:46 01.11.2020
6025 Mist -31 1034 74 5000 2 300 22:25 01.11.2020
6026 Mist -31 1034 74 5000 2 300 22:25 01.11.2020
6027 Mist -31 1034 74 5000 2 290 21:58 01.11.2020
6028 Mist -31 1034 74 5000 2 310 21:38 01.11.2020
6029 Mist -30 1034 74 5000 2 310 21:20 01.11.2020
6030 Mist -30 1034 74 5000 2 310 20:41 01.11.2020
6031 Mist -30 1034 74 5000 2 310 20:23 01.11.2020
6032 Clouds -29 1034 75 10000 1 290 19:43 01.11.2020
6033 Clouds -29 1034 75 10000 1 290 19:24 01.11.2020
6034 Clear -29 1033 75 10000 1 290 18:43 01.11.2020
6035 Clear -29 1033 75 10000 2 300 18:20 01.11.2020
6036 Clear -29 1033 75 10000 2 300 18:20 01.11.2020
6037 Clear -29 1033 75 10000 2 300 18:20 01.11.2020
6038 Clear -29 1033 75 10000 2 300 17:58 01.11.2020
6039 Clear -29 1033 75 10000 2 300 17:40 01.11.2020
6040 Clear -28 1033 75 10000 2 310 17:21 01.11.2020
6041 Clear -28 1033 75 10000 2 310 17:21 01.11.2020
6042 Clear -28 1033 75 10000 1 280 16:41 01.11.2020
6043 Clear -28 1033 82 10000 1 280 16:19 01.11.2020
6044 Clear -28 1033 82 10000 1 280 16:19 01.11.2020
6045 Clear -28 1033 75 10000 2 300 15:42 01.11.2020
6046 Clear -28 1033 75 10000 2 300 15:22 01.11.2020
6047 Clear -28 1033 75 10000 2 290 14:59 01.11.2020
6048 Clear -27 1033 82 10000 1 300 14:41 01.11.2020
6049 Clear -27 1033 75 10000 2 310 14:21 01.11.2020
6050 Clear -26 1032 75 10000 2 310 13:48 01.11.2020
6051 Clear -26 1032 75 10000 2 310 13:30 01.11.2020
6052 Clear -26 1032 75 10000 2 300 12:44 01.11.2020
6053 Clear -26 1032 75 10000 2 300 12:23 01.11.2020
6054 Clouds -26 1032 75 10000 2 290 11:52 01.11.2020
6055 Clouds -25 1032 75 10000 1 230 11:19 01.11.2020
6056 Clouds -25 1032 75 10000 1 230 10:55 01.11.2020
6057 Clouds -25 1031 75 10000 1 180 10:37 01.11.2020
6058 Snow -23 1031 83 10000 2 170 10:19 01.11.2020
6059 Snow -22 1031 76 10000 2 170 09:43 01.11.2020
6060 Clouds -21 1030 76 10000 2 180 08:47 01.11.2020
6061 Clouds -21 1030 76 10000 2 180 08:24 01.11.2020
6062 Clouds -21 1030 76 10000 1 170 07:43 01.11.2020
6063 Snow -21 1029 76 10000 1 140 05:23 01.11.2020
6064 Snow -27 1029 75 10000 0.89 295 01:52 01.11.2020
6065 Mist -31 1029 74 2100 1 290 00:53 01.11.2020
6066 Snow -29 1028 75 5000 2 300 23:29 31.10.2020
6067 Snow -31 1028 74 10000 2 310 22:59 31.10.2020
6068 Snow -31 1028 74 5000 2 290 22:41 31.10.2020
6069 Snow -31 1028 74 5000 2 290 22:22 31.10.2020
6070 Snow -31 1028 74 10000 2 290 21:44 31.10.2020
6071 Snow -30 1028 74 10000 2 290 21:20 31.10.2020
6072 Snow -30 1027 74 10000 1 290 20:39 31.10.2020
6073 Snow -30 1027 67 10000 2 280 20:18 31.10.2020
6074 Snow -29 1027 75 10000 1 270 19:41 31.10.2020
6075 Snow -29 1027 75 10000 1 270 19:23 31.10.2020
6076 Snow -30 1027 74 5000 1 290 18:48 31.10.2020
6077 Snow -30 1027 74 5000 1 290 18:30 31.10.2020
6078 Clear -29 1027 75 10000 1 290 17:41 31.10.2020
6079 Clear -29 1027 75 10000 2 290 17:23 31.10.2020
6080 Clear -29 1027 75 10000 1 280 16:48 31.10.2020
6081 Clear -29 1027 75 10000 1 280 16:29 31.10.2020
6082 Clear -29 1027 75 10000 1 290 15:54 31.10.2020
6083 Clear -29 1027 75 10000 2 290 15:25 31.10.2020
6084 Clear -29 1027 75 10000 2 290 14:53 31.10.2020
6085 Clear -28 1026 75 10000 2 290 14:31 31.10.2020
6086 Clear -28 1026 75 10000 2 290 13:52 31.10.2020
6087 Clear -27 1026 75 10000 2 300 13:28 31.10.2020
6088 Clear -27 1026 75 10000 2 290 12:55 31.10.2020
6089 Clear -27 1026 82 10000 2 290 12:22 31.10.2020
6090 Clear -26 1026 75 10000 2 280 11:41 31.10.2020
6091 Clear -26 1026 83 10000 2 270 11:22 31.10.2020
6092 Clear -25 1025 83 10000 2 260 10:42 31.10.2020
6093 Clear -25 1025 83 10000 2 220 09:57 31.10.2020
6094 Clear -24 1025 83 10000 2 210 09:37 31.10.2020
6095 Clear -24 1025 76 10000 1 190 09:19 31.10.2020
6096 Clear -22 1025 83 10000 1 190 08:26 31.10.2020
6097 Clear -19 1025 77 10000 1 170 07:42 31.10.2020
6098 Clear -19 1025 77 10000 1 170 07:23 31.10.2020
6099 Clear -19 1025 77 10000 1 190 06:36 31.10.2020
6100 Clear -24 1025 83 10000 1.15 5 03:49 31.10.2020
6101 Fog -27 1025 75 10000 2 300 02:48 31.10.2020
6102 Fog -29 1025 75 10000 2 310 00:55 31.10.2020
6103 Fog -30 1025 74 10000 3 310 23:58 30.10.2020
6104 Mist -30 1025 74 5000 3 300 23:38 30.10.2020
6105 Clear -30 1025 74 10000 1 280 23:20 30.10.2020
6106 Clear -30 1025 74 10000 1 280 23:20 30.10.2020
6107 Clear -30 1025 74 10000 3 290 22:40 30.10.2020
6108 Clear -30 1025 74 10000 3 290 22:22 30.10.2020
6109 Clouds -30 1026 74 10000 1 280 21:49 30.10.2020
6110 Clouds -30 1026 74 10000 1 280 21:27 30.10.2020
6111 Clouds -30 1026 74 10000 1 290 20:58 30.10.2020
6112 Clouds -29 1026 75 10000 2 300 20:36 30.10.2020
6113 Clouds -29 1025 75 10000 3 300 20:18 30.10.2020
6114 Clouds -29 1025 75 10000 3 300 19:41 30.10.2020
6115 Clouds -30 1025 74 10000 2 300 19:18 30.10.2020
6116 Clouds -29 1026 75 10000 2 310 18:44 30.10.2020
6117 Clouds -29 1026 75 10000 2 310 18:24 30.10.2020
6118 Clouds -29 1026 75 10000 2 280 17:47 30.10.2020
6119 Clouds -29 1026 75 10000 2 290 17:22 30.10.2020
6120 Clouds -29 1026 75 10000 2 290 16:55 30.10.2020
6121 Clouds -28 1026 75 10000 2 290 16:26 30.10.2020
6122 Clouds -27 1026 75 10000 3 300 15:58 30.10.2020
6123 Clouds -27 1026 75 10000 3 300 15:40 30.10.2020
6124 Clouds -27 1026 75 10000 3 300 15:18 30.10.2020
6125 Clear -27 1026 82 10000 3 300 14:44 30.10.2020
6126 Clear -27 1026 82 10000 3 300 14:25 30.10.2020
6127 Clear -26 1026 83 10000 2 290 13:44 30.10.2020
6128 Clear -26 1026 83 10000 3 290 13:21 30.10.2020
6129 Clear -25 1026 75 10000 2 290 12:49 30.10.2020
6130 Clear -25 1026 83 10000 2 300 12:22 30.10.2020
6131 Clear -25 1026 83 10000 2 300 11:56 30.10.2020
6132 Clear -23 1026 83 10000 2 320 11:23 30.10.2020
6133 Clear -23 1026 83 10000 2 320 10:52 30.10.2020
6134 Clear -23 1026 83 10000 3 330 10:26 30.10.2020
6135 Clear -22 1026 83 10000 3 320 09:57 30.10.2020
6136 Clear -22 1026 83 10000 3 330 09:38 30.10.2020
6137 Clear -22 1026 83 10000 2 330 09:19 30.10.2020
6138 Clear -22 1026 83 10000 2 330 09:19 30.10.2020
6139 Clear -21 1026 83 10000 2 340 08:32 30.10.2020
6140 Clear -20 1026 83 10000 1 350 07:58 30.10.2020
6141 Clear -19 1026 84 10000 1 20 07:40 30.10.2020
6142 Clear -19 1026 84 10000 1 20 07:21 30.10.2020
6143 Clear -18 1026 77 10000 1 250 06:19 30.10.2020
6144 Clear -21 1027 83 10000 1 20 03:59 30.10.2020
6145 Fog -26 1027 75 10000 2 290 01:28 30.10.2020
6146 Mist -27 1027 75 5000 1 290 00:31 30.10.2020
6147 Fog -26 1027 75 10000 3 290 23:46 29.10.2020
6148 Fog -26 1027 75 10000 3 290 23:28 29.10.2020
6149 Clear -26 1028 83 10000 3 300 22:48 29.10.2020
6150 Clear -26 1028 83 10000 3 300 22:27 29.10.2020
6151 Clear -26 1028 83 10000 3 300 21:50 29.10.2020
6152 Clear -25 1028 75 10000 2 290 21:26 29.10.2020
6153 Clear -25 1028 83 10000 3 300 20:57 29.10.2020
6154 Clear -24 1028 76 10000 3 300 20:39 29.10.2020
6155 Clear -24 1028 83 10000 2 290 20:18 29.10.2020
6156 Clear -24 1028 76 10000 2 290 19:39 29.10.2020
6157 Clear -24 1028 83 10000 2 290 19:19 29.10.2020
6158 Clear -24 1028 76 10000 3 280 18:46 29.10.2020
6159 Clear -24 1028 76 10000 3 280 18:26 29.10.2020
6160 Clear -23 1028 83 10000 1 290 17:43 29.10.2020
6161 Clear -19 1028 84 10000 2 300 17:24 29.10.2020
6162 Clear -19 1028 84 10000 2 300 16:55 29.10.2020
6163 Clear -19 1028 91 10000 2 310 16:37 29.10.2020
6164 Clear -20 1028 91 10000 1 340 16:18 29.10.2020
6165 Clear -17 1028 84 10000 2 300 15:41 29.10.2020
6166 Clear -18 1028 91 10000 2 310 15:22 29.10.2020
6167 Clear -18 1028 91 10000 2 310 14:59 29.10.2020
6168 Clear -17 1028 84 10000 2 320 14:40 29.10.2020
6169 Clear -17 1028 84 10000 2 360 14:18 29.10.2020
6170 Clear -17 1028 84 10000 3 350 13:41 29.10.2020
6171 Clear -15 1028 77 10000 4 290 13:22 29.10.2020
6172 Clear -16 1028 84 10000 5 290 12:42 29.10.2020
6173 Clear -15 1028 77 10000 5 290 12:19 29.10.2020
6174 Clear -15 1028 77 10000 4 280 11:48 29.10.2020
6175 Clear -15 1028 77 10000 4 280 11:26 29.10.2020
6176 Clear -15 1028 77 10000 4 280 11:26 29.10.2020
6177 Clear -16 1028 84 10000 2 280 10:38 29.10.2020
6178 Clear -16 1028 84 10000 1.75 294 10:20 29.10.2020
6179 Clear -16 1028 84 10000 1.75 294 09:56 29.10.2020
6180 Clear -14 1028 77 10000 2 260 09:28 29.10.2020
6181 Clear -14 1028 71 10000 2.32 290 08:59 29.10.2020
6182 Clear -12 1028 66 10000 1 280 08:40 29.10.2020
6183 Clear -11 1028 61 10000 2 250 08:18 29.10.2020
6184 Clear -11 1028 66 10000 1 170 07:46 29.10.2020
6185 Clear -11 1028 61 10000 2 220 06:58 29.10.2020
6186 Clear -12 1028 66 10000 2 240 06:21 29.10.2020
6187 Clear -14 1028 71 10000 2 280 04:46 29.10.2020
6188 Clouds -18 1030 91 10000 2.68 288 01:25 29.10.2020
6189 Clouds -17 1030 91 10000 2.7 288 00:31 29.10.2020
6190 Clouds -17 1030 91 10000 2.38 289 23:59 28.10.2020
6191 Clouds -17 1030 91 10000 2.39 287 23:22 28.10.2020
6192 Clouds -15 1027 77 10000 3 300 22:46 28.10.2020
6193 Clouds -15 1027 77 10000 3 300 22:28 28.10.2020
6194 Clouds -15 1027 77 10000 3 300 21:59 28.10.2020
6195 Clouds -14 1027 77 10000 3 300 21:41 28.10.2020
6196 Clouds -14 1027 77 10000 3 290 21:23 28.10.2020
6197 Clouds -14 1027 84 10000 2 270 20:42 28.10.2020
6198 Clouds -14 1027 84 10000 1 220 20:22 28.10.2020
6199 Clouds -14 1027 84 10000 1 220 19:51 28.10.2020
6200 Clouds -14 1027 84 10000 1 200 19:30 28.10.2020
6201 Clouds -15 1027 84 10000 2.3 286 18:50 28.10.2020
6202 Clouds -15 1027 84 10000 1 310 18:22 28.10.2020
6203 Clouds -15 1027 84 10000 1 310 17:57 28.10.2020
6204 Clouds -15 1027 84 10000 2 270 17:39 28.10.2020
6205 Clouds -15 1027 84 10000 2 290 17:18 28.10.2020
6206 Clouds -15 1027 84 10000 2 280 16:44 28.10.2020
6207 Clouds -15 1027 84 10000 2 290 16:23 28.10.2020
6208 Snow -14 1028 84 10000 2 300 15:41 28.10.2020
6209 Clouds -15 1029 93 10000 1.72 293 15:19 28.10.2020
6210 Clouds -15 1029 93 10000 1.72 293 14:44 28.10.2020
6211 Snow -17 1027 84 10000 1.64 293 14:26 28.10.2020
6212 Clouds -14 1029 94 10000 1.38 303 12:55 28.10.2020
6213 Clouds -14 1029 94 6507 1.4 298 12:36 28.10.2020
6214 Clouds -14 1029 94 3086 1.29 310 12:18 28.10.2020
6215 Clouds -14 1029 94 3086 1.29 310 11:41 28.10.2020
6216 Clouds -13 1029 94 1320 1.43 319 11:20 28.10.2020
6217 Clouds -13 1029 94 1320 1.43 319 10:53 28.10.2020
6218 Snow -14 1028 84 5000 1.43 319 10:33 28.10.2020
6219 Snow -14 1028 84 5000 1.43 323 09:46 28.10.2020
6220 Snow -14 1028 84 5000 1.39 338 09:24 28.10.2020
6221 Snow -14 1028 84 5000 1 340 08:51 28.10.2020
6222 Snow -14 1027 84 5000 1 30 08:33 28.10.2020
6223 Snow -14 1027 77 10000 1 20 07:56 28.10.2020
6224 Clouds -14 1027 77 10000 2 10 07:37 28.10.2020
6225 Clouds -14 1027 77 10000 1 30 07:19 28.10.2020
6226 Clouds -14 1027 77 10000 2 10 06:39 28.10.2020
6227 Clouds -14 1028 71 10000 1 30 05:48 28.10.2020
6228 Clouds -15 1028 77 10000 2 10 04:52 28.10.2020
6229 Clouds -15 1028 77 10000 2 10 04:23 28.10.2020
6230 Clouds -15 1028 77 10000 2 330 02:25 28.10.2020
6231 Clouds -16 1028 84 10000 2 310 00:36 28.10.2020
6232 Clear -16 1028 84 10000 2 300 23:51 27.10.2020
6233 Clear -16 1028 84 10000 2 300 23:22 27.10.2020
6234 Clear -16 1028 84 10000 2 300 22:45 27.10.2020
6235 Clear -16 1028 84 10000 2 300 22:25 27.10.2020
6236 Clear -15 1028 77 10000 2 310 21:57 27.10.2020
6237 Clear -15 1028 77 10000 2 300 21:39 27.10.2020
6238 Clear -15 1028 77 10000 2 300 21:20 27.10.2020
6239 Clear -15 1028 77 10000 2 300 20:54 27.10.2020
6240 Clear -15 1028 84 10000 2 300 20:36 27.10.2020
6241 Clouds -15 1028 84 10000 3 300 20:18 27.10.2020
6242 Clouds -15 1028 84 10000 3 300 20:18 27.10.2020
6243 Clouds -15 1028 84 10000 3 300 19:39 27.10.2020
6244 Clouds -15 1028 84 10000 3 300 19:20 27.10.2020
6245 Clouds -15 1028 84 10000 3 300 18:55 27.10.2020
6246 Snow -14 1028 77 10000 4 300 18:37 27.10.2020
6247 Snow -13 1028 78 10000 4 300 18:18 27.10.2020
6248 Snow -13 1028 78 10000 4 300 17:40 27.10.2020
6249 Snow -12 1027 78 5000 3 320 17:20 27.10.2020
6250 Snow -12 1027 85 5000 3 320 16:48 27.10.2020
6251 Snow -12 1027 85 5000 3 320 16:25 27.10.2020
6252 Snow -11 1027 78 10000 3 310 15:47 27.10.2020
6253 Snow -11 1027 78 10000 3 310 15:29 27.10.2020
6254 Clouds -11 1027 72 10000 4 310 14:55 27.10.2020
6255 Clouds -11 1027 72 10000 3 310 14:36 27.10.2020
6256 Clouds -11 1027 72 10000 3 300 14:18 27.10.2020
6257 Clouds -10 1026 72 10000 4 290 13:32 27.10.2020
6258 Clouds -10 1026 72 10000 4 290 12:58 27.10.2020
6259 Clouds -10 1026 72 10000 3 290 12:38 27.10.2020
6260 Clouds -9 1026 66 10000 4 280 12:20 27.10.2020
6261 Clouds -9 1026 66 10000 4 290 11:42 27.10.2020
6262 Clouds -9 1025 72 10000 4 280 11:22 27.10.2020
6263 Clouds -9 1025 78 10000 3 280 10:47 27.10.2020
6264 Clouds -9 1025 78 10000 3 280 10:25 27.10.2020
6265 Clouds -9 1024 78 10000 3 280 09:45 27.10.2020
6266 Clouds -9 1024 78 10000 3 280 09:23 27.10.2020
6267 Clouds -8 1024 72 10000 3 280 08:38 27.10.2020
6268 Clouds -7 1023 67 10000 3 260 08:18 27.10.2020
6269 Clouds -7 1023 67 10000 5 270 07:44 27.10.2020
6270 Clouds -7 1023 67 10000 5 270 07:25 27.10.2020
6271 Clouds -6 1022 73 10000 3 230 06:22 27.10.2020
6272 Clouds -7 1021 79 10000 2 210 05:51 27.10.2020
6273 Clouds -7 1021 79 10000 2 210 05:33 27.10.2020
6274 Clouds -7 1021 73 10000 2 240 04:44 27.10.2020
6275 Clouds -9 1020 78 10000 3 280 02:29 27.10.2020
6276 Clear -9 1019 78 10000 4 280 00:53 27.10.2020
6277 Clouds -8 1018 78 10000 3 290 23:43 26.10.2020
6278 Clouds -9 1018 85 10000 1 310 23:19 26.10.2020
6279 Clouds -9 1018 85 10000 1 310 22:46 26.10.2020
6280 Clouds -9 1017 78 10000 1 310 22:21 26.10.2020
6281 Clouds -9 1017 85 10000 1 300 21:45 26.10.2020
6282 Clouds -9 1017 85 10000 2 310 21:20 26.10.2020
6283 Clouds -9 1017 85 10000 2 310 20:58 26.10.2020
6284 Clouds -10 1017 85 10000 2 320 20:39 26.10.2020
6285 Clear -10 1016 85 10000 2 320 20:18 26.10.2020
6286 Clear -10 1016 85 10000 1 350 19:47 26.10.2020
6287 Clear -10 1016 85 10000 1 350 19:23 26.10.2020
6288 Clear -9 1016 85 10000 1 60 18:44 26.10.2020
6289 Clear -9 1016 85 10000 1 60 18:24 26.10.2020
6290 Clear -9 1015 85 10000 2 90 17:56 26.10.2020
6291 Clear -9 1015 85 10000 2 90 17:37 26.10.2020
6292 Clear -9 1015 85 10000 2 90 17:19 26.10.2020
6293 Clear -8 1015 78 10000 2 80 16:40 26.10.2020
6294 Clear -8 1015 78 10000 2 80 16:21 26.10.2020
6295 Clear -8 1015 78 10000 2 90 15:42 26.10.2020
6296 Clear -8 1015 78 10000 2 90 15:22 26.10.2020
6297 Clear -8 1015 78 10000 3 70 14:52 26.10.2020
6298 Clear -8 1015 78 10000 3 70 14:31 26.10.2020
6299 Clear -7 1015 73 10000 3 80 13:44 26.10.2020
6300 Clear -7 1015 73 10000 3 80 13:24 26.10.2020
6301 Clear -7 1015 73 10000 4 80 12:51 26.10.2020
6302 Clear -7 1016 73 10000 3 70 12:29 26.10.2020
6303 Clear -7 1016 79 10000 3 70 11:57 26.10.2020
6304 Clear -6 1016 67 10000 3 70 11:37 26.10.2020
6305 Clear -6 1016 73 10000 3 90 11:19 26.10.2020
6306 Clear -6 1016 73 10000 4 90 10:46 26.10.2020
6307 Clear -6 1016 73 10000 4 90 10:25 26.10.2020
6308 Clear -6 1016 79 10000 3 60 09:51 26.10.2020
6309 Clear -7 1016 79 10000 3 30 09:26 26.10.2020
6310 Clear -6 1016 73 10000 3 50 08:50 26.10.2020
6311 Clear -7 1016 79 10000 4 40 08:22 26.10.2020
6312 Clear -6 1017 79 10000 3 40 07:38 26.10.2020
6313 Clear -5 1017 73 10000 4 40 07:18 26.10.2020
6314 Clear -8 1018 92 10000 3 10 05:31 26.10.2020
6315 Clear -8 1019 92 10000 2 360 04:19 26.10.2020
6316 Clear -9 1020 92 10000 3 60 03:20 26.10.2020
6317 Clear -12 1020 92 10000 2 330 01:34 26.10.2020
6318 Clear -13 1021 92 10000 2 350 00:33 26.10.2020
6319 Clear -14 1021 84 10000 2 340 23:46 25.10.2020
6320 Clear -14 1021 84 10000 2 340 23:24 25.10.2020
6321 Clear -16 1021 91 10000 1 350 22:45 25.10.2020
6322 Clear -16 1021 91 10000 1 350 22:26 25.10.2020
6323 Clear -16 1021 91 10000 2 350 21:50 25.10.2020
6324 Clear -16 1022 91 10000 1.74 74 21:31 25.10.2020
6325 Clear -16 1022 91 10000 1.7 80 20:58 25.10.2020
6326 Mist -17 1022 84 5000 1.7 80 20:39 25.10.2020
6327 Mist -17 1022 91 5000 1.44 83 20:19 25.10.2020
6328 Mist -17 1022 84 5000 1.44 83 19:49 25.10.2020
6329 Mist -17 1022 84 5000 1.43 83 19:26 25.10.2020
6330 Mist -17 1022 84 5000 1.29 89 18:58 25.10.2020
6331 Mist -17 1023 84 5000 1.29 89 18:40 25.10.2020
6332 Mist -17 1023 91 5000 1.13 93 18:21 25.10.2020
6333 Mist -17 1023 91 5000 1.13 93 17:54 25.10.2020
6334 Mist -16 1023 84 3200 1.13 93 17:36 25.10.2020
6335 Mist -16 1023 84 1800 1.02 94 17:18 25.10.2020
6336 Mist -17 1023 84 1000 1 330 16:39 25.10.2020
6337 Mist -17 1023 84 1000 1 330 16:21 25.10.2020
6338 Fog -17 1023 84 700 1 320 15:47 25.10.2020
6339 Fog -17 1023 84 700 1 320 15:26 25.10.2020
6340 Fog -17 1023 91 700 1 320 14:52 25.10.2020
6341 Mist -16 1024 84 1000 2 330 14:29 25.10.2020
6342 Clouds -17 1024 91 10000 2 330 13:44 25.10.2020
6343 Clouds -17 1024 91 10000 2 330 13:24 25.10.2020
6344 Clear -17 1024 84 10000 2 310 12:50 25.10.2020
6345 Clear -17 1024 84 10000 2 310 12:27 25.10.2020
6346 Clear -17 1024 84 10000 2 320 11:59 25.10.2020
6347 Clear -16 1025 84 10000 2 330 11:41 25.10.2020
6348 Clear -17 1025 91 10000 2 320 11:19 25.10.2020
6349 Clear -16 1025 84 10000 2 320 10:46 25.10.2020
6350 Clear -16 1025 84 10000 2 320 10:25 25.10.2020
6351 Clear -16 1025 91 10000 2 340 09:51 25.10.2020
6352 Clear -14 1025 84 10000 1 340 09:21 25.10.2020
6353 Clear -14 1025 84 10000 1 340 08:58 25.10.2020
6354 Clear -13 1025 84 10000 2 360 08:40 25.10.2020
6355 Clear -11 1025 85 10000 1 10 08:22 25.10.2020
6356 Clear -9 1025 78 10000 1 180 07:42 25.10.2020
6357 Clear -9 1025 72 10000 0.87 143 06:52 25.10.2020
6358 Clear -9 1025 72 10000 0.96 172 06:26 25.10.2020
6359 Clouds -11 1026 78 10000 1 150 05:19 25.10.2020
6360 Fog -12 1026 85 10000 1 150 04:48 25.10.2020
6361 Clouds -19 1027 84 10000 1 270 02:24 25.10.2020
6362 Clear -20 1026 83 10000 1 300 00:53 25.10.2020
6363 Clear -20 1026 83 10000 2 290 00:28 25.10.2020
6364 Clear -20 1026 83 10000 2 290 23:54 24.10.2020
6365 Clear -20 1026 83 10000 2 290 23:31 24.10.2020
6366 Clear -20 1026 83 10000 3 270 22:58 24.10.2020
6367 Clear -20 1026 83 10000 2 270 22:40 24.10.2020
6368 Clear -20 1026 83 10000 2 270 22:21 24.10.2020
6369 Clear -19 1026 84 10000 2 280 21:54 24.10.2020
6370 Clear -19 1026 84 10000 2 280 21:36 24.10.2020
6371 Clear -18 1026 84 10000 2 280 21:18 24.10.2020
6372 Clear -18 1026 91 10000 2 290 20:42 24.10.2020
6373 Clear -17 1026 84 10000 3 290 20:20 24.10.2020
6374 Clear -17 1026 84 10000 3 290 19:40 24.10.2020
6375 Clear -17 1026 84 10000 2 300 19:22 24.10.2020
6376 Clear -17 1025 91 10000 3 290 18:51 24.10.2020
6377 Clear -17 1025 91 10000 3 290 18:30 24.10.2020
6378 Clear -16 1025 84 10000 3 300 17:44 24.10.2020
6379 Clear -16 1025 84 10000 3 300 17:25 24.10.2020
6380 Clear -15 1025 84 10000 3 290 16:53 24.10.2020
6381 Clear -15 1024 92 10000 3 300 16:35 24.10.2020
6382 Clear -15 1024 84 10000 2 300 15:57 24.10.2020
6383 Clear -14 1024 84 10000 3 290 15:38 24.10.2020
6384 Clear -15 1024 92 10000 2 250 15:18 24.10.2020
6385 Clear -13 1024 84 10000 1 300 14:38 24.10.2020
6386 Clear -13 1024 92 10000 3 290 14:19 24.10.2020
6387 Clear -13 1024 92 10000 3 300 13:44 24.10.2020
6388 Clear -13 1023 92 10000 2 310 13:19 24.10.2020
6389 Clear -11 1023 85 10000 2 310 12:37 24.10.2020
6390 Clear -10 1023 85 10000 2 320 12:19 24.10.2020
6391 Clear -10 1023 92 10000 3 320 11:50 24.10.2020
6392 Clear -10 1023 92 10000 3 320 11:23 24.10.2020
6393 Clear -9 1022 85 10000 2 330 10:44 24.10.2020
6394 Clear -9 1022 85 10000 2 330 10:26 24.10.2020
6395 Clear -5 1022 67 10000 1 360 09:46 24.10.2020
6396 Clear -5 1022 67 10000 1 360 09:26 24.10.2020
6397 Clear -5 1021 73 10000 0.32 136 08:57 24.10.2020
6398 Clear -4 1021 62 10000 0.64 169 08:19 24.10.2020
6399 Clear -4 1021 62 10000 0.64 169 07:51 24.10.2020
6400 Clear -5 1020 73 10000 1 210 07:21 24.10.2020
6401 Clear -5 1020 67 10000 2 170 06:50 24.10.2020
6402 Clear -5 1020 67 10000 3 170 05:46 24.10.2020
6403 Clear -7 1020 79 10000 3 170 02:26 24.10.2020
6404 Clear -8 1020 85 10000 3 130 00:56 24.10.2020
6405 Clear -9 1020 92 10000 2 140 00:37 24.10.2020
6406 Clear -9 1020 92 10000 3 130 00:19 24.10.2020
6407 Clear -9 1020 85 10000 2 140 23:41 23.10.2020
6408 Clear -9 1020 85 10000 2 140 23:22 23.10.2020
6409 Clear -10 1020 85 10000 3 140 22:42 23.10.2020
6410 Clear -10 1020 85 10000 3 140 22:22 23.10.2020
6411 Mist -11 1021 92 5000 3.15 145 21:58 23.10.2020
6412 Mist -17 1020 84 5000 3.15 145 21:39 23.10.2020
6413 Mist -17 1021 84 5000 2.78 139 21:20 23.10.2020
6414 Mist -19 1021 84 5000 2.78 139 20:39 23.10.2020
6415 Mist -19 1021 84 5000 2.57 139 20:20 23.10.2020
6416 Mist -19 1021 84 5000 2.54 139 19:45 23.10.2020
6417 Mist -19 1021 84 5000 2.18 141 19:26 23.10.2020
6418 Mist -19 1021 84 5000 2.18 141 18:48 23.10.2020
6419 Mist -19 1021 84 5000 2.18 141 18:30 23.10.2020
6420 Mist -19 1021 84 5000 2.26 141 17:47 23.10.2020
6421 Mist -19 1021 84 5000 2.18 143 17:22 23.10.2020
6422 Fog -19 1021 84 5000 2.18 143 16:55 23.10.2020
6423 Clear -19 1021 84 10000 2.18 143 16:35 23.10.2020
6424 Clear -19 1021 84 10000 2.18 137 15:58 23.10.2020
6425 Clear -18 1021 84 10000 2.18 137 15:40 23.10.2020
6426 Clear -18 1021 91 10000 2.13 143 15:19 23.10.2020
6427 Clear -18 1021 91 10000 2.13 143 15:19 23.10.2020
6428 Clear -18 1021 84 10000 2.13 143 14:48 23.10.2020
6429 Clear -18 1021 84 10000 2.38 142 14:29 23.10.2020
6430 Clear -18 1021 84 10000 2.25 142 13:43 23.10.2020
6431 Clear -18 1021 84 10000 2.28 145 13:24 23.10.2020
6432 Clear -17 1021 91 10000 2.28 145 12:51 23.10.2020
6433 Clear -17 1021 84 10000 2.28 145 12:31 23.10.2020
6434 Clear -17 1021 91 10000 2.2 145 11:56 23.10.2020
6435 Clear -17 1021 91 10000 2.2 145 11:38 23.10.2020
6436 Clear -17 1021 91 10000 2.48 134 11:19 23.10.2020
6437 Clear -17 1021 91 10000 2.48 134 10:39 23.10.2020
6438 Clear -15 1021 92 10000 1.96 127 10:20 23.10.2020
6439 Clear -14 1021 92 10000 1.96 127 09:43 23.10.2020
6440 Clear -14 1021 92 10000 1.87 122 09:23 23.10.2020
6441 Clear -13 1021 84 10000 1.87 122 08:51 23.10.2020
6442 Clear -14 1021 92 10000 1.16 135 08:26 23.10.2020
6443 Clear -14 1021 92 10000 1.52 155 07:27 23.10.2020
6444 Mist -14 1021 92 5000 1.52 155 06:49 23.10.2020
6445 Mist -14 1022 84 2300 1.67 160 06:20 23.10.2020
6446 Fog -15 1022 84 650 1.74 164 04:42 23.10.2020
6447 Fog -17 1022 84 150 1.43 187 02:28 23.10.2020
6448 Fog -19 1022 91 250 1 320 00:54 23.10.2020
6449 Fog -19 1022 91 100 1 330 00:32 23.10.2020
6450 Fog -18 1022 91 100 1 330 23:38 22.10.2020
6451 Fog -18 1022 84 100 1 340 23:19 22.10.2020
6452 Fog -18 1021 84 200 1 0 22:45 22.10.2020
6453 Fog -18 1021 84 200 1 0 22:26 22.10.2020
6454 Mist -19 1021 91 2100 0.76 180 21:56 22.10.2020
6455 Mist -20 1021 83 5000 2 270 21:37 22.10.2020
6456 Mist -20 1021 83 5000 1 0 21:18 22.10.2020
6457 Mist -21 1021 83 5000 1 330 20:42 22.10.2020
6458 Mist -21 1021 83 5000 1 330 20:24 22.10.2020
6459 Mist -20 1021 91 5000 1 290 19:43 22.10.2020
6460 Fog -19 1021 84 600 1 330 19:20 22.10.2020
6461 Mist -18 1020 84 5000 2 310 18:44 22.10.2020
6462 Mist -18 1020 84 5000 1 330 18:22 22.10.2020
6463 Mist -18 1020 84 5000 1 330 17:58 22.10.2020
6464 Mist -17 1020 84 5000 2 300 17:39 22.10.2020
6465 Mist -17 1020 91 5000 2 300 17:20 22.10.2020
6466 Mist -17 1020 84 5000 2 300 16:42 22.10.2020
6467 Mist -17 1020 84 5000 2 300 16:23 22.10.2020
6468 Mist -17 1020 91 5000 1 300 15:48 22.10.2020
6469 Mist -17 1020 91 5000 1 300 15:26 22.10.2020
6470 Mist -18 1020 91 5000 1 330 14:50 22.10.2020
6471 Mist -18 1020 91 5000 1 330 14:27 22.10.2020
6472 Mist -15 1020 92 5000 1 330 13:57 22.10.2020
6473 Mist -15 1019 92 5000 2 300 13:38 22.10.2020
6474 Mist -15 1019 84 3200 1 320 13:20 22.10.2020
6475 Fog -14 1019 92 800 1 300 12:28 22.10.2020
6476 Clouds -13 1019 92 10000 1 10 11:51 22.10.2020
6477 Clouds -13 1019 92 10000 2 350 11:21 22.10.2020
6478 Clouds -13 1019 92 10000 2 350 10:56 22.10.2020
6479 Clouds -11 1018 85 10000 2 350 10:38 22.10.2020
6480 Clouds -10 1018 85 10000 1 320 10:18 22.10.2020
6481 Clouds -8 1018 78 10000 1 300 09:42 22.10.2020
6482 Clouds -5 1018 67 10000 1 200 08:58 22.10.2020
6483 Clouds -4 1017 62 10000 1 210 08:39 22.10.2020
6484 Clouds -3 1017 63 10000 1 170 08:19 22.10.2020
6485 Clouds -4 1017 73 10000 2 170 07:43 22.10.2020
6486 Clouds -4 1017 73 10000 2 150 06:59 22.10.2020
6487 Clouds -5 1017 85 10000 2 140 06:37 22.10.2020
6488 Clouds -6 1017 85 10000 0.71 173 05:42 22.10.2020
6489 Clouds -7 1016 92 10000 0.66 195 05:22 22.10.2020
6490 Clouds -12 1015 92 10000 1 320 02:25 22.10.2020
6491 Clouds -15 1014 84 10000 2 280 00:27 22.10.2020
6492 Clouds -14 1014 84 10000 2 260 23:58 21.10.2020
6493 Clouds -14 1013 92 10000 1 290 23:37 21.10.2020
6494 Clouds -13 1013 92 10000 1 280 22:58 21.10.2020
6495 Clouds -12 1013 85 10000 1 250 22:36 21.10.2020
6496 Clouds -11 1013 92 10000 1 160 22:18 21.10.2020
6497 Clouds -12 1012 92 10000 1.33 277 21:42 21.10.2020
6498 Clouds -11 1012 92 10000 1.41 280 21:19 21.10.2020
6499 Snow -10 1012 92 10000 1 250 20:48 21.10.2020
6500 Snow -10 1012 100 10000 1.47 275 20:19 21.10.2020
6501 Snow -10 1012 100 10000 1.47 275 19:59 21.10.2020
6502 Snow -9 1012 92 10000 1 280 19:38 21.10.2020
6503 Snow -9 1012 92 10000 1 260 19:18 21.10.2020
6504 Snow -8 1012 92 10000 1 180 18:46 21.10.2020
6505 Snow -8 1012 92 10000 1 180 18:25 21.10.2020
6506 Clouds -8 1012 92 10000 1 230 17:45 21.10.2020
6507 Clouds -9 1011 92 10000 1.3 213 17:20 21.10.2020
6508 Clouds -9 1011 92 10000 1.3 213 16:56 21.10.2020
6509 Clouds -9 1011 92 10000 1 240 16:36 21.10.2020
6510 Clouds -9 1011 92 10000 1 240 16:18 21.10.2020
6511 Clouds -11 1011 100 10000 2 300 15:42 21.10.2020
6512 Clouds -11 1011 100 10000 2 300 15:20 21.10.2020
6513 Clouds -10 1011 92 10000 2 270 14:46 21.10.2020
6514 Snow -10 1011 92 10000 1 280 14:28 21.10.2020
6515 Snow -9 1011 92 5000 1 300 13:46 21.10.2020
6516 Snow -9 1011 92 5000 1 300 13:27 21.10.2020
6517 Snow -8 1011 92 5000 2 290 12:55 21.10.2020
6518 Snow -8 1011 92 5000 2 290 12:37 21.10.2020
6519 Snow -8 1011 92 5000 2 310 12:18 21.10.2020
6520 Snow -7 1011 92 5000 2 330 11:40 21.10.2020
6521 Snow -7 1011 92 5000 2 330 11:20 21.10.2020
6522 Snow -7 1011 92 5000 2 320 10:46 21.10.2020
6523 Snow -7 1011 92 5000 2 330 10:25 21.10.2020
6524 Snow -7 1010 92 5000 2 350 09:53 21.10.2020
6525 Snow -7 1010 92 5000 2 350 09:53 21.10.2020
6526 Snow -7 1010 92 10000 2 340 09:33 21.10.2020
6527 Snow -7 1010 92 10000 3 350 08:56 21.10.2020
6528 Snow -7 1010 92 10000 3 350 08:56 21.10.2020
6529 Snow -6 1010 85 5000 3 340 08:38 21.10.2020
6530 Snow -6 1010 85 5000 3 340 08:19 21.10.2020
6531 Snow -6 1010 85 5000 3 340 08:19 21.10.2020
6532 Snow -6 1010 85 5000 3 340 07:37 21.10.2020
6533 Snow -6 1010 85 5000 3 340 06:52 21.10.2020
6534 Snow -6 1010 85 10000 3 340 06:27 21.10.2020
6535 Snow -6 1010 92 5000 3 350 04:47 21.10.2020
6536 Snow -8 1011 92 5000 2 350 00:51 21.10.2020
6537 Snow -8 1011 92 10000 2 340 23:49 20.10.2020
6538 Snow -8 1011 100 5000 2 350 22:54 20.10.2020
6539 Snow -8 1011 92 3200 2 340 22:28 20.10.2020
6540 Snow -8 1011 92 3200 2 330 21:50 20.10.2020
6541 Snow -8 1011 92 5000 2 340 21:21 20.10.2020
6542 Snow -8 1011 92 2400 2 340 20:56 20.10.2020
6543 Snow -8 1011 92 1400 2 330 20:36 20.10.2020
6544 Snow -8 1011 92 1300 2 350 20:18 20.10.2020
6545 Snow -8 1012 92 1300 3 350 19:42 20.10.2020
6546 Snow -8 1012 92 750 2 330 19:22 20.10.2020
6547 Snow -8 1012 92 3200 2 330 18:52 20.10.2020
6548 Snow -8 1012 92 3200 2 330 18:34 20.10.2020
6549 Clouds -8 1012 92 10000 2 350 17:48 20.10.2020
6550 Clouds -8 1012 92 10000 2 350 17:29 20.10.2020
6551 Clouds -8 1012 85 10000 2 350 16:48 20.10.2020
6552 Clouds -8 1012 85 10000 2 350 16:28 20.10.2020
6553 Clouds -8 1012 85 10000 2 340 15:57 20.10.2020
6554 Snow -8 1012 85 10000 2 350 15:38 20.10.2020
6555 Clouds -8 1012 85 10000 1 330 15:19 20.10.2020
6556 Clouds -9 1012 92 10000 1 330 14:41 20.10.2020
6557 Clouds -9 1012 92 10000 1 330 14:22 20.10.2020
6558 Clouds -9 1012 92 10000 2 320 13:44 20.10.2020
6559 Clouds -9 1012 92 10000 2 320 13:24 20.10.2020
6560 Clouds -9 1012 85 10000 1 330 12:58 20.10.2020
6561 Clouds -9 1012 85 10000 2 320 12:40 20.10.2020
6562 Clouds -9 1012 85 10000 2 340 12:21 20.10.2020
6563 Clouds -9 1012 85 10000 2 350 11:43 20.10.2020
6564 Clouds -9 1012 85 10000 2 350 11:25 20.10.2020
6565 Clouds -9 1012 92 10000 1 350 10:38 20.10.2020
6566 Clouds -9 1012 92 10000 1 350 10:19 20.10.2020
6567 Snow -7 1011 92 10000 1 180 09:42 20.10.2020
6568 Snow -7 1011 92 10000 1 180 09:18 20.10.2020
6569 Clouds -8 1011 92 10000 1 180 08:39 20.10.2020
6570 Snow -9 1011 92 10000 1 120 07:53 20.10.2020
6571 Snow -9 1011 92 10000 2 140 07:26 20.10.2020
6572 Snow -9 1011 92 10000 1.71 218 06:32 20.10.2020
6573 Snow -10 1011 92 10000 2.26 201 05:51 20.10.2020
6574 Clouds -12 1011 85 10000 2.01 177 03:58 20.10.2020
6575 Clouds -14 1011 92 10000 1 360 02:25 20.10.2020
6576 Mist -15 1012 92 3200 1.38 121 00:59 20.10.2020
6577 Mist -15 1012 84 3200 1 350 00:41 20.10.2020
6578 Fog -15 1012 84 1200 1.28 133 00:21 20.10.2020
6579 Fog -16 1012 91 700 1 320 23:47 19.10.2020
6580 Fog -16 1012 91 700 1 320 23:24 19.10.2020
6581 Fog -16 1012 84 150 1 330 22:44 19.10.2020
6582 Fog -16 1012 84 150 1 330 22:24 19.10.2020
6583 Fog -16 1012 84 150 1 330 22:24 19.10.2020
6584 Fog -17 1012 84 250 1 320 21:48 19.10.2020
6585 Fog -17 1012 84 250 1 320 21:22 19.10.2020
6586 Fog -18 1012 91 600 1 310 20:52 19.10.2020
6587 Fog -17 1012 84 300 1 330 20:33 19.10.2020
6588 Fog -18 1012 84 1800 1 310 19:54 19.10.2020
6589 Mist -19 1012 84 2100 1 290 19:36 19.10.2020
6590 Mist -19 1012 84 2100 2 270 19:18 19.10.2020
6591 Clouds -18 1012 84 10000 2 300 18:42 19.10.2020
6592 Clouds -18 1012 84 10000 2 270 18:18 19.10.2020
6593 Clouds -18 1012 84 10000 2 270 18:18 19.10.2020
6594 Clouds -18 1012 91 10000 2 310 17:44 19.10.2020
6595 Clouds -18 1012 91 10000 2 310 17:24 19.10.2020
6596 Clouds -17 1012 84 10000 2 290 16:46 19.10.2020
6597 Clear -17 1012 84 10000 2 290 16:28 19.10.2020
6598 Clear -14 1014 93 10000 0.52 243 15:44 19.10.2020
6599 Clear -14 1013 93 10000 0.41 272 15:25 19.10.2020
6600 Clear -14 1013 93 10000 0.41 272 14:51 19.10.2020
6601 Clouds -13 1013 93 10000 0.59 279 14:26 19.10.2020
6602 Clear -13 1013 93 10000 0.5 280 13:54 19.10.2020
6603 Clear -13 1013 93 10000 0.5 280 13:34 19.10.2020
6604 Clear -13 1013 93 10000 0.63 285 12:56 19.10.2020
6605 Clear -13 1013 93 10000 0.63 285 12:38 19.10.2020
6606 Clear -12 1013 93 10000 0.75 288 12:19 19.10.2020
6607 Clear -7 1011 67 10000 2 250 11:39 19.10.2020
6608 Clear -7 1011 67 10000 2 250 11:18 19.10.2020
6609 Clear -7 1011 67 10000 2 250 10:40 19.10.2020
6610 Clear -6 1011 62 10000 2 260 10:20 19.10.2020
6611 Clear -5 1011 57 10000 3 260 09:48 19.10.2020
6612 Clear -4 1011 58 10000 3 280 09:22 19.10.2020
6613 Clear -4 1011 53 10000 4 260 08:49 19.10.2020
6614 Clouds -4 1011 53 10000 4 260 08:23 19.10.2020
6615 Clouds -4 1011 62 10000 1 150 07:44 19.10.2020
6616 Clouds -4 1011 62 10000 1 330 07:19 19.10.2020
6617 Clouds -4 1011 62 10000 2 200 06:19 19.10.2020
6618 Clouds -7 1011 79 10000 2 210 03:50 19.10.2020
6619 Clouds -7 1011 79 10000 2 210 03:32 19.10.2020
6620 Clouds -10 1011 85 10000 3 220 00:59 19.10.2020
6621 Clouds -10 1011 85 10000 3 240 00:25 19.10.2020
6622 Clouds -11 1011 85 10000 4 220 23:48 18.10.2020
6623 Clouds -11 1011 85 10000 4 220 23:25 18.10.2020
6624 Clouds -11 1011 85 10000 4 230 22:52 18.10.2020
6625 Clouds -9 1011 85 10000 4 240 22:22 18.10.2020
6626 Clouds -9 1011 85 10000 4 240 21:56 18.10.2020
6627 Clouds -9 1011 85 10000 4 240 21:37 18.10.2020
6628 Clouds -10 1011 85 10000 2 240 21:18 18.10.2020
6629 Clouds -10 1011 85 10000 1 170 20:40 18.10.2020
6630 Clouds -10 1011 85 10000 2 180 20:19 18.10.2020
6631 Clouds -10 1011 85 10000 2 190 19:43 18.10.2020
6632 Clouds -10 1011 85 10000 2 190 19:25 18.10.2020
6633 Clouds -11 1011 85 10000 3 240 18:49 18.10.2020
6634 Clouds -11 1011 85 10000 3 240 18:28 18.10.2020
6635 Clouds -13 1011 92 10000 3 230 17:44 18.10.2020
6636 Clouds -13 1011 92 10000 3 230 17:25 18.10.2020
6637 Clouds -13 1011 92 10000 3 230 16:55 18.10.2020
6638 Clouds -12 1011 85 10000 2 230 16:37 18.10.2020
6639 Clouds -10 1011 85 10000 2 260 16:18 18.10.2020
6640 Clouds -9 1011 85 10000 2 270 15:41 18.10.2020
6641 Clouds -9 1011 85 10000 2 250 15:19 18.10.2020
6642 Clouds -9 1011 85 10000 2 250 14:54 18.10.2020
6643 Clouds -9 1011 85 10000 3 240 14:29 18.10.2020
6644 Clouds -9 1011 85 10000 3 260 13:56 18.10.2020
6645 Clouds -9 1011 85 10000 2 280 13:38 18.10.2020
6646 Clouds -9 1011 85 10000 3 260 13:19 18.10.2020
6647 Clouds -10 1011 78 10000 2 270 12:42 18.10.2020
6648 Clouds -10 1010 85 10000 3 250 12:21 18.10.2020
6649 Clouds -10 1010 85 10000 1 230 11:42 18.10.2020
6650 Clouds -10 1010 85 10000 1 230 11:23 18.10.2020
6651 Clouds -7 1010 73 10000 3 260 10:41 18.10.2020
6652 Clouds -6 1009 73 10000 3 260 10:21 18.10.2020
6653 Clouds -6 1009 73 10000 3 260 09:52 18.10.2020
6654 Clouds -6 1009 73 10000 3 290 09:25 18.10.2020
6655 Clouds -5 1009 67 10000 3 270 08:59 18.10.2020
6656 Snow -5 1008 67 10000 3 260 08:39 18.10.2020
6657 Snow -5 1008 67 10000 2 290 08:21 18.10.2020
6658 Snow -5 1008 73 10000 2 240 07:36 18.10.2020
6659 Clouds -6 1007 79 10000 2 260 05:33 18.10.2020
6660 Snow -8 1007 85 10000 3 250 03:21 18.10.2020
6661 Clouds -10 1007 92 10000 3 250 02:19 18.10.2020
6662 Clouds -11 1007 85 10000 3 250 01:23 18.10.2020
6663 Clouds -10 1006 85 10000 3 240 00:35 18.10.2020
6664 Snow -9 1006 92 10000 3 230 23:57 17.10.2020
6665 Snow -8 1006 85 10000 4 230 23:38 17.10.2020
6666 Snow -7 1006 85 10000 3 240 23:20 17.10.2020
6667 Snow -7 1006 85 10000 4 240 22:45 17.10.2020
6668 Snow -7 1006 85 10000 3 240 22:20 17.10.2020
6669 Snow -7 1006 85 10000 3 240 21:59 17.10.2020
6670 Snow -7 1006 85 10000 3 230 21:40 17.10.2020
6671 Snow -7 1006 85 10000 3 230 21:20 17.10.2020
6672 Snow -7 1006 85 10000 3 230 20:43 17.10.2020
6673 Snow -7 1006 85 10000 3 240 20:19 17.10.2020
6674 Snow -7 1006 85 10000 3 230 19:43 17.10.2020
6675 Clouds -7 1006 85 10000 3 220 19:21 17.10.2020
6676 Clouds -8 1006 92 10000 3 210 18:45 17.10.2020
6677 Clouds -8 1006 92 10000 3 210 18:25 17.10.2020
6678 Clouds -7 1006 85 10000 2 200 17:50 17.10.2020
6679 Clouds -7 1006 85 10000 2 200 17:23 17.10.2020
6680 Clouds -8 1006 92 10000 2 170 16:51 17.10.2020
6681 Clouds -9 1006 85 10000 2 240 16:24 17.10.2020
6682 Clouds -9 1006 85 10000 3 230 15:59 17.10.2020
6683 Clouds -7 1005 79 10000 3 240 15:40 17.10.2020
6684 Clouds -6 1005 79 10000 4 230 15:21 17.10.2020
6685 Clouds -6 1005 79 10000 4 230 14:55 17.10.2020
6686 Snow -6 1005 85 10000 3 240 14:37 17.10.2020
6687 Snow -6 1005 85 10000 3 240 14:18 17.10.2020
6688 Snow -6 1005 85 10000 3 240 13:41 17.10.2020
6689 Snow -6 1005 85 10000 3 230 13:22 17.10.2020
6690 Snow -6 1005 85 10000 2 230 12:41 17.10.2020
6691 Snow -6 1005 85 10000 3 240 12:20 17.10.2020
6692 Snow -6 1005 85 10000 3 240 11:58 17.10.2020
6693 Snow -6 1005 85 10000 3 250 11:30 17.10.2020
6694 Snow -5 1005 79 10000 4 240 10:46 17.10.2020
6695 Snow -5 1005 79 10000 4 240 10:26 17.10.2020
6696 Clouds -5 1004 79 10000 5 250 09:46 17.10.2020
6697 Clouds -5 1004 79 10000 5 250 09:27 17.10.2020
6698 Snow -4 1004 73 10000 5 250 08:47 17.10.2020
6699 Snow -4 1003 73 10000 5 270 08:21 17.10.2020
6700 Snow -4 1003 79 10000 5 270 07:43 17.10.2020
6701 Snow -6 1003 92 5000 2 130 06:47 17.10.2020
6702 Snow -7 1002 92 5000 1 150 04:53 17.10.2020
6703 Snow -9 1002 85 3200 1 320 02:30 17.10.2020
6704 Snow -10 1001 92 10000 2 310 01:24 17.10.2020
6705 Snow -10 1001 92 10000 2 320 00:38 17.10.2020
6706 Snow -10 1000 92 5000 3 340 23:40 16.10.2020
6707 Snow -10 1000 92 5000 3 350 23:21 16.10.2020
6708 Snow -10 999 92 5000 3 340 22:43 16.10.2020
6709 Snow -10 999 92 5000 3 340 22:23 16.10.2020
6710 Snow -9 999 85 5000 3 350 21:48 16.10.2020
6711 Snow -9 999 85 5000 3 350 21:26 16.10.2020
6712 Snow -9 998 92 10000 3 20 20:47 16.10.2020
6713 Snow -9 998 92 10000 3 20 20:47 16.10.2020
6714 Snow -9 998 92 10000 3 20 20:47 16.10.2020
6715 Snow -9 998 92 10000 3 20 20:27 16.10.2020
6716 Snow -8 998 85 10000 3 20 19:58 16.10.2020
6717 Snow -8 998 92 10000 3 30 19:39 16.10.2020
6718 Snow -8 998 92 10000 4 30 19:21 16.10.2020
6719 Snow -8 998 92 10000 3 30 18:43 16.10.2020
6720 Snow -8 998 92 10000 3 30 18:24 16.10.2020
6721 Snow -7 997 92 5000 3 50 17:45 16.10.2020
6722 Snow -7 997 92 5000 3 50 17:25 16.10.2020
6723 Snow -7 997 92 5000 2 60 16:47 16.10.2020
6724 Snow -7 997 92 5000 2 60 16:28 16.10.2020
6725 Snow -7 997 92 5000 3 90 15:36 16.10.2020
6726 Snow -6 997 85 5000 3 80 15:18 16.10.2020
6727 Snow -6 997 85 5000 3 90 14:41 16.10.2020
6728 Snow -6 997 85 10000 4 90 14:19 16.10.2020
6729 Snow -6 997 85 10000 4 90 13:51 16.10.2020
6730 Snow -6 997 85 10000 3 90 13:25 16.10.2020
6731 Snow -6 997 85 10000 3 90 12:59 16.10.2020
6732 Snow -6 997 85 10000 4 90 12:37 16.10.2020
6733 Snow -6 997 85 10000 4 90 12:18 16.10.2020
6734 Snow -5 997 79 10000 4 90 11:42 16.10.2020
6735 Snow -5 997 85 10000 4 90 11:21 16.10.2020
6736 Clouds -4 996 79 10000 3 100 10:48 16.10.2020
6737 Clouds -4 996 79 10000 3 100 10:30 16.10.2020
6738 Clouds -4 996 79 10000 4 100 09:41 16.10.2020
6739 Clouds -4 996 79 10000 4 100 09:23 16.10.2020
6740 Clouds -4 996 79 10000 4 100 08:52 16.10.2020
6741 Clouds -4 996 79 10000 3 90 08:34 16.10.2020
6742 Clouds -4 996 79 10000 4 90 07:51 16.10.2020
6743 Clouds -4 996 79 10000 4 80 07:30 16.10.2020
6744 Clouds -4 997 79 10000 3 80 06:37 16.10.2020
6745 Clouds -6 997 85 10000 2 60 04:34 16.10.2020
6746 Clouds -7 998 92 10000 2 90 02:26 16.10.2020
6747 Snow -7 998 92 3200 2 110 00:54 16.10.2020
6748 Snow -7 998 92 5000 2 110 00:24 16.10.2020
6749 Snow -7 999 92 3200 2 120 23:40 15.10.2020
6750 Snow -6 999 92 2100 2 130 23:20 15.10.2020
6751 Snow -7 999 100 2100 3 130 22:50 15.10.2020
6752 Snow -7 999 100 2100 3 130 22:26 15.10.2020
6753 Snow -6 999 92 1500 2 120 21:55 15.10.2020
6754 Snow -6 999 92 1500 2 150 21:36 15.10.2020
6755 Snow -7 999 100 10000 1 150 21:18 15.10.2020
6756 Snow -7 999 100 5000 2 170 20:44 15.10.2020
6757 Snow -7 1000 100 3200 2 160 20:20 15.10.2020
6758 Snow -7 1000 100 3200 2 160 19:43 15.10.2020
6759 Snow -7 1000 92 3200 1 170 19:23 15.10.2020
6760 Snow -7 1000 92 2100 2 210 18:45 15.10.2020
6761 Snow -7 1000 92 2100 2 210 18:26 15.10.2020
6762 Snow -7 1000 92 5000 2 220 17:58 15.10.2020
6763 Snow -7